<?xml version="1.0" encoding="UTF-8" standalone="no" ?>
<gpx xmlns="http://www.topografix.com/GPX/1/1" xmlns:xsi="http://www.w3.org/2001/XMLSchema-instance" xsi:schemaLocation="http://www.topografix.com/GPX/1/1 http://www.topografix.com/GPX/1/1/gpx.xsd" version="1.1" creator="VisuGPX - https://www.visugpx.com">
  <metadata>
    <name>Pornichet 25/04/2021</name>
    <desc><![CDATA[Sortie VTT du jeudi 25 avril 2021]]></desc>
  </metadata>
  <trk>
    <name><![CDATA[Pornichet Cyclisme]]></name>
    <trkseg>
      <trkpt lat="47.26403" lon="-2.31574">
        <ele>9.5</ele>
        <time>2021-04-25T07:10:15.000Z</time>
      </trkpt>
      <trkpt lat="47.26402" lon="-2.31594">
        <ele>9.5</ele>
        <time>2021-04-25T07:10:19.000Z</time>
      </trkpt>
      <trkpt lat="47.26401" lon="-2.31599">
        <ele>-0.20000000298023</ele>
        <time>2021-04-25T07:10:20.000Z</time>
      </trkpt>
      <trkpt lat="47.26399" lon="-2.31602">
        <ele>-0.20000000298023</ele>
        <time>2021-04-25T07:10:21.000Z</time>
      </trkpt>
      <trkpt lat="47.26388" lon="-2.31605">
        <ele>-0.20000000298023</ele>
        <time>2021-04-25T07:10:24.000Z</time>
      </trkpt>
      <trkpt lat="47.26384" lon="-2.31605">
        <ele>-0.20000000298023</ele>
        <time>2021-04-25T07:10:25.000Z</time>
      </trkpt>
      <trkpt lat="47.26372" lon="-2.31605">
        <ele>-0.20000000298023</ele>
        <time>2021-04-25T07:10:28.000Z</time>
      </trkpt>
      <trkpt lat="47.26363" lon="-2.31608">
        <ele>-0.20000000298023</ele>
        <time>2021-04-25T07:10:30.000Z</time>
      </trkpt>
      <trkpt lat="47.26334" lon="-2.31618">
        <ele>-0.20000000298023</ele>
        <time>2021-04-25T07:10:36.000Z</time>
      </trkpt>
      <trkpt lat="47.26327" lon="-2.31617">
        <ele>-1</ele>
        <time>2021-04-25T07:10:38.000Z</time>
      </trkpt>
      <trkpt lat="47.26325" lon="-2.31613">
        <ele>-1.3999999761581</ele>
        <time>2021-04-25T07:10:39.000Z</time>
      </trkpt>
      <trkpt lat="47.26323" lon="-2.31609">
        <ele>-1.7999999523163</ele>
        <time>2021-04-25T07:10:40.000Z</time>
      </trkpt>
      <trkpt lat="47.26321" lon="-2.31606">
        <ele>-2.2000000476837</ele>
        <time>2021-04-25T07:10:41.000Z</time>
      </trkpt>
      <trkpt lat="47.26318" lon="-2.31604">
        <ele>-2.2000000476837</ele>
        <time>2021-04-25T07:10:43.000Z</time>
      </trkpt>
      <trkpt lat="47.26318" lon="-2.31603">
        <ele>-2.2000000476837</ele>
        <time>2021-04-25T07:10:46.000Z</time>
      </trkpt>
      <trkpt lat="47.26314" lon="-2.31604">
        <ele>-2.2000000476837</ele>
        <time>2021-04-25T07:11:16.000Z</time>
      </trkpt>
      <trkpt lat="47.26317" lon="-2.31613">
        <ele>-2.2000000476837</ele>
        <time>2021-04-25T07:11:20.000Z</time>
      </trkpt>
      <trkpt lat="47.26316" lon="-2.31626">
        <ele>-2.2000000476837</ele>
        <time>2021-04-25T07:11:23.000Z</time>
      </trkpt>
      <trkpt lat="47.26315" lon="-2.31631">
        <ele>-2.2000000476837</ele>
        <time>2021-04-25T07:11:24.000Z</time>
      </trkpt>
      <trkpt lat="47.26318" lon="-2.31652">
        <ele>-2.2000000476837</ele>
        <time>2021-04-25T07:11:28.000Z</time>
      </trkpt>
      <trkpt lat="47.26327" lon="-2.31693">
        <ele>-2.2000000476837</ele>
        <time>2021-04-25T07:11:36.000Z</time>
      </trkpt>
      <trkpt lat="47.26328" lon="-2.31704">
        <ele>-2.2000000476837</ele>
        <time>2021-04-25T07:11:39.000Z</time>
      </trkpt>
      <trkpt lat="47.26327" lon="-2.31707">
        <ele>-2.2000000476837</ele>
        <time>2021-04-25T07:11:40.000Z</time>
      </trkpt>
      <trkpt lat="47.26318" lon="-2.31712">
        <ele>-2.2000000476837</ele>
        <time>2021-04-25T07:11:43.000Z</time>
      </trkpt>
      <trkpt lat="47.26314" lon="-2.31714">
        <ele>-2.2000000476837</ele>
        <time>2021-04-25T07:11:44.000Z</time>
      </trkpt>
      <trkpt lat="47.26299" lon="-2.31723">
        <ele>-2.5999999046326</ele>
        <time>2021-04-25T07:11:48.000Z</time>
      </trkpt>
      <trkpt lat="47.26297" lon="-2.31727">
        <ele>-3.4000000953674</ele>
        <time>2021-04-25T07:11:49.000Z</time>
      </trkpt>
      <trkpt lat="47.26295" lon="-2.31732">
        <ele>-3.7999999523163</ele>
        <time>2021-04-25T07:11:50.000Z</time>
      </trkpt>
      <trkpt lat="47.26294" lon="-2.31736">
        <ele>-4.1999998092651</ele>
        <time>2021-04-25T07:11:51.000Z</time>
      </trkpt>
      <trkpt lat="47.26294" lon="-2.31745">
        <ele>-4.1999998092651</ele>
        <time>2021-04-25T07:11:53.000Z</time>
      </trkpt>
      <trkpt lat="47.26296" lon="-2.31757">
        <ele>-4.1999998092651</ele>
        <time>2021-04-25T07:11:55.000Z</time>
      </trkpt>
      <trkpt lat="47.26298" lon="-2.31775">
        <ele>-4.1999998092651</ele>
        <time>2021-04-25T07:11:58.000Z</time>
      </trkpt>
      <trkpt lat="47.26295" lon="-2.3181">
        <ele>-4.1999998092651</ele>
        <time>2021-04-25T07:12:04.000Z</time>
      </trkpt>
      <trkpt lat="47.26292" lon="-2.31844">
        <ele>-4.1999998092651</ele>
        <time>2021-04-25T07:12:10.000Z</time>
      </trkpt>
      <trkpt lat="47.26289" lon="-2.31872">
        <ele>-4.1999998092651</ele>
        <time>2021-04-25T07:12:15.000Z</time>
      </trkpt>
      <trkpt lat="47.26281" lon="-2.31879">
        <ele>-4.1999998092651</ele>
        <time>2021-04-25T07:12:18.000Z</time>
      </trkpt>
      <trkpt lat="47.26269" lon="-2.31886">
        <ele>-4.1999998092651</ele>
        <time>2021-04-25T07:12:22.000Z</time>
      </trkpt>
      <trkpt lat="47.26255" lon="-2.31904">
        <ele>-4.1999998092651</ele>
        <time>2021-04-25T07:12:27.000Z</time>
      </trkpt>
      <trkpt lat="47.26243" lon="-2.31922">
        <ele>-4.1999998092651</ele>
        <time>2021-04-25T07:12:32.000Z</time>
      </trkpt>
      <trkpt lat="47.26233" lon="-2.31941">
        <ele>-4.1999998092651</ele>
        <time>2021-04-25T07:12:37.000Z</time>
      </trkpt>
      <trkpt lat="47.26227" lon="-2.31943">
        <ele>-4.1999998092651</ele>
        <time>2021-04-25T07:12:39.000Z</time>
      </trkpt>
      <trkpt lat="47.26221" lon="-2.31944">
        <ele>-4.1999998092651</ele>
        <time>2021-04-25T07:12:41.000Z</time>
      </trkpt>
      <trkpt lat="47.26212" lon="-2.31952">
        <ele>-4.1999998092651</ele>
        <time>2021-04-25T07:12:45.000Z</time>
      </trkpt>
      <trkpt lat="47.26207" lon="-2.31958">
        <ele>-4.1999998092651</ele>
        <time>2021-04-25T07:12:47.000Z</time>
      </trkpt>
      <trkpt lat="47.26194" lon="-2.31969">
        <ele>-4.1999998092651</ele>
        <time>2021-04-25T07:12:52.000Z</time>
      </trkpt>
      <trkpt lat="47.26188" lon="-2.31983">
        <ele>-4.1999998092651</ele>
        <time>2021-04-25T07:12:57.000Z</time>
      </trkpt>
      <trkpt lat="47.26178" lon="-2.31983">
        <ele>-4.1999998092651</ele>
        <time>2021-04-25T07:13:02.000Z</time>
      </trkpt>
      <trkpt lat="47.26169" lon="-2.31987">
        <ele>-4.1999998092651</ele>
        <time>2021-04-25T07:13:05.000Z</time>
      </trkpt>
      <trkpt lat="47.26163" lon="-2.3199">
        <ele>-4.1999998092651</ele>
        <time>2021-04-25T07:13:07.000Z</time>
      </trkpt>
      <trkpt lat="47.26149" lon="-2.32011">
        <ele>-4.1999998092651</ele>
        <time>2021-04-25T07:13:12.000Z</time>
      </trkpt>
      <trkpt lat="47.26135" lon="-2.32044">
        <ele>-4.1999998092651</ele>
        <time>2021-04-25T07:13:18.000Z</time>
      </trkpt>
      <trkpt lat="47.26124" lon="-2.32095">
        <ele>-4.1999998092651</ele>
        <time>2021-04-25T07:13:25.000Z</time>
      </trkpt>
      <trkpt lat="47.26121" lon="-2.32112">
        <ele>-4.1999998092651</ele>
        <time>2021-04-25T07:13:27.000Z</time>
      </trkpt>
      <trkpt lat="47.26112" lon="-2.32141">
        <ele>-4.1999998092651</ele>
        <time>2021-04-25T07:13:31.000Z</time>
      </trkpt>
      <trkpt lat="47.26091" lon="-2.32195">
        <ele>-4.1999998092651</ele>
        <time>2021-04-25T07:13:39.000Z</time>
      </trkpt>
      <trkpt lat="47.2607" lon="-2.32226">
        <ele>-4.1999998092651</ele>
        <time>2021-04-25T07:13:45.000Z</time>
      </trkpt>
      <trkpt lat="47.26044" lon="-2.32256">
        <ele>-4.1999998092651</ele>
        <time>2021-04-25T07:13:52.000Z</time>
      </trkpt>
      <trkpt lat="47.26014" lon="-2.3229">
        <ele>-4.1999998092651</ele>
        <time>2021-04-25T07:14:00.000Z</time>
      </trkpt>
      <trkpt lat="47.25984" lon="-2.32331">
        <ele>-4.1999998092651</ele>
        <time>2021-04-25T07:14:08.000Z</time>
      </trkpt>
      <trkpt lat="47.25956" lon="-2.32373">
        <ele>-4.1999998092651</ele>
        <time>2021-04-25T07:14:16.000Z</time>
      </trkpt>
      <trkpt lat="47.25932" lon="-2.32409">
        <ele>-4.1999998092651</ele>
        <time>2021-04-25T07:14:23.000Z</time>
      </trkpt>
      <trkpt lat="47.25908" lon="-2.3244">
        <ele>-4.1999998092651</ele>
        <time>2021-04-25T07:14:30.000Z</time>
      </trkpt>
      <trkpt lat="47.25898" lon="-2.32458">
        <ele>-4.1999998092651</ele>
        <time>2021-04-25T07:14:34.000Z</time>
      </trkpt>
      <trkpt lat="47.25898" lon="-2.32462">
        <ele>-4.1999998092651</ele>
        <time>2021-04-25T07:14:35.000Z</time>
      </trkpt>
      <trkpt lat="47.25907" lon="-2.32471">
        <ele>-4.1999998092651</ele>
        <time>2021-04-25T07:14:38.000Z</time>
      </trkpt>
      <trkpt lat="47.2592" lon="-2.3249">
        <ele>-4.1999998092651</ele>
        <time>2021-04-25T07:14:42.000Z</time>
      </trkpt>
      <trkpt lat="47.25925" lon="-2.32503">
        <ele>-4.1999998092651</ele>
        <time>2021-04-25T07:14:44.000Z</time>
      </trkpt>
      <trkpt lat="47.25932" lon="-2.32529">
        <ele>-4.1999998092651</ele>
        <time>2021-04-25T07:14:48.000Z</time>
      </trkpt>
      <trkpt lat="47.25939" lon="-2.32554">
        <ele>-4.1999998092651</ele>
        <time>2021-04-25T07:14:52.000Z</time>
      </trkpt>
      <trkpt lat="47.25944" lon="-2.32573">
        <ele>-4.1999998092651</ele>
        <time>2021-04-25T07:14:55.000Z</time>
      </trkpt>
      <trkpt lat="47.25955" lon="-2.32618">
        <ele>-4.1999998092651</ele>
        <time>2021-04-25T07:15:02.000Z</time>
      </trkpt>
      <trkpt lat="47.25956" lon="-2.32625">
        <ele>-4.1999998092651</ele>
        <time>2021-04-25T07:15:03.000Z</time>
      </trkpt>
      <trkpt lat="47.25956" lon="-2.32646">
        <ele>-4.1999998092651</ele>
        <time>2021-04-25T07:15:06.000Z</time>
      </trkpt>
      <trkpt lat="47.25958" lon="-2.32651">
        <ele>-4.1999998092651</ele>
        <time>2021-04-25T07:15:07.000Z</time>
      </trkpt>
      <trkpt lat="47.25965" lon="-2.32653">
        <ele>-4.1999998092651</ele>
        <time>2021-04-25T07:15:09.000Z</time>
      </trkpt>
      <trkpt lat="47.25968" lon="-2.32652">
        <ele>-4.1999998092651</ele>
        <time>2021-04-25T07:15:10.000Z</time>
      </trkpt>
      <trkpt lat="47.25985" lon="-2.32654">
        <ele>-4.1999998092651</ele>
        <time>2021-04-25T07:15:14.000Z</time>
      </trkpt>
      <trkpt lat="47.26018" lon="-2.3265">
        <ele>-4.1999998092651</ele>
        <time>2021-04-25T07:15:22.000Z</time>
      </trkpt>
      <trkpt lat="47.26044" lon="-2.32647">
        <ele>-3.7999999523163</ele>
        <time>2021-04-25T07:15:28.000Z</time>
      </trkpt>
      <trkpt lat="47.26048" lon="-2.32646">
        <ele>-3.4000000953674</ele>
        <time>2021-04-25T07:15:29.000Z</time>
      </trkpt>
      <trkpt lat="47.26052" lon="-2.32646">
        <ele>-3</ele>
        <time>2021-04-25T07:15:30.000Z</time>
      </trkpt>
      <trkpt lat="47.26056" lon="-2.32645">
        <ele>-2.5999999046326</ele>
        <time>2021-04-25T07:15:31.000Z</time>
      </trkpt>
      <trkpt lat="47.2606" lon="-2.32644">
        <ele>-2.2000000476837</ele>
        <time>2021-04-25T07:15:32.000Z</time>
      </trkpt>
      <trkpt lat="47.26089" lon="-2.32639">
        <ele>-2.2000000476837</ele>
        <time>2021-04-25T07:15:39.000Z</time>
      </trkpt>
      <trkpt lat="47.26128" lon="-2.32639">
        <ele>-2.2000000476837</ele>
        <time>2021-04-25T07:15:48.000Z</time>
      </trkpt>
      <trkpt lat="47.26164" lon="-2.32654">
        <ele>-2.2000000476837</ele>
        <time>2021-04-25T07:15:56.000Z</time>
      </trkpt>
      <trkpt lat="47.26169" lon="-2.32657">
        <ele>-2.2000000476837</ele>
        <time>2021-04-25T07:15:57.000Z</time>
      </trkpt>
      <trkpt lat="47.26191" lon="-2.32675">
        <ele>-2.2000000476837</ele>
        <time>2021-04-25T07:16:02.000Z</time>
      </trkpt>
      <trkpt lat="47.26219" lon="-2.32706">
        <ele>-2.2000000476837</ele>
        <time>2021-04-25T07:16:09.000Z</time>
      </trkpt>
      <trkpt lat="47.26244" lon="-2.32744">
        <ele>-2.2000000476837</ele>
        <time>2021-04-25T07:16:16.000Z</time>
      </trkpt>
      <trkpt lat="47.26259" lon="-2.32767">
        <ele>-2.2000000476837</ele>
        <time>2021-04-25T07:16:20.000Z</time>
      </trkpt>
      <trkpt lat="47.2627" lon="-2.32787">
        <ele>-2.2000000476837</ele>
        <time>2021-04-25T07:16:23.000Z</time>
      </trkpt>
      <trkpt lat="47.26276" lon="-2.32801">
        <ele>-2.5999999046326</ele>
        <time>2021-04-25T07:16:25.000Z</time>
      </trkpt>
      <trkpt lat="47.26278" lon="-2.32809">
        <ele>-3</ele>
        <time>2021-04-25T07:16:26.000Z</time>
      </trkpt>
      <trkpt lat="47.26281" lon="-2.32817">
        <ele>-3.5999999046326</ele>
        <time>2021-04-25T07:16:27.000Z</time>
      </trkpt>
      <trkpt lat="47.26283" lon="-2.32824">
        <ele>-4</ele>
        <time>2021-04-25T07:16:28.000Z</time>
      </trkpt>
      <trkpt lat="47.26284" lon="-2.32832">
        <ele>-4.4000000953674</ele>
        <time>2021-04-25T07:16:29.000Z</time>
      </trkpt>
      <trkpt lat="47.26284" lon="-2.3284">
        <ele>-4.4000000953674</ele>
        <time>2021-04-25T07:16:30.000Z</time>
      </trkpt>
      <trkpt lat="47.26293" lon="-2.32859">
        <ele>-4.4000000953674</ele>
        <time>2021-04-25T07:16:33.000Z</time>
      </trkpt>
      <trkpt lat="47.26307" lon="-2.32867">
        <ele>-4.4000000953674</ele>
        <time>2021-04-25T07:16:36.000Z</time>
      </trkpt>
      <trkpt lat="47.26315" lon="-2.32874">
        <ele>-4.4000000953674</ele>
        <time>2021-04-25T07:16:38.000Z</time>
      </trkpt>
      <trkpt lat="47.2632" lon="-2.32886">
        <ele>-4.4000000953674</ele>
        <time>2021-04-25T07:16:40.000Z</time>
      </trkpt>
      <trkpt lat="47.26325" lon="-2.32899">
        <ele>-4.4000000953674</ele>
        <time>2021-04-25T07:16:42.000Z</time>
      </trkpt>
      <trkpt lat="47.26335" lon="-2.32933">
        <ele>-4.4000000953674</ele>
        <time>2021-04-25T07:16:47.000Z</time>
      </trkpt>
      <trkpt lat="47.26343" lon="-2.3296">
        <ele>-4.4000000953674</ele>
        <time>2021-04-25T07:16:51.000Z</time>
      </trkpt>
      <trkpt lat="47.26349" lon="-2.32972">
        <ele>-4.4000000953674</ele>
        <time>2021-04-25T07:16:53.000Z</time>
      </trkpt>
      <trkpt lat="47.26363" lon="-2.32992">
        <ele>-4.4000000953674</ele>
        <time>2021-04-25T07:16:57.000Z</time>
      </trkpt>
      <trkpt lat="47.26364" lon="-2.33012">
        <ele>-4.4000000953674</ele>
        <time>2021-04-25T07:17:00.000Z</time>
      </trkpt>
      <trkpt lat="47.26364" lon="-2.3302">
        <ele>-4.4000000953674</ele>
        <time>2021-04-25T07:17:01.000Z</time>
      </trkpt>
      <trkpt lat="47.26365" lon="-2.33026">
        <ele>-4.4000000953674</ele>
        <time>2021-04-25T07:17:02.000Z</time>
      </trkpt>
      <trkpt lat="47.26367" lon="-2.33056">
        <ele>-4.4000000953674</ele>
        <time>2021-04-25T07:17:06.000Z</time>
      </trkpt>
      <trkpt lat="47.2637" lon="-2.33115">
        <ele>-4.4000000953674</ele>
        <time>2021-04-25T07:17:14.000Z</time>
      </trkpt>
      <trkpt lat="47.26375" lon="-2.33188">
        <ele>-4.4000000953674</ele>
        <time>2021-04-25T07:17:24.000Z</time>
      </trkpt>
      <trkpt lat="47.26381" lon="-2.3325">
        <ele>-4.4000000953674</ele>
        <time>2021-04-25T07:17:33.000Z</time>
      </trkpt>
      <trkpt lat="47.26384" lon="-2.33257">
        <ele>-4.4000000953674</ele>
        <time>2021-04-25T07:17:34.000Z</time>
      </trkpt>
      <trkpt lat="47.26391" lon="-2.33265">
        <ele>-4.4000000953674</ele>
        <time>2021-04-25T07:17:36.000Z</time>
      </trkpt>
      <trkpt lat="47.2641" lon="-2.33269">
        <ele>-4.4000000953674</ele>
        <time>2021-04-25T07:17:40.000Z</time>
      </trkpt>
      <trkpt lat="47.26449" lon="-2.33273">
        <ele>-4.4000000953674</ele>
        <time>2021-04-25T07:17:49.000Z</time>
      </trkpt>
      <trkpt lat="47.26457" lon="-2.33274">
        <ele>-4.4000000953674</ele>
        <time>2021-04-25T07:17:51.000Z</time>
      </trkpt>
      <trkpt lat="47.26474" lon="-2.33278">
        <ele>-4.4000000953674</ele>
        <time>2021-04-25T07:17:55.000Z</time>
      </trkpt>
      <trkpt lat="47.26503" lon="-2.33285">
        <ele>-4.4000000953674</ele>
        <time>2021-04-25T07:18:02.000Z</time>
      </trkpt>
      <trkpt lat="47.26507" lon="-2.33288">
        <ele>-4.4000000953674</ele>
        <time>2021-04-25T07:18:03.000Z</time>
      </trkpt>
      <trkpt lat="47.26528" lon="-2.33291">
        <ele>-4.4000000953674</ele>
        <time>2021-04-25T07:18:08.000Z</time>
      </trkpt>
      <trkpt lat="47.26531" lon="-2.33294">
        <ele>-4.4000000953674</ele>
        <time>2021-04-25T07:18:11.000Z</time>
      </trkpt>
      <trkpt lat="47.2654" lon="-2.33299">
        <ele>-4.4000000953674</ele>
        <time>2021-04-25T07:18:15.000Z</time>
      </trkpt>
      <trkpt lat="47.26546" lon="-2.33291">
        <ele>-4.4000000953674</ele>
        <time>2021-04-25T07:18:17.000Z</time>
      </trkpt>
      <trkpt lat="47.26549" lon="-2.33288">
        <ele>-4.4000000953674</ele>
        <time>2021-04-25T07:18:18.000Z</time>
      </trkpt>
      <trkpt lat="47.26579" lon="-2.33257">
        <ele>-4.4000000953674</ele>
        <time>2021-04-25T07:18:26.000Z</time>
      </trkpt>
      <trkpt lat="47.26613" lon="-2.33223">
        <ele>-4.4000000953674</ele>
        <time>2021-04-25T07:18:35.000Z</time>
      </trkpt>
      <trkpt lat="47.26635" lon="-2.33201">
        <ele>-4.4000000953674</ele>
        <time>2021-04-25T07:18:41.000Z</time>
      </trkpt>
      <trkpt lat="47.26638" lon="-2.33197">
        <ele>-4.4000000953674</ele>
        <time>2021-04-25T07:18:42.000Z</time>
      </trkpt>
      <trkpt lat="47.26665" lon="-2.3317">
        <ele>-4.4000000953674</ele>
        <time>2021-04-25T07:18:50.000Z</time>
      </trkpt>
      <trkpt lat="47.26693" lon="-2.3314">
        <ele>-4.4000000953674</ele>
        <time>2021-04-25T07:18:58.000Z</time>
      </trkpt>
      <trkpt lat="47.26713" lon="-2.33119">
        <ele>-4.4000000953674</ele>
        <time>2021-04-25T07:19:04.000Z</time>
      </trkpt>
      <trkpt lat="47.26736" lon="-2.33094">
        <ele>-4.4000000953674</ele>
        <time>2021-04-25T07:19:11.000Z</time>
      </trkpt>
      <trkpt lat="47.2675" lon="-2.33088">
        <ele>-4.4000000953674</ele>
        <time>2021-04-25T07:19:15.000Z</time>
      </trkpt>
      <trkpt lat="47.2676" lon="-2.33105">
        <ele>-4.4000000953674</ele>
        <time>2021-04-25T07:19:18.000Z</time>
      </trkpt>
      <trkpt lat="47.26761" lon="-2.33135">
        <ele>-4.4000000953674</ele>
        <time>2021-04-25T07:19:22.000Z</time>
      </trkpt>
      <trkpt lat="47.26758" lon="-2.3315">
        <ele>-4.4000000953674</ele>
        <time>2021-04-25T07:19:24.000Z</time>
      </trkpt>
      <trkpt lat="47.26753" lon="-2.33169">
        <ele>-4.4000000953674</ele>
        <time>2021-04-25T07:19:27.000Z</time>
      </trkpt>
      <trkpt lat="47.2674" lon="-2.3321">
        <ele>-4.4000000953674</ele>
        <time>2021-04-25T07:19:34.000Z</time>
      </trkpt>
      <trkpt lat="47.26727" lon="-2.33254">
        <ele>-4.4000000953674</ele>
        <time>2021-04-25T07:19:41.000Z</time>
      </trkpt>
      <trkpt lat="47.2673" lon="-2.33285">
        <ele>-4.4000000953674</ele>
        <time>2021-04-25T07:19:45.000Z</time>
      </trkpt>
      <trkpt lat="47.26738" lon="-2.33308">
        <ele>-4.4000000953674</ele>
        <time>2021-04-25T07:19:48.000Z</time>
      </trkpt>
      <trkpt lat="47.26744" lon="-2.3333">
        <ele>-4.4000000953674</ele>
        <time>2021-04-25T07:19:51.000Z</time>
      </trkpt>
      <trkpt lat="47.26746" lon="-2.33345">
        <ele>-4.4000000953674</ele>
        <time>2021-04-25T07:19:53.000Z</time>
      </trkpt>
      <trkpt lat="47.2675" lon="-2.33375">
        <ele>-4.4000000953674</ele>
        <time>2021-04-25T07:19:57.000Z</time>
      </trkpt>
      <trkpt lat="47.26756" lon="-2.33431">
        <ele>-4.4000000953674</ele>
        <time>2021-04-25T07:20:04.000Z</time>
      </trkpt>
      <trkpt lat="47.26766" lon="-2.33482">
        <ele>-4.4000000953674</ele>
        <time>2021-04-25T07:20:11.000Z</time>
      </trkpt>
      <trkpt lat="47.26776" lon="-2.33539">
        <ele>-4.4000000953674</ele>
        <time>2021-04-25T07:20:19.000Z</time>
      </trkpt>
      <trkpt lat="47.2678" lon="-2.33587">
        <ele>-4.4000000953674</ele>
        <time>2021-04-25T07:20:26.000Z</time>
      </trkpt>
      <trkpt lat="47.2678" lon="-2.33614">
        <ele>-4.4000000953674</ele>
        <time>2021-04-25T07:20:30.000Z</time>
      </trkpt>
      <trkpt lat="47.2678" lon="-2.33636">
        <ele>-4.4000000953674</ele>
        <time>2021-04-25T07:20:33.000Z</time>
      </trkpt>
      <trkpt lat="47.26778" lon="-2.33681">
        <ele>-4.4000000953674</ele>
        <time>2021-04-25T07:20:40.000Z</time>
      </trkpt>
      <trkpt lat="47.26787" lon="-2.33709">
        <ele>-4.4000000953674</ele>
        <time>2021-04-25T07:20:45.000Z</time>
      </trkpt>
      <trkpt lat="47.2679" lon="-2.33714">
        <ele>-4</ele>
        <time>2021-04-25T07:20:46.000Z</time>
      </trkpt>
      <trkpt lat="47.26794" lon="-2.33717">
        <ele>-3.5999999046326</ele>
        <time>2021-04-25T07:20:47.000Z</time>
      </trkpt>
      <trkpt lat="47.26798" lon="-2.33721">
        <ele>-3.2000000476837</ele>
        <time>2021-04-25T07:20:48.000Z</time>
      </trkpt>
      <trkpt lat="47.26802" lon="-2.33726">
        <ele>-2.7999999523163</ele>
        <time>2021-04-25T07:20:49.000Z</time>
      </trkpt>
      <trkpt lat="47.26806" lon="-2.3373">
        <ele>-2.4000000953674</ele>
        <time>2021-04-25T07:20:50.000Z</time>
      </trkpt>
      <trkpt lat="47.26831" lon="-2.33762">
        <ele>-2.4000000953674</ele>
        <time>2021-04-25T07:20:57.000Z</time>
      </trkpt>
      <trkpt lat="47.26848" lon="-2.33777">
        <ele>-2.4000000953674</ele>
        <time>2021-04-25T07:21:01.000Z</time>
      </trkpt>
      <trkpt lat="47.26857" lon="-2.33779">
        <ele>-2.4000000953674</ele>
        <time>2021-04-25T07:21:03.000Z</time>
      </trkpt>
      <trkpt lat="47.26862" lon="-2.33781">
        <ele>-2.4000000953674</ele>
        <time>2021-04-25T07:21:04.000Z</time>
      </trkpt>
      <trkpt lat="47.26889" lon="-2.33794">
        <ele>-2.4000000953674</ele>
        <time>2021-04-25T07:21:10.000Z</time>
      </trkpt>
      <trkpt lat="47.26899" lon="-2.33816">
        <ele>-2.4000000953674</ele>
        <time>2021-04-25T07:21:14.000Z</time>
      </trkpt>
      <trkpt lat="47.269" lon="-2.33823">
        <ele>-2.4000000953674</ele>
        <time>2021-04-25T07:21:15.000Z</time>
      </trkpt>
      <trkpt lat="47.2691" lon="-2.33865">
        <ele>-2.4000000953674</ele>
        <time>2021-04-25T07:21:21.000Z</time>
      </trkpt>
      <trkpt lat="47.26925" lon="-2.33927">
        <ele>-2.4000000953674</ele>
        <time>2021-04-25T07:21:30.000Z</time>
      </trkpt>
      <trkpt lat="47.26931" lon="-2.33948">
        <ele>-2.4000000953674</ele>
        <time>2021-04-25T07:21:33.000Z</time>
      </trkpt>
      <trkpt lat="47.26933" lon="-2.33961">
        <ele>-2.4000000953674</ele>
        <time>2021-04-25T07:21:35.000Z</time>
      </trkpt>
      <trkpt lat="47.26946" lon="-2.34015">
        <ele>-2.4000000953674</ele>
        <time>2021-04-25T07:21:43.000Z</time>
      </trkpt>
      <trkpt lat="47.26954" lon="-2.34048">
        <ele>-2.4000000953674</ele>
        <time>2021-04-25T07:21:48.000Z</time>
      </trkpt>
      <trkpt lat="47.26957" lon="-2.34062">
        <ele>-2.4000000953674</ele>
        <time>2021-04-25T07:21:50.000Z</time>
      </trkpt>
      <trkpt lat="47.2697" lon="-2.34124">
        <ele>-1.7999999523163</ele>
        <time>2021-04-25T07:21:59.000Z</time>
      </trkpt>
      <trkpt lat="47.26972" lon="-2.34131">
        <ele>-1.3999999761581</ele>
        <time>2021-04-25T07:22:00.000Z</time>
      </trkpt>
      <trkpt lat="47.26974" lon="-2.34138">
        <ele>-1</ele>
        <time>2021-04-25T07:22:01.000Z</time>
      </trkpt>
      <trkpt lat="47.26975" lon="-2.34145">
        <ele>-0.60000002384186</ele>
        <time>2021-04-25T07:22:02.000Z</time>
      </trkpt>
      <trkpt lat="47.26977" lon="-2.34152">
        <ele>-0.20000000298023</ele>
        <time>2021-04-25T07:22:03.000Z</time>
      </trkpt>
      <trkpt lat="47.26988" lon="-2.34201">
        <ele>-0.20000000298023</ele>
        <time>2021-04-25T07:22:10.000Z</time>
      </trkpt>
      <trkpt lat="47.27002" lon="-2.34261">
        <ele>-0.20000000298023</ele>
        <time>2021-04-25T07:22:19.000Z</time>
      </trkpt>
      <trkpt lat="47.27007" lon="-2.34293">
        <ele>-0.20000000298023</ele>
        <time>2021-04-25T07:22:24.000Z</time>
      </trkpt>
      <trkpt lat="47.27007" lon="-2.34305">
        <ele>-0.20000000298023</ele>
        <time>2021-04-25T07:22:26.000Z</time>
      </trkpt>
      <trkpt lat="47.27014" lon="-2.34319">
        <ele>-0.20000000298023</ele>
        <time>2021-04-25T07:22:30.000Z</time>
      </trkpt>
      <trkpt lat="47.27024" lon="-2.34316">
        <ele>-0.20000000298023</ele>
        <time>2021-04-25T07:22:33.000Z</time>
      </trkpt>
      <trkpt lat="47.27055" lon="-2.34315">
        <ele>-0.20000000298023</ele>
        <time>2021-04-25T07:22:40.000Z</time>
      </trkpt>
      <trkpt lat="47.2706" lon="-2.34316">
        <ele>-0.20000000298023</ele>
        <time>2021-04-25T07:22:41.000Z</time>
      </trkpt>
      <trkpt lat="47.27069" lon="-2.34316">
        <ele>0.20000000298023</ele>
        <time>2021-04-25T07:22:43.000Z</time>
      </trkpt>
      <trkpt lat="47.27073" lon="-2.34316">
        <ele>0.60000002384186</ele>
        <time>2021-04-25T07:22:44.000Z</time>
      </trkpt>
      <trkpt lat="47.27078" lon="-2.34316">
        <ele>1</ele>
        <time>2021-04-25T07:22:45.000Z</time>
      </trkpt>
      <trkpt lat="47.27082" lon="-2.34316">
        <ele>1.3999999761581</ele>
        <time>2021-04-25T07:22:46.000Z</time>
      </trkpt>
      <trkpt lat="47.27087" lon="-2.34316">
        <ele>1.7999999523163</ele>
        <time>2021-04-25T07:22:47.000Z</time>
      </trkpt>
      <trkpt lat="47.27108" lon="-2.34317">
        <ele>2.4000000953674</ele>
        <time>2021-04-25T07:22:52.000Z</time>
      </trkpt>
      <trkpt lat="47.27112" lon="-2.34317">
        <ele>2.7999999523163</ele>
        <time>2021-04-25T07:22:53.000Z</time>
      </trkpt>
      <trkpt lat="47.27116" lon="-2.34317">
        <ele>3.2000000476837</ele>
        <time>2021-04-25T07:22:54.000Z</time>
      </trkpt>
      <trkpt lat="47.2712" lon="-2.34316">
        <ele>3.7999999523163</ele>
        <time>2021-04-25T07:22:55.000Z</time>
      </trkpt>
      <trkpt lat="47.27124" lon="-2.34316">
        <ele>4.1999998092651</ele>
        <time>2021-04-25T07:22:56.000Z</time>
      </trkpt>
      <trkpt lat="47.27144" lon="-2.34317">
        <ele>4.1999998092651</ele>
        <time>2021-04-25T07:23:01.000Z</time>
      </trkpt>
      <trkpt lat="47.27177" lon="-2.34318">
        <ele>4.1999998092651</ele>
        <time>2021-04-25T07:23:09.000Z</time>
      </trkpt>
      <trkpt lat="47.27189" lon="-2.34318">
        <ele>4.5999999046326</ele>
        <time>2021-04-25T07:23:12.000Z</time>
      </trkpt>
      <trkpt lat="47.27193" lon="-2.34319">
        <ele>5.1999998092651</ele>
        <time>2021-04-25T07:23:13.000Z</time>
      </trkpt>
      <trkpt lat="47.27197" lon="-2.34319">
        <ele>5.5999999046326</ele>
        <time>2021-04-25T07:23:14.000Z</time>
      </trkpt>
      <trkpt lat="47.27201" lon="-2.34319">
        <ele>6</ele>
        <time>2021-04-25T07:23:15.000Z</time>
      </trkpt>
      <trkpt lat="47.27205" lon="-2.34319">
        <ele>6.4000000953674</ele>
        <time>2021-04-25T07:23:16.000Z</time>
      </trkpt>
      <trkpt lat="47.27234" lon="-2.34319">
        <ele>7</ele>
        <time>2021-04-25T07:23:23.000Z</time>
      </trkpt>
      <trkpt lat="47.27238" lon="-2.34319">
        <ele>7.5999999046326</ele>
        <time>2021-04-25T07:23:24.000Z</time>
      </trkpt>
      <trkpt lat="47.27242" lon="-2.34319">
        <ele>8</ele>
        <time>2021-04-25T07:23:25.000Z</time>
      </trkpt>
      <trkpt lat="47.27247" lon="-2.34319">
        <ele>8.6000003814697</ele>
        <time>2021-04-25T07:23:26.000Z</time>
      </trkpt>
      <trkpt lat="47.27251" lon="-2.34319">
        <ele>9</ele>
        <time>2021-04-25T07:23:27.000Z</time>
      </trkpt>
      <trkpt lat="47.27274" lon="-2.34317">
        <ele>9</ele>
        <time>2021-04-25T07:23:33.000Z</time>
      </trkpt>
      <trkpt lat="47.27299" lon="-2.3431">
        <ele>9</ele>
        <time>2021-04-25T07:23:39.000Z</time>
      </trkpt>
      <trkpt lat="47.27327" lon="-2.34296">
        <ele>9</ele>
        <time>2021-04-25T07:23:46.000Z</time>
      </trkpt>
      <trkpt lat="47.27338" lon="-2.3429">
        <ele>9.3999996185303</ele>
        <time>2021-04-25T07:23:49.000Z</time>
      </trkpt>
      <trkpt lat="47.27342" lon="-2.34289">
        <ele>9.8000001907349</ele>
        <time>2021-04-25T07:23:50.000Z</time>
      </trkpt>
      <trkpt lat="47.27345" lon="-2.34285">
        <ele>10.199999809265</ele>
        <time>2021-04-25T07:23:51.000Z</time>
      </trkpt>
      <trkpt lat="47.27349" lon="-2.34282">
        <ele>10.800000190735</ele>
        <time>2021-04-25T07:23:52.000Z</time>
      </trkpt>
      <trkpt lat="47.27352" lon="-2.34279">
        <ele>11.199999809265</ele>
        <time>2021-04-25T07:23:53.000Z</time>
      </trkpt>
      <trkpt lat="47.27377" lon="-2.34263">
        <ele>11.199999809265</ele>
        <time>2021-04-25T07:24:00.000Z</time>
      </trkpt>
      <trkpt lat="47.27389" lon="-2.34253">
        <ele>11.199999809265</ele>
        <time>2021-04-25T07:24:05.000Z</time>
      </trkpt>
      <trkpt lat="47.27404" lon="-2.34247">
        <ele>12</ele>
        <time>2021-04-25T07:24:10.000Z</time>
      </trkpt>
      <trkpt lat="47.27407" lon="-2.34246">
        <ele>12.39999961853</ele>
        <time>2021-04-25T07:24:11.000Z</time>
      </trkpt>
      <trkpt lat="47.2741" lon="-2.34244">
        <ele>12.800000190735</ele>
        <time>2021-04-25T07:24:12.000Z</time>
      </trkpt>
      <trkpt lat="47.27412" lon="-2.34244">
        <ele>13.199999809265</ele>
        <time>2021-04-25T07:24:13.000Z</time>
      </trkpt>
      <trkpt lat="47.27415" lon="-2.34248">
        <ele>13.199999809265</ele>
        <time>2021-04-25T07:24:15.000Z</time>
      </trkpt>
      <trkpt lat="47.27417" lon="-2.34267">
        <ele>13.199999809265</ele>
        <time>2021-04-25T07:24:18.000Z</time>
      </trkpt>
      <trkpt lat="47.27417" lon="-2.34273">
        <ele>13.199999809265</ele>
        <time>2021-04-25T07:24:19.000Z</time>
      </trkpt>
      <trkpt lat="47.27419" lon="-2.34315">
        <ele>13.199999809265</ele>
        <time>2021-04-25T07:24:25.000Z</time>
      </trkpt>
      <trkpt lat="47.27419" lon="-2.34362">
        <ele>13.199999809265</ele>
        <time>2021-04-25T07:24:32.000Z</time>
      </trkpt>
      <trkpt lat="47.27424" lon="-2.34413">
        <ele>13.199999809265</ele>
        <time>2021-04-25T07:24:40.000Z</time>
      </trkpt>
      <trkpt lat="47.27426" lon="-2.3444">
        <ele>13.60000038147</ele>
        <time>2021-04-25T07:24:44.000Z</time>
      </trkpt>
      <trkpt lat="47.27426" lon="-2.34447">
        <ele>14</ele>
        <time>2021-04-25T07:24:45.000Z</time>
      </trkpt>
      <trkpt lat="47.27426" lon="-2.34454">
        <ele>14.39999961853</ele>
        <time>2021-04-25T07:24:46.000Z</time>
      </trkpt>
      <trkpt lat="47.27426" lon="-2.3446">
        <ele>15</ele>
        <time>2021-04-25T07:24:47.000Z</time>
      </trkpt>
      <trkpt lat="47.27426" lon="-2.34467">
        <ele>15.39999961853</ele>
        <time>2021-04-25T07:24:48.000Z</time>
      </trkpt>
      <trkpt lat="47.27427" lon="-2.34474">
        <ele>15.39999961853</ele>
        <time>2021-04-25T07:24:49.000Z</time>
      </trkpt>
      <trkpt lat="47.27432" lon="-2.34507">
        <ele>15.39999961853</ele>
        <time>2021-04-25T07:24:54.000Z</time>
      </trkpt>
      <trkpt lat="47.27442" lon="-2.34549">
        <ele>15.39999961853</ele>
        <time>2021-04-25T07:25:01.000Z</time>
      </trkpt>
      <trkpt lat="47.27446" lon="-2.34567">
        <ele>15.39999961853</ele>
        <time>2021-04-25T07:25:04.000Z</time>
      </trkpt>
      <trkpt lat="47.2745" lon="-2.34585">
        <ele>15.39999961853</ele>
        <time>2021-04-25T07:25:07.000Z</time>
      </trkpt>
      <trkpt lat="47.27455" lon="-2.34635">
        <ele>15.39999961853</ele>
        <time>2021-04-25T07:25:14.000Z</time>
      </trkpt>
      <trkpt lat="47.27458" lon="-2.34681">
        <ele>15.39999961853</ele>
        <time>2021-04-25T07:25:20.000Z</time>
      </trkpt>
      <trkpt lat="47.27466" lon="-2.34694">
        <ele>15.39999961853</ele>
        <time>2021-04-25T07:25:23.000Z</time>
      </trkpt>
      <trkpt lat="47.27479" lon="-2.34688">
        <ele>15.39999961853</ele>
        <time>2021-04-25T07:25:26.000Z</time>
      </trkpt>
      <trkpt lat="47.27492" lon="-2.34681">
        <ele>15.39999961853</ele>
        <time>2021-04-25T07:25:29.000Z</time>
      </trkpt>
      <trkpt lat="47.27506" lon="-2.34678">
        <ele>15.39999961853</ele>
        <time>2021-04-25T07:25:32.000Z</time>
      </trkpt>
      <trkpt lat="47.27538" lon="-2.34675">
        <ele>15.800000190735</ele>
        <time>2021-04-25T07:25:39.000Z</time>
      </trkpt>
      <trkpt lat="47.27543" lon="-2.34673">
        <ele>16.200000762939</ele>
        <time>2021-04-25T07:25:40.000Z</time>
      </trkpt>
      <trkpt lat="47.27548" lon="-2.34672">
        <ele>16.60000038147</ele>
        <time>2021-04-25T07:25:41.000Z</time>
      </trkpt>
      <trkpt lat="47.27553" lon="-2.3467">
        <ele>17.200000762939</ele>
        <time>2021-04-25T07:25:42.000Z</time>
      </trkpt>
      <trkpt lat="47.27557" lon="-2.34668">
        <ele>17.60000038147</ele>
        <time>2021-04-25T07:25:43.000Z</time>
      </trkpt>
      <trkpt lat="47.27566" lon="-2.34665">
        <ele>17.60000038147</ele>
        <time>2021-04-25T07:25:45.000Z</time>
      </trkpt>
      <trkpt lat="47.27575" lon="-2.3466">
        <ele>17.60000038147</ele>
        <time>2021-04-25T07:25:47.000Z</time>
      </trkpt>
      <trkpt lat="47.27587" lon="-2.34648">
        <ele>17.60000038147</ele>
        <time>2021-04-25T07:25:50.000Z</time>
      </trkpt>
      <trkpt lat="47.27612" lon="-2.34623">
        <ele>17.60000038147</ele>
        <time>2021-04-25T07:25:56.000Z</time>
      </trkpt>
      <trkpt lat="47.27636" lon="-2.346">
        <ele>17.200000762939</ele>
        <time>2021-04-25T07:26:02.000Z</time>
      </trkpt>
      <trkpt lat="47.2764" lon="-2.34596">
        <ele>16.60000038147</ele>
        <time>2021-04-25T07:26:03.000Z</time>
      </trkpt>
      <trkpt lat="47.27644" lon="-2.34593">
        <ele>16.200000762939</ele>
        <time>2021-04-25T07:26:04.000Z</time>
      </trkpt>
      <trkpt lat="47.27649" lon="-2.34589">
        <ele>15.800000190735</ele>
        <time>2021-04-25T07:26:05.000Z</time>
      </trkpt>
      <trkpt lat="47.27652" lon="-2.34585">
        <ele>15.39999961853</ele>
        <time>2021-04-25T07:26:06.000Z</time>
      </trkpt>
      <trkpt lat="47.27657" lon="-2.34582">
        <ele>15.39999961853</ele>
        <time>2021-04-25T07:26:07.000Z</time>
      </trkpt>
      <trkpt lat="47.27668" lon="-2.34571">
        <ele>15.39999961853</ele>
        <time>2021-04-25T07:26:10.000Z</time>
      </trkpt>
      <trkpt lat="47.27671" lon="-2.34567">
        <ele>15.39999961853</ele>
        <time>2021-04-25T07:26:11.000Z</time>
      </trkpt>
      <trkpt lat="47.27679" lon="-2.34566">
        <ele>15.39999961853</ele>
        <time>2021-04-25T07:26:14.000Z</time>
      </trkpt>
      <trkpt lat="47.2768" lon="-2.34573">
        <ele>15.39999961853</ele>
        <time>2021-04-25T07:26:18.000Z</time>
      </trkpt>
      <trkpt lat="47.27681" lon="-2.34575">
        <ele>15.39999961853</ele>
        <time>2021-04-25T07:26:19.000Z</time>
      </trkpt>
      <trkpt lat="47.27688" lon="-2.34595">
        <ele>15.39999961853</ele>
        <time>2021-04-25T07:26:23.000Z</time>
      </trkpt>
      <trkpt lat="47.27688" lon="-2.34602">
        <ele>15.39999961853</ele>
        <time>2021-04-25T07:26:24.000Z</time>
      </trkpt>
      <trkpt lat="47.27689" lon="-2.34615">
        <ele>15.39999961853</ele>
        <time>2021-04-25T07:26:26.000Z</time>
      </trkpt>
      <trkpt lat="47.27689" lon="-2.34629">
        <ele>15.39999961853</ele>
        <time>2021-04-25T07:26:28.000Z</time>
      </trkpt>
      <trkpt lat="47.2769" lon="-2.34642">
        <ele>15.39999961853</ele>
        <time>2021-04-25T07:26:30.000Z</time>
      </trkpt>
      <trkpt lat="47.27691" lon="-2.34654">
        <ele>15.39999961853</ele>
        <time>2021-04-25T07:26:32.000Z</time>
      </trkpt>
      <trkpt lat="47.27693" lon="-2.34669">
        <ele>15.39999961853</ele>
        <time>2021-04-25T07:26:34.000Z</time>
      </trkpt>
      <trkpt lat="47.27703" lon="-2.34696">
        <ele>15.39999961853</ele>
        <time>2021-04-25T07:26:38.000Z</time>
      </trkpt>
      <trkpt lat="47.27714" lon="-2.3473">
        <ele>15.39999961853</ele>
        <time>2021-04-25T07:26:43.000Z</time>
      </trkpt>
      <trkpt lat="47.27716" lon="-2.34735">
        <ele>15.39999961853</ele>
        <time>2021-04-25T07:26:44.000Z</time>
      </trkpt>
      <trkpt lat="47.27732" lon="-2.34771">
        <ele>15</ele>
        <time>2021-04-25T07:26:50.000Z</time>
      </trkpt>
      <trkpt lat="47.27736" lon="-2.34777">
        <ele>14.60000038147</ele>
        <time>2021-04-25T07:26:51.000Z</time>
      </trkpt>
      <trkpt lat="47.27738" lon="-2.34782">
        <ele>14.199999809265</ele>
        <time>2021-04-25T07:26:52.000Z</time>
      </trkpt>
      <trkpt lat="47.27741" lon="-2.34788">
        <ele>13.800000190735</ele>
        <time>2021-04-25T07:26:53.000Z</time>
      </trkpt>
      <trkpt lat="47.27744" lon="-2.34794">
        <ele>13.39999961853</ele>
        <time>2021-04-25T07:26:54.000Z</time>
      </trkpt>
      <trkpt lat="47.27755" lon="-2.34816">
        <ele>13.39999961853</ele>
        <time>2021-04-25T07:26:58.000Z</time>
      </trkpt>
      <trkpt lat="47.27777" lon="-2.34856">
        <ele>13.39999961853</ele>
        <time>2021-04-25T07:27:05.000Z</time>
      </trkpt>
      <trkpt lat="47.27781" lon="-2.34862">
        <ele>13.39999961853</ele>
        <time>2021-04-25T07:27:06.000Z</time>
      </trkpt>
      <trkpt lat="47.27788" lon="-2.3487">
        <ele>13</ele>
        <time>2021-04-25T07:27:08.000Z</time>
      </trkpt>
      <trkpt lat="47.2779" lon="-2.34872">
        <ele>12.60000038147</ele>
        <time>2021-04-25T07:27:09.000Z</time>
      </trkpt>
      <trkpt lat="47.27793" lon="-2.34876">
        <ele>12</ele>
        <time>2021-04-25T07:27:10.000Z</time>
      </trkpt>
      <trkpt lat="47.27797" lon="-2.34879">
        <ele>11.60000038147</ele>
        <time>2021-04-25T07:27:11.000Z</time>
      </trkpt>
      <trkpt lat="47.278" lon="-2.34881">
        <ele>11.199999809265</ele>
        <time>2021-04-25T07:27:12.000Z</time>
      </trkpt>
      <trkpt lat="47.27807" lon="-2.34886">
        <ele>11.199999809265</ele>
        <time>2021-04-25T07:27:14.000Z</time>
      </trkpt>
      <trkpt lat="47.27822" lon="-2.34898">
        <ele>11.199999809265</ele>
        <time>2021-04-25T07:27:18.000Z</time>
      </trkpt>
      <trkpt lat="47.27829" lon="-2.34906">
        <ele>11.199999809265</ele>
        <time>2021-04-25T07:27:20.000Z</time>
      </trkpt>
      <trkpt lat="47.27839" lon="-2.34918">
        <ele>11.199999809265</ele>
        <time>2021-04-25T07:27:23.000Z</time>
      </trkpt>
      <trkpt lat="47.27858" lon="-2.34939">
        <ele>11.199999809265</ele>
        <time>2021-04-25T07:27:28.000Z</time>
      </trkpt>
      <trkpt lat="47.27872" lon="-2.34957">
        <ele>11.199999809265</ele>
        <time>2021-04-25T07:27:32.000Z</time>
      </trkpt>
      <trkpt lat="47.27878" lon="-2.34969">
        <ele>11.199999809265</ele>
        <time>2021-04-25T07:27:34.000Z</time>
      </trkpt>
      <trkpt lat="47.27883" lon="-2.34981">
        <ele>11.199999809265</ele>
        <time>2021-04-25T07:27:36.000Z</time>
      </trkpt>
      <trkpt lat="47.27885" lon="-2.34988">
        <ele>11.199999809265</ele>
        <time>2021-04-25T07:27:37.000Z</time>
      </trkpt>
      <trkpt lat="47.27893" lon="-2.35009">
        <ele>11.199999809265</ele>
        <time>2021-04-25T07:27:40.000Z</time>
      </trkpt>
      <trkpt lat="47.27903" lon="-2.35046">
        <ele>11.199999809265</ele>
        <time>2021-04-25T07:27:45.000Z</time>
      </trkpt>
      <trkpt lat="47.27904" lon="-2.35054">
        <ele>11.199999809265</ele>
        <time>2021-04-25T07:27:46.000Z</time>
      </trkpt>
      <trkpt lat="47.27907" lon="-2.35107">
        <ele>11.199999809265</ele>
        <time>2021-04-25T07:27:52.000Z</time>
      </trkpt>
      <trkpt lat="47.2791" lon="-2.35155">
        <ele>11.199999809265</ele>
        <time>2021-04-25T07:27:57.000Z</time>
      </trkpt>
      <trkpt lat="47.27913" lon="-2.35195">
        <ele>10.800000190735</ele>
        <time>2021-04-25T07:28:01.000Z</time>
      </trkpt>
      <trkpt lat="47.27914" lon="-2.35206">
        <ele>10.39999961853</ele>
        <time>2021-04-25T07:28:02.000Z</time>
      </trkpt>
      <trkpt lat="47.27915" lon="-2.35216">
        <ele>10</ele>
        <time>2021-04-25T07:28:03.000Z</time>
      </trkpt>
      <trkpt lat="47.27916" lon="-2.35226">
        <ele>9.3999996185303</ele>
        <time>2021-04-25T07:28:04.000Z</time>
      </trkpt>
      <trkpt lat="47.27917" lon="-2.35236">
        <ele>9</ele>
        <time>2021-04-25T07:28:05.000Z</time>
      </trkpt>
      <trkpt lat="47.27923" lon="-2.3527">
        <ele>9</ele>
        <time>2021-04-25T07:28:09.000Z</time>
      </trkpt>
      <trkpt lat="47.27929" lon="-2.35299">
        <ele>9</ele>
        <time>2021-04-25T07:28:13.000Z</time>
      </trkpt>
      <trkpt lat="47.27935" lon="-2.3531">
        <ele>9</ele>
        <time>2021-04-25T07:28:15.000Z</time>
      </trkpt>
      <trkpt lat="47.27936" lon="-2.35318">
        <ele>9</ele>
        <time>2021-04-25T07:28:16.000Z</time>
      </trkpt>
      <trkpt lat="47.27931" lon="-2.35332">
        <ele>9</ele>
        <time>2021-04-25T07:28:18.000Z</time>
      </trkpt>
      <trkpt lat="47.27927" lon="-2.35347">
        <ele>9</ele>
        <time>2021-04-25T07:28:20.000Z</time>
      </trkpt>
      <trkpt lat="47.27929" lon="-2.35371">
        <ele>9</ele>
        <time>2021-04-25T07:28:23.000Z</time>
      </trkpt>
      <trkpt lat="47.27929" lon="-2.35379">
        <ele>9</ele>
        <time>2021-04-25T07:28:24.000Z</time>
      </trkpt>
      <trkpt lat="47.27936" lon="-2.35418">
        <ele>9</ele>
        <time>2021-04-25T07:28:29.000Z</time>
      </trkpt>
      <trkpt lat="47.2794" lon="-2.35424">
        <ele>9</ele>
        <time>2021-04-25T07:28:30.000Z</time>
      </trkpt>
      <trkpt lat="47.27955" lon="-2.3545">
        <ele>9</ele>
        <time>2021-04-25T07:28:35.000Z</time>
      </trkpt>
      <trkpt lat="47.27961" lon="-2.35467">
        <ele>9</ele>
        <time>2021-04-25T07:28:38.000Z</time>
      </trkpt>
      <trkpt lat="47.27971" lon="-2.3547">
        <ele>9</ele>
        <time>2021-04-25T07:28:40.000Z</time>
      </trkpt>
      <trkpt lat="47.27973" lon="-2.35474">
        <ele>9</ele>
        <time>2021-04-25T07:28:41.000Z</time>
      </trkpt>
      <trkpt lat="47.27977" lon="-2.35491">
        <ele>8.6000003814697</ele>
        <time>2021-04-25T07:28:44.000Z</time>
      </trkpt>
      <trkpt lat="47.27981" lon="-2.35497">
        <ele>8.1999998092651</ele>
        <time>2021-04-25T07:28:45.000Z</time>
      </trkpt>
      <trkpt lat="47.27984" lon="-2.35505">
        <ele>7.8000001907349</ele>
        <time>2021-04-25T07:28:46.000Z</time>
      </trkpt>
      <trkpt lat="47.27986" lon="-2.35511">
        <ele>7.4000000953674</ele>
        <time>2021-04-25T07:28:47.000Z</time>
      </trkpt>
      <trkpt lat="47.27989" lon="-2.35517">
        <ele>7</ele>
        <time>2021-04-25T07:28:48.000Z</time>
      </trkpt>
      <trkpt lat="47.27997" lon="-2.35539">
        <ele>7</ele>
        <time>2021-04-25T07:28:52.000Z</time>
      </trkpt>
      <trkpt lat="47.28004" lon="-2.35558">
        <ele>7.4000000953674</ele>
        <time>2021-04-25T07:28:56.000Z</time>
      </trkpt>
      <trkpt lat="47.28005" lon="-2.35562">
        <ele>7.8000001907349</ele>
        <time>2021-04-25T07:28:57.000Z</time>
      </trkpt>
      <trkpt lat="47.28007" lon="-2.35567">
        <ele>8.1999998092651</ele>
        <time>2021-04-25T07:28:58.000Z</time>
      </trkpt>
      <trkpt lat="47.28011" lon="-2.35569">
        <ele>8.6000003814697</ele>
        <time>2021-04-25T07:28:59.000Z</time>
      </trkpt>
      <trkpt lat="47.28015" lon="-2.35567">
        <ele>9</ele>
        <time>2021-04-25T07:29:00.000Z</time>
      </trkpt>
      <trkpt lat="47.28019" lon="-2.35566">
        <ele>9</ele>
        <time>2021-04-25T07:29:01.000Z</time>
      </trkpt>
      <trkpt lat="47.28035" lon="-2.35573">
        <ele>9</ele>
        <time>2021-04-25T07:29:05.000Z</time>
      </trkpt>
      <trkpt lat="47.28038" lon="-2.35575">
        <ele>9</ele>
        <time>2021-04-25T07:29:06.000Z</time>
      </trkpt>
      <trkpt lat="47.28053" lon="-2.35578">
        <ele>9</ele>
        <time>2021-04-25T07:29:10.000Z</time>
      </trkpt>
      <trkpt lat="47.28056" lon="-2.35578">
        <ele>9.3999996185303</ele>
        <time>2021-04-25T07:29:11.000Z</time>
      </trkpt>
      <trkpt lat="47.2806" lon="-2.35579">
        <ele>10</ele>
        <time>2021-04-25T07:29:12.000Z</time>
      </trkpt>
      <trkpt lat="47.28062" lon="-2.35581">
        <ele>10.39999961853</ele>
        <time>2021-04-25T07:29:13.000Z</time>
      </trkpt>
      <trkpt lat="47.28065" lon="-2.35583">
        <ele>10.800000190735</ele>
        <time>2021-04-25T07:29:14.000Z</time>
      </trkpt>
      <trkpt lat="47.28066" lon="-2.35587">
        <ele>11.199999809265</ele>
        <time>2021-04-25T07:29:15.000Z</time>
      </trkpt>
      <trkpt lat="47.28077" lon="-2.35606">
        <ele>11.199999809265</ele>
        <time>2021-04-25T07:29:20.000Z</time>
      </trkpt>
      <trkpt lat="47.28086" lon="-2.35626">
        <ele>11.199999809265</ele>
        <time>2021-04-25T07:29:25.000Z</time>
      </trkpt>
      <trkpt lat="47.28093" lon="-2.35634">
        <ele>11.199999809265</ele>
        <time>2021-04-25T07:29:31.000Z</time>
      </trkpt>
      <trkpt lat="47.28093" lon="-2.35635">
        <ele>11.199999809265</ele>
        <time>2021-04-25T07:29:33.000Z</time>
      </trkpt>
      <trkpt lat="47.28091" lon="-2.3563">
        <ele>11.199999809265</ele>
        <time>2021-04-25T07:41:00.000Z</time>
      </trkpt>
      <trkpt lat="47.28088" lon="-2.35624">
        <ele>11.199999809265</ele>
        <time>2021-04-25T07:41:02.000Z</time>
      </trkpt>
      <trkpt lat="47.28079" lon="-2.35614">
        <ele>11.199999809265</ele>
        <time>2021-04-25T07:41:06.000Z</time>
      </trkpt>
      <trkpt lat="47.28077" lon="-2.35615">
        <ele>11.199999809265</ele>
        <time>2021-04-25T07:41:07.000Z</time>
      </trkpt>
      <trkpt lat="47.28075" lon="-2.35618">
        <ele>11.199999809265</ele>
        <time>2021-04-25T07:41:09.000Z</time>
      </trkpt>
      <trkpt lat="47.28075" lon="-2.35626">
        <ele>11.199999809265</ele>
        <time>2021-04-25T07:41:11.000Z</time>
      </trkpt>
      <trkpt lat="47.28078" lon="-2.35642">
        <ele>11.199999809265</ele>
        <time>2021-04-25T07:41:17.000Z</time>
      </trkpt>
      <trkpt lat="47.2808" lon="-2.35645">
        <ele>11.800000190735</ele>
        <time>2021-04-25T07:41:18.000Z</time>
      </trkpt>
      <trkpt lat="47.2808" lon="-2.35648">
        <ele>12.199999809265</ele>
        <time>2021-04-25T07:41:19.000Z</time>
      </trkpt>
      <trkpt lat="47.28081" lon="-2.35651">
        <ele>12.60000038147</ele>
        <time>2021-04-25T07:41:20.000Z</time>
      </trkpt>
      <trkpt lat="47.28083" lon="-2.35654">
        <ele>13</ele>
        <time>2021-04-25T07:41:21.000Z</time>
      </trkpt>
      <trkpt lat="47.28084" lon="-2.35656">
        <ele>13.39999961853</ele>
        <time>2021-04-25T07:41:22.000Z</time>
      </trkpt>
      <trkpt lat="47.28087" lon="-2.35676">
        <ele>14</ele>
        <time>2021-04-25T07:41:28.000Z</time>
      </trkpt>
      <trkpt lat="47.28087" lon="-2.35678">
        <ele>14.39999961853</ele>
        <time>2021-04-25T07:41:29.000Z</time>
      </trkpt>
      <trkpt lat="47.28088" lon="-2.35681">
        <ele>14.800000190735</ele>
        <time>2021-04-25T07:41:30.000Z</time>
      </trkpt>
      <trkpt lat="47.28089" lon="-2.35683">
        <ele>15.199999809265</ele>
        <time>2021-04-25T07:41:31.000Z</time>
      </trkpt>
      <trkpt lat="47.2809" lon="-2.35686">
        <ele>15.800000190735</ele>
        <time>2021-04-25T07:41:32.000Z</time>
      </trkpt>
      <trkpt lat="47.28092" lon="-2.35688">
        <ele>15.800000190735</ele>
        <time>2021-04-25T07:41:34.000Z</time>
      </trkpt>
      <trkpt lat="47.28097" lon="-2.35688">
        <ele>15.800000190735</ele>
        <time>2021-04-25T07:41:38.000Z</time>
      </trkpt>
      <trkpt lat="47.28098" lon="-2.35687">
        <ele>15.800000190735</ele>
        <time>2021-04-25T07:41:39.000Z</time>
      </trkpt>
      <trkpt lat="47.28102" lon="-2.35684">
        <ele>16.200000762939</ele>
        <time>2021-04-25T07:41:41.000Z</time>
      </trkpt>
      <trkpt lat="47.28103" lon="-2.35683">
        <ele>16.60000038147</ele>
        <time>2021-04-25T07:41:42.000Z</time>
      </trkpt>
      <trkpt lat="47.28104" lon="-2.35681">
        <ele>17</ele>
        <time>2021-04-25T07:41:43.000Z</time>
      </trkpt>
      <trkpt lat="47.28106" lon="-2.3568">
        <ele>17.60000038147</ele>
        <time>2021-04-25T07:41:44.000Z</time>
      </trkpt>
      <trkpt lat="47.28108" lon="-2.35679">
        <ele>18</ele>
        <time>2021-04-25T07:41:45.000Z</time>
      </trkpt>
      <trkpt lat="47.2811" lon="-2.35678">
        <ele>18</ele>
        <time>2021-04-25T07:41:46.000Z</time>
      </trkpt>
      <trkpt lat="47.28111" lon="-2.35678">
        <ele>18.39999961853</ele>
        <time>2021-04-25T07:41:47.000Z</time>
      </trkpt>
      <trkpt lat="47.28112" lon="-2.35677">
        <ele>18.799999237061</ele>
        <time>2021-04-25T07:41:48.000Z</time>
      </trkpt>
      <trkpt lat="47.28114" lon="-2.35677">
        <ele>19.200000762939</ele>
        <time>2021-04-25T07:41:49.000Z</time>
      </trkpt>
      <trkpt lat="47.28115" lon="-2.35676">
        <ele>19.60000038147</ele>
        <time>2021-04-25T07:41:50.000Z</time>
      </trkpt>
      <trkpt lat="47.28117" lon="-2.35675">
        <ele>20</ele>
        <time>2021-04-25T07:41:51.000Z</time>
      </trkpt>
      <trkpt lat="47.28119" lon="-2.35674">
        <ele>20.799999237061</ele>
        <time>2021-04-25T07:41:52.000Z</time>
      </trkpt>
      <trkpt lat="47.28121" lon="-2.35673">
        <ele>21.200000762939</ele>
        <time>2021-04-25T07:41:53.000Z</time>
      </trkpt>
      <trkpt lat="47.28122" lon="-2.35672">
        <ele>21.60000038147</ele>
        <time>2021-04-25T07:41:54.000Z</time>
      </trkpt>
      <trkpt lat="47.28125" lon="-2.35672">
        <ele>22</ele>
        <time>2021-04-25T07:41:55.000Z</time>
      </trkpt>
      <trkpt lat="47.28135" lon="-2.3567">
        <ele>22</ele>
        <time>2021-04-25T07:41:59.000Z</time>
      </trkpt>
      <trkpt lat="47.28139" lon="-2.35668">
        <ele>22.60000038147</ele>
        <time>2021-04-25T07:42:01.000Z</time>
      </trkpt>
      <trkpt lat="47.28141" lon="-2.35667">
        <ele>23</ele>
        <time>2021-04-25T07:42:02.000Z</time>
      </trkpt>
      <trkpt lat="47.28144" lon="-2.35667">
        <ele>23.39999961853</ele>
        <time>2021-04-25T07:42:03.000Z</time>
      </trkpt>
      <trkpt lat="47.28146" lon="-2.35667">
        <ele>23.799999237061</ele>
        <time>2021-04-25T07:42:04.000Z</time>
      </trkpt>
      <trkpt lat="47.28148" lon="-2.35668">
        <ele>24.39999961853</ele>
        <time>2021-04-25T07:42:05.000Z</time>
      </trkpt>
      <trkpt lat="47.28156" lon="-2.35677">
        <ele>24.39999961853</ele>
        <time>2021-04-25T07:42:09.000Z</time>
      </trkpt>
      <trkpt lat="47.28158" lon="-2.35678">
        <ele>23.799999237061</ele>
        <time>2021-04-25T07:42:10.000Z</time>
      </trkpt>
      <trkpt lat="47.28159" lon="-2.35679">
        <ele>23.39999961853</ele>
        <time>2021-04-25T07:42:11.000Z</time>
      </trkpt>
      <trkpt lat="47.28161" lon="-2.35679">
        <ele>23</ele>
        <time>2021-04-25T07:42:12.000Z</time>
      </trkpt>
      <trkpt lat="47.28162" lon="-2.3568">
        <ele>22.39999961853</ele>
        <time>2021-04-25T07:42:13.000Z</time>
      </trkpt>
      <trkpt lat="47.28162" lon="-2.3568">
        <ele>22</ele>
        <time>2021-04-25T07:42:14.000Z</time>
      </trkpt>
      <trkpt lat="47.28165" lon="-2.3568">
        <ele>21.200000762939</ele>
        <time>2021-04-25T07:42:17.000Z</time>
      </trkpt>
      <trkpt lat="47.28166" lon="-2.35681">
        <ele>20.799999237061</ele>
        <time>2021-04-25T07:42:18.000Z</time>
      </trkpt>
      <trkpt lat="47.28168" lon="-2.35682">
        <ele>20.39999961853</ele>
        <time>2021-04-25T07:42:19.000Z</time>
      </trkpt>
      <trkpt lat="47.28169" lon="-2.35684">
        <ele>19.799999237061</ele>
        <time>2021-04-25T07:42:20.000Z</time>
      </trkpt>
      <trkpt lat="47.28169" lon="-2.35686">
        <ele>19.39999961853</ele>
        <time>2021-04-25T07:42:21.000Z</time>
      </trkpt>
      <trkpt lat="47.2817" lon="-2.35688">
        <ele>19</ele>
        <time>2021-04-25T07:42:22.000Z</time>
      </trkpt>
      <trkpt lat="47.28171" lon="-2.35691">
        <ele>18.39999961853</ele>
        <time>2021-04-25T07:42:23.000Z</time>
      </trkpt>
      <trkpt lat="47.28172" lon="-2.35694">
        <ele>18</ele>
        <time>2021-04-25T07:42:24.000Z</time>
      </trkpt>
      <trkpt lat="47.28174" lon="-2.35696">
        <ele>17.60000038147</ele>
        <time>2021-04-25T07:42:25.000Z</time>
      </trkpt>
      <trkpt lat="47.2819" lon="-2.35711">
        <ele>13.39999961853</ele>
        <time>2021-04-25T07:43:45.000Z</time>
      </trkpt>
      <trkpt lat="47.28192" lon="-2.35714">
        <ele>13.39999961853</ele>
        <time>2021-04-25T07:43:47.000Z</time>
      </trkpt>
      <trkpt lat="47.28197" lon="-2.35722">
        <ele>13.39999961853</ele>
        <time>2021-04-25T07:43:53.000Z</time>
      </trkpt>
      <trkpt lat="47.28197" lon="-2.35727">
        <ele>13.39999961853</ele>
        <time>2021-04-25T07:43:56.000Z</time>
      </trkpt>
      <trkpt lat="47.28197" lon="-2.35735">
        <ele>14</ele>
        <time>2021-04-25T07:43:59.000Z</time>
      </trkpt>
      <trkpt lat="47.28196" lon="-2.35738">
        <ele>14.39999961853</ele>
        <time>2021-04-25T07:44:00.000Z</time>
      </trkpt>
      <trkpt lat="47.28195" lon="-2.3574">
        <ele>14.800000190735</ele>
        <time>2021-04-25T07:44:01.000Z</time>
      </trkpt>
      <trkpt lat="47.28195" lon="-2.35743">
        <ele>15.39999961853</ele>
        <time>2021-04-25T07:44:02.000Z</time>
      </trkpt>
      <trkpt lat="47.28195" lon="-2.35746">
        <ele>15.800000190735</ele>
        <time>2021-04-25T07:44:03.000Z</time>
      </trkpt>
      <trkpt lat="47.28196" lon="-2.3575">
        <ele>16.200000762939</ele>
        <time>2021-04-25T07:44:04.000Z</time>
      </trkpt>
      <trkpt lat="47.28197" lon="-2.35755">
        <ele>16.60000038147</ele>
        <time>2021-04-25T07:44:05.000Z</time>
      </trkpt>
      <trkpt lat="47.28198" lon="-2.3576">
        <ele>17.200000762939</ele>
        <time>2021-04-25T07:44:06.000Z</time>
      </trkpt>
      <trkpt lat="47.282" lon="-2.35764">
        <ele>17.60000038147</ele>
        <time>2021-04-25T07:44:07.000Z</time>
      </trkpt>
      <trkpt lat="47.28203" lon="-2.35769">
        <ele>18</ele>
        <time>2021-04-25T07:44:08.000Z</time>
      </trkpt>
      <trkpt lat="47.28213" lon="-2.35785">
        <ele>18</ele>
        <time>2021-04-25T07:44:15.000Z</time>
      </trkpt>
      <trkpt lat="47.28216" lon="-2.35783">
        <ele>18</ele>
        <time>2021-04-25T07:44:17.000Z</time>
      </trkpt>
      <trkpt lat="47.2822" lon="-2.35777">
        <ele>17.60000038147</ele>
        <time>2021-04-25T07:44:20.000Z</time>
      </trkpt>
      <trkpt lat="47.28223" lon="-2.35776">
        <ele>17</ele>
        <time>2021-04-25T07:44:21.000Z</time>
      </trkpt>
      <trkpt lat="47.28225" lon="-2.35774">
        <ele>16.60000038147</ele>
        <time>2021-04-25T07:44:22.000Z</time>
      </trkpt>
      <trkpt lat="47.28227" lon="-2.35772">
        <ele>16</ele>
        <time>2021-04-25T07:44:23.000Z</time>
      </trkpt>
      <trkpt lat="47.28229" lon="-2.35771">
        <ele>15.60000038147</ele>
        <time>2021-04-25T07:44:24.000Z</time>
      </trkpt>
      <trkpt lat="47.28235" lon="-2.3577">
        <ele>15.60000038147</ele>
        <time>2021-04-25T07:44:27.000Z</time>
      </trkpt>
      <trkpt lat="47.28247" lon="-2.35766">
        <ele>15.60000038147</ele>
        <time>2021-04-25T07:44:32.000Z</time>
      </trkpt>
      <trkpt lat="47.28252" lon="-2.35776">
        <ele>15.60000038147</ele>
        <time>2021-04-25T07:44:36.000Z</time>
      </trkpt>
      <trkpt lat="47.28253" lon="-2.35781">
        <ele>15.60000038147</ele>
        <time>2021-04-25T07:44:37.000Z</time>
      </trkpt>
      <trkpt lat="47.28258" lon="-2.35796">
        <ele>15.60000038147</ele>
        <time>2021-04-25T07:44:40.000Z</time>
      </trkpt>
      <trkpt lat="47.28259" lon="-2.35806">
        <ele>15.60000038147</ele>
        <time>2021-04-25T07:44:42.000Z</time>
      </trkpt>
      <trkpt lat="47.28264" lon="-2.35825">
        <ele>15.60000038147</ele>
        <time>2021-04-25T07:44:47.000Z</time>
      </trkpt>
      <trkpt lat="47.28263" lon="-2.3584">
        <ele>15.60000038147</ele>
        <time>2021-04-25T07:44:52.000Z</time>
      </trkpt>
      <trkpt lat="47.28266" lon="-2.35848">
        <ele>15.60000038147</ele>
        <time>2021-04-25T07:44:55.000Z</time>
      </trkpt>
      <trkpt lat="47.28271" lon="-2.35858">
        <ele>15.60000038147</ele>
        <time>2021-04-25T07:44:58.000Z</time>
      </trkpt>
      <trkpt lat="47.28277" lon="-2.35862">
        <ele>15.60000038147</ele>
        <time>2021-04-25T07:45:00.000Z</time>
      </trkpt>
      <trkpt lat="47.28284" lon="-2.3586">
        <ele>15.60000038147</ele>
        <time>2021-04-25T07:45:03.000Z</time>
      </trkpt>
      <trkpt lat="47.28286" lon="-2.3586">
        <ele>15.60000038147</ele>
        <time>2021-04-25T07:45:04.000Z</time>
      </trkpt>
      <trkpt lat="47.28288" lon="-2.3586">
        <ele>15.60000038147</ele>
        <time>2021-04-25T07:45:06.000Z</time>
      </trkpt>
      <trkpt lat="47.28292" lon="-2.35857">
        <ele>15.60000038147</ele>
        <time>2021-04-25T07:45:17.000Z</time>
      </trkpt>
      <trkpt lat="47.28293" lon="-2.35855">
        <ele>15.60000038147</ele>
        <time>2021-04-25T07:45:18.000Z</time>
      </trkpt>
      <trkpt lat="47.28305" lon="-2.35843">
        <ele>15.60000038147</ele>
        <time>2021-04-25T07:45:23.000Z</time>
      </trkpt>
      <trkpt lat="47.28322" lon="-2.35826">
        <ele>16</ele>
        <time>2021-04-25T07:45:29.000Z</time>
      </trkpt>
      <trkpt lat="47.28325" lon="-2.35823">
        <ele>16.39999961853</ele>
        <time>2021-04-25T07:45:30.000Z</time>
      </trkpt>
      <trkpt lat="47.28328" lon="-2.3582">
        <ele>16.799999237061</ele>
        <time>2021-04-25T07:45:31.000Z</time>
      </trkpt>
      <trkpt lat="47.28331" lon="-2.35817">
        <ele>17.200000762939</ele>
        <time>2021-04-25T07:45:32.000Z</time>
      </trkpt>
      <trkpt lat="47.28334" lon="-2.35814">
        <ele>17.60000038147</ele>
        <time>2021-04-25T07:45:33.000Z</time>
      </trkpt>
      <trkpt lat="47.28349" lon="-2.35798">
        <ele>17.60000038147</ele>
        <time>2021-04-25T07:45:38.000Z</time>
      </trkpt>
      <trkpt lat="47.28364" lon="-2.35787">
        <ele>17.60000038147</ele>
        <time>2021-04-25T07:45:44.000Z</time>
      </trkpt>
      <trkpt lat="47.2837" lon="-2.35788">
        <ele>17.60000038147</ele>
        <time>2021-04-25T07:45:46.000Z</time>
      </trkpt>
      <trkpt lat="47.28378" lon="-2.35795">
        <ele>17.60000038147</ele>
        <time>2021-04-25T07:45:49.000Z</time>
      </trkpt>
      <trkpt lat="47.28392" lon="-2.3581">
        <ele>17.60000038147</ele>
        <time>2021-04-25T07:45:54.000Z</time>
      </trkpt>
      <trkpt lat="47.28411" lon="-2.35831">
        <ele>17.60000038147</ele>
        <time>2021-04-25T07:45:59.000Z</time>
      </trkpt>
      <trkpt lat="47.28414" lon="-2.35832">
        <ele>17.60000038147</ele>
        <time>2021-04-25T07:46:00.000Z</time>
      </trkpt>
      <trkpt lat="47.28419" lon="-2.35829">
        <ele>17.60000038147</ele>
        <time>2021-04-25T07:46:02.000Z</time>
      </trkpt>
      <trkpt lat="47.28437" lon="-2.35826">
        <ele>17.60000038147</ele>
        <time>2021-04-25T07:46:08.000Z</time>
      </trkpt>
      <trkpt lat="47.28457" lon="-2.35826">
        <ele>17.60000038147</ele>
        <time>2021-04-25T07:46:14.000Z</time>
      </trkpt>
      <trkpt lat="47.28473" lon="-2.3584">
        <ele>17.60000038147</ele>
        <time>2021-04-25T07:46:20.000Z</time>
      </trkpt>
      <trkpt lat="47.28482" lon="-2.35853">
        <ele>17.60000038147</ele>
        <time>2021-04-25T07:46:23.000Z</time>
      </trkpt>
      <trkpt lat="47.28489" lon="-2.35859">
        <ele>17.60000038147</ele>
        <time>2021-04-25T07:46:25.000Z</time>
      </trkpt>
      <trkpt lat="47.28503" lon="-2.35874">
        <ele>18</ele>
        <time>2021-04-25T07:46:30.000Z</time>
      </trkpt>
      <trkpt lat="47.28507" lon="-2.35876">
        <ele>18.39999961853</ele>
        <time>2021-04-25T07:46:31.000Z</time>
      </trkpt>
      <trkpt lat="47.2851" lon="-2.35878">
        <ele>18.799999237061</ele>
        <time>2021-04-25T07:46:32.000Z</time>
      </trkpt>
      <trkpt lat="47.28513" lon="-2.3588">
        <ele>19.39999961853</ele>
        <time>2021-04-25T07:46:33.000Z</time>
      </trkpt>
      <trkpt lat="47.28515" lon="-2.35881">
        <ele>19.799999237061</ele>
        <time>2021-04-25T07:46:34.000Z</time>
      </trkpt>
      <trkpt lat="47.28521" lon="-2.35885">
        <ele>19.799999237061</ele>
        <time>2021-04-25T07:46:37.000Z</time>
      </trkpt>
      <trkpt lat="47.28524" lon="-2.35888">
        <ele>20.200000762939</ele>
        <time>2021-04-25T07:46:39.000Z</time>
      </trkpt>
      <trkpt lat="47.28525" lon="-2.35889">
        <ele>20.60000038147</ele>
        <time>2021-04-25T07:46:40.000Z</time>
      </trkpt>
      <trkpt lat="47.28526" lon="-2.3589">
        <ele>21</ele>
        <time>2021-04-25T07:46:41.000Z</time>
      </trkpt>
      <trkpt lat="47.28527" lon="-2.3589">
        <ele>21.39999961853</ele>
        <time>2021-04-25T07:46:42.000Z</time>
      </trkpt>
      <trkpt lat="47.2853" lon="-2.3589">
        <ele>22</ele>
        <time>2021-04-25T07:46:43.000Z</time>
      </trkpt>
      <trkpt lat="47.28532" lon="-2.3589">
        <ele>22.60000038147</ele>
        <time>2021-04-25T07:46:44.000Z</time>
      </trkpt>
      <trkpt lat="47.28534" lon="-2.35891">
        <ele>23.200000762939</ele>
        <time>2021-04-25T07:46:45.000Z</time>
      </trkpt>
      <trkpt lat="47.28536" lon="-2.35892">
        <ele>23.799999237061</ele>
        <time>2021-04-25T07:46:46.000Z</time>
      </trkpt>
      <trkpt lat="47.28538" lon="-2.35893">
        <ele>24.200000762939</ele>
        <time>2021-04-25T07:46:47.000Z</time>
      </trkpt>
      <trkpt lat="47.2854" lon="-2.35894">
        <ele>24.200000762939</ele>
        <time>2021-04-25T07:46:49.000Z</time>
      </trkpt>
      <trkpt lat="47.28546" lon="-2.359">
        <ele>24.200000762939</ele>
        <time>2021-04-25T07:47:22.000Z</time>
      </trkpt>
      <trkpt lat="47.28551" lon="-2.35905">
        <ele>24.200000762939</ele>
        <time>2021-04-25T07:47:25.000Z</time>
      </trkpt>
      <trkpt lat="47.28557" lon="-2.35913">
        <ele>24.200000762939</ele>
        <time>2021-04-25T07:47:32.000Z</time>
      </trkpt>
      <trkpt lat="47.28565" lon="-2.35926">
        <ele>23.799999237061</ele>
        <time>2021-04-25T07:47:36.000Z</time>
      </trkpt>
      <trkpt lat="47.28567" lon="-2.35931">
        <ele>22.799999237061</ele>
        <time>2021-04-25T07:47:37.000Z</time>
      </trkpt>
      <trkpt lat="47.28569" lon="-2.35936">
        <ele>22.39999961853</ele>
        <time>2021-04-25T07:47:38.000Z</time>
      </trkpt>
      <trkpt lat="47.2857" lon="-2.3594">
        <ele>22</ele>
        <time>2021-04-25T07:47:39.000Z</time>
      </trkpt>
      <trkpt lat="47.28577" lon="-2.3595">
        <ele>22</ele>
        <time>2021-04-25T07:47:42.000Z</time>
      </trkpt>
      <trkpt lat="47.28584" lon="-2.35972">
        <ele>22</ele>
        <time>2021-04-25T07:47:47.000Z</time>
      </trkpt>
      <trkpt lat="47.28594" lon="-2.36">
        <ele>22</ele>
        <time>2021-04-25T07:47:53.000Z</time>
      </trkpt>
      <trkpt lat="47.28598" lon="-2.36012">
        <ele>21.39999961853</ele>
        <time>2021-04-25T07:47:56.000Z</time>
      </trkpt>
      <trkpt lat="47.286" lon="-2.36016">
        <ele>21</ele>
        <time>2021-04-25T07:47:57.000Z</time>
      </trkpt>
      <trkpt lat="47.28601" lon="-2.36019">
        <ele>20.60000038147</ele>
        <time>2021-04-25T07:47:58.000Z</time>
      </trkpt>
      <trkpt lat="47.28604" lon="-2.36022">
        <ele>20.200000762939</ele>
        <time>2021-04-25T07:47:59.000Z</time>
      </trkpt>
      <trkpt lat="47.28605" lon="-2.36024">
        <ele>19.799999237061</ele>
        <time>2021-04-25T07:48:00.000Z</time>
      </trkpt>
      <trkpt lat="47.28616" lon="-2.36042">
        <ele>19.799999237061</ele>
        <time>2021-04-25T07:48:05.000Z</time>
      </trkpt>
      <trkpt lat="47.28621" lon="-2.36048">
        <ele>20.200000762939</ele>
        <time>2021-04-25T07:48:07.000Z</time>
      </trkpt>
      <trkpt lat="47.28623" lon="-2.36051">
        <ele>20.60000038147</ele>
        <time>2021-04-25T07:48:08.000Z</time>
      </trkpt>
      <trkpt lat="47.28626" lon="-2.36054">
        <ele>21.200000762939</ele>
        <time>2021-04-25T07:48:09.000Z</time>
      </trkpt>
      <trkpt lat="47.28629" lon="-2.36056">
        <ele>21.60000038147</ele>
        <time>2021-04-25T07:48:10.000Z</time>
      </trkpt>
      <trkpt lat="47.28631" lon="-2.36059">
        <ele>22</ele>
        <time>2021-04-25T07:48:11.000Z</time>
      </trkpt>
      <trkpt lat="47.28635" lon="-2.36063">
        <ele>22</ele>
        <time>2021-04-25T07:48:13.000Z</time>
      </trkpt>
      <trkpt lat="47.28653" lon="-2.36087">
        <ele>22</ele>
        <time>2021-04-25T07:48:19.000Z</time>
      </trkpt>
      <trkpt lat="47.28664" lon="-2.36121">
        <ele>22</ele>
        <time>2021-04-25T07:48:25.000Z</time>
      </trkpt>
      <trkpt lat="47.28672" lon="-2.36139">
        <ele>22</ele>
        <time>2021-04-25T07:48:29.000Z</time>
      </trkpt>
      <trkpt lat="47.28676" lon="-2.36161">
        <ele>22</ele>
        <time>2021-04-25T07:48:34.000Z</time>
      </trkpt>
      <trkpt lat="47.28677" lon="-2.36163">
        <ele>22</ele>
        <time>2021-04-25T07:48:35.000Z</time>
      </trkpt>
      <trkpt lat="47.28678" lon="-2.36165">
        <ele>22.39999961853</ele>
        <time>2021-04-25T07:48:36.000Z</time>
      </trkpt>
      <trkpt lat="47.2868" lon="-2.36166">
        <ele>22.799999237061</ele>
        <time>2021-04-25T07:48:37.000Z</time>
      </trkpt>
      <trkpt lat="47.28681" lon="-2.36168">
        <ele>23.200000762939</ele>
        <time>2021-04-25T07:48:38.000Z</time>
      </trkpt>
      <trkpt lat="47.28683" lon="-2.3617">
        <ele>23.60000038147</ele>
        <time>2021-04-25T07:48:39.000Z</time>
      </trkpt>
      <trkpt lat="47.28685" lon="-2.36172">
        <ele>24</ele>
        <time>2021-04-25T07:48:40.000Z</time>
      </trkpt>
      <trkpt lat="47.28688" lon="-2.36186">
        <ele>24</ele>
        <time>2021-04-25T07:48:44.000Z</time>
      </trkpt>
      <trkpt lat="47.28689" lon="-2.36193">
        <ele>24</ele>
        <time>2021-04-25T07:48:46.000Z</time>
      </trkpt>
      <trkpt lat="47.28691" lon="-2.36197">
        <ele>24</ele>
        <time>2021-04-25T07:48:48.000Z</time>
      </trkpt>
      <trkpt lat="47.28693" lon="-2.36197">
        <ele>24</ele>
        <time>2021-04-25T07:48:50.000Z</time>
      </trkpt>
      <trkpt lat="47.28697" lon="-2.36192">
        <ele>24</ele>
        <time>2021-04-25T07:48:52.000Z</time>
      </trkpt>
      <trkpt lat="47.28733" lon="-2.36196">
        <ele>24</ele>
        <time>2021-04-25T07:48:57.000Z</time>
      </trkpt>
      <trkpt lat="47.28748" lon="-2.36203">
        <ele>23.60000038147</ele>
        <time>2021-04-25T07:49:01.000Z</time>
      </trkpt>
      <trkpt lat="47.2875" lon="-2.36204">
        <ele>23</ele>
        <time>2021-04-25T07:49:02.000Z</time>
      </trkpt>
      <trkpt lat="47.28751" lon="-2.36205">
        <ele>22.60000038147</ele>
        <time>2021-04-25T07:49:03.000Z</time>
      </trkpt>
      <trkpt lat="47.28754" lon="-2.36208">
        <ele>22.200000762939</ele>
        <time>2021-04-25T07:49:04.000Z</time>
      </trkpt>
      <trkpt lat="47.28758" lon="-2.36209">
        <ele>21.799999237061</ele>
        <time>2021-04-25T07:49:05.000Z</time>
      </trkpt>
      <trkpt lat="47.28763" lon="-2.36208">
        <ele>21.799999237061</ele>
        <time>2021-04-25T07:49:06.000Z</time>
      </trkpt>
      <trkpt lat="47.28781" lon="-2.36196">
        <ele>22.200000762939</ele>
        <time>2021-04-25T07:49:10.000Z</time>
      </trkpt>
      <trkpt lat="47.28785" lon="-2.36194">
        <ele>22.60000038147</ele>
        <time>2021-04-25T07:49:11.000Z</time>
      </trkpt>
      <trkpt lat="47.28789" lon="-2.36192">
        <ele>23</ele>
        <time>2021-04-25T07:49:12.000Z</time>
      </trkpt>
      <trkpt lat="47.28793" lon="-2.3619">
        <ele>23.39999961853</ele>
        <time>2021-04-25T07:49:13.000Z</time>
      </trkpt>
      <trkpt lat="47.28797" lon="-2.36188">
        <ele>23.799999237061</ele>
        <time>2021-04-25T07:49:14.000Z</time>
      </trkpt>
      <trkpt lat="47.28803" lon="-2.36184">
        <ele>23.39999961853</ele>
        <time>2021-04-25T07:49:16.000Z</time>
      </trkpt>
      <trkpt lat="47.28806" lon="-2.36182">
        <ele>22.799999237061</ele>
        <time>2021-04-25T07:49:17.000Z</time>
      </trkpt>
      <trkpt lat="47.2881" lon="-2.3618">
        <ele>22.39999961853</ele>
        <time>2021-04-25T07:49:18.000Z</time>
      </trkpt>
      <trkpt lat="47.28813" lon="-2.36178">
        <ele>22</ele>
        <time>2021-04-25T07:49:19.000Z</time>
      </trkpt>
      <trkpt lat="47.28816" lon="-2.36177">
        <ele>21.60000038147</ele>
        <time>2021-04-25T07:49:20.000Z</time>
      </trkpt>
      <trkpt lat="47.28832" lon="-2.36158">
        <ele>21.60000038147</ele>
        <time>2021-04-25T07:49:26.000Z</time>
      </trkpt>
      <trkpt lat="47.2885" lon="-2.36133">
        <ele>21.60000038147</ele>
        <time>2021-04-25T07:49:33.000Z</time>
      </trkpt>
      <trkpt lat="47.28872" lon="-2.36112">
        <ele>21.60000038147</ele>
        <time>2021-04-25T07:49:40.000Z</time>
      </trkpt>
      <trkpt lat="47.28882" lon="-2.36102">
        <ele>21.60000038147</ele>
        <time>2021-04-25T07:49:43.000Z</time>
      </trkpt>
      <trkpt lat="47.28897" lon="-2.36086">
        <ele>21.60000038147</ele>
        <time>2021-04-25T07:49:47.000Z</time>
      </trkpt>
      <trkpt lat="47.28905" lon="-2.36077">
        <ele>21.60000038147</ele>
        <time>2021-04-25T07:49:49.000Z</time>
      </trkpt>
      <trkpt lat="47.28917" lon="-2.36067">
        <ele>21.60000038147</ele>
        <time>2021-04-25T07:49:52.000Z</time>
      </trkpt>
      <trkpt lat="47.28948" lon="-2.36046">
        <ele>21.60000038147</ele>
        <time>2021-04-25T07:49:59.000Z</time>
      </trkpt>
      <trkpt lat="47.28978" lon="-2.36021">
        <ele>21.60000038147</ele>
        <time>2021-04-25T07:50:06.000Z</time>
      </trkpt>
      <trkpt lat="47.2901" lon="-2.35988">
        <ele>21.60000038147</ele>
        <time>2021-04-25T07:50:14.000Z</time>
      </trkpt>
      <trkpt lat="47.2904" lon="-2.35957">
        <ele>21.60000038147</ele>
        <time>2021-04-25T07:50:21.000Z</time>
      </trkpt>
      <trkpt lat="47.29074" lon="-2.35919">
        <ele>21.60000038147</ele>
        <time>2021-04-25T07:50:29.000Z</time>
      </trkpt>
      <trkpt lat="47.29103" lon="-2.35883">
        <ele>21.60000038147</ele>
        <time>2021-04-25T07:50:36.000Z</time>
      </trkpt>
      <trkpt lat="47.29136" lon="-2.35847">
        <ele>21.60000038147</ele>
        <time>2021-04-25T07:50:44.000Z</time>
      </trkpt>
      <trkpt lat="47.29143" lon="-2.35839">
        <ele>21.60000038147</ele>
        <time>2021-04-25T07:50:46.000Z</time>
      </trkpt>
      <trkpt lat="47.29158" lon="-2.35825">
        <ele>21.60000038147</ele>
        <time>2021-04-25T07:50:50.000Z</time>
      </trkpt>
      <trkpt lat="47.29185" lon="-2.35808">
        <ele>21.60000038147</ele>
        <time>2021-04-25T07:50:56.000Z</time>
      </trkpt>
      <trkpt lat="47.29221" lon="-2.35778">
        <ele>21.60000038147</ele>
        <time>2021-04-25T07:51:04.000Z</time>
      </trkpt>
      <trkpt lat="47.29245" lon="-2.35751">
        <ele>21.60000038147</ele>
        <time>2021-04-25T07:51:10.000Z</time>
      </trkpt>
      <trkpt lat="47.2925" lon="-2.35732">
        <ele>21.60000038147</ele>
        <time>2021-04-25T07:51:14.000Z</time>
      </trkpt>
      <trkpt lat="47.29245" lon="-2.3572">
        <ele>21.60000038147</ele>
        <time>2021-04-25T07:51:17.000Z</time>
      </trkpt>
      <trkpt lat="47.29238" lon="-2.35714">
        <ele>21.60000038147</ele>
        <time>2021-04-25T07:51:19.000Z</time>
      </trkpt>
      <trkpt lat="47.29225" lon="-2.35697">
        <ele>21.60000038147</ele>
        <time>2021-04-25T07:51:23.000Z</time>
      </trkpt>
      <trkpt lat="47.29225" lon="-2.35691">
        <ele>21.60000038147</ele>
        <time>2021-04-25T07:51:24.000Z</time>
      </trkpt>
      <trkpt lat="47.29228" lon="-2.3568">
        <ele>21.60000038147</ele>
        <time>2021-04-25T07:51:26.000Z</time>
      </trkpt>
      <trkpt lat="47.29247" lon="-2.35667">
        <ele>21.60000038147</ele>
        <time>2021-04-25T07:51:30.000Z</time>
      </trkpt>
      <trkpt lat="47.29284" lon="-2.35651">
        <ele>21.60000038147</ele>
        <time>2021-04-25T07:51:37.000Z</time>
      </trkpt>
      <trkpt lat="47.29325" lon="-2.35639">
        <ele>21.60000038147</ele>
        <time>2021-04-25T07:51:45.000Z</time>
      </trkpt>
      <trkpt lat="47.29366" lon="-2.35627">
        <ele>21.60000038147</ele>
        <time>2021-04-25T07:51:53.000Z</time>
      </trkpt>
      <trkpt lat="47.29397" lon="-2.35619">
        <ele>21.60000038147</ele>
        <time>2021-04-25T07:51:59.000Z</time>
      </trkpt>
      <trkpt lat="47.29408" lon="-2.35617">
        <ele>21.60000038147</ele>
        <time>2021-04-25T07:52:01.000Z</time>
      </trkpt>
      <trkpt lat="47.29449" lon="-2.35605">
        <ele>21.200000762939</ele>
        <time>2021-04-25T07:52:09.000Z</time>
      </trkpt>
      <trkpt lat="47.29454" lon="-2.35604">
        <ele>20.60000038147</ele>
        <time>2021-04-25T07:52:10.000Z</time>
      </trkpt>
      <trkpt lat="47.29459" lon="-2.35603">
        <ele>20.200000762939</ele>
        <time>2021-04-25T07:52:11.000Z</time>
      </trkpt>
      <trkpt lat="47.29464" lon="-2.35604">
        <ele>19.799999237061</ele>
        <time>2021-04-25T07:52:12.000Z</time>
      </trkpt>
      <trkpt lat="47.2947" lon="-2.35604">
        <ele>19.39999961853</ele>
        <time>2021-04-25T07:52:13.000Z</time>
      </trkpt>
      <trkpt lat="47.29482" lon="-2.35608">
        <ele>19.39999961853</ele>
        <time>2021-04-25T07:52:15.000Z</time>
      </trkpt>
      <trkpt lat="47.29524" lon="-2.35622">
        <ele>19.39999961853</ele>
        <time>2021-04-25T07:52:23.000Z</time>
      </trkpt>
      <trkpt lat="47.29542" lon="-2.35618">
        <ele>19.39999961853</ele>
        <time>2021-04-25T07:52:27.000Z</time>
      </trkpt>
      <trkpt lat="47.29547" lon="-2.35615">
        <ele>19.39999961853</ele>
        <time>2021-04-25T07:52:28.000Z</time>
      </trkpt>
      <trkpt lat="47.29551" lon="-2.35613">
        <ele>19.39999961853</ele>
        <time>2021-04-25T07:52:29.000Z</time>
      </trkpt>
      <trkpt lat="47.29566" lon="-2.35612">
        <ele>19.39999961853</ele>
        <time>2021-04-25T07:52:32.000Z</time>
      </trkpt>
      <trkpt lat="47.29578" lon="-2.35623">
        <ele>19.39999961853</ele>
        <time>2021-04-25T07:52:35.000Z</time>
      </trkpt>
      <trkpt lat="47.29585" lon="-2.35643">
        <ele>19.39999961853</ele>
        <time>2021-04-25T07:52:38.000Z</time>
      </trkpt>
      <trkpt lat="47.29592" lon="-2.35664">
        <ele>19.39999961853</ele>
        <time>2021-04-25T07:52:41.000Z</time>
      </trkpt>
      <trkpt lat="47.29613" lon="-2.35717">
        <ele>19.39999961853</ele>
        <time>2021-04-25T07:52:49.000Z</time>
      </trkpt>
      <trkpt lat="47.29629" lon="-2.35774">
        <ele>19.39999961853</ele>
        <time>2021-04-25T07:52:57.000Z</time>
      </trkpt>
      <trkpt lat="47.29631" lon="-2.35782">
        <ele>19.39999961853</ele>
        <time>2021-04-25T07:52:59.000Z</time>
      </trkpt>
      <trkpt lat="47.29634" lon="-2.35783">
        <ele>19.39999961853</ele>
        <time>2021-04-25T07:53:00.000Z</time>
      </trkpt>
      <trkpt lat="47.29646" lon="-2.358">
        <ele>19.39999961853</ele>
        <time>2021-04-25T07:53:05.000Z</time>
      </trkpt>
      <trkpt lat="47.29652" lon="-2.35809">
        <ele>19.39999961853</ele>
        <time>2021-04-25T07:53:07.000Z</time>
      </trkpt>
      <trkpt lat="47.29664" lon="-2.35828">
        <ele>19.39999961853</ele>
        <time>2021-04-25T07:53:11.000Z</time>
      </trkpt>
      <trkpt lat="47.2967" lon="-2.35838">
        <ele>19.39999961853</ele>
        <time>2021-04-25T07:53:13.000Z</time>
      </trkpt>
      <trkpt lat="47.2968" lon="-2.35841">
        <ele>19.39999961853</ele>
        <time>2021-04-25T07:53:15.000Z</time>
      </trkpt>
      <trkpt lat="47.29707" lon="-2.35833">
        <ele>19.39999961853</ele>
        <time>2021-04-25T07:53:20.000Z</time>
      </trkpt>
      <trkpt lat="47.29712" lon="-2.3583">
        <ele>19.39999961853</ele>
        <time>2021-04-25T07:53:21.000Z</time>
      </trkpt>
      <trkpt lat="47.29722" lon="-2.35824">
        <ele>20.200000762939</ele>
        <time>2021-04-25T07:53:23.000Z</time>
      </trkpt>
      <trkpt lat="47.29727" lon="-2.35821">
        <ele>20.60000038147</ele>
        <time>2021-04-25T07:53:24.000Z</time>
      </trkpt>
      <trkpt lat="47.29731" lon="-2.35818">
        <ele>21</ele>
        <time>2021-04-25T07:53:25.000Z</time>
      </trkpt>
      <trkpt lat="47.29735" lon="-2.35815">
        <ele>21.39999961853</ele>
        <time>2021-04-25T07:53:26.000Z</time>
      </trkpt>
      <trkpt lat="47.29755" lon="-2.35804">
        <ele>21.799999237061</ele>
        <time>2021-04-25T07:53:30.000Z</time>
      </trkpt>
      <trkpt lat="47.2976" lon="-2.35803">
        <ele>22.39999961853</ele>
        <time>2021-04-25T07:53:31.000Z</time>
      </trkpt>
      <trkpt lat="47.29765" lon="-2.35801">
        <ele>22.799999237061</ele>
        <time>2021-04-25T07:53:32.000Z</time>
      </trkpt>
      <trkpt lat="47.2977" lon="-2.358">
        <ele>23.200000762939</ele>
        <time>2021-04-25T07:53:33.000Z</time>
      </trkpt>
      <trkpt lat="47.29775" lon="-2.35798">
        <ele>23.60000038147</ele>
        <time>2021-04-25T07:53:34.000Z</time>
      </trkpt>
      <trkpt lat="47.29808" lon="-2.35788">
        <ele>23.60000038147</ele>
        <time>2021-04-25T07:53:41.000Z</time>
      </trkpt>
      <trkpt lat="47.29842" lon="-2.35778">
        <ele>23.60000038147</ele>
        <time>2021-04-25T07:53:47.000Z</time>
      </trkpt>
      <trkpt lat="47.2988" lon="-2.35763">
        <ele>23.60000038147</ele>
        <time>2021-04-25T07:53:53.000Z</time>
      </trkpt>
      <trkpt lat="47.2989" lon="-2.35757">
        <ele>23.60000038147</ele>
        <time>2021-04-25T07:53:55.000Z</time>
      </trkpt>
      <trkpt lat="47.29896" lon="-2.35747">
        <ele>23.60000038147</ele>
        <time>2021-04-25T07:53:57.000Z</time>
      </trkpt>
      <trkpt lat="47.29893" lon="-2.35727">
        <ele>23.60000038147</ele>
        <time>2021-04-25T07:54:00.000Z</time>
      </trkpt>
      <trkpt lat="47.2989" lon="-2.3572">
        <ele>23.60000038147</ele>
        <time>2021-04-25T07:54:01.000Z</time>
      </trkpt>
      <trkpt lat="47.29879" lon="-2.35676">
        <ele>23.60000038147</ele>
        <time>2021-04-25T07:54:07.000Z</time>
      </trkpt>
      <trkpt lat="47.2987" lon="-2.35625">
        <ele>23.60000038147</ele>
        <time>2021-04-25T07:54:13.000Z</time>
      </trkpt>
      <trkpt lat="47.29855" lon="-2.35572">
        <ele>23.200000762939</ele>
        <time>2021-04-25T07:54:19.000Z</time>
      </trkpt>
      <trkpt lat="47.29853" lon="-2.35563">
        <ele>22.60000038147</ele>
        <time>2021-04-25T07:54:20.000Z</time>
      </trkpt>
      <trkpt lat="47.29851" lon="-2.35555">
        <ele>22.200000762939</ele>
        <time>2021-04-25T07:54:21.000Z</time>
      </trkpt>
      <trkpt lat="47.29848" lon="-2.35546">
        <ele>21.799999237061</ele>
        <time>2021-04-25T07:54:22.000Z</time>
      </trkpt>
      <trkpt lat="47.29845" lon="-2.35537">
        <ele>21.200000762939</ele>
        <time>2021-04-25T07:54:23.000Z</time>
      </trkpt>
      <trkpt lat="47.29838" lon="-2.3551">
        <ele>21.200000762939</ele>
        <time>2021-04-25T07:54:26.000Z</time>
      </trkpt>
      <trkpt lat="47.2983" lon="-2.35477">
        <ele>20.799999237061</ele>
        <time>2021-04-25T07:54:30.000Z</time>
      </trkpt>
      <trkpt lat="47.29829" lon="-2.35469">
        <ele>20.39999961853</ele>
        <time>2021-04-25T07:54:31.000Z</time>
      </trkpt>
      <trkpt lat="47.29829" lon="-2.35461">
        <ele>20</ele>
        <time>2021-04-25T07:54:32.000Z</time>
      </trkpt>
      <trkpt lat="47.2983" lon="-2.35454">
        <ele>19.60000038147</ele>
        <time>2021-04-25T07:54:33.000Z</time>
      </trkpt>
      <trkpt lat="47.29834" lon="-2.35446">
        <ele>19.200000762939</ele>
        <time>2021-04-25T07:54:34.000Z</time>
      </trkpt>
      <trkpt lat="47.29847" lon="-2.35428">
        <ele>19.200000762939</ele>
        <time>2021-04-25T07:54:37.000Z</time>
      </trkpt>
      <trkpt lat="47.29854" lon="-2.35421">
        <ele>19.200000762939</ele>
        <time>2021-04-25T07:54:38.000Z</time>
      </trkpt>
      <trkpt lat="47.29893" lon="-2.35382">
        <ele>19.200000762939</ele>
        <time>2021-04-25T07:54:45.000Z</time>
      </trkpt>
      <trkpt lat="47.29939" lon="-2.35329">
        <ele>19.200000762939</ele>
        <time>2021-04-25T07:54:54.000Z</time>
      </trkpt>
      <trkpt lat="47.29944" lon="-2.35323">
        <ele>19.200000762939</ele>
        <time>2021-04-25T07:54:55.000Z</time>
      </trkpt>
      <trkpt lat="47.29972" lon="-2.35288">
        <ele>18.799999237061</ele>
        <time>2021-04-25T07:55:01.000Z</time>
      </trkpt>
      <trkpt lat="47.29977" lon="-2.35283">
        <ele>17.799999237061</ele>
        <time>2021-04-25T07:55:02.000Z</time>
      </trkpt>
      <trkpt lat="47.29981" lon="-2.35278">
        <ele>17.39999961853</ele>
        <time>2021-04-25T07:55:03.000Z</time>
      </trkpt>
      <trkpt lat="47.29985" lon="-2.35273">
        <ele>17</ele>
        <time>2021-04-25T07:55:04.000Z</time>
      </trkpt>
      <trkpt lat="47.30004" lon="-2.35257">
        <ele>17</ele>
        <time>2021-04-25T07:55:09.000Z</time>
      </trkpt>
      <trkpt lat="47.30016" lon="-2.35252">
        <ele>17</ele>
        <time>2021-04-25T07:55:14.000Z</time>
      </trkpt>
      <trkpt lat="47.30024" lon="-2.35248">
        <ele>17</ele>
        <time>2021-04-25T07:55:19.000Z</time>
      </trkpt>
      <trkpt lat="47.30025" lon="-2.35248">
        <ele>17</ele>
        <time>2021-04-25T07:55:20.000Z</time>
      </trkpt>
      <trkpt lat="47.30031" lon="-2.35244">
        <ele>17</ele>
        <time>2021-04-25T07:55:23.000Z</time>
      </trkpt>
      <trkpt lat="47.30033" lon="-2.35242">
        <ele>17</ele>
        <time>2021-04-25T07:55:24.000Z</time>
      </trkpt>
      <trkpt lat="47.3004" lon="-2.35238">
        <ele>16.200000762939</ele>
        <time>2021-04-25T07:55:27.000Z</time>
      </trkpt>
      <trkpt lat="47.30043" lon="-2.35237">
        <ele>15.800000190735</ele>
        <time>2021-04-25T07:55:28.000Z</time>
      </trkpt>
      <trkpt lat="47.30045" lon="-2.35236">
        <ele>15.39999961853</ele>
        <time>2021-04-25T07:55:29.000Z</time>
      </trkpt>
      <trkpt lat="47.30047" lon="-2.35235">
        <ele>14.800000190735</ele>
        <time>2021-04-25T07:55:30.000Z</time>
      </trkpt>
      <trkpt lat="47.3005" lon="-2.35234">
        <ele>14.800000190735</ele>
        <time>2021-04-25T07:55:31.000Z</time>
      </trkpt>
      <trkpt lat="47.30063" lon="-2.35225">
        <ele>14.800000190735</ele>
        <time>2021-04-25T07:55:36.000Z</time>
      </trkpt>
      <trkpt lat="47.30077" lon="-2.35213">
        <ele>14.800000190735</ele>
        <time>2021-04-25T07:55:40.000Z</time>
      </trkpt>
      <trkpt lat="47.30082" lon="-2.35212">
        <ele>14.800000190735</ele>
        <time>2021-04-25T07:55:41.000Z</time>
      </trkpt>
      <trkpt lat="47.30097" lon="-2.35206">
        <ele>14.800000190735</ele>
        <time>2021-04-25T07:55:44.000Z</time>
      </trkpt>
      <trkpt lat="47.30108" lon="-2.35201">
        <ele>14.800000190735</ele>
        <time>2021-04-25T07:55:46.000Z</time>
      </trkpt>
      <trkpt lat="47.30112" lon="-2.35199">
        <ele>15.199999809265</ele>
        <time>2021-04-25T07:55:47.000Z</time>
      </trkpt>
      <trkpt lat="47.30118" lon="-2.35197">
        <ele>15.800000190735</ele>
        <time>2021-04-25T07:55:48.000Z</time>
      </trkpt>
      <trkpt lat="47.30123" lon="-2.35195">
        <ele>16.200000762939</ele>
        <time>2021-04-25T07:55:49.000Z</time>
      </trkpt>
      <trkpt lat="47.30128" lon="-2.35194">
        <ele>16.60000038147</ele>
        <time>2021-04-25T07:55:50.000Z</time>
      </trkpt>
      <trkpt lat="47.30132" lon="-2.35194">
        <ele>17</ele>
        <time>2021-04-25T07:55:51.000Z</time>
      </trkpt>
      <trkpt lat="47.30138" lon="-2.35197">
        <ele>17</ele>
        <time>2021-04-25T07:55:54.000Z</time>
      </trkpt>
      <trkpt lat="47.30142" lon="-2.35196">
        <ele>17</ele>
        <time>2021-04-25T07:55:57.000Z</time>
      </trkpt>
      <trkpt lat="47.30143" lon="-2.35196">
        <ele>17</ele>
        <time>2021-04-25T07:55:59.000Z</time>
      </trkpt>
      <trkpt lat="47.30143" lon="-2.35196">
        <ele>17</ele>
        <time>2021-04-25T07:56:00.000Z</time>
      </trkpt>
      <trkpt lat="47.3015" lon="-2.35194">
        <ele>14.800000190735</ele>
        <time>2021-04-25T07:56:11.000Z</time>
      </trkpt>
      <trkpt lat="47.30153" lon="-2.35189">
        <ele>14.800000190735</ele>
        <time>2021-04-25T07:56:13.000Z</time>
      </trkpt>
      <trkpt lat="47.30168" lon="-2.35174">
        <ele>14.800000190735</ele>
        <time>2021-04-25T07:56:18.000Z</time>
      </trkpt>
      <trkpt lat="47.3019" lon="-2.35168">
        <ele>14.800000190735</ele>
        <time>2021-04-25T07:56:23.000Z</time>
      </trkpt>
      <trkpt lat="47.30199" lon="-2.35163">
        <ele>14.800000190735</ele>
        <time>2021-04-25T07:56:25.000Z</time>
      </trkpt>
      <trkpt lat="47.30202" lon="-2.35158">
        <ele>15.199999809265</ele>
        <time>2021-04-25T07:56:26.000Z</time>
      </trkpt>
      <trkpt lat="47.30204" lon="-2.35152">
        <ele>15.60000038147</ele>
        <time>2021-04-25T07:56:27.000Z</time>
      </trkpt>
      <trkpt lat="47.30205" lon="-2.35146">
        <ele>16</ele>
        <time>2021-04-25T07:56:28.000Z</time>
      </trkpt>
      <trkpt lat="47.30205" lon="-2.35139">
        <ele>16.39999961853</ele>
        <time>2021-04-25T07:56:29.000Z</time>
      </trkpt>
      <trkpt lat="47.30205" lon="-2.35133">
        <ele>16.799999237061</ele>
        <time>2021-04-25T07:56:30.000Z</time>
      </trkpt>
      <trkpt lat="47.30205" lon="-2.35127">
        <ele>16.799999237061</ele>
        <time>2021-04-25T07:56:31.000Z</time>
      </trkpt>
      <trkpt lat="47.30208" lon="-2.35086">
        <ele>16.799999237061</ele>
        <time>2021-04-25T07:56:37.000Z</time>
      </trkpt>
      <trkpt lat="47.30208" lon="-2.35078">
        <ele>16.799999237061</ele>
        <time>2021-04-25T07:56:38.000Z</time>
      </trkpt>
      <trkpt lat="47.30208" lon="-2.35057">
        <ele>17.200000762939</ele>
        <time>2021-04-25T07:56:41.000Z</time>
      </trkpt>
      <trkpt lat="47.30208" lon="-2.3505">
        <ele>17.60000038147</ele>
        <time>2021-04-25T07:56:42.000Z</time>
      </trkpt>
      <trkpt lat="47.30207" lon="-2.35044">
        <ele>18</ele>
        <time>2021-04-25T07:56:43.000Z</time>
      </trkpt>
      <trkpt lat="47.30207" lon="-2.35037">
        <ele>18.39999961853</ele>
        <time>2021-04-25T07:56:44.000Z</time>
      </trkpt>
      <trkpt lat="47.30207" lon="-2.3503">
        <ele>18.799999237061</ele>
        <time>2021-04-25T07:56:45.000Z</time>
      </trkpt>
      <trkpt lat="47.30208" lon="-2.35023">
        <ele>18.799999237061</ele>
        <time>2021-04-25T07:56:46.000Z</time>
      </trkpt>
      <trkpt lat="47.30206" lon="-2.3501">
        <ele>18.799999237061</ele>
        <time>2021-04-25T07:56:48.000Z</time>
      </trkpt>
      <trkpt lat="47.30206" lon="-2.34991">
        <ele>18.799999237061</ele>
        <time>2021-04-25T07:56:51.000Z</time>
      </trkpt>
      <trkpt lat="47.30207" lon="-2.34971">
        <ele>18.799999237061</ele>
        <time>2021-04-25T07:56:54.000Z</time>
      </trkpt>
      <trkpt lat="47.30207" lon="-2.34965">
        <ele>19.39999961853</ele>
        <time>2021-04-25T07:56:55.000Z</time>
      </trkpt>
      <trkpt lat="47.30206" lon="-2.34958">
        <ele>19.799999237061</ele>
        <time>2021-04-25T07:56:56.000Z</time>
      </trkpt>
      <trkpt lat="47.30207" lon="-2.34951">
        <ele>20.200000762939</ele>
        <time>2021-04-25T07:56:57.000Z</time>
      </trkpt>
      <trkpt lat="47.30207" lon="-2.34944">
        <ele>20.60000038147</ele>
        <time>2021-04-25T07:56:58.000Z</time>
      </trkpt>
      <trkpt lat="47.30207" lon="-2.34937">
        <ele>21</ele>
        <time>2021-04-25T07:56:59.000Z</time>
      </trkpt>
      <trkpt lat="47.30208" lon="-2.34926">
        <ele>21</ele>
        <time>2021-04-25T07:57:01.000Z</time>
      </trkpt>
      <trkpt lat="47.3021" lon="-2.34914">
        <ele>21</ele>
        <time>2021-04-25T07:57:03.000Z</time>
      </trkpt>
      <trkpt lat="47.3022" lon="-2.34895">
        <ele>21</ele>
        <time>2021-04-25T07:57:07.000Z</time>
      </trkpt>
      <trkpt lat="47.30224" lon="-2.34891">
        <ele>21</ele>
        <time>2021-04-25T07:57:08.000Z</time>
      </trkpt>
      <trkpt lat="47.3024" lon="-2.34876">
        <ele>21</ele>
        <time>2021-04-25T07:57:12.000Z</time>
      </trkpt>
      <trkpt lat="47.30249" lon="-2.34871">
        <ele>21</ele>
        <time>2021-04-25T07:57:14.000Z</time>
      </trkpt>
      <trkpt lat="47.30264" lon="-2.34862">
        <ele>21</ele>
        <time>2021-04-25T07:57:17.000Z</time>
      </trkpt>
      <trkpt lat="47.30291" lon="-2.34845">
        <ele>21</ele>
        <time>2021-04-25T07:57:23.000Z</time>
      </trkpt>
      <trkpt lat="47.30301" lon="-2.34832">
        <ele>21</ele>
        <time>2021-04-25T07:57:26.000Z</time>
      </trkpt>
      <trkpt lat="47.30308" lon="-2.34824">
        <ele>21</ele>
        <time>2021-04-25T07:57:28.000Z</time>
      </trkpt>
      <trkpt lat="47.30314" lon="-2.34813">
        <ele>21</ele>
        <time>2021-04-25T07:57:30.000Z</time>
      </trkpt>
      <trkpt lat="47.30323" lon="-2.34796">
        <ele>21</ele>
        <time>2021-04-25T07:57:33.000Z</time>
      </trkpt>
      <trkpt lat="47.30326" lon="-2.3479">
        <ele>21.39999961853</ele>
        <time>2021-04-25T07:57:34.000Z</time>
      </trkpt>
      <trkpt lat="47.30329" lon="-2.34784">
        <ele>21.799999237061</ele>
        <time>2021-04-25T07:57:35.000Z</time>
      </trkpt>
      <trkpt lat="47.30333" lon="-2.34779">
        <ele>22.200000762939</ele>
        <time>2021-04-25T07:57:36.000Z</time>
      </trkpt>
      <trkpt lat="47.30336" lon="-2.34776">
        <ele>22.60000038147</ele>
        <time>2021-04-25T07:57:37.000Z</time>
      </trkpt>
      <trkpt lat="47.3034" lon="-2.34772">
        <ele>23</ele>
        <time>2021-04-25T07:57:38.000Z</time>
      </trkpt>
      <trkpt lat="47.30353" lon="-2.34763">
        <ele>23</ele>
        <time>2021-04-25T07:57:41.000Z</time>
      </trkpt>
      <trkpt lat="47.30368" lon="-2.34752">
        <ele>23</ele>
        <time>2021-04-25T07:57:44.000Z</time>
      </trkpt>
      <trkpt lat="47.30397" lon="-2.34735">
        <ele>23</ele>
        <time>2021-04-25T07:57:49.000Z</time>
      </trkpt>
      <trkpt lat="47.30402" lon="-2.34732">
        <ele>23</ele>
        <time>2021-04-25T07:57:50.000Z</time>
      </trkpt>
      <trkpt lat="47.30407" lon="-2.34729">
        <ele>23</ele>
        <time>2021-04-25T07:57:51.000Z</time>
      </trkpt>
      <trkpt lat="47.30424" lon="-2.34719">
        <ele>23</ele>
        <time>2021-04-25T07:57:54.000Z</time>
      </trkpt>
      <trkpt lat="47.30428" lon="-2.34714">
        <ele>23</ele>
        <time>2021-04-25T07:57:55.000Z</time>
      </trkpt>
      <trkpt lat="47.30453" lon="-2.34688">
        <ele>23</ele>
        <time>2021-04-25T07:58:01.000Z</time>
      </trkpt>
      <trkpt lat="47.30468" lon="-2.34673">
        <ele>22.60000038147</ele>
        <time>2021-04-25T07:58:04.000Z</time>
      </trkpt>
      <trkpt lat="47.30473" lon="-2.34668">
        <ele>22.200000762939</ele>
        <time>2021-04-25T07:58:05.000Z</time>
      </trkpt>
      <trkpt lat="47.30479" lon="-2.34664">
        <ele>21.799999237061</ele>
        <time>2021-04-25T07:58:06.000Z</time>
      </trkpt>
      <trkpt lat="47.30484" lon="-2.34659">
        <ele>21.39999961853</ele>
        <time>2021-04-25T07:58:07.000Z</time>
      </trkpt>
      <trkpt lat="47.30488" lon="-2.34653">
        <ele>21</ele>
        <time>2021-04-25T07:58:08.000Z</time>
      </trkpt>
      <trkpt lat="47.30499" lon="-2.34637">
        <ele>21</ele>
        <time>2021-04-25T07:58:11.000Z</time>
      </trkpt>
      <trkpt lat="47.30502" lon="-2.34631">
        <ele>21</ele>
        <time>2021-04-25T07:58:12.000Z</time>
      </trkpt>
      <trkpt lat="47.30512" lon="-2.34615">
        <ele>21</ele>
        <time>2021-04-25T07:58:15.000Z</time>
      </trkpt>
      <trkpt lat="47.30516" lon="-2.3461">
        <ele>21</ele>
        <time>2021-04-25T07:58:16.000Z</time>
      </trkpt>
      <trkpt lat="47.30519" lon="-2.34604">
        <ele>21</ele>
        <time>2021-04-25T07:58:17.000Z</time>
      </trkpt>
      <trkpt lat="47.30533" lon="-2.34582">
        <ele>21</ele>
        <time>2021-04-25T07:58:21.000Z</time>
      </trkpt>
      <trkpt lat="47.30553" lon="-2.34552">
        <ele>21</ele>
        <time>2021-04-25T07:58:27.000Z</time>
      </trkpt>
      <trkpt lat="47.30557" lon="-2.34546">
        <ele>21</ele>
        <time>2021-04-25T07:58:28.000Z</time>
      </trkpt>
      <trkpt lat="47.30567" lon="-2.34529">
        <ele>21.39999961853</ele>
        <time>2021-04-25T07:58:31.000Z</time>
      </trkpt>
      <trkpt lat="47.3057" lon="-2.34524">
        <ele>21.799999237061</ele>
        <time>2021-04-25T07:58:32.000Z</time>
      </trkpt>
      <trkpt lat="47.30574" lon="-2.34517">
        <ele>22.200000762939</ele>
        <time>2021-04-25T07:58:33.000Z</time>
      </trkpt>
      <trkpt lat="47.30577" lon="-2.34511">
        <ele>22.60000038147</ele>
        <time>2021-04-25T07:58:34.000Z</time>
      </trkpt>
      <trkpt lat="47.3058" lon="-2.34506">
        <ele>23</ele>
        <time>2021-04-25T07:58:35.000Z</time>
      </trkpt>
      <trkpt lat="47.30591" lon="-2.34486">
        <ele>23</ele>
        <time>2021-04-25T07:58:39.000Z</time>
      </trkpt>
      <trkpt lat="47.30595" lon="-2.34479">
        <ele>23</ele>
        <time>2021-04-25T07:58:40.000Z</time>
      </trkpt>
      <trkpt lat="47.30613" lon="-2.34452">
        <ele>23</ele>
        <time>2021-04-25T07:58:45.000Z</time>
      </trkpt>
      <trkpt lat="47.30622" lon="-2.34443">
        <ele>23</ele>
        <time>2021-04-25T07:58:47.000Z</time>
      </trkpt>
      <trkpt lat="47.30641" lon="-2.34423">
        <ele>23</ele>
        <time>2021-04-25T07:58:51.000Z</time>
      </trkpt>
      <trkpt lat="47.30669" lon="-2.34388">
        <ele>23</ele>
        <time>2021-04-25T07:58:58.000Z</time>
      </trkpt>
      <trkpt lat="47.30688" lon="-2.34353">
        <ele>23</ele>
        <time>2021-04-25T07:59:03.000Z</time>
      </trkpt>
      <trkpt lat="47.30706" lon="-2.34313">
        <ele>23</ele>
        <time>2021-04-25T07:59:09.000Z</time>
      </trkpt>
      <trkpt lat="47.3071" lon="-2.34306">
        <ele>23</ele>
        <time>2021-04-25T07:59:10.000Z</time>
      </trkpt>
      <trkpt lat="47.30722" lon="-2.34281">
        <ele>23</ele>
        <time>2021-04-25T07:59:14.000Z</time>
      </trkpt>
      <trkpt lat="47.30725" lon="-2.34248">
        <ele>23</ele>
        <time>2021-04-25T07:59:19.000Z</time>
      </trkpt>
      <trkpt lat="47.30727" lon="-2.34243">
        <ele>23</ele>
        <time>2021-04-25T07:59:20.000Z</time>
      </trkpt>
      <trkpt lat="47.30736" lon="-2.34237">
        <ele>23</ele>
        <time>2021-04-25T07:59:22.000Z</time>
      </trkpt>
      <trkpt lat="47.3075" lon="-2.3423">
        <ele>23</ele>
        <time>2021-04-25T07:59:25.000Z</time>
      </trkpt>
      <trkpt lat="47.30761" lon="-2.34223">
        <ele>23</ele>
        <time>2021-04-25T07:59:27.000Z</time>
      </trkpt>
      <trkpt lat="47.30768" lon="-2.34206">
        <ele>23</ele>
        <time>2021-04-25T07:59:30.000Z</time>
      </trkpt>
      <trkpt lat="47.30768" lon="-2.34174">
        <ele>23</ele>
        <time>2021-04-25T07:59:35.000Z</time>
      </trkpt>
      <trkpt lat="47.30769" lon="-2.34152">
        <ele>23</ele>
        <time>2021-04-25T07:59:38.000Z</time>
      </trkpt>
      <trkpt lat="47.30772" lon="-2.34127">
        <ele>22.60000038147</ele>
        <time>2021-04-25T07:59:41.000Z</time>
      </trkpt>
      <trkpt lat="47.30773" lon="-2.34118">
        <ele>22.200000762939</ele>
        <time>2021-04-25T07:59:42.000Z</time>
      </trkpt>
      <trkpt lat="47.30773" lon="-2.3411">
        <ele>21.799999237061</ele>
        <time>2021-04-25T07:59:43.000Z</time>
      </trkpt>
      <trkpt lat="47.30774" lon="-2.34102">
        <ele>21.39999961853</ele>
        <time>2021-04-25T07:59:44.000Z</time>
      </trkpt>
      <trkpt lat="47.30775" lon="-2.34095">
        <ele>21</ele>
        <time>2021-04-25T07:59:45.000Z</time>
      </trkpt>
      <trkpt lat="47.30776" lon="-2.3408">
        <ele>21</ele>
        <time>2021-04-25T07:59:47.000Z</time>
      </trkpt>
      <trkpt lat="47.30777" lon="-2.34071">
        <ele>21</ele>
        <time>2021-04-25T07:59:48.000Z</time>
      </trkpt>
      <trkpt lat="47.30777" lon="-2.34055">
        <ele>21</ele>
        <time>2021-04-25T07:59:50.000Z</time>
      </trkpt>
      <trkpt lat="47.30778" lon="-2.34032">
        <ele>21</ele>
        <time>2021-04-25T07:59:53.000Z</time>
      </trkpt>
      <trkpt lat="47.3078" lon="-2.33986">
        <ele>21</ele>
        <time>2021-04-25T07:59:59.000Z</time>
      </trkpt>
      <trkpt lat="47.30782" lon="-2.33981">
        <ele>21</ele>
        <time>2021-04-25T08:00:00.000Z</time>
      </trkpt>
      <trkpt lat="47.30788" lon="-2.33974">
        <ele>21</ele>
        <time>2021-04-25T08:00:02.000Z</time>
      </trkpt>
      <trkpt lat="47.30795" lon="-2.33971">
        <ele>21</ele>
        <time>2021-04-25T08:00:04.000Z</time>
      </trkpt>
      <trkpt lat="47.30804" lon="-2.33967">
        <ele>21</ele>
        <time>2021-04-25T08:00:07.000Z</time>
      </trkpt>
      <trkpt lat="47.30804" lon="-2.33968">
        <ele>21</ele>
        <time>2021-04-25T08:00:09.000Z</time>
      </trkpt>
      <trkpt lat="47.30805" lon="-2.33967">
        <ele>21</ele>
        <time>2021-04-25T08:00:36.000Z</time>
      </trkpt>
      <trkpt lat="47.30819" lon="-2.33959">
        <ele>21</ele>
        <time>2021-04-25T08:00:41.000Z</time>
      </trkpt>
      <trkpt lat="47.3084" lon="-2.33953">
        <ele>21</ele>
        <time>2021-04-25T08:00:46.000Z</time>
      </trkpt>
      <trkpt lat="47.30846" lon="-2.33953">
        <ele>21</ele>
        <time>2021-04-25T08:00:47.000Z</time>
      </trkpt>
      <trkpt lat="47.30879" lon="-2.33948">
        <ele>21</ele>
        <time>2021-04-25T08:00:53.000Z</time>
      </trkpt>
      <trkpt lat="47.30919" lon="-2.33946">
        <ele>21</ele>
        <time>2021-04-25T08:01:00.000Z</time>
      </trkpt>
      <trkpt lat="47.30954" lon="-2.33951">
        <ele>21</ele>
        <time>2021-04-25T08:01:06.000Z</time>
      </trkpt>
      <trkpt lat="47.30978" lon="-2.33955">
        <ele>21</ele>
        <time>2021-04-25T08:01:10.000Z</time>
      </trkpt>
      <trkpt lat="47.30995" lon="-2.33954">
        <ele>21</ele>
        <time>2021-04-25T08:01:13.000Z</time>
      </trkpt>
      <trkpt lat="47.3104" lon="-2.33947">
        <ele>21</ele>
        <time>2021-04-25T08:01:21.000Z</time>
      </trkpt>
      <trkpt lat="47.31057" lon="-2.33942">
        <ele>20.60000038147</ele>
        <time>2021-04-25T08:01:24.000Z</time>
      </trkpt>
      <trkpt lat="47.31061" lon="-2.33938">
        <ele>20.200000762939</ele>
        <time>2021-04-25T08:01:25.000Z</time>
      </trkpt>
      <trkpt lat="47.31063" lon="-2.33931">
        <ele>19.799999237061</ele>
        <time>2021-04-25T08:01:26.000Z</time>
      </trkpt>
      <trkpt lat="47.31063" lon="-2.33923">
        <ele>19.39999961853</ele>
        <time>2021-04-25T08:01:27.000Z</time>
      </trkpt>
      <trkpt lat="47.31062" lon="-2.33915">
        <ele>19</ele>
        <time>2021-04-25T08:01:28.000Z</time>
      </trkpt>
      <trkpt lat="47.31063" lon="-2.33907">
        <ele>19</ele>
        <time>2021-04-25T08:01:29.000Z</time>
      </trkpt>
      <trkpt lat="47.31063" lon="-2.33855">
        <ele>19</ele>
        <time>2021-04-25T08:01:35.000Z</time>
      </trkpt>
      <trkpt lat="47.3107" lon="-2.33801">
        <ele>19</ele>
        <time>2021-04-25T08:01:41.000Z</time>
      </trkpt>
      <trkpt lat="47.31073" lon="-2.33792">
        <ele>19</ele>
        <time>2021-04-25T08:01:42.000Z</time>
      </trkpt>
      <trkpt lat="47.31083" lon="-2.33768">
        <ele>19</ele>
        <time>2021-04-25T08:01:45.000Z</time>
      </trkpt>
      <trkpt lat="47.31093" lon="-2.33741">
        <ele>19</ele>
        <time>2021-04-25T08:01:48.000Z</time>
      </trkpt>
      <trkpt lat="47.31101" lon="-2.33683">
        <ele>19</ele>
        <time>2021-04-25T08:01:54.000Z</time>
      </trkpt>
      <trkpt lat="47.31108" lon="-2.33628">
        <ele>19</ele>
        <time>2021-04-25T08:02:00.000Z</time>
      </trkpt>
      <trkpt lat="47.31111" lon="-2.33603">
        <ele>19</ele>
        <time>2021-04-25T08:02:03.000Z</time>
      </trkpt>
      <trkpt lat="47.31113" lon="-2.33577">
        <ele>19</ele>
        <time>2021-04-25T08:02:06.000Z</time>
      </trkpt>
      <trkpt lat="47.31112" lon="-2.33561">
        <ele>19</ele>
        <time>2021-04-25T08:02:08.000Z</time>
      </trkpt>
      <trkpt lat="47.31108" lon="-2.3353">
        <ele>19</ele>
        <time>2021-04-25T08:02:12.000Z</time>
      </trkpt>
      <trkpt lat="47.31104" lon="-2.33502">
        <ele>19</ele>
        <time>2021-04-25T08:02:16.000Z</time>
      </trkpt>
      <trkpt lat="47.31103" lon="-2.33495">
        <ele>19</ele>
        <time>2021-04-25T08:02:17.000Z</time>
      </trkpt>
      <trkpt lat="47.31098" lon="-2.33452">
        <ele>18.39999961853</ele>
        <time>2021-04-25T08:02:22.000Z</time>
      </trkpt>
      <trkpt lat="47.31098" lon="-2.33442">
        <ele>18</ele>
        <time>2021-04-25T08:02:23.000Z</time>
      </trkpt>
      <trkpt lat="47.31097" lon="-2.33433">
        <ele>17.60000038147</ele>
        <time>2021-04-25T08:02:24.000Z</time>
      </trkpt>
      <trkpt lat="47.31097" lon="-2.33423">
        <ele>17.200000762939</ele>
        <time>2021-04-25T08:02:25.000Z</time>
      </trkpt>
      <trkpt lat="47.31097" lon="-2.33414">
        <ele>16.60000038147</ele>
        <time>2021-04-25T08:02:26.000Z</time>
      </trkpt>
      <trkpt lat="47.31097" lon="-2.33385">
        <ele>16.60000038147</ele>
        <time>2021-04-25T08:02:29.000Z</time>
      </trkpt>
      <trkpt lat="47.31099" lon="-2.333">
        <ele>16.200000762939</ele>
        <time>2021-04-25T08:02:38.000Z</time>
      </trkpt>
      <trkpt lat="47.31099" lon="-2.33291">
        <ele>15.800000190735</ele>
        <time>2021-04-25T08:02:39.000Z</time>
      </trkpt>
      <trkpt lat="47.311" lon="-2.33283">
        <ele>15.39999961853</ele>
        <time>2021-04-25T08:02:40.000Z</time>
      </trkpt>
      <trkpt lat="47.311" lon="-2.33274">
        <ele>15</ele>
        <time>2021-04-25T08:02:41.000Z</time>
      </trkpt>
      <trkpt lat="47.31101" lon="-2.33265">
        <ele>14.60000038147</ele>
        <time>2021-04-25T08:02:42.000Z</time>
      </trkpt>
      <trkpt lat="47.31103" lon="-2.3324">
        <ele>14.60000038147</ele>
        <time>2021-04-25T08:02:45.000Z</time>
      </trkpt>
      <trkpt lat="47.31109" lon="-2.33215">
        <ele>14.60000038147</ele>
        <time>2021-04-25T08:02:48.000Z</time>
      </trkpt>
      <trkpt lat="47.31117" lon="-2.33203">
        <ele>14.60000038147</ele>
        <time>2021-04-25T08:02:50.000Z</time>
      </trkpt>
      <trkpt lat="47.31126" lon="-2.33194">
        <ele>14.60000038147</ele>
        <time>2021-04-25T08:02:52.000Z</time>
      </trkpt>
      <trkpt lat="47.31132" lon="-2.3319">
        <ele>14.60000038147</ele>
        <time>2021-04-25T08:02:53.000Z</time>
      </trkpt>
      <trkpt lat="47.31137" lon="-2.33186">
        <ele>14.60000038147</ele>
        <time>2021-04-25T08:02:54.000Z</time>
      </trkpt>
      <trkpt lat="47.31169" lon="-2.33164">
        <ele>14.199999809265</ele>
        <time>2021-04-25T08:02:59.000Z</time>
      </trkpt>
      <trkpt lat="47.31175" lon="-2.3316">
        <ele>13.800000190735</ele>
        <time>2021-04-25T08:03:00.000Z</time>
      </trkpt>
      <trkpt lat="47.31182" lon="-2.33156">
        <ele>13.39999961853</ele>
        <time>2021-04-25T08:03:01.000Z</time>
      </trkpt>
      <trkpt lat="47.31189" lon="-2.33153">
        <ele>13</ele>
        <time>2021-04-25T08:03:02.000Z</time>
      </trkpt>
      <trkpt lat="47.31196" lon="-2.3315">
        <ele>12.60000038147</ele>
        <time>2021-04-25T08:03:03.000Z</time>
      </trkpt>
      <trkpt lat="47.31211" lon="-2.33146">
        <ele>12.60000038147</ele>
        <time>2021-04-25T08:03:05.000Z</time>
      </trkpt>
      <trkpt lat="47.31225" lon="-2.33145">
        <ele>12.60000038147</ele>
        <time>2021-04-25T08:03:07.000Z</time>
      </trkpt>
      <trkpt lat="47.3125" lon="-2.33149">
        <ele>12.60000038147</ele>
        <time>2021-04-25T08:03:10.000Z</time>
      </trkpt>
      <trkpt lat="47.31257" lon="-2.33151">
        <ele>12.60000038147</ele>
        <time>2021-04-25T08:03:11.000Z</time>
      </trkpt>
      <trkpt lat="47.31264" lon="-2.33154">
        <ele>12.60000038147</ele>
        <time>2021-04-25T08:03:12.000Z</time>
      </trkpt>
      <trkpt lat="47.31282" lon="-2.33165">
        <ele>12.60000038147</ele>
        <time>2021-04-25T08:03:15.000Z</time>
      </trkpt>
      <trkpt lat="47.3132" lon="-2.33194">
        <ele>12.60000038147</ele>
        <time>2021-04-25T08:03:22.000Z</time>
      </trkpt>
      <trkpt lat="47.31324" lon="-2.33199">
        <ele>12.60000038147</ele>
        <time>2021-04-25T08:03:23.000Z</time>
      </trkpt>
      <trkpt lat="47.31344" lon="-2.33218">
        <ele>12.60000038147</ele>
        <time>2021-04-25T08:03:27.000Z</time>
      </trkpt>
      <trkpt lat="47.31381" lon="-2.33245">
        <ele>12.60000038147</ele>
        <time>2021-04-25T08:03:34.000Z</time>
      </trkpt>
      <trkpt lat="47.31412" lon="-2.33268">
        <ele>12.60000038147</ele>
        <time>2021-04-25T08:03:40.000Z</time>
      </trkpt>
      <trkpt lat="47.31441" lon="-2.33295">
        <ele>12.60000038147</ele>
        <time>2021-04-25T08:03:46.000Z</time>
      </trkpt>
      <trkpt lat="47.31453" lon="-2.3331">
        <ele>12.60000038147</ele>
        <time>2021-04-25T08:03:49.000Z</time>
      </trkpt>
      <trkpt lat="47.31459" lon="-2.33322">
        <ele>13</ele>
        <time>2021-04-25T08:03:51.000Z</time>
      </trkpt>
      <trkpt lat="47.31463" lon="-2.33328">
        <ele>13.39999961853</ele>
        <time>2021-04-25T08:03:52.000Z</time>
      </trkpt>
      <trkpt lat="47.31466" lon="-2.33335">
        <ele>13.800000190735</ele>
        <time>2021-04-25T08:03:53.000Z</time>
      </trkpt>
      <trkpt lat="47.31469" lon="-2.33341">
        <ele>14.199999809265</ele>
        <time>2021-04-25T08:03:54.000Z</time>
      </trkpt>
      <trkpt lat="47.31472" lon="-2.33348">
        <ele>14.60000038147</ele>
        <time>2021-04-25T08:03:55.000Z</time>
      </trkpt>
      <trkpt lat="47.31483" lon="-2.33367">
        <ele>14.60000038147</ele>
        <time>2021-04-25T08:03:58.000Z</time>
      </trkpt>
      <trkpt lat="47.3149" lon="-2.33368">
        <ele>14.60000038147</ele>
        <time>2021-04-25T08:03:59.000Z</time>
      </trkpt>
      <trkpt lat="47.31506" lon="-2.33359">
        <ele>14.60000038147</ele>
        <time>2021-04-25T08:04:02.000Z</time>
      </trkpt>
      <trkpt lat="47.31511" lon="-2.33355">
        <ele>14.60000038147</ele>
        <time>2021-04-25T08:04:03.000Z</time>
      </trkpt>
      <trkpt lat="47.3154" lon="-2.33339">
        <ele>15</ele>
        <time>2021-04-25T08:04:08.000Z</time>
      </trkpt>
      <trkpt lat="47.31546" lon="-2.33337">
        <ele>15.39999961853</ele>
        <time>2021-04-25T08:04:09.000Z</time>
      </trkpt>
      <trkpt lat="47.31552" lon="-2.33334">
        <ele>15.800000190735</ele>
        <time>2021-04-25T08:04:10.000Z</time>
      </trkpt>
      <trkpt lat="47.31558" lon="-2.33331">
        <ele>16.200000762939</ele>
        <time>2021-04-25T08:04:11.000Z</time>
      </trkpt>
      <trkpt lat="47.31565" lon="-2.33329">
        <ele>16.60000038147</ele>
        <time>2021-04-25T08:04:12.000Z</time>
      </trkpt>
      <trkpt lat="47.31589" lon="-2.33317">
        <ele>16.60000038147</ele>
        <time>2021-04-25T08:04:16.000Z</time>
      </trkpt>
      <trkpt lat="47.31623" lon="-2.33296">
        <ele>16.60000038147</ele>
        <time>2021-04-25T08:04:22.000Z</time>
      </trkpt>
      <trkpt lat="47.31669" lon="-2.33271">
        <ele>16.60000038147</ele>
        <time>2021-04-25T08:04:30.000Z</time>
      </trkpt>
      <trkpt lat="47.31675" lon="-2.33268">
        <ele>16.200000762939</ele>
        <time>2021-04-25T08:04:31.000Z</time>
      </trkpt>
      <trkpt lat="47.3168" lon="-2.33266">
        <ele>15.800000190735</ele>
        <time>2021-04-25T08:04:32.000Z</time>
      </trkpt>
      <trkpt lat="47.31685" lon="-2.33264">
        <ele>15.199999809265</ele>
        <time>2021-04-25T08:04:33.000Z</time>
      </trkpt>
      <trkpt lat="47.3169" lon="-2.33262">
        <ele>14.800000190735</ele>
        <time>2021-04-25T08:04:34.000Z</time>
      </trkpt>
      <trkpt lat="47.31696" lon="-2.33259">
        <ele>14.39999961853</ele>
        <time>2021-04-25T08:04:35.000Z</time>
      </trkpt>
      <trkpt lat="47.317" lon="-2.33256">
        <ele>14.39999961853</ele>
        <time>2021-04-25T08:04:36.000Z</time>
      </trkpt>
      <trkpt lat="47.31716" lon="-2.33248">
        <ele>13.800000190735</ele>
        <time>2021-04-25T08:04:39.000Z</time>
      </trkpt>
      <trkpt lat="47.31722" lon="-2.33245">
        <ele>13.39999961853</ele>
        <time>2021-04-25T08:04:40.000Z</time>
      </trkpt>
      <trkpt lat="47.31727" lon="-2.33242">
        <ele>13</ele>
        <time>2021-04-25T08:04:41.000Z</time>
      </trkpt>
      <trkpt lat="47.31732" lon="-2.3324">
        <ele>12.39999961853</ele>
        <time>2021-04-25T08:04:42.000Z</time>
      </trkpt>
      <trkpt lat="47.31735" lon="-2.3324">
        <ele>12</ele>
        <time>2021-04-25T08:04:43.000Z</time>
      </trkpt>
      <trkpt lat="47.31738" lon="-2.33246">
        <ele>11.60000038147</ele>
        <time>2021-04-25T08:04:44.000Z</time>
      </trkpt>
      <trkpt lat="47.31741" lon="-2.33251">
        <ele>11.199999809265</ele>
        <time>2021-04-25T08:04:45.000Z</time>
      </trkpt>
      <trkpt lat="47.31744" lon="-2.33255">
        <ele>10.800000190735</ele>
        <time>2021-04-25T08:04:46.000Z</time>
      </trkpt>
      <trkpt lat="47.31744" lon="-2.33263">
        <ele>10.39999961853</ele>
        <time>2021-04-25T08:04:47.000Z</time>
      </trkpt>
      <trkpt lat="47.31745" lon="-2.3327">
        <ele>10</ele>
        <time>2021-04-25T08:04:48.000Z</time>
      </trkpt>
      <trkpt lat="47.31746" lon="-2.33276">
        <ele>10</ele>
        <time>2021-04-25T08:04:49.000Z</time>
      </trkpt>
      <trkpt lat="47.31753" lon="-2.33303">
        <ele>10</ele>
        <time>2021-04-25T08:04:53.000Z</time>
      </trkpt>
      <trkpt lat="47.31761" lon="-2.33318">
        <ele>10</ele>
        <time>2021-04-25T08:04:55.000Z</time>
      </trkpt>
      <trkpt lat="47.31773" lon="-2.33318">
        <ele>10</ele>
        <time>2021-04-25T08:04:57.000Z</time>
      </trkpt>
      <trkpt lat="47.31778" lon="-2.33313">
        <ele>9.3999996185303</ele>
        <time>2021-04-25T08:04:58.000Z</time>
      </trkpt>
      <trkpt lat="47.31784" lon="-2.33309">
        <ele>9</ele>
        <time>2021-04-25T08:04:59.000Z</time>
      </trkpt>
      <trkpt lat="47.3179" lon="-2.33305">
        <ele>8.6000003814697</ele>
        <time>2021-04-25T08:05:00.000Z</time>
      </trkpt>
      <trkpt lat="47.31796" lon="-2.333">
        <ele>8.1999998092651</ele>
        <time>2021-04-25T08:05:01.000Z</time>
      </trkpt>
      <trkpt lat="47.31801" lon="-2.33295">
        <ele>7.8000001907349</ele>
        <time>2021-04-25T08:05:02.000Z</time>
      </trkpt>
      <trkpt lat="47.31813" lon="-2.33286">
        <ele>7.4000000953674</ele>
        <time>2021-04-25T08:05:04.000Z</time>
      </trkpt>
      <trkpt lat="47.31818" lon="-2.33282">
        <ele>6.8000001907349</ele>
        <time>2021-04-25T08:05:05.000Z</time>
      </trkpt>
      <trkpt lat="47.31823" lon="-2.33278">
        <ele>6.4000000953674</ele>
        <time>2021-04-25T08:05:06.000Z</time>
      </trkpt>
      <trkpt lat="47.31828" lon="-2.33273">
        <ele>6</ele>
        <time>2021-04-25T08:05:07.000Z</time>
      </trkpt>
      <trkpt lat="47.31832" lon="-2.33268">
        <ele>5.4000000953674</ele>
        <time>2021-04-25T08:05:08.000Z</time>
      </trkpt>
      <trkpt lat="47.31849" lon="-2.33251">
        <ele>5.4000000953674</ele>
        <time>2021-04-25T08:05:11.000Z</time>
      </trkpt>
      <trkpt lat="47.31852" lon="-2.33242">
        <ele>5</ele>
        <time>2021-04-25T08:05:12.000Z</time>
      </trkpt>
      <trkpt lat="47.31854" lon="-2.3323">
        <ele>4.5999999046326</ele>
        <time>2021-04-25T08:05:13.000Z</time>
      </trkpt>
      <trkpt lat="47.31855" lon="-2.33219">
        <ele>4.1999998092651</ele>
        <time>2021-04-25T08:05:14.000Z</time>
      </trkpt>
      <trkpt lat="47.31857" lon="-2.33209">
        <ele>3.7999999523163</ele>
        <time>2021-04-25T08:05:15.000Z</time>
      </trkpt>
      <trkpt lat="47.31858" lon="-2.33197">
        <ele>3.4000000953674</ele>
        <time>2021-04-25T08:05:16.000Z</time>
      </trkpt>
      <trkpt lat="47.31861" lon="-2.33158">
        <ele>3.4000000953674</ele>
        <time>2021-04-25T08:05:20.000Z</time>
      </trkpt>
      <trkpt lat="47.31862" lon="-2.33149">
        <ele>3</ele>
        <time>2021-04-25T08:05:21.000Z</time>
      </trkpt>
      <trkpt lat="47.31864" lon="-2.33139">
        <ele>2.4000000953674</ele>
        <time>2021-04-25T08:05:22.000Z</time>
      </trkpt>
      <trkpt lat="47.31865" lon="-2.33129">
        <ele>2</ele>
        <time>2021-04-25T08:05:23.000Z</time>
      </trkpt>
      <trkpt lat="47.31865" lon="-2.33117">
        <ele>1.6000000238419</ele>
        <time>2021-04-25T08:05:24.000Z</time>
      </trkpt>
      <trkpt lat="47.31866" lon="-2.33105">
        <ele>1.2000000476837</ele>
        <time>2021-04-25T08:05:25.000Z</time>
      </trkpt>
      <trkpt lat="47.31872" lon="-2.33044">
        <ele>0.80000001192093</ele>
        <time>2021-04-25T08:05:30.000Z</time>
      </trkpt>
      <trkpt lat="47.31872" lon="-2.33032">
        <ele>0.40000000596046</ele>
        <time>2021-04-25T08:05:31.000Z</time>
      </trkpt>
      <trkpt lat="47.31872" lon="-2.33021">
        <ele>-0.20000000298023</ele>
        <time>2021-04-25T08:05:32.000Z</time>
      </trkpt>
      <trkpt lat="47.31872" lon="-2.33009">
        <ele>-0.60000002384186</ele>
        <time>2021-04-25T08:05:33.000Z</time>
      </trkpt>
      <trkpt lat="47.31872" lon="-2.32997">
        <ele>-1</ele>
        <time>2021-04-25T08:05:34.000Z</time>
      </trkpt>
      <trkpt lat="47.31873" lon="-2.32987">
        <ele>-1</ele>
        <time>2021-04-25T08:05:35.000Z</time>
      </trkpt>
      <trkpt lat="47.31875" lon="-2.32977">
        <ele>-1</ele>
        <time>2021-04-25T08:05:36.000Z</time>
      </trkpt>
      <trkpt lat="47.3188" lon="-2.32929">
        <ele>-1</ele>
        <time>2021-04-25T08:05:41.000Z</time>
      </trkpt>
      <trkpt lat="47.31879" lon="-2.32885">
        <ele>-1</ele>
        <time>2021-04-25T08:05:46.000Z</time>
      </trkpt>
      <trkpt lat="47.31878" lon="-2.32838">
        <ele>-1</ele>
        <time>2021-04-25T08:05:51.000Z</time>
      </trkpt>
      <trkpt lat="47.31877" lon="-2.32829">
        <ele>-1</ele>
        <time>2021-04-25T08:05:52.000Z</time>
      </trkpt>
      <trkpt lat="47.31877" lon="-2.32786">
        <ele>-1</ele>
        <time>2021-04-25T08:05:57.000Z</time>
      </trkpt>
      <trkpt lat="47.31877" lon="-2.32773">
        <ele>-1</ele>
        <time>2021-04-25T08:05:59.000Z</time>
      </trkpt>
      <trkpt lat="47.31873" lon="-2.32755">
        <ele>-1</ele>
        <time>2021-04-25T08:06:02.000Z</time>
      </trkpt>
      <trkpt lat="47.31863" lon="-2.32723">
        <ele>-1</ele>
        <time>2021-04-25T08:06:07.000Z</time>
      </trkpt>
      <trkpt lat="47.31847" lon="-2.32682">
        <ele>-1</ele>
        <time>2021-04-25T08:06:14.000Z</time>
      </trkpt>
      <trkpt lat="47.31839" lon="-2.32644">
        <ele>-1</ele>
        <time>2021-04-25T08:06:20.000Z</time>
      </trkpt>
      <trkpt lat="47.31835" lon="-2.32629">
        <ele>-0.60000002384186</ele>
        <time>2021-04-25T08:06:22.000Z</time>
      </trkpt>
      <trkpt lat="47.31833" lon="-2.32622">
        <ele>-0.20000000298023</ele>
        <time>2021-04-25T08:06:23.000Z</time>
      </trkpt>
      <trkpt lat="47.31832" lon="-2.32614">
        <ele>0.20000000298023</ele>
        <time>2021-04-25T08:06:24.000Z</time>
      </trkpt>
      <trkpt lat="47.31831" lon="-2.32607">
        <ele>0.60000002384186</ele>
        <time>2021-04-25T08:06:25.000Z</time>
      </trkpt>
      <trkpt lat="47.3183" lon="-2.32599">
        <ele>1</ele>
        <time>2021-04-25T08:06:26.000Z</time>
      </trkpt>
      <trkpt lat="47.31819" lon="-2.32558">
        <ele>1</ele>
        <time>2021-04-25T08:06:32.000Z</time>
      </trkpt>
      <trkpt lat="47.31816" lon="-2.32549">
        <ele>1.3999999761581</ele>
        <time>2021-04-25T08:06:34.000Z</time>
      </trkpt>
      <trkpt lat="47.31815" lon="-2.32545">
        <ele>2.4000000953674</ele>
        <time>2021-04-25T08:06:35.000Z</time>
      </trkpt>
      <trkpt lat="47.31814" lon="-2.3254">
        <ele>2.7999999523163</ele>
        <time>2021-04-25T08:06:36.000Z</time>
      </trkpt>
      <trkpt lat="47.31814" lon="-2.32534">
        <ele>3.2000000476837</ele>
        <time>2021-04-25T08:06:37.000Z</time>
      </trkpt>
      <trkpt lat="47.31808" lon="-2.32508">
        <ele>3.2000000476837</ele>
        <time>2021-04-25T08:06:42.000Z</time>
      </trkpt>
      <trkpt lat="47.31801" lon="-2.32488">
        <ele>3.5999999046326</ele>
        <time>2021-04-25T08:06:46.000Z</time>
      </trkpt>
      <trkpt lat="47.31799" lon="-2.32482">
        <ele>4.1999998092651</ele>
        <time>2021-04-25T08:06:47.000Z</time>
      </trkpt>
      <trkpt lat="47.31798" lon="-2.32478">
        <ele>4.5999999046326</ele>
        <time>2021-04-25T08:06:48.000Z</time>
      </trkpt>
      <trkpt lat="47.31797" lon="-2.32473">
        <ele>5</ele>
        <time>2021-04-25T08:06:49.000Z</time>
      </trkpt>
      <trkpt lat="47.31794" lon="-2.32464">
        <ele>5.4000000953674</ele>
        <time>2021-04-25T08:06:50.000Z</time>
      </trkpt>
      <trkpt lat="47.31793" lon="-2.32456">
        <ele>6</ele>
        <time>2021-04-25T08:06:51.000Z</time>
      </trkpt>
      <trkpt lat="47.31792" lon="-2.32448">
        <ele>6.4000000953674</ele>
        <time>2021-04-25T08:06:52.000Z</time>
      </trkpt>
      <trkpt lat="47.31792" lon="-2.32442">
        <ele>7</ele>
        <time>2021-04-25T08:06:53.000Z</time>
      </trkpt>
      <trkpt lat="47.3179" lon="-2.32434">
        <ele>7.4000000953674</ele>
        <time>2021-04-25T08:06:54.000Z</time>
      </trkpt>
      <trkpt lat="47.31782" lon="-2.32401">
        <ele>7.4000000953674</ele>
        <time>2021-04-25T08:06:59.000Z</time>
      </trkpt>
      <trkpt lat="47.3178" lon="-2.32389">
        <ele>7.8000001907349</ele>
        <time>2021-04-25T08:07:01.000Z</time>
      </trkpt>
      <trkpt lat="47.3178" lon="-2.32384">
        <ele>8.1999998092651</ele>
        <time>2021-04-25T08:07:02.000Z</time>
      </trkpt>
      <trkpt lat="47.31778" lon="-2.32377">
        <ele>8.8000001907349</ele>
        <time>2021-04-25T08:07:03.000Z</time>
      </trkpt>
      <trkpt lat="47.31777" lon="-2.32371">
        <ele>9.1999998092651</ele>
        <time>2021-04-25T08:07:04.000Z</time>
      </trkpt>
      <trkpt lat="47.31776" lon="-2.32366">
        <ele>9.6000003814697</ele>
        <time>2021-04-25T08:07:05.000Z</time>
      </trkpt>
      <trkpt lat="47.31775" lon="-2.32359">
        <ele>9.6000003814697</ele>
        <time>2021-04-25T08:07:06.000Z</time>
      </trkpt>
      <trkpt lat="47.3177" lon="-2.32325">
        <ele>9.6000003814697</ele>
        <time>2021-04-25T08:07:12.000Z</time>
      </trkpt>
      <trkpt lat="47.31762" lon="-2.32283">
        <ele>9.6000003814697</ele>
        <time>2021-04-25T08:07:19.000Z</time>
      </trkpt>
      <trkpt lat="47.31755" lon="-2.32248">
        <ele>9.6000003814697</ele>
        <time>2021-04-25T08:07:26.000Z</time>
      </trkpt>
      <trkpt lat="47.31753" lon="-2.32235">
        <ele>9.6000003814697</ele>
        <time>2021-04-25T08:07:32.000Z</time>
      </trkpt>
      <trkpt lat="47.31754" lon="-2.32234">
        <ele>9.6000003814697</ele>
        <time>2021-04-25T08:07:58.000Z</time>
      </trkpt>
      <trkpt lat="47.31758" lon="-2.32233">
        <ele>9.6000003814697</ele>
        <time>2021-04-25T08:08:00.000Z</time>
      </trkpt>
      <trkpt lat="47.31765" lon="-2.32231">
        <ele>9.6000003814697</ele>
        <time>2021-04-25T08:08:02.000Z</time>
      </trkpt>
      <trkpt lat="47.31772" lon="-2.3223">
        <ele>9.6000003814697</ele>
        <time>2021-04-25T08:08:04.000Z</time>
      </trkpt>
      <trkpt lat="47.31806" lon="-2.32225">
        <ele>9.6000003814697</ele>
        <time>2021-04-25T08:08:11.000Z</time>
      </trkpt>
      <trkpt lat="47.31823" lon="-2.32223">
        <ele>9.6000003814697</ele>
        <time>2021-04-25T08:08:14.000Z</time>
      </trkpt>
      <trkpt lat="47.31842" lon="-2.32219">
        <ele>9.6000003814697</ele>
        <time>2021-04-25T08:08:17.000Z</time>
      </trkpt>
      <trkpt lat="47.31872" lon="-2.32208">
        <ele>9.6000003814697</ele>
        <time>2021-04-25T08:08:22.000Z</time>
      </trkpt>
      <trkpt lat="47.31877" lon="-2.32207">
        <ele>9</ele>
        <time>2021-04-25T08:08:23.000Z</time>
      </trkpt>
      <trkpt lat="47.31881" lon="-2.32205">
        <ele>8.3999996185303</ele>
        <time>2021-04-25T08:08:24.000Z</time>
      </trkpt>
      <trkpt lat="47.31885" lon="-2.32203">
        <ele>7.8000001907349</ele>
        <time>2021-04-25T08:08:25.000Z</time>
      </trkpt>
      <trkpt lat="47.31887" lon="-2.32201">
        <ele>7.1999998092651</ele>
        <time>2021-04-25T08:08:26.000Z</time>
      </trkpt>
      <trkpt lat="47.31888" lon="-2.32198">
        <ele>6.5999999046326</ele>
        <time>2021-04-25T08:08:27.000Z</time>
      </trkpt>
      <trkpt lat="47.31886" lon="-2.32195">
        <ele>6.1999998092651</ele>
        <time>2021-04-25T08:08:29.000Z</time>
      </trkpt>
      <trkpt lat="47.31884" lon="-2.32195">
        <ele>5.8000001907349</ele>
        <time>2021-04-25T08:08:30.000Z</time>
      </trkpt>
      <trkpt lat="47.31881" lon="-2.32195">
        <ele>5.4000000953674</ele>
        <time>2021-04-25T08:08:31.000Z</time>
      </trkpt>
      <trkpt lat="47.31878" lon="-2.32196">
        <ele>5</ele>
        <time>2021-04-25T08:08:32.000Z</time>
      </trkpt>
      <trkpt lat="47.31874" lon="-2.32196">
        <ele>4.5999999046326</ele>
        <time>2021-04-25T08:08:33.000Z</time>
      </trkpt>
      <trkpt lat="47.31858" lon="-2.32193">
        <ele>4.5999999046326</ele>
        <time>2021-04-25T08:08:37.000Z</time>
      </trkpt>
      <trkpt lat="47.31853" lon="-2.32193">
        <ele>5</ele>
        <time>2021-04-25T08:08:38.000Z</time>
      </trkpt>
      <trkpt lat="47.31849" lon="-2.32192">
        <ele>5.8000001907349</ele>
        <time>2021-04-25T08:08:39.000Z</time>
      </trkpt>
      <trkpt lat="47.31844" lon="-2.3219">
        <ele>6.4000000953674</ele>
        <time>2021-04-25T08:08:40.000Z</time>
      </trkpt>
      <trkpt lat="47.3184" lon="-2.32189">
        <ele>6.8000001907349</ele>
        <time>2021-04-25T08:08:41.000Z</time>
      </trkpt>
      <trkpt lat="47.31825" lon="-2.32186">
        <ele>6.8000001907349</ele>
        <time>2021-04-25T08:08:44.000Z</time>
      </trkpt>
      <trkpt lat="47.3182" lon="-2.32185">
        <ele>7.1999998092651</ele>
        <time>2021-04-25T08:08:45.000Z</time>
      </trkpt>
      <trkpt lat="47.31816" lon="-2.32184">
        <ele>7.5999999046326</ele>
        <time>2021-04-25T08:08:46.000Z</time>
      </trkpt>
      <trkpt lat="47.3181" lon="-2.32183">
        <ele>8</ele>
        <time>2021-04-25T08:08:47.000Z</time>
      </trkpt>
      <trkpt lat="47.31805" lon="-2.32182">
        <ele>8.3999996185303</ele>
        <time>2021-04-25T08:08:48.000Z</time>
      </trkpt>
      <trkpt lat="47.318" lon="-2.32182">
        <ele>8.8000001907349</ele>
        <time>2021-04-25T08:08:49.000Z</time>
      </trkpt>
      <trkpt lat="47.31785" lon="-2.32178">
        <ele>8.8000001907349</ele>
        <time>2021-04-25T08:08:52.000Z</time>
      </trkpt>
      <trkpt lat="47.31775" lon="-2.32175">
        <ele>9.1999998092651</ele>
        <time>2021-04-25T08:08:54.000Z</time>
      </trkpt>
      <trkpt lat="47.3177" lon="-2.32174">
        <ele>9.6000003814697</ele>
        <time>2021-04-25T08:08:55.000Z</time>
      </trkpt>
      <trkpt lat="47.31765" lon="-2.32172">
        <ele>10</ele>
        <time>2021-04-25T08:08:56.000Z</time>
      </trkpt>
      <trkpt lat="47.3176" lon="-2.32171">
        <ele>10.60000038147</ele>
        <time>2021-04-25T08:08:57.000Z</time>
      </trkpt>
      <trkpt lat="47.31755" lon="-2.3217">
        <ele>11</ele>
        <time>2021-04-25T08:08:58.000Z</time>
      </trkpt>
      <trkpt lat="47.3175" lon="-2.32169">
        <ele>11</ele>
        <time>2021-04-25T08:08:59.000Z</time>
      </trkpt>
      <trkpt lat="47.31719" lon="-2.32163">
        <ele>11.39999961853</ele>
        <time>2021-04-25T08:09:05.000Z</time>
      </trkpt>
      <trkpt lat="47.31713" lon="-2.32161">
        <ele>11.800000190735</ele>
        <time>2021-04-25T08:09:06.000Z</time>
      </trkpt>
      <trkpt lat="47.31708" lon="-2.3216">
        <ele>12.199999809265</ele>
        <time>2021-04-25T08:09:07.000Z</time>
      </trkpt>
      <trkpt lat="47.31703" lon="-2.32159">
        <ele>12.60000038147</ele>
        <time>2021-04-25T08:09:08.000Z</time>
      </trkpt>
      <trkpt lat="47.31697" lon="-2.32157">
        <ele>13</ele>
        <time>2021-04-25T08:09:09.000Z</time>
      </trkpt>
      <trkpt lat="47.31674" lon="-2.32151">
        <ele>13</ele>
        <time>2021-04-25T08:09:13.000Z</time>
      </trkpt>
      <trkpt lat="47.31639" lon="-2.3214">
        <ele>13</ele>
        <time>2021-04-25T08:09:19.000Z</time>
      </trkpt>
      <trkpt lat="47.31632" lon="-2.32139">
        <ele>13</ele>
        <time>2021-04-25T08:09:20.000Z</time>
      </trkpt>
      <trkpt lat="47.31595" lon="-2.3213">
        <ele>13</ele>
        <time>2021-04-25T08:09:26.000Z</time>
      </trkpt>
      <trkpt lat="47.31542" lon="-2.32117">
        <ele>13</ele>
        <time>2021-04-25T08:09:35.000Z</time>
      </trkpt>
      <trkpt lat="47.31529" lon="-2.32115">
        <ele>12.60000038147</ele>
        <time>2021-04-25T08:09:37.000Z</time>
      </trkpt>
      <trkpt lat="47.31524" lon="-2.32114">
        <ele>12.199999809265</ele>
        <time>2021-04-25T08:09:38.000Z</time>
      </trkpt>
      <trkpt lat="47.31519" lon="-2.32113">
        <ele>11.800000190735</ele>
        <time>2021-04-25T08:09:39.000Z</time>
      </trkpt>
      <trkpt lat="47.31515" lon="-2.32112">
        <ele>11.39999961853</ele>
        <time>2021-04-25T08:09:40.000Z</time>
      </trkpt>
      <trkpt lat="47.31512" lon="-2.32111">
        <ele>11</ele>
        <time>2021-04-25T08:09:41.000Z</time>
      </trkpt>
      <trkpt lat="47.31505" lon="-2.32105">
        <ele>11</ele>
        <time>2021-04-25T08:09:44.000Z</time>
      </trkpt>
      <trkpt lat="47.31503" lon="-2.32105">
        <ele>11</ele>
        <time>2021-04-25T08:09:45.000Z</time>
      </trkpt>
      <trkpt lat="47.31499" lon="-2.32108">
        <ele>10.60000038147</ele>
        <time>2021-04-25T08:09:47.000Z</time>
      </trkpt>
      <trkpt lat="47.31496" lon="-2.32111">
        <ele>10.199999809265</ele>
        <time>2021-04-25T08:09:48.000Z</time>
      </trkpt>
      <trkpt lat="47.31494" lon="-2.32115">
        <ele>9.8000001907349</ele>
        <time>2021-04-25T08:09:49.000Z</time>
      </trkpt>
      <trkpt lat="47.31493" lon="-2.3212">
        <ele>9.1999998092651</ele>
        <time>2021-04-25T08:09:50.000Z</time>
      </trkpt>
      <trkpt lat="47.31493" lon="-2.32125">
        <ele>8.8000001907349</ele>
        <time>2021-04-25T08:09:51.000Z</time>
      </trkpt>
      <trkpt lat="47.315" lon="-2.32141">
        <ele>8.8000001907349</ele>
        <time>2021-04-25T08:09:54.000Z</time>
      </trkpt>
      <trkpt lat="47.31516" lon="-2.3217">
        <ele>8.8000001907349</ele>
        <time>2021-04-25T08:10:00.000Z</time>
      </trkpt>
      <trkpt lat="47.31509" lon="-2.32179">
        <ele>8.8000001907349</ele>
        <time>2021-04-25T08:10:03.000Z</time>
      </trkpt>
      <trkpt lat="47.31497" lon="-2.32172">
        <ele>8.8000001907349</ele>
        <time>2021-04-25T08:10:06.000Z</time>
      </trkpt>
      <trkpt lat="47.31483" lon="-2.32174">
        <ele>8.8000001907349</ele>
        <time>2021-04-25T08:10:09.000Z</time>
      </trkpt>
      <trkpt lat="47.3147" lon="-2.32199">
        <ele>8.8000001907349</ele>
        <time>2021-04-25T08:10:13.000Z</time>
      </trkpt>
      <trkpt lat="47.31468" lon="-2.32207">
        <ele>8.8000001907349</ele>
        <time>2021-04-25T08:10:14.000Z</time>
      </trkpt>
      <trkpt lat="47.31466" lon="-2.32215">
        <ele>8.8000001907349</ele>
        <time>2021-04-25T08:10:15.000Z</time>
      </trkpt>
      <trkpt lat="47.31461" lon="-2.32236">
        <ele>8.8000001907349</ele>
        <time>2021-04-25T08:10:18.000Z</time>
      </trkpt>
      <trkpt lat="47.31458" lon="-2.32242">
        <ele>8.8000001907349</ele>
        <time>2021-04-25T08:10:19.000Z</time>
      </trkpt>
      <trkpt lat="47.31452" lon="-2.32255">
        <ele>8.8000001907349</ele>
        <time>2021-04-25T08:10:21.000Z</time>
      </trkpt>
      <trkpt lat="47.31443" lon="-2.32264">
        <ele>8.8000001907349</ele>
        <time>2021-04-25T08:10:23.000Z</time>
      </trkpt>
      <trkpt lat="47.31426" lon="-2.3227">
        <ele>8.8000001907349</ele>
        <time>2021-04-25T08:10:26.000Z</time>
      </trkpt>
      <trkpt lat="47.3142" lon="-2.32271">
        <ele>8.8000001907349</ele>
        <time>2021-04-25T08:10:27.000Z</time>
      </trkpt>
      <trkpt lat="47.31381" lon="-2.32283">
        <ele>8.8000001907349</ele>
        <time>2021-04-25T08:10:33.000Z</time>
      </trkpt>
      <trkpt lat="47.31362" lon="-2.32292">
        <ele>8.3999996185303</ele>
        <time>2021-04-25T08:10:36.000Z</time>
      </trkpt>
      <trkpt lat="47.31356" lon="-2.32295">
        <ele>8</ele>
        <time>2021-04-25T08:10:37.000Z</time>
      </trkpt>
      <trkpt lat="47.31349" lon="-2.32299">
        <ele>7.5999999046326</ele>
        <time>2021-04-25T08:10:38.000Z</time>
      </trkpt>
      <trkpt lat="47.31343" lon="-2.32304">
        <ele>7.1999998092651</ele>
        <time>2021-04-25T08:10:39.000Z</time>
      </trkpt>
      <trkpt lat="47.31337" lon="-2.32308">
        <ele>6.8000001907349</ele>
        <time>2021-04-25T08:10:40.000Z</time>
      </trkpt>
      <trkpt lat="47.31308" lon="-2.32337">
        <ele>6.8000001907349</ele>
        <time>2021-04-25T08:10:45.000Z</time>
      </trkpt>
      <trkpt lat="47.31264" lon="-2.32383">
        <ele>6.8000001907349</ele>
        <time>2021-04-25T08:10:53.000Z</time>
      </trkpt>
      <trkpt lat="47.31233" lon="-2.32405">
        <ele>6.8000001907349</ele>
        <time>2021-04-25T08:10:58.000Z</time>
      </trkpt>
      <trkpt lat="47.31202" lon="-2.32425">
        <ele>7.1999998092651</ele>
        <time>2021-04-25T08:11:03.000Z</time>
      </trkpt>
      <trkpt lat="47.31197" lon="-2.32428">
        <ele>7.5999999046326</ele>
        <time>2021-04-25T08:11:04.000Z</time>
      </trkpt>
      <trkpt lat="47.31191" lon="-2.32431">
        <ele>8.1999998092651</ele>
        <time>2021-04-25T08:11:05.000Z</time>
      </trkpt>
      <trkpt lat="47.31185" lon="-2.32433">
        <ele>8.6000003814697</ele>
        <time>2021-04-25T08:11:06.000Z</time>
      </trkpt>
      <trkpt lat="47.31179" lon="-2.32434">
        <ele>9</ele>
        <time>2021-04-25T08:11:07.000Z</time>
      </trkpt>
      <trkpt lat="47.31166" lon="-2.32431">
        <ele>9</ele>
        <time>2021-04-25T08:11:09.000Z</time>
      </trkpt>
      <trkpt lat="47.31155" lon="-2.32427">
        <ele>9</ele>
        <time>2021-04-25T08:11:11.000Z</time>
      </trkpt>
      <trkpt lat="47.31146" lon="-2.32418">
        <ele>9</ele>
        <time>2021-04-25T08:11:13.000Z</time>
      </trkpt>
      <trkpt lat="47.31142" lon="-2.32397">
        <ele>9</ele>
        <time>2021-04-25T08:11:16.000Z</time>
      </trkpt>
      <trkpt lat="47.31139" lon="-2.32349">
        <ele>9</ele>
        <time>2021-04-25T08:11:21.000Z</time>
      </trkpt>
      <trkpt lat="47.31138" lon="-2.32338">
        <ele>9</ele>
        <time>2021-04-25T08:11:22.000Z</time>
      </trkpt>
      <trkpt lat="47.3113" lon="-2.32309">
        <ele>9</ele>
        <time>2021-04-25T08:11:25.000Z</time>
      </trkpt>
      <trkpt lat="47.3112" lon="-2.32283">
        <ele>8.3999996185303</ele>
        <time>2021-04-25T08:11:28.000Z</time>
      </trkpt>
      <trkpt lat="47.31116" lon="-2.32275">
        <ele>8</ele>
        <time>2021-04-25T08:11:29.000Z</time>
      </trkpt>
      <trkpt lat="47.31112" lon="-2.32268">
        <ele>7.5999999046326</ele>
        <time>2021-04-25T08:11:30.000Z</time>
      </trkpt>
      <trkpt lat="47.31108" lon="-2.3226">
        <ele>7.1999998092651</ele>
        <time>2021-04-25T08:11:31.000Z</time>
      </trkpt>
      <trkpt lat="47.31105" lon="-2.32252">
        <ele>6.4000000953674</ele>
        <time>2021-04-25T08:11:32.000Z</time>
      </trkpt>
      <trkpt lat="47.31102" lon="-2.32245">
        <ele>6</ele>
        <time>2021-04-25T08:11:33.000Z</time>
      </trkpt>
      <trkpt lat="47.31098" lon="-2.32236">
        <ele>5.5999999046326</ele>
        <time>2021-04-25T08:11:34.000Z</time>
      </trkpt>
      <trkpt lat="47.31095" lon="-2.32226">
        <ele>5.1999998092651</ele>
        <time>2021-04-25T08:11:35.000Z</time>
      </trkpt>
      <trkpt lat="47.31092" lon="-2.32216">
        <ele>4.8000001907349</ele>
        <time>2021-04-25T08:11:36.000Z</time>
      </trkpt>
      <trkpt lat="47.31074" lon="-2.32174">
        <ele>4.8000001907349</ele>
        <time>2021-04-25T08:11:41.000Z</time>
      </trkpt>
      <trkpt lat="47.31069" lon="-2.32166">
        <ele>4.4000000953674</ele>
        <time>2021-04-25T08:11:42.000Z</time>
      </trkpt>
      <trkpt lat="47.31065" lon="-2.32158">
        <ele>4</ele>
        <time>2021-04-25T08:11:43.000Z</time>
      </trkpt>
      <trkpt lat="47.31062" lon="-2.32151">
        <ele>3.5999999046326</ele>
        <time>2021-04-25T08:11:44.000Z</time>
      </trkpt>
      <trkpt lat="47.31058" lon="-2.32144">
        <ele>3</ele>
        <time>2021-04-25T08:11:45.000Z</time>
      </trkpt>
      <trkpt lat="47.31054" lon="-2.32138">
        <ele>2.5999999046326</ele>
        <time>2021-04-25T08:11:46.000Z</time>
      </trkpt>
      <trkpt lat="47.31041" lon="-2.32122">
        <ele>2.2000000476837</ele>
        <time>2021-04-25T08:11:49.000Z</time>
      </trkpt>
      <trkpt lat="47.31037" lon="-2.32116">
        <ele>1.7999999523163</ele>
        <time>2021-04-25T08:11:50.000Z</time>
      </trkpt>
      <trkpt lat="47.31032" lon="-2.32109">
        <ele>1.3999999761581</ele>
        <time>2021-04-25T08:11:51.000Z</time>
      </trkpt>
      <trkpt lat="47.31028" lon="-2.32102">
        <ele>1</ele>
        <time>2021-04-25T08:11:52.000Z</time>
      </trkpt>
      <trkpt lat="47.31024" lon="-2.32096">
        <ele>0.60000002384186</ele>
        <time>2021-04-25T08:11:53.000Z</time>
      </trkpt>
      <trkpt lat="47.31003" lon="-2.32061">
        <ele>0.60000002384186</ele>
        <time>2021-04-25T08:11:58.000Z</time>
      </trkpt>
      <trkpt lat="47.30977" lon="-2.32008">
        <ele>0.20000000298023</ele>
        <time>2021-04-25T08:12:05.000Z</time>
      </trkpt>
      <trkpt lat="47.30974" lon="-2.31999">
        <ele>-0.40000000596046</ele>
        <time>2021-04-25T08:12:06.000Z</time>
      </trkpt>
      <trkpt lat="47.30971" lon="-2.31991">
        <ele>-0.80000001192093</ele>
        <time>2021-04-25T08:12:07.000Z</time>
      </trkpt>
      <trkpt lat="47.30969" lon="-2.31983">
        <ele>-1.2000000476837</ele>
        <time>2021-04-25T08:12:08.000Z</time>
      </trkpt>
      <trkpt lat="47.30966" lon="-2.31975">
        <ele>-1.6000000238419</ele>
        <time>2021-04-25T08:12:09.000Z</time>
      </trkpt>
      <trkpt lat="47.30964" lon="-2.31967">
        <ele>-1.6000000238419</ele>
        <time>2021-04-25T08:12:10.000Z</time>
      </trkpt>
      <trkpt lat="47.30963" lon="-2.31951">
        <ele>-1.6000000238419</ele>
        <time>2021-04-25T08:12:12.000Z</time>
      </trkpt>
      <trkpt lat="47.30964" lon="-2.31943">
        <ele>-1.6000000238419</ele>
        <time>2021-04-25T08:12:13.000Z</time>
      </trkpt>
      <trkpt lat="47.30968" lon="-2.31929">
        <ele>-1.6000000238419</ele>
        <time>2021-04-25T08:12:15.000Z</time>
      </trkpt>
      <trkpt lat="47.30973" lon="-2.31913">
        <ele>-1.6000000238419</ele>
        <time>2021-04-25T08:12:17.000Z</time>
      </trkpt>
      <trkpt lat="47.30976" lon="-2.31894">
        <ele>-1.6000000238419</ele>
        <time>2021-04-25T08:12:19.000Z</time>
      </trkpt>
      <trkpt lat="47.30978" lon="-2.31885">
        <ele>-1.6000000238419</ele>
        <time>2021-04-25T08:12:20.000Z</time>
      </trkpt>
      <trkpt lat="47.30981" lon="-2.31868">
        <ele>-1.6000000238419</ele>
        <time>2021-04-25T08:12:22.000Z</time>
      </trkpt>
      <trkpt lat="47.3099" lon="-2.31844">
        <ele>-1.6000000238419</ele>
        <time>2021-04-25T08:12:25.000Z</time>
      </trkpt>
      <trkpt lat="47.30993" lon="-2.31828">
        <ele>-1.6000000238419</ele>
        <time>2021-04-25T08:12:27.000Z</time>
      </trkpt>
      <trkpt lat="47.30994" lon="-2.31822">
        <ele>-1.6000000238419</ele>
        <time>2021-04-25T08:12:28.000Z</time>
      </trkpt>
      <trkpt lat="47.30993" lon="-2.31817">
        <ele>-1.6000000238419</ele>
        <time>2021-04-25T08:12:29.000Z</time>
      </trkpt>
      <trkpt lat="47.30989" lon="-2.31812">
        <ele>-1.6000000238419</ele>
        <time>2021-04-25T08:12:30.000Z</time>
      </trkpt>
      <trkpt lat="47.30963" lon="-2.31784">
        <ele>-1.6000000238419</ele>
        <time>2021-04-25T08:12:35.000Z</time>
      </trkpt>
      <trkpt lat="47.30931" lon="-2.31748">
        <ele>-1.6000000238419</ele>
        <time>2021-04-25T08:12:41.000Z</time>
      </trkpt>
      <trkpt lat="47.30886" lon="-2.31693">
        <ele>-1.6000000238419</ele>
        <time>2021-04-25T08:12:50.000Z</time>
      </trkpt>
      <trkpt lat="47.30853" lon="-2.31653">
        <ele>-1.6000000238419</ele>
        <time>2021-04-25T08:12:57.000Z</time>
      </trkpt>
      <trkpt lat="47.30848" lon="-2.31649">
        <ele>-1.6000000238419</ele>
        <time>2021-04-25T08:12:58.000Z</time>
      </trkpt>
      <trkpt lat="47.30837" lon="-2.31651">
        <ele>-1.6000000238419</ele>
        <time>2021-04-25T08:13:00.000Z</time>
      </trkpt>
      <trkpt lat="47.30827" lon="-2.31662">
        <ele>-1.6000000238419</ele>
        <time>2021-04-25T08:13:02.000Z</time>
      </trkpt>
      <trkpt lat="47.30816" lon="-2.31674">
        <ele>-1.6000000238419</ele>
        <time>2021-04-25T08:13:04.000Z</time>
      </trkpt>
      <trkpt lat="47.30783" lon="-2.31715">
        <ele>-2</ele>
        <time>2021-04-25T08:13:10.000Z</time>
      </trkpt>
      <trkpt lat="47.30777" lon="-2.31721">
        <ele>-3</ele>
        <time>2021-04-25T08:13:11.000Z</time>
      </trkpt>
      <trkpt lat="47.30772" lon="-2.31728">
        <ele>-3.4000000953674</ele>
        <time>2021-04-25T08:13:12.000Z</time>
      </trkpt>
      <trkpt lat="47.30767" lon="-2.31734">
        <ele>-3.7999999523163</ele>
        <time>2021-04-25T08:13:13.000Z</time>
      </trkpt>
      <trkpt lat="47.30762" lon="-2.31739">
        <ele>-3.7999999523163</ele>
        <time>2021-04-25T08:13:14.000Z</time>
      </trkpt>
      <trkpt lat="47.30753" lon="-2.31749">
        <ele>-3.7999999523163</ele>
        <time>2021-04-25T08:13:16.000Z</time>
      </trkpt>
      <trkpt lat="47.30735" lon="-2.31756">
        <ele>-3.7999999523163</ele>
        <time>2021-04-25T08:13:19.000Z</time>
      </trkpt>
      <trkpt lat="47.30721" lon="-2.31741">
        <ele>-3.7999999523163</ele>
        <time>2021-04-25T08:13:22.000Z</time>
      </trkpt>
      <trkpt lat="47.30715" lon="-2.31726">
        <ele>-3.7999999523163</ele>
        <time>2021-04-25T08:13:24.000Z</time>
      </trkpt>
      <trkpt lat="47.30708" lon="-2.31705">
        <ele>-3.7999999523163</ele>
        <time>2021-04-25T08:13:27.000Z</time>
      </trkpt>
      <trkpt lat="47.307" lon="-2.31687">
        <ele>-3.7999999523163</ele>
        <time>2021-04-25T08:13:30.000Z</time>
      </trkpt>
      <trkpt lat="47.30691" lon="-2.31668">
        <ele>-3.7999999523163</ele>
        <time>2021-04-25T08:13:33.000Z</time>
      </trkpt>
      <trkpt lat="47.30689" lon="-2.31661">
        <ele>-4.1999998092651</ele>
        <time>2021-04-25T08:13:34.000Z</time>
      </trkpt>
      <trkpt lat="47.30687" lon="-2.31653">
        <ele>-4.5999999046326</ele>
        <time>2021-04-25T08:13:35.000Z</time>
      </trkpt>
      <trkpt lat="47.30684" lon="-2.31645">
        <ele>-5.4000000953674</ele>
        <time>2021-04-25T08:13:36.000Z</time>
      </trkpt>
      <trkpt lat="47.30682" lon="-2.31637">
        <ele>-5.8000001907349</ele>
        <time>2021-04-25T08:13:37.000Z</time>
      </trkpt>
      <trkpt lat="47.30679" lon="-2.31629">
        <ele>-5.8000001907349</ele>
        <time>2021-04-25T08:13:38.000Z</time>
      </trkpt>
      <trkpt lat="47.30658" lon="-2.31578">
        <ele>-5.8000001907349</ele>
        <time>2021-04-25T08:13:45.000Z</time>
      </trkpt>
      <trkpt lat="47.30635" lon="-2.31526">
        <ele>-5.8000001907349</ele>
        <time>2021-04-25T08:13:52.000Z</time>
      </trkpt>
      <trkpt lat="47.30617" lon="-2.31483">
        <ele>-5.8000001907349</ele>
        <time>2021-04-25T08:13:58.000Z</time>
      </trkpt>
      <trkpt lat="47.30608" lon="-2.31462">
        <ele>-5</ele>
        <time>2021-04-25T08:14:01.000Z</time>
      </trkpt>
      <trkpt lat="47.30605" lon="-2.31454">
        <ele>-4.5999999046326</ele>
        <time>2021-04-25T08:14:02.000Z</time>
      </trkpt>
      <trkpt lat="47.30602" lon="-2.31447">
        <ele>-4.1999998092651</ele>
        <time>2021-04-25T08:14:03.000Z</time>
      </trkpt>
      <trkpt lat="47.30599" lon="-2.3144">
        <ele>-3.5999999046326</ele>
        <time>2021-04-25T08:14:04.000Z</time>
      </trkpt>
      <trkpt lat="47.3059" lon="-2.31417">
        <ele>-3.5999999046326</ele>
        <time>2021-04-25T08:14:07.000Z</time>
      </trkpt>
      <trkpt lat="47.30577" lon="-2.31388">
        <ele>-3.5999999046326</ele>
        <time>2021-04-25T08:14:11.000Z</time>
      </trkpt>
      <trkpt lat="47.30569" lon="-2.31374">
        <ele>-3.5999999046326</ele>
        <time>2021-04-25T08:14:13.000Z</time>
      </trkpt>
      <trkpt lat="47.30548" lon="-2.31338">
        <ele>-3.5999999046326</ele>
        <time>2021-04-25T08:14:18.000Z</time>
      </trkpt>
      <trkpt lat="47.30543" lon="-2.31332">
        <ele>-3.5999999046326</ele>
        <time>2021-04-25T08:14:19.000Z</time>
      </trkpt>
      <trkpt lat="47.30526" lon="-2.31305">
        <ele>-3.5999999046326</ele>
        <time>2021-04-25T08:14:23.000Z</time>
      </trkpt>
      <trkpt lat="47.30497" lon="-2.3126">
        <ele>-3.2000000476837</ele>
        <time>2021-04-25T08:14:30.000Z</time>
      </trkpt>
      <trkpt lat="47.30493" lon="-2.31253">
        <ele>-2.7999999523163</ele>
        <time>2021-04-25T08:14:31.000Z</time>
      </trkpt>
      <trkpt lat="47.3049" lon="-2.31246">
        <ele>-2.4000000953674</ele>
        <time>2021-04-25T08:14:32.000Z</time>
      </trkpt>
      <trkpt lat="47.30486" lon="-2.3124">
        <ele>-2</ele>
        <time>2021-04-25T08:14:33.000Z</time>
      </trkpt>
      <trkpt lat="47.30482" lon="-2.31232">
        <ele>-1.6000000238419</ele>
        <time>2021-04-25T08:14:34.000Z</time>
      </trkpt>
      <trkpt lat="47.30472" lon="-2.31209">
        <ele>-1.6000000238419</ele>
        <time>2021-04-25T08:14:37.000Z</time>
      </trkpt>
      <trkpt lat="47.30455" lon="-2.31151">
        <ele>-1.6000000238419</ele>
        <time>2021-04-25T08:14:44.000Z</time>
      </trkpt>
      <trkpt lat="47.30444" lon="-2.31122">
        <ele>-1.6000000238419</ele>
        <time>2021-04-25T08:14:48.000Z</time>
      </trkpt>
      <trkpt lat="47.3044" lon="-2.31115">
        <ele>-1.6000000238419</ele>
        <time>2021-04-25T08:14:49.000Z</time>
      </trkpt>
      <trkpt lat="47.30417" lon="-2.31096">
        <ele>-1.6000000238419</ele>
        <time>2021-04-25T08:14:53.000Z</time>
      </trkpt>
      <trkpt lat="47.30394" lon="-2.31077">
        <ele>-1.6000000238419</ele>
        <time>2021-04-25T08:14:57.000Z</time>
      </trkpt>
      <trkpt lat="47.30383" lon="-2.31063">
        <ele>-1.6000000238419</ele>
        <time>2021-04-25T08:14:59.000Z</time>
      </trkpt>
      <trkpt lat="47.30357" lon="-2.31028">
        <ele>-1.6000000238419</ele>
        <time>2021-04-25T08:15:04.000Z</time>
      </trkpt>
      <trkpt lat="47.30348" lon="-2.31015">
        <ele>-2</ele>
        <time>2021-04-25T08:15:06.000Z</time>
      </trkpt>
      <trkpt lat="47.30343" lon="-2.31009">
        <ele>-2.4000000953674</ele>
        <time>2021-04-25T08:15:07.000Z</time>
      </trkpt>
      <trkpt lat="47.30338" lon="-2.31002">
        <ele>-2.7999999523163</ele>
        <time>2021-04-25T08:15:08.000Z</time>
      </trkpt>
      <trkpt lat="47.30333" lon="-2.30996">
        <ele>-3.2000000476837</ele>
        <time>2021-04-25T08:15:09.000Z</time>
      </trkpt>
      <trkpt lat="47.30328" lon="-2.30989">
        <ele>-3.5999999046326</ele>
        <time>2021-04-25T08:15:10.000Z</time>
      </trkpt>
      <trkpt lat="47.30322" lon="-2.30982">
        <ele>-3.5999999046326</ele>
        <time>2021-04-25T08:15:11.000Z</time>
      </trkpt>
      <trkpt lat="47.3031" lon="-2.30964">
        <ele>-4</ele>
        <time>2021-04-25T08:15:13.000Z</time>
      </trkpt>
      <trkpt lat="47.30303" lon="-2.30955">
        <ele>-4.8000001907349</ele>
        <time>2021-04-25T08:15:14.000Z</time>
      </trkpt>
      <trkpt lat="47.30297" lon="-2.30946">
        <ele>-5.1999998092651</ele>
        <time>2021-04-25T08:15:15.000Z</time>
      </trkpt>
      <trkpt lat="47.30291" lon="-2.30938">
        <ele>-5.5999999046326</ele>
        <time>2021-04-25T08:15:16.000Z</time>
      </trkpt>
      <trkpt lat="47.30284" lon="-2.3093">
        <ele>-5.5999999046326</ele>
        <time>2021-04-25T08:15:17.000Z</time>
      </trkpt>
      <trkpt lat="47.30266" lon="-2.30905">
        <ele>-6</ele>
        <time>2021-04-25T08:15:20.000Z</time>
      </trkpt>
      <trkpt lat="47.3026" lon="-2.30897">
        <ele>-6.4000000953674</ele>
        <time>2021-04-25T08:15:21.000Z</time>
      </trkpt>
      <trkpt lat="47.30254" lon="-2.30889">
        <ele>-6.8000001907349</ele>
        <time>2021-04-25T08:15:22.000Z</time>
      </trkpt>
      <trkpt lat="47.30248" lon="-2.30881">
        <ele>-7.4000000953674</ele>
        <time>2021-04-25T08:15:23.000Z</time>
      </trkpt>
      <trkpt lat="47.30242" lon="-2.30874">
        <ele>-8</ele>
        <time>2021-04-25T08:15:24.000Z</time>
      </trkpt>
      <trkpt lat="47.30235" lon="-2.30867">
        <ele>-8.6000003814697</ele>
        <time>2021-04-25T08:15:25.000Z</time>
      </trkpt>
      <trkpt lat="47.30228" lon="-2.3086">
        <ele>-9.1999998092651</ele>
        <time>2021-04-25T08:15:26.000Z</time>
      </trkpt>
      <trkpt lat="47.30222" lon="-2.30853">
        <ele>-9.8000001907349</ele>
        <time>2021-04-25T08:15:27.000Z</time>
      </trkpt>
      <trkpt lat="47.30198" lon="-2.30827">
        <ele>-9.8000001907349</ele>
        <time>2021-04-25T08:15:31.000Z</time>
      </trkpt>
      <trkpt lat="47.30192" lon="-2.30821">
        <ele>-10.199999809265</ele>
        <time>2021-04-25T08:15:32.000Z</time>
      </trkpt>
      <trkpt lat="47.30187" lon="-2.30815">
        <ele>-10.60000038147</ele>
        <time>2021-04-25T08:15:33.000Z</time>
      </trkpt>
      <trkpt lat="47.30182" lon="-2.30808">
        <ele>-11</ele>
        <time>2021-04-25T08:15:34.000Z</time>
      </trkpt>
      <trkpt lat="47.30178" lon="-2.30801">
        <ele>-11.39999961853</ele>
        <time>2021-04-25T08:15:35.000Z</time>
      </trkpt>
      <trkpt lat="47.30174" lon="-2.30793">
        <ele>-11.800000190735</ele>
        <time>2021-04-25T08:15:36.000Z</time>
      </trkpt>
      <trkpt lat="47.30172" lon="-2.30767">
        <ele>-12.39999961853</ele>
        <time>2021-04-25T08:15:39.000Z</time>
      </trkpt>
      <trkpt lat="47.30172" lon="-2.30759">
        <ele>-13.199999809265</ele>
        <time>2021-04-25T08:15:40.000Z</time>
      </trkpt>
      <trkpt lat="47.30172" lon="-2.30752">
        <ele>-13.60000038147</ele>
        <time>2021-04-25T08:15:41.000Z</time>
      </trkpt>
      <trkpt lat="47.30171" lon="-2.30747">
        <ele>-14</ele>
        <time>2021-04-25T08:15:42.000Z</time>
      </trkpt>
      <trkpt lat="47.3017" lon="-2.30742">
        <ele>-14</ele>
        <time>2021-04-25T08:15:43.000Z</time>
      </trkpt>
      <trkpt lat="47.30166" lon="-2.3073">
        <ele>-14</ele>
        <time>2021-04-25T08:15:45.000Z</time>
      </trkpt>
      <trkpt lat="47.30163" lon="-2.30714">
        <ele>-14</ele>
        <time>2021-04-25T08:15:47.000Z</time>
      </trkpt>
      <trkpt lat="47.30155" lon="-2.3066">
        <ele>-14</ele>
        <time>2021-04-25T08:15:54.000Z</time>
      </trkpt>
      <trkpt lat="47.30155" lon="-2.30653">
        <ele>-14</ele>
        <time>2021-04-25T08:15:55.000Z</time>
      </trkpt>
      <trkpt lat="47.30156" lon="-2.30638">
        <ele>-13.60000038147</ele>
        <time>2021-04-25T08:15:57.000Z</time>
      </trkpt>
      <trkpt lat="47.30158" lon="-2.30631">
        <ele>-13.199999809265</ele>
        <time>2021-04-25T08:15:58.000Z</time>
      </trkpt>
      <trkpt lat="47.30161" lon="-2.30624">
        <ele>-12.60000038147</ele>
        <time>2021-04-25T08:15:59.000Z</time>
      </trkpt>
      <trkpt lat="47.30164" lon="-2.30617">
        <ele>-12.199999809265</ele>
        <time>2021-04-25T08:16:00.000Z</time>
      </trkpt>
      <trkpt lat="47.30166" lon="-2.30609">
        <ele>-11.800000190735</ele>
        <time>2021-04-25T08:16:01.000Z</time>
      </trkpt>
      <trkpt lat="47.30174" lon="-2.3059">
        <ele>-11.800000190735</ele>
        <time>2021-04-25T08:16:04.000Z</time>
      </trkpt>
      <trkpt lat="47.30192" lon="-2.30584">
        <ele>-11.800000190735</ele>
        <time>2021-04-25T08:16:07.000Z</time>
      </trkpt>
      <trkpt lat="47.30216" lon="-2.30577">
        <ele>-11.800000190735</ele>
        <time>2021-04-25T08:16:11.000Z</time>
      </trkpt>
      <trkpt lat="47.30221" lon="-2.30573">
        <ele>-11.800000190735</ele>
        <time>2021-04-25T08:16:12.000Z</time>
      </trkpt>
      <trkpt lat="47.30226" lon="-2.30551">
        <ele>-11.800000190735</ele>
        <time>2021-04-25T08:16:15.000Z</time>
      </trkpt>
      <trkpt lat="47.30219" lon="-2.30532">
        <ele>-11.800000190735</ele>
        <time>2021-04-25T08:16:18.000Z</time>
      </trkpt>
      <trkpt lat="47.30204" lon="-2.30516">
        <ele>-11.800000190735</ele>
        <time>2021-04-25T08:16:22.000Z</time>
      </trkpt>
      <trkpt lat="47.302" lon="-2.30513">
        <ele>-11.800000190735</ele>
        <time>2021-04-25T08:16:23.000Z</time>
      </trkpt>
      <trkpt lat="47.30189" lon="-2.30504">
        <ele>-12.199999809265</ele>
        <time>2021-04-25T08:16:26.000Z</time>
      </trkpt>
      <trkpt lat="47.30186" lon="-2.30501">
        <ele>-12.60000038147</ele>
        <time>2021-04-25T08:16:27.000Z</time>
      </trkpt>
      <trkpt lat="47.30182" lon="-2.30496">
        <ele>-13</ele>
        <time>2021-04-25T08:16:28.000Z</time>
      </trkpt>
      <trkpt lat="47.30178" lon="-2.30492">
        <ele>-13.800000190735</ele>
        <time>2021-04-25T08:16:29.000Z</time>
      </trkpt>
      <trkpt lat="47.30155" lon="-2.30457">
        <ele>-13.800000190735</ele>
        <time>2021-04-25T08:16:35.000Z</time>
      </trkpt>
      <trkpt lat="47.30138" lon="-2.30416">
        <ele>-13.800000190735</ele>
        <time>2021-04-25T08:16:41.000Z</time>
      </trkpt>
      <trkpt lat="47.30136" lon="-2.30408">
        <ele>-13.800000190735</ele>
        <time>2021-04-25T08:16:42.000Z</time>
      </trkpt>
      <trkpt lat="47.30127" lon="-2.30368">
        <ele>-13.800000190735</ele>
        <time>2021-04-25T08:16:47.000Z</time>
      </trkpt>
      <trkpt lat="47.30121" lon="-2.30345">
        <ele>-13.39999961853</ele>
        <time>2021-04-25T08:16:50.000Z</time>
      </trkpt>
      <trkpt lat="47.30118" lon="-2.30338">
        <ele>-13</ele>
        <time>2021-04-25T08:16:51.000Z</time>
      </trkpt>
      <trkpt lat="47.30116" lon="-2.3033">
        <ele>-12.60000038147</ele>
        <time>2021-04-25T08:16:52.000Z</time>
      </trkpt>
      <trkpt lat="47.30114" lon="-2.30322">
        <ele>-12.199999809265</ele>
        <time>2021-04-25T08:16:53.000Z</time>
      </trkpt>
      <trkpt lat="47.30112" lon="-2.30313">
        <ele>-11.800000190735</ele>
        <time>2021-04-25T08:16:54.000Z</time>
      </trkpt>
      <trkpt lat="47.30109" lon="-2.30305">
        <ele>-11.800000190735</ele>
        <time>2021-04-25T08:16:55.000Z</time>
      </trkpt>
      <trkpt lat="47.30107" lon="-2.30288">
        <ele>-11.800000190735</ele>
        <time>2021-04-25T08:16:57.000Z</time>
      </trkpt>
      <trkpt lat="47.30109" lon="-2.30271">
        <ele>-11.800000190735</ele>
        <time>2021-04-25T08:16:59.000Z</time>
      </trkpt>
      <trkpt lat="47.30124" lon="-2.30259">
        <ele>-11.800000190735</ele>
        <time>2021-04-25T08:17:02.000Z</time>
      </trkpt>
      <trkpt lat="47.30136" lon="-2.30257">
        <ele>-11.800000190735</ele>
        <time>2021-04-25T08:17:04.000Z</time>
      </trkpt>
      <trkpt lat="47.30162" lon="-2.30249">
        <ele>-11.800000190735</ele>
        <time>2021-04-25T08:17:08.000Z</time>
      </trkpt>
      <trkpt lat="47.30182" lon="-2.3024">
        <ele>-11.800000190735</ele>
        <time>2021-04-25T08:17:11.000Z</time>
      </trkpt>
      <trkpt lat="47.30194" lon="-2.30232">
        <ele>-11.800000190735</ele>
        <time>2021-04-25T08:17:13.000Z</time>
      </trkpt>
      <trkpt lat="47.30204" lon="-2.30224">
        <ele>-11.800000190735</ele>
        <time>2021-04-25T08:17:15.000Z</time>
      </trkpt>
      <trkpt lat="47.3021" lon="-2.30214">
        <ele>-11.800000190735</ele>
        <time>2021-04-25T08:17:17.000Z</time>
      </trkpt>
      <trkpt lat="47.30212" lon="-2.30209">
        <ele>-12.60000038147</ele>
        <time>2021-04-25T08:17:18.000Z</time>
      </trkpt>
      <trkpt lat="47.30213" lon="-2.30205">
        <ele>-13</ele>
        <time>2021-04-25T08:17:19.000Z</time>
      </trkpt>
      <trkpt lat="47.30213" lon="-2.30201">
        <ele>-13.60000038147</ele>
        <time>2021-04-25T08:17:20.000Z</time>
      </trkpt>
      <trkpt lat="47.30211" lon="-2.30196">
        <ele>-14</ele>
        <time>2021-04-25T08:17:21.000Z</time>
      </trkpt>
      <trkpt lat="47.30203" lon="-2.30174">
        <ele>-14</ele>
        <time>2021-04-25T08:17:25.000Z</time>
      </trkpt>
      <trkpt lat="47.302" lon="-2.30168">
        <ele>-14</ele>
        <time>2021-04-25T08:17:26.000Z</time>
      </trkpt>
      <trkpt lat="47.30189" lon="-2.30147">
        <ele>-14</ele>
        <time>2021-04-25T08:17:29.000Z</time>
      </trkpt>
      <trkpt lat="47.30183" lon="-2.30132">
        <ele>-14</ele>
        <time>2021-04-25T08:17:31.000Z</time>
      </trkpt>
      <trkpt lat="47.30169" lon="-2.30094">
        <ele>-14</ele>
        <time>2021-04-25T08:17:36.000Z</time>
      </trkpt>
      <trkpt lat="47.30159" lon="-2.30071">
        <ele>-14</ele>
        <time>2021-04-25T08:17:39.000Z</time>
      </trkpt>
      <trkpt lat="47.30151" lon="-2.30056">
        <ele>-14</ele>
        <time>2021-04-25T08:17:41.000Z</time>
      </trkpt>
      <trkpt lat="47.30144" lon="-2.3004">
        <ele>-14</ele>
        <time>2021-04-25T08:17:43.000Z</time>
      </trkpt>
      <trkpt lat="47.30138" lon="-2.30025">
        <ele>-14</ele>
        <time>2021-04-25T08:17:45.000Z</time>
      </trkpt>
      <trkpt lat="47.30135" lon="-2.30018">
        <ele>-14</ele>
        <time>2021-04-25T08:17:46.000Z</time>
      </trkpt>
      <trkpt lat="47.30124" lon="-2.30004">
        <ele>-14</ele>
        <time>2021-04-25T08:17:49.000Z</time>
      </trkpt>
      <trkpt lat="47.3011" lon="-2.29996">
        <ele>-14</ele>
        <time>2021-04-25T08:17:53.000Z</time>
      </trkpt>
      <trkpt lat="47.30105" lon="-2.29989">
        <ele>-14</ele>
        <time>2021-04-25T08:17:55.000Z</time>
      </trkpt>
      <trkpt lat="47.30101" lon="-2.2998">
        <ele>-14</ele>
        <time>2021-04-25T08:17:57.000Z</time>
      </trkpt>
      <trkpt lat="47.30098" lon="-2.29972">
        <ele>-14.39999961853</ele>
        <time>2021-04-25T08:17:59.000Z</time>
      </trkpt>
      <trkpt lat="47.30099" lon="-2.29968">
        <ele>-14.800000190735</ele>
        <time>2021-04-25T08:18:00.000Z</time>
      </trkpt>
      <trkpt lat="47.301" lon="-2.29964">
        <ele>-15.39999961853</ele>
        <time>2021-04-25T08:18:01.000Z</time>
      </trkpt>
      <trkpt lat="47.301" lon="-2.2996">
        <ele>-15.800000190735</ele>
        <time>2021-04-25T08:18:02.000Z</time>
      </trkpt>
      <trkpt lat="47.301" lon="-2.29955">
        <ele>-16.200000762939</ele>
        <time>2021-04-25T08:18:03.000Z</time>
      </trkpt>
      <trkpt lat="47.30101" lon="-2.29948">
        <ele>-16.200000762939</ele>
        <time>2021-04-25T08:18:05.000Z</time>
      </trkpt>
      <trkpt lat="47.30098" lon="-2.29936">
        <ele>-16.200000762939</ele>
        <time>2021-04-25T08:18:09.000Z</time>
      </trkpt>
      <trkpt lat="47.30098" lon="-2.29926">
        <ele>-16.200000762939</ele>
        <time>2021-04-25T08:18:11.000Z</time>
      </trkpt>
      <trkpt lat="47.30098" lon="-2.29918">
        <ele>-16.200000762939</ele>
        <time>2021-04-25T08:18:13.000Z</time>
      </trkpt>
      <trkpt lat="47.30108" lon="-2.29906">
        <ele>-16.200000762939</ele>
        <time>2021-04-25T08:18:18.000Z</time>
      </trkpt>
      <trkpt lat="47.30125" lon="-2.29888">
        <ele>-16.200000762939</ele>
        <time>2021-04-25T08:18:23.000Z</time>
      </trkpt>
      <trkpt lat="47.30138" lon="-2.2988">
        <ele>-16.200000762939</ele>
        <time>2021-04-25T08:18:27.000Z</time>
      </trkpt>
      <trkpt lat="47.30147" lon="-2.2987">
        <ele>-16.200000762939</ele>
        <time>2021-04-25T08:18:30.000Z</time>
      </trkpt>
      <trkpt lat="47.3015" lon="-2.29866">
        <ele>-16.200000762939</ele>
        <time>2021-04-25T08:18:31.000Z</time>
      </trkpt>
      <trkpt lat="47.30161" lon="-2.29842">
        <ele>-16.200000762939</ele>
        <time>2021-04-25T08:18:36.000Z</time>
      </trkpt>
      <trkpt lat="47.30171" lon="-2.29825">
        <ele>-16.200000762939</ele>
        <time>2021-04-25T08:18:41.000Z</time>
      </trkpt>
      <trkpt lat="47.30182" lon="-2.2981">
        <ele>-16.200000762939</ele>
        <time>2021-04-25T08:18:45.000Z</time>
      </trkpt>
      <trkpt lat="47.30185" lon="-2.29805">
        <ele>-16.200000762939</ele>
        <time>2021-04-25T08:18:46.000Z</time>
      </trkpt>
      <trkpt lat="47.30197" lon="-2.29791">
        <ele>-16.200000762939</ele>
        <time>2021-04-25T08:18:49.000Z</time>
      </trkpt>
      <trkpt lat="47.30204" lon="-2.2978">
        <ele>-16.200000762939</ele>
        <time>2021-04-25T08:18:51.000Z</time>
      </trkpt>
      <trkpt lat="47.3021" lon="-2.29769">
        <ele>-16.200000762939</ele>
        <time>2021-04-25T08:18:53.000Z</time>
      </trkpt>
      <trkpt lat="47.30217" lon="-2.29758">
        <ele>-16.200000762939</ele>
        <time>2021-04-25T08:18:55.000Z</time>
      </trkpt>
      <trkpt lat="47.30229" lon="-2.29741">
        <ele>-16.200000762939</ele>
        <time>2021-04-25T08:18:59.000Z</time>
      </trkpt>
      <trkpt lat="47.30238" lon="-2.29728">
        <ele>-16.200000762939</ele>
        <time>2021-04-25T08:19:04.000Z</time>
      </trkpt>
      <trkpt lat="47.30245" lon="-2.29711">
        <ele>-16.200000762939</ele>
        <time>2021-04-25T08:19:10.000Z</time>
      </trkpt>
      <trkpt lat="47.3024" lon="-2.29707">
        <ele>-16.200000762939</ele>
        <time>2021-04-25T08:19:14.000Z</time>
      </trkpt>
      <trkpt lat="47.30236" lon="-2.29705">
        <ele>-16.200000762939</ele>
        <time>2021-04-25T08:19:46.000Z</time>
      </trkpt>
      <trkpt lat="47.30219" lon="-2.29695">
        <ele>-16.200000762939</ele>
        <time>2021-04-25T08:19:51.000Z</time>
      </trkpt>
      <trkpt lat="47.30189" lon="-2.2968">
        <ele>-16.200000762939</ele>
        <time>2021-04-25T08:19:57.000Z</time>
      </trkpt>
      <trkpt lat="47.30165" lon="-2.29668">
        <ele>-16.200000762939</ele>
        <time>2021-04-25T08:20:02.000Z</time>
      </trkpt>
      <trkpt lat="47.3016" lon="-2.29667">
        <ele>-16.200000762939</ele>
        <time>2021-04-25T08:20:03.000Z</time>
      </trkpt>
      <trkpt lat="47.30155" lon="-2.29664">
        <ele>-16.200000762939</ele>
        <time>2021-04-25T08:20:04.000Z</time>
      </trkpt>
      <trkpt lat="47.30143" lon="-2.29652">
        <ele>-16.200000762939</ele>
        <time>2021-04-25T08:20:07.000Z</time>
      </trkpt>
      <trkpt lat="47.3014" lon="-2.29633">
        <ele>-16.200000762939</ele>
        <time>2021-04-25T08:20:10.000Z</time>
      </trkpt>
      <trkpt lat="47.30141" lon="-2.29626">
        <ele>-16.200000762939</ele>
        <time>2021-04-25T08:20:11.000Z</time>
      </trkpt>
      <trkpt lat="47.30141" lon="-2.29591">
        <ele>-16.200000762939</ele>
        <time>2021-04-25T08:20:15.000Z</time>
      </trkpt>
      <trkpt lat="47.30142" lon="-2.29572">
        <ele>-16.200000762939</ele>
        <time>2021-04-25T08:20:17.000Z</time>
      </trkpt>
      <trkpt lat="47.30146" lon="-2.29556">
        <ele>-16.200000762939</ele>
        <time>2021-04-25T08:20:19.000Z</time>
      </trkpt>
      <trkpt lat="47.30156" lon="-2.29533">
        <ele>-15.800000190735</ele>
        <time>2021-04-25T08:20:22.000Z</time>
      </trkpt>
      <trkpt lat="47.30159" lon="-2.29525">
        <ele>-15.39999961853</ele>
        <time>2021-04-25T08:20:23.000Z</time>
      </trkpt>
      <trkpt lat="47.30163" lon="-2.29517">
        <ele>-15</ele>
        <time>2021-04-25T08:20:24.000Z</time>
      </trkpt>
      <trkpt lat="47.30166" lon="-2.2951">
        <ele>-14.60000038147</ele>
        <time>2021-04-25T08:20:25.000Z</time>
      </trkpt>
      <trkpt lat="47.30169" lon="-2.29502">
        <ele>-14.199999809265</ele>
        <time>2021-04-25T08:20:26.000Z</time>
      </trkpt>
      <trkpt lat="47.30188" lon="-2.29462">
        <ele>-14.199999809265</ele>
        <time>2021-04-25T08:20:31.000Z</time>
      </trkpt>
      <trkpt lat="47.3021" lon="-2.29414">
        <ele>-14.199999809265</ele>
        <time>2021-04-25T08:20:37.000Z</time>
      </trkpt>
      <trkpt lat="47.30208" lon="-2.29391">
        <ele>-14.199999809265</ele>
        <time>2021-04-25T08:20:40.000Z</time>
      </trkpt>
      <trkpt lat="47.30207" lon="-2.29383">
        <ele>-14.199999809265</ele>
        <time>2021-04-25T08:20:41.000Z</time>
      </trkpt>
      <trkpt lat="47.30194" lon="-2.29345">
        <ele>-14.199999809265</ele>
        <time>2021-04-25T08:20:46.000Z</time>
      </trkpt>
      <trkpt lat="47.30191" lon="-2.29338">
        <ele>-14.199999809265</ele>
        <time>2021-04-25T08:20:47.000Z</time>
      </trkpt>
      <trkpt lat="47.30173" lon="-2.29309">
        <ele>-14.199999809265</ele>
        <time>2021-04-25T08:20:51.000Z</time>
      </trkpt>
      <trkpt lat="47.30143" lon="-2.29261">
        <ele>-14.199999809265</ele>
        <time>2021-04-25T08:20:58.000Z</time>
      </trkpt>
      <trkpt lat="47.30117" lon="-2.29223">
        <ele>-14.199999809265</ele>
        <time>2021-04-25T08:21:04.000Z</time>
      </trkpt>
      <trkpt lat="47.30084" lon="-2.2917">
        <ele>-14.199999809265</ele>
        <time>2021-04-25T08:21:12.000Z</time>
      </trkpt>
      <trkpt lat="47.30065" lon="-2.29143">
        <ele>-14.199999809265</ele>
        <time>2021-04-25T08:21:17.000Z</time>
      </trkpt>
      <trkpt lat="47.30059" lon="-2.29134">
        <ele>-14.199999809265</ele>
        <time>2021-04-25T08:21:19.000Z</time>
      </trkpt>
      <trkpt lat="47.30046" lon="-2.29122">
        <ele>-14.199999809265</ele>
        <time>2021-04-25T08:21:22.000Z</time>
      </trkpt>
      <trkpt lat="47.30018" lon="-2.29102">
        <ele>-14.199999809265</ele>
        <time>2021-04-25T08:21:27.000Z</time>
      </trkpt>
      <trkpt lat="47.3" lon="-2.29088">
        <ele>-14.199999809265</ele>
        <time>2021-04-25T08:21:30.000Z</time>
      </trkpt>
      <trkpt lat="47.29988" lon="-2.29069">
        <ele>-14.199999809265</ele>
        <time>2021-04-25T08:21:33.000Z</time>
      </trkpt>
      <trkpt lat="47.29958" lon="-2.29017">
        <ele>-14.199999809265</ele>
        <time>2021-04-25T08:21:41.000Z</time>
      </trkpt>
      <trkpt lat="47.29939" lon="-2.28981">
        <ele>-14.199999809265</ele>
        <time>2021-04-25T08:21:47.000Z</time>
      </trkpt>
      <trkpt lat="47.29928" lon="-2.28963">
        <ele>-13.39999961853</ele>
        <time>2021-04-25T08:21:50.000Z</time>
      </trkpt>
      <trkpt lat="47.29924" lon="-2.28956">
        <ele>-13</ele>
        <time>2021-04-25T08:21:51.000Z</time>
      </trkpt>
      <trkpt lat="47.2992" lon="-2.28952">
        <ele>-12.60000038147</ele>
        <time>2021-04-25T08:21:52.000Z</time>
      </trkpt>
      <trkpt lat="47.29915" lon="-2.28951">
        <ele>-12.199999809265</ele>
        <time>2021-04-25T08:21:53.000Z</time>
      </trkpt>
      <trkpt lat="47.29901" lon="-2.2895">
        <ele>-12.199999809265</ele>
        <time>2021-04-25T08:21:55.000Z</time>
      </trkpt>
      <trkpt lat="47.29878" lon="-2.28944">
        <ele>-12.199999809265</ele>
        <time>2021-04-25T08:21:59.000Z</time>
      </trkpt>
      <trkpt lat="47.2987" lon="-2.28937">
        <ele>-12.199999809265</ele>
        <time>2021-04-25T08:22:01.000Z</time>
      </trkpt>
      <trkpt lat="47.29866" lon="-2.28919">
        <ele>-12.199999809265</ele>
        <time>2021-04-25T08:22:04.000Z</time>
      </trkpt>
      <trkpt lat="47.29873" lon="-2.28894">
        <ele>-12.199999809265</ele>
        <time>2021-04-25T08:22:08.000Z</time>
      </trkpt>
      <trkpt lat="47.29879" lon="-2.28871">
        <ele>-12.199999809265</ele>
        <time>2021-04-25T08:22:11.000Z</time>
      </trkpt>
      <trkpt lat="47.29883" lon="-2.28854">
        <ele>-12.199999809265</ele>
        <time>2021-04-25T08:22:13.000Z</time>
      </trkpt>
      <trkpt lat="47.29886" lon="-2.28837">
        <ele>-11.800000190735</ele>
        <time>2021-04-25T08:22:15.000Z</time>
      </trkpt>
      <trkpt lat="47.29888" lon="-2.28829">
        <ele>-11.39999961853</ele>
        <time>2021-04-25T08:22:16.000Z</time>
      </trkpt>
      <trkpt lat="47.29889" lon="-2.2882">
        <ele>-10.800000190735</ele>
        <time>2021-04-25T08:22:17.000Z</time>
      </trkpt>
      <trkpt lat="47.2989" lon="-2.28813">
        <ele>-10.39999961853</ele>
        <time>2021-04-25T08:22:18.000Z</time>
      </trkpt>
      <trkpt lat="47.29892" lon="-2.28805">
        <ele>-10</ele>
        <time>2021-04-25T08:22:19.000Z</time>
      </trkpt>
      <trkpt lat="47.29895" lon="-2.28781">
        <ele>-10</ele>
        <time>2021-04-25T08:22:22.000Z</time>
      </trkpt>
      <trkpt lat="47.29903" lon="-2.28737">
        <ele>-10</ele>
        <time>2021-04-25T08:22:27.000Z</time>
      </trkpt>
      <trkpt lat="47.29905" lon="-2.28729">
        <ele>-10</ele>
        <time>2021-04-25T08:22:28.000Z</time>
      </trkpt>
      <trkpt lat="47.2991" lon="-2.28698">
        <ele>-10</ele>
        <time>2021-04-25T08:22:32.000Z</time>
      </trkpt>
      <trkpt lat="47.29912" lon="-2.28691">
        <ele>-10</ele>
        <time>2021-04-25T08:22:33.000Z</time>
      </trkpt>
      <trkpt lat="47.29919" lon="-2.28657">
        <ele>-10</ele>
        <time>2021-04-25T08:22:38.000Z</time>
      </trkpt>
      <trkpt lat="47.29927" lon="-2.28607">
        <ele>-10</ele>
        <time>2021-04-25T08:22:45.000Z</time>
      </trkpt>
      <trkpt lat="47.29931" lon="-2.28574">
        <ele>-10</ele>
        <time>2021-04-25T08:22:50.000Z</time>
      </trkpt>
      <trkpt lat="47.29929" lon="-2.28571">
        <ele>-10</ele>
        <time>2021-04-25T08:22:51.000Z</time>
      </trkpt>
      <trkpt lat="47.29917" lon="-2.28552">
        <ele>-10</ele>
        <time>2021-04-25T08:22:55.000Z</time>
      </trkpt>
      <trkpt lat="47.29921" lon="-2.28531">
        <ele>-10</ele>
        <time>2021-04-25T08:22:58.000Z</time>
      </trkpt>
      <trkpt lat="47.29926" lon="-2.28518">
        <ele>-10</ele>
        <time>2021-04-25T08:23:00.000Z</time>
      </trkpt>
      <trkpt lat="47.29931" lon="-2.28505">
        <ele>-9.6000003814697</ele>
        <time>2021-04-25T08:23:02.000Z</time>
      </trkpt>
      <trkpt lat="47.29933" lon="-2.28499">
        <ele>-9.1999998092651</ele>
        <time>2021-04-25T08:23:03.000Z</time>
      </trkpt>
      <trkpt lat="47.29933" lon="-2.28493">
        <ele>-8.1999998092651</ele>
        <time>2021-04-25T08:23:04.000Z</time>
      </trkpt>
      <trkpt lat="47.29932" lon="-2.28487">
        <ele>-7.8000001907349</ele>
        <time>2021-04-25T08:23:05.000Z</time>
      </trkpt>
      <trkpt lat="47.29932" lon="-2.28465">
        <ele>-7.8000001907349</ele>
        <time>2021-04-25T08:23:09.000Z</time>
      </trkpt>
      <trkpt lat="47.29932" lon="-2.28459">
        <ele>-7.8000001907349</ele>
        <time>2021-04-25T08:23:10.000Z</time>
      </trkpt>
      <trkpt lat="47.29937" lon="-2.28443">
        <ele>-7.8000001907349</ele>
        <time>2021-04-25T08:23:13.000Z</time>
      </trkpt>
      <trkpt lat="47.29943" lon="-2.28415">
        <ele>-7.8000001907349</ele>
        <time>2021-04-25T08:23:17.000Z</time>
      </trkpt>
      <trkpt lat="47.29943" lon="-2.28408">
        <ele>-7.8000001907349</ele>
        <time>2021-04-25T08:23:18.000Z</time>
      </trkpt>
      <trkpt lat="47.29944" lon="-2.284">
        <ele>-7.8000001907349</ele>
        <time>2021-04-25T08:23:19.000Z</time>
      </trkpt>
      <trkpt lat="47.29947" lon="-2.28367">
        <ele>-7.8000001907349</ele>
        <time>2021-04-25T08:23:23.000Z</time>
      </trkpt>
      <trkpt lat="47.29947" lon="-2.28312">
        <ele>-7.8000001907349</ele>
        <time>2021-04-25T08:23:29.000Z</time>
      </trkpt>
      <trkpt lat="47.29947" lon="-2.28243">
        <ele>-7.8000001907349</ele>
        <time>2021-04-25T08:23:36.000Z</time>
      </trkpt>
      <trkpt lat="47.29948" lon="-2.28194">
        <ele>-7.8000001907349</ele>
        <time>2021-04-25T08:23:42.000Z</time>
      </trkpt>
      <trkpt lat="47.29954" lon="-2.28153">
        <ele>-7.8000001907349</ele>
        <time>2021-04-25T08:23:47.000Z</time>
      </trkpt>
      <trkpt lat="47.29956" lon="-2.28145">
        <ele>-7.8000001907349</ele>
        <time>2021-04-25T08:23:48.000Z</time>
      </trkpt>
      <trkpt lat="47.29971" lon="-2.28086">
        <ele>-7.8000001907349</ele>
        <time>2021-04-25T08:23:54.000Z</time>
      </trkpt>
      <trkpt lat="47.29986" lon="-2.28045">
        <ele>-7.8000001907349</ele>
        <time>2021-04-25T08:23:59.000Z</time>
      </trkpt>
      <trkpt lat="47.29985" lon="-2.28039">
        <ele>-7.8000001907349</ele>
        <time>2021-04-25T08:24:03.000Z</time>
      </trkpt>
      <trkpt lat="47.29973" lon="-2.28045">
        <ele>-7.8000001907349</ele>
        <time>2021-04-25T08:24:07.000Z</time>
      </trkpt>
      <trkpt lat="47.29957" lon="-2.28045">
        <ele>-7.8000001907349</ele>
        <time>2021-04-25T08:24:11.000Z</time>
      </trkpt>
      <trkpt lat="47.29954" lon="-2.28042">
        <ele>-7.8000001907349</ele>
        <time>2021-04-25T08:24:12.000Z</time>
      </trkpt>
      <trkpt lat="47.29938" lon="-2.28015">
        <ele>-7.8000001907349</ele>
        <time>2021-04-25T08:24:17.000Z</time>
      </trkpt>
      <trkpt lat="47.29936" lon="-2.28008">
        <ele>-7.8000001907349</ele>
        <time>2021-04-25T08:24:18.000Z</time>
      </trkpt>
      <trkpt lat="47.29934" lon="-2.28001">
        <ele>-7.8000001907349</ele>
        <time>2021-04-25T08:24:19.000Z</time>
      </trkpt>
      <trkpt lat="47.2993" lon="-2.27975">
        <ele>-7.8000001907349</ele>
        <time>2021-04-25T08:24:22.000Z</time>
      </trkpt>
      <trkpt lat="47.2993" lon="-2.27958">
        <ele>-7.8000001907349</ele>
        <time>2021-04-25T08:24:24.000Z</time>
      </trkpt>
      <trkpt lat="47.29931" lon="-2.27949">
        <ele>-7.4000000953674</ele>
        <time>2021-04-25T08:24:25.000Z</time>
      </trkpt>
      <trkpt lat="47.29932" lon="-2.27941">
        <ele>-7</ele>
        <time>2021-04-25T08:24:26.000Z</time>
      </trkpt>
      <trkpt lat="47.29932" lon="-2.27932">
        <ele>-6.5999999046326</ele>
        <time>2021-04-25T08:24:27.000Z</time>
      </trkpt>
      <trkpt lat="47.29933" lon="-2.27924">
        <ele>-6.1999998092651</ele>
        <time>2021-04-25T08:24:28.000Z</time>
      </trkpt>
      <trkpt lat="47.29934" lon="-2.27915">
        <ele>-5.8000001907349</ele>
        <time>2021-04-25T08:24:29.000Z</time>
      </trkpt>
      <trkpt lat="47.2994" lon="-2.27862">
        <ele>-5.8000001907349</ele>
        <time>2021-04-25T08:24:35.000Z</time>
      </trkpt>
      <trkpt lat="47.29946" lon="-2.2779">
        <ele>-5.8000001907349</ele>
        <time>2021-04-25T08:24:43.000Z</time>
      </trkpt>
      <trkpt lat="47.2995" lon="-2.27746">
        <ele>-5.8000001907349</ele>
        <time>2021-04-25T08:24:48.000Z</time>
      </trkpt>
      <trkpt lat="47.29954" lon="-2.27689">
        <ele>-5.8000001907349</ele>
        <time>2021-04-25T08:24:54.000Z</time>
      </trkpt>
      <trkpt lat="47.29955" lon="-2.27671">
        <ele>-6.1999998092651</ele>
        <time>2021-04-25T08:24:56.000Z</time>
      </trkpt>
      <trkpt lat="47.29956" lon="-2.27662">
        <ele>-6.5999999046326</ele>
        <time>2021-04-25T08:24:57.000Z</time>
      </trkpt>
      <trkpt lat="47.29957" lon="-2.27653">
        <ele>-7</ele>
        <time>2021-04-25T08:24:58.000Z</time>
      </trkpt>
      <trkpt lat="47.29958" lon="-2.27644">
        <ele>-7.4000000953674</ele>
        <time>2021-04-25T08:24:59.000Z</time>
      </trkpt>
      <trkpt lat="47.29959" lon="-2.27635">
        <ele>-7.8000001907349</ele>
        <time>2021-04-25T08:25:00.000Z</time>
      </trkpt>
      <trkpt lat="47.2996" lon="-2.27627">
        <ele>-7.8000001907349</ele>
        <time>2021-04-25T08:25:01.000Z</time>
      </trkpt>
      <trkpt lat="47.29972" lon="-2.27577">
        <ele>-7.8000001907349</ele>
        <time>2021-04-25T08:25:07.000Z</time>
      </trkpt>
      <trkpt lat="47.29987" lon="-2.27518">
        <ele>-7.8000001907349</ele>
        <time>2021-04-25T08:25:13.000Z</time>
      </trkpt>
      <trkpt lat="47.3" lon="-2.2747">
        <ele>-8.3999996185303</ele>
        <time>2021-04-25T08:25:18.000Z</time>
      </trkpt>
      <trkpt lat="47.30004" lon="-2.27461">
        <ele>-8.8000001907349</ele>
        <time>2021-04-25T08:25:19.000Z</time>
      </trkpt>
      <trkpt lat="47.30007" lon="-2.27452">
        <ele>-9.1999998092651</ele>
        <time>2021-04-25T08:25:20.000Z</time>
      </trkpt>
      <trkpt lat="47.30011" lon="-2.27444">
        <ele>-9.6000003814697</ele>
        <time>2021-04-25T08:25:21.000Z</time>
      </trkpt>
      <trkpt lat="47.30014" lon="-2.27437">
        <ele>-10</ele>
        <time>2021-04-25T08:25:22.000Z</time>
      </trkpt>
      <trkpt lat="47.30019" lon="-2.2743">
        <ele>-10</ele>
        <time>2021-04-25T08:25:23.000Z</time>
      </trkpt>
      <trkpt lat="47.30029" lon="-2.27416">
        <ele>-10</ele>
        <time>2021-04-25T08:25:25.000Z</time>
      </trkpt>
      <trkpt lat="47.3006" lon="-2.27366">
        <ele>-10</ele>
        <time>2021-04-25T08:25:32.000Z</time>
      </trkpt>
      <trkpt lat="47.30082" lon="-2.27318">
        <ele>-10</ele>
        <time>2021-04-25T08:25:38.000Z</time>
      </trkpt>
      <trkpt lat="47.30107" lon="-2.27272">
        <ele>-10</ele>
        <time>2021-04-25T08:25:44.000Z</time>
      </trkpt>
      <trkpt lat="47.30137" lon="-2.27234">
        <ele>-10</ele>
        <time>2021-04-25T08:25:50.000Z</time>
      </trkpt>
      <trkpt lat="47.30177" lon="-2.27186">
        <ele>-10</ele>
        <time>2021-04-25T08:25:58.000Z</time>
      </trkpt>
      <trkpt lat="47.3021" lon="-2.27153">
        <ele>-10</ele>
        <time>2021-04-25T08:26:05.000Z</time>
      </trkpt>
      <trkpt lat="47.30226" lon="-2.27158">
        <ele>-10</ele>
        <time>2021-04-25T08:26:08.000Z</time>
      </trkpt>
      <trkpt lat="47.30233" lon="-2.27161">
        <ele>-10</ele>
        <time>2021-04-25T08:26:09.000Z</time>
      </trkpt>
      <trkpt lat="47.30261" lon="-2.27175">
        <ele>-10</ele>
        <time>2021-04-25T08:26:13.000Z</time>
      </trkpt>
      <trkpt lat="47.30284" lon="-2.27184">
        <ele>-10</ele>
        <time>2021-04-25T08:26:16.000Z</time>
      </trkpt>
      <trkpt lat="47.30299" lon="-2.27185">
        <ele>-10</ele>
        <time>2021-04-25T08:26:18.000Z</time>
      </trkpt>
      <trkpt lat="47.30306" lon="-2.27185">
        <ele>-10.39999961853</ele>
        <time>2021-04-25T08:26:19.000Z</time>
      </trkpt>
      <trkpt lat="47.30313" lon="-2.27185">
        <ele>-10.800000190735</ele>
        <time>2021-04-25T08:26:20.000Z</time>
      </trkpt>
      <trkpt lat="47.30321" lon="-2.27183">
        <ele>-11.60000038147</ele>
        <time>2021-04-25T08:26:21.000Z</time>
      </trkpt>
      <trkpt lat="47.30328" lon="-2.27181">
        <ele>-12.199999809265</ele>
        <time>2021-04-25T08:26:22.000Z</time>
      </trkpt>
      <trkpt lat="47.30335" lon="-2.27178">
        <ele>-12.199999809265</ele>
        <time>2021-04-25T08:26:23.000Z</time>
      </trkpt>
      <trkpt lat="47.30374" lon="-2.27169">
        <ele>-12.199999809265</ele>
        <time>2021-04-25T08:26:29.000Z</time>
      </trkpt>
      <trkpt lat="47.30382" lon="-2.27166">
        <ele>-12.199999809265</ele>
        <time>2021-04-25T08:26:31.000Z</time>
      </trkpt>
      <trkpt lat="47.30389" lon="-2.27162">
        <ele>-12.199999809265</ele>
        <time>2021-04-25T08:26:33.000Z</time>
      </trkpt>
      <trkpt lat="47.30394" lon="-2.2716">
        <ele>-12.60000038147</ele>
        <time>2021-04-25T08:26:36.000Z</time>
      </trkpt>
      <trkpt lat="47.30396" lon="-2.2716">
        <ele>-13</ele>
        <time>2021-04-25T08:26:37.000Z</time>
      </trkpt>
      <trkpt lat="47.30399" lon="-2.2716">
        <ele>-13.39999961853</ele>
        <time>2021-04-25T08:26:38.000Z</time>
      </trkpt>
      <trkpt lat="47.30402" lon="-2.27158">
        <ele>-13.800000190735</ele>
        <time>2021-04-25T08:26:39.000Z</time>
      </trkpt>
      <trkpt lat="47.30406" lon="-2.27156">
        <ele>-14.199999809265</ele>
        <time>2021-04-25T08:26:40.000Z</time>
      </trkpt>
      <trkpt lat="47.30409" lon="-2.27153">
        <ele>-14.199999809265</ele>
        <time>2021-04-25T08:26:41.000Z</time>
      </trkpt>
      <trkpt lat="47.30413" lon="-2.27148">
        <ele>-14.199999809265</ele>
        <time>2021-04-25T08:26:42.000Z</time>
      </trkpt>
      <trkpt lat="47.30414" lon="-2.27126">
        <ele>-14.199999809265</ele>
        <time>2021-04-25T08:26:45.000Z</time>
      </trkpt>
      <trkpt lat="47.30412" lon="-2.2711">
        <ele>-14.199999809265</ele>
        <time>2021-04-25T08:26:47.000Z</time>
      </trkpt>
      <trkpt lat="47.30405" lon="-2.27077">
        <ele>-14.199999809265</ele>
        <time>2021-04-25T08:26:51.000Z</time>
      </trkpt>
      <trkpt lat="47.30389" lon="-2.27057">
        <ele>-14.199999809265</ele>
        <time>2021-04-25T08:26:55.000Z</time>
      </trkpt>
      <trkpt lat="47.30377" lon="-2.27042">
        <ele>-14.199999809265</ele>
        <time>2021-04-25T08:26:58.000Z</time>
      </trkpt>
      <trkpt lat="47.30374" lon="-2.27029">
        <ele>-13.800000190735</ele>
        <time>2021-04-25T08:27:00.000Z</time>
      </trkpt>
      <trkpt lat="47.30373" lon="-2.27022">
        <ele>-13.199999809265</ele>
        <time>2021-04-25T08:27:01.000Z</time>
      </trkpt>
      <trkpt lat="47.30371" lon="-2.27015">
        <ele>-12.800000190735</ele>
        <time>2021-04-25T08:27:02.000Z</time>
      </trkpt>
      <trkpt lat="47.30371" lon="-2.27008">
        <ele>-12.39999961853</ele>
        <time>2021-04-25T08:27:03.000Z</time>
      </trkpt>
      <trkpt lat="47.3037" lon="-2.27">
        <ele>-12</ele>
        <time>2021-04-25T08:27:04.000Z</time>
      </trkpt>
      <trkpt lat="47.3037" lon="-2.26993">
        <ele>-12</ele>
        <time>2021-04-25T08:27:05.000Z</time>
      </trkpt>
      <trkpt lat="47.30369" lon="-2.26966">
        <ele>-12</ele>
        <time>2021-04-25T08:27:08.000Z</time>
      </trkpt>
      <trkpt lat="47.30368" lon="-2.26948">
        <ele>-12</ele>
        <time>2021-04-25T08:27:10.000Z</time>
      </trkpt>
      <trkpt lat="47.30364" lon="-2.26925">
        <ele>-12</ele>
        <time>2021-04-25T08:27:13.000Z</time>
      </trkpt>
      <trkpt lat="47.30362" lon="-2.26909">
        <ele>-12</ele>
        <time>2021-04-25T08:27:15.000Z</time>
      </trkpt>
      <trkpt lat="47.30358" lon="-2.26883">
        <ele>-12</ele>
        <time>2021-04-25T08:27:18.000Z</time>
      </trkpt>
      <trkpt lat="47.30357" lon="-2.26874">
        <ele>-11.60000038147</ele>
        <time>2021-04-25T08:27:19.000Z</time>
      </trkpt>
      <trkpt lat="47.30357" lon="-2.26866">
        <ele>-11</ele>
        <time>2021-04-25T08:27:20.000Z</time>
      </trkpt>
      <trkpt lat="47.30356" lon="-2.26858">
        <ele>-10.60000038147</ele>
        <time>2021-04-25T08:27:21.000Z</time>
      </trkpt>
      <trkpt lat="47.30355" lon="-2.26849">
        <ele>-10.199999809265</ele>
        <time>2021-04-25T08:27:22.000Z</time>
      </trkpt>
      <trkpt lat="47.30354" lon="-2.26841">
        <ele>-9.6000003814697</ele>
        <time>2021-04-25T08:27:23.000Z</time>
      </trkpt>
      <trkpt lat="47.30352" lon="-2.26824">
        <ele>-9.6000003814697</ele>
        <time>2021-04-25T08:27:25.000Z</time>
      </trkpt>
      <trkpt lat="47.30351" lon="-2.26816">
        <ele>-9.6000003814697</ele>
        <time>2021-04-25T08:27:26.000Z</time>
      </trkpt>
      <trkpt lat="47.30351" lon="-2.26786">
        <ele>-9.6000003814697</ele>
        <time>2021-04-25T08:27:30.000Z</time>
      </trkpt>
      <trkpt lat="47.3036" lon="-2.26766">
        <ele>-9.6000003814697</ele>
        <time>2021-04-25T08:27:33.000Z</time>
      </trkpt>
      <trkpt lat="47.30367" lon="-2.26749">
        <ele>-9.6000003814697</ele>
        <time>2021-04-25T08:27:35.000Z</time>
      </trkpt>
      <trkpt lat="47.30398" lon="-2.26689">
        <ele>-9.6000003814697</ele>
        <time>2021-04-25T08:27:43.000Z</time>
      </trkpt>
      <trkpt lat="47.30413" lon="-2.26657">
        <ele>-9.6000003814697</ele>
        <time>2021-04-25T08:27:48.000Z</time>
      </trkpt>
      <trkpt lat="47.30416" lon="-2.26649">
        <ele>-9.6000003814697</ele>
        <time>2021-04-25T08:27:49.000Z</time>
      </trkpt>
      <trkpt lat="47.30425" lon="-2.26628">
        <ele>-9.6000003814697</ele>
        <time>2021-04-25T08:27:52.000Z</time>
      </trkpt>
      <trkpt lat="47.30433" lon="-2.26613">
        <ele>-9.6000003814697</ele>
        <time>2021-04-25T08:27:54.000Z</time>
      </trkpt>
      <trkpt lat="47.30456" lon="-2.26569">
        <ele>-9.6000003814697</ele>
        <time>2021-04-25T08:28:00.000Z</time>
      </trkpt>
      <trkpt lat="47.30478" lon="-2.26521">
        <ele>-9.6000003814697</ele>
        <time>2021-04-25T08:28:07.000Z</time>
      </trkpt>
      <trkpt lat="47.30496" lon="-2.26476">
        <ele>-9.6000003814697</ele>
        <time>2021-04-25T08:28:14.000Z</time>
      </trkpt>
      <trkpt lat="47.30517" lon="-2.26423">
        <ele>-9.6000003814697</ele>
        <time>2021-04-25T08:28:21.000Z</time>
      </trkpt>
      <trkpt lat="47.3054" lon="-2.2636">
        <ele>-9.6000003814697</ele>
        <time>2021-04-25T08:28:29.000Z</time>
      </trkpt>
      <trkpt lat="47.30543" lon="-2.2635">
        <ele>-9.6000003814697</ele>
        <time>2021-04-25T08:28:30.000Z</time>
      </trkpt>
      <trkpt lat="47.30556" lon="-2.26303">
        <ele>-9.6000003814697</ele>
        <time>2021-04-25T08:28:35.000Z</time>
      </trkpt>
      <trkpt lat="47.30574" lon="-2.26244">
        <ele>-9.6000003814697</ele>
        <time>2021-04-25T08:28:42.000Z</time>
      </trkpt>
      <trkpt lat="47.30588" lon="-2.2619">
        <ele>-9.6000003814697</ele>
        <time>2021-04-25T08:28:49.000Z</time>
      </trkpt>
      <trkpt lat="47.30608" lon="-2.26146">
        <ele>-9.6000003814697</ele>
        <time>2021-04-25T08:28:55.000Z</time>
      </trkpt>
      <trkpt lat="47.30626" lon="-2.26122">
        <ele>-9.6000003814697</ele>
        <time>2021-04-25T08:29:00.000Z</time>
      </trkpt>
      <trkpt lat="47.30637" lon="-2.26108">
        <ele>-9.6000003814697</ele>
        <time>2021-04-25T08:29:04.000Z</time>
      </trkpt>
      <trkpt lat="47.30641" lon="-2.26105">
        <ele>-9.6000003814697</ele>
        <time>2021-04-25T08:29:05.000Z</time>
      </trkpt>
      <trkpt lat="47.30654" lon="-2.26096">
        <ele>-9.6000003814697</ele>
        <time>2021-04-25T08:29:08.000Z</time>
      </trkpt>
      <trkpt lat="47.30664" lon="-2.26089">
        <ele>-9.6000003814697</ele>
        <time>2021-04-25T08:29:10.000Z</time>
      </trkpt>
      <trkpt lat="47.3071" lon="-2.26063">
        <ele>-9.1999998092651</ele>
        <time>2021-04-25T08:29:18.000Z</time>
      </trkpt>
      <trkpt lat="47.30715" lon="-2.2606">
        <ele>-8.8000001907349</ele>
        <time>2021-04-25T08:29:19.000Z</time>
      </trkpt>
      <trkpt lat="47.30721" lon="-2.26057">
        <ele>-8.3999996185303</ele>
        <time>2021-04-25T08:29:20.000Z</time>
      </trkpt>
      <trkpt lat="47.30727" lon="-2.26055">
        <ele>-8</ele>
        <time>2021-04-25T08:29:21.000Z</time>
      </trkpt>
      <trkpt lat="47.30732" lon="-2.26051">
        <ele>-7.5999999046326</ele>
        <time>2021-04-25T08:29:22.000Z</time>
      </trkpt>
      <trkpt lat="47.30749" lon="-2.26041">
        <ele>-7.5999999046326</ele>
        <time>2021-04-25T08:29:25.000Z</time>
      </trkpt>
      <trkpt lat="47.30786" lon="-2.26017">
        <ele>-7.5999999046326</ele>
        <time>2021-04-25T08:29:32.000Z</time>
      </trkpt>
      <trkpt lat="47.30791" lon="-2.26014">
        <ele>-7.5999999046326</ele>
        <time>2021-04-25T08:29:33.000Z</time>
      </trkpt>
      <trkpt lat="47.30824" lon="-2.25987">
        <ele>-7.5999999046326</ele>
        <time>2021-04-25T08:29:39.000Z</time>
      </trkpt>
      <trkpt lat="47.30863" lon="-2.25942">
        <ele>-7.5999999046326</ele>
        <time>2021-04-25T08:29:47.000Z</time>
      </trkpt>
      <trkpt lat="47.30882" lon="-2.25919">
        <ele>-7.5999999046326</ele>
        <time>2021-04-25T08:29:51.000Z</time>
      </trkpt>
      <trkpt lat="47.30912" lon="-2.25884">
        <ele>-7.5999999046326</ele>
        <time>2021-04-25T08:29:57.000Z</time>
      </trkpt>
      <trkpt lat="47.30929" lon="-2.25869">
        <ele>-7.5999999046326</ele>
        <time>2021-04-25T08:30:00.000Z</time>
      </trkpt>
      <trkpt lat="47.30948" lon="-2.25859">
        <ele>-7.5999999046326</ele>
        <time>2021-04-25T08:30:03.000Z</time>
      </trkpt>
      <trkpt lat="47.3099" lon="-2.25844">
        <ele>-7.5999999046326</ele>
        <time>2021-04-25T08:30:09.000Z</time>
      </trkpt>
      <trkpt lat="47.31033" lon="-2.25831">
        <ele>-7.5999999046326</ele>
        <time>2021-04-25T08:30:15.000Z</time>
      </trkpt>
      <trkpt lat="47.31046" lon="-2.25827">
        <ele>-8</ele>
        <time>2021-04-25T08:30:17.000Z</time>
      </trkpt>
      <trkpt lat="47.31053" lon="-2.25825">
        <ele>-8.3999996185303</ele>
        <time>2021-04-25T08:30:18.000Z</time>
      </trkpt>
      <trkpt lat="47.31059" lon="-2.25823">
        <ele>-8.8000001907349</ele>
        <time>2021-04-25T08:30:19.000Z</time>
      </trkpt>
      <trkpt lat="47.31065" lon="-2.25821">
        <ele>-9.1999998092651</ele>
        <time>2021-04-25T08:30:20.000Z</time>
      </trkpt>
      <trkpt lat="47.31072" lon="-2.25819">
        <ele>-9.6000003814697</ele>
        <time>2021-04-25T08:30:21.000Z</time>
      </trkpt>
      <trkpt lat="47.31085" lon="-2.25815">
        <ele>-9.6000003814697</ele>
        <time>2021-04-25T08:30:23.000Z</time>
      </trkpt>
      <trkpt lat="47.31121" lon="-2.25808">
        <ele>-9.6000003814697</ele>
        <time>2021-04-25T08:30:29.000Z</time>
      </trkpt>
      <trkpt lat="47.3115" lon="-2.25817">
        <ele>-9.6000003814697</ele>
        <time>2021-04-25T08:30:34.000Z</time>
      </trkpt>
      <trkpt lat="47.31156" lon="-2.25819">
        <ele>-10</ele>
        <time>2021-04-25T08:30:36.000Z</time>
      </trkpt>
      <trkpt lat="47.31158" lon="-2.25821">
        <ele>-10.39999961853</ele>
        <time>2021-04-25T08:30:37.000Z</time>
      </trkpt>
      <trkpt lat="47.31161" lon="-2.25822">
        <ele>-10.800000190735</ele>
        <time>2021-04-25T08:30:38.000Z</time>
      </trkpt>
      <trkpt lat="47.31163" lon="-2.25824">
        <ele>-11.199999809265</ele>
        <time>2021-04-25T08:30:39.000Z</time>
      </trkpt>
      <trkpt lat="47.31165" lon="-2.25826">
        <ele>-11.60000038147</ele>
        <time>2021-04-25T08:30:40.000Z</time>
      </trkpt>
      <trkpt lat="47.31174" lon="-2.25831">
        <ele>-11.60000038147</ele>
        <time>2021-04-25T08:30:44.000Z</time>
      </trkpt>
      <trkpt lat="47.31191" lon="-2.25823">
        <ele>-11.60000038147</ele>
        <time>2021-04-25T08:30:49.000Z</time>
      </trkpt>
      <trkpt lat="47.31221" lon="-2.2581">
        <ele>-11.60000038147</ele>
        <time>2021-04-25T08:30:56.000Z</time>
      </trkpt>
      <trkpt lat="47.31241" lon="-2.25802">
        <ele>-11.60000038147</ele>
        <time>2021-04-25T08:31:00.000Z</time>
      </trkpt>
      <trkpt lat="47.31249" lon="-2.25808">
        <ele>-11.60000038147</ele>
        <time>2021-04-25T08:31:02.000Z</time>
      </trkpt>
      <trkpt lat="47.31259" lon="-2.25824">
        <ele>-11.60000038147</ele>
        <time>2021-04-25T08:31:05.000Z</time>
      </trkpt>
      <trkpt lat="47.31262" lon="-2.25831">
        <ele>-11.60000038147</ele>
        <time>2021-04-25T08:31:06.000Z</time>
      </trkpt>
      <trkpt lat="47.31277" lon="-2.25884">
        <ele>-11.60000038147</ele>
        <time>2021-04-25T08:31:12.000Z</time>
      </trkpt>
      <trkpt lat="47.31285" lon="-2.25923">
        <ele>-11.60000038147</ele>
        <time>2021-04-25T08:31:16.000Z</time>
      </trkpt>
      <trkpt lat="47.31287" lon="-2.25933">
        <ele>-11.60000038147</ele>
        <time>2021-04-25T08:31:17.000Z</time>
      </trkpt>
      <trkpt lat="47.31295" lon="-2.25969">
        <ele>-11.60000038147</ele>
        <time>2021-04-25T08:31:21.000Z</time>
      </trkpt>
      <trkpt lat="47.313" lon="-2.25977">
        <ele>-11.60000038147</ele>
        <time>2021-04-25T08:31:23.000Z</time>
      </trkpt>
      <trkpt lat="47.31309" lon="-2.25979">
        <ele>-12.199999809265</ele>
        <time>2021-04-25T08:31:25.000Z</time>
      </trkpt>
      <trkpt lat="47.31313" lon="-2.25979">
        <ele>-12.60000038147</ele>
        <time>2021-04-25T08:31:26.000Z</time>
      </trkpt>
      <trkpt lat="47.31318" lon="-2.25979">
        <ele>-13</ele>
        <time>2021-04-25T08:31:27.000Z</time>
      </trkpt>
      <trkpt lat="47.31323" lon="-2.25982">
        <ele>-13.39999961853</ele>
        <time>2021-04-25T08:31:28.000Z</time>
      </trkpt>
      <trkpt lat="47.31328" lon="-2.25984">
        <ele>-13.800000190735</ele>
        <time>2021-04-25T08:31:29.000Z</time>
      </trkpt>
      <trkpt lat="47.31337" lon="-2.25995">
        <ele>-13.800000190735</ele>
        <time>2021-04-25T08:31:31.000Z</time>
      </trkpt>
      <trkpt lat="47.31345" lon="-2.26009">
        <ele>-13.800000190735</ele>
        <time>2021-04-25T08:31:33.000Z</time>
      </trkpt>
      <trkpt lat="47.31353" lon="-2.26024">
        <ele>-13.800000190735</ele>
        <time>2021-04-25T08:31:35.000Z</time>
      </trkpt>
      <trkpt lat="47.31369" lon="-2.26076">
        <ele>-13.800000190735</ele>
        <time>2021-04-25T08:31:41.000Z</time>
      </trkpt>
      <trkpt lat="47.3138" lon="-2.26137">
        <ele>-14.199999809265</ele>
        <time>2021-04-25T08:31:47.000Z</time>
      </trkpt>
      <trkpt lat="47.31382" lon="-2.26143">
        <ele>-14.60000038147</ele>
        <time>2021-04-25T08:31:48.000Z</time>
      </trkpt>
      <trkpt lat="47.31385" lon="-2.26146">
        <ele>-15</ele>
        <time>2021-04-25T08:31:49.000Z</time>
      </trkpt>
      <trkpt lat="47.31388" lon="-2.26146">
        <ele>-15.39999961853</ele>
        <time>2021-04-25T08:31:50.000Z</time>
      </trkpt>
      <trkpt lat="47.31393" lon="-2.26142">
        <ele>-16</ele>
        <time>2021-04-25T08:31:51.000Z</time>
      </trkpt>
      <trkpt lat="47.31401" lon="-2.26134">
        <ele>-16</ele>
        <time>2021-04-25T08:31:53.000Z</time>
      </trkpt>
      <trkpt lat="47.31422" lon="-2.26102">
        <ele>-16</ele>
        <time>2021-04-25T08:31:58.000Z</time>
      </trkpt>
      <trkpt lat="47.31439" lon="-2.26062">
        <ele>-16</ele>
        <time>2021-04-25T08:32:03.000Z</time>
      </trkpt>
      <trkpt lat="47.31465" lon="-2.26021">
        <ele>-16</ele>
        <time>2021-04-25T08:32:09.000Z</time>
      </trkpt>
      <trkpt lat="47.31503" lon="-2.25954">
        <ele>-16</ele>
        <time>2021-04-25T08:32:17.000Z</time>
      </trkpt>
      <trkpt lat="47.31532" lon="-2.25904">
        <ele>-16</ele>
        <time>2021-04-25T08:32:23.000Z</time>
      </trkpt>
      <trkpt lat="47.31558" lon="-2.25874">
        <ele>-16</ele>
        <time>2021-04-25T08:32:28.000Z</time>
      </trkpt>
      <trkpt lat="47.31563" lon="-2.2587">
        <ele>-16</ele>
        <time>2021-04-25T08:32:29.000Z</time>
      </trkpt>
      <trkpt lat="47.31574" lon="-2.25862">
        <ele>-16</ele>
        <time>2021-04-25T08:32:31.000Z</time>
      </trkpt>
      <trkpt lat="47.31579" lon="-2.25856">
        <ele>-16.39999961853</ele>
        <time>2021-04-25T08:32:32.000Z</time>
      </trkpt>
      <trkpt lat="47.31582" lon="-2.2585">
        <ele>-16.799999237061</ele>
        <time>2021-04-25T08:32:33.000Z</time>
      </trkpt>
      <trkpt lat="47.31585" lon="-2.25844">
        <ele>-17.200000762939</ele>
        <time>2021-04-25T08:32:34.000Z</time>
      </trkpt>
      <trkpt lat="47.31587" lon="-2.25838">
        <ele>-17.60000038147</ele>
        <time>2021-04-25T08:32:35.000Z</time>
      </trkpt>
      <trkpt lat="47.31589" lon="-2.25833">
        <ele>-18</ele>
        <time>2021-04-25T08:32:36.000Z</time>
      </trkpt>
      <trkpt lat="47.31591" lon="-2.25829">
        <ele>-18</ele>
        <time>2021-04-25T08:32:37.000Z</time>
      </trkpt>
      <trkpt lat="47.31594" lon="-2.2582">
        <ele>-18</ele>
        <time>2021-04-25T08:32:39.000Z</time>
      </trkpt>
      <trkpt lat="47.31605" lon="-2.25809">
        <ele>-18</ele>
        <time>2021-04-25T08:32:43.000Z</time>
      </trkpt>
      <trkpt lat="47.3161" lon="-2.25807">
        <ele>-18</ele>
        <time>2021-04-25T08:32:44.000Z</time>
      </trkpt>
      <trkpt lat="47.31626" lon="-2.25802">
        <ele>-18</ele>
        <time>2021-04-25T08:32:47.000Z</time>
      </trkpt>
      <trkpt lat="47.31662" lon="-2.25794">
        <ele>-18</ele>
        <time>2021-04-25T08:32:53.000Z</time>
      </trkpt>
      <trkpt lat="47.31702" lon="-2.25792">
        <ele>-18</ele>
        <time>2021-04-25T08:33:00.000Z</time>
      </trkpt>
      <trkpt lat="47.31738" lon="-2.25783">
        <ele>-18</ele>
        <time>2021-04-25T08:33:06.000Z</time>
      </trkpt>
      <trkpt lat="47.31749" lon="-2.25778">
        <ele>-18</ele>
        <time>2021-04-25T08:33:08.000Z</time>
      </trkpt>
      <trkpt lat="47.31765" lon="-2.2577">
        <ele>-18</ele>
        <time>2021-04-25T08:33:11.000Z</time>
      </trkpt>
      <trkpt lat="47.3179" lon="-2.25762">
        <ele>-18</ele>
        <time>2021-04-25T08:33:16.000Z</time>
      </trkpt>
      <trkpt lat="47.31828" lon="-2.25749">
        <ele>-18</ele>
        <time>2021-04-25T08:33:23.000Z</time>
      </trkpt>
      <trkpt lat="47.3186" lon="-2.25737">
        <ele>-18</ele>
        <time>2021-04-25T08:33:29.000Z</time>
      </trkpt>
      <trkpt lat="47.3188" lon="-2.25729">
        <ele>-18</ele>
        <time>2021-04-25T08:33:33.000Z</time>
      </trkpt>
      <trkpt lat="47.31896" lon="-2.25722">
        <ele>-18</ele>
        <time>2021-04-25T08:33:36.000Z</time>
      </trkpt>
      <trkpt lat="47.3193" lon="-2.25708">
        <ele>-18</ele>
        <time>2021-04-25T08:33:42.000Z</time>
      </trkpt>
      <trkpt lat="47.31936" lon="-2.25707">
        <ele>-18</ele>
        <time>2021-04-25T08:33:43.000Z</time>
      </trkpt>
      <trkpt lat="47.31959" lon="-2.25712">
        <ele>-18</ele>
        <time>2021-04-25T08:33:47.000Z</time>
      </trkpt>
      <trkpt lat="47.3199" lon="-2.25726">
        <ele>-18</ele>
        <time>2021-04-25T08:33:53.000Z</time>
      </trkpt>
      <trkpt lat="47.32006" lon="-2.25731">
        <ele>-18</ele>
        <time>2021-04-25T08:33:58.000Z</time>
      </trkpt>
      <trkpt lat="47.32012" lon="-2.25733">
        <ele>-18</ele>
        <time>2021-04-25T08:34:02.000Z</time>
      </trkpt>
      <trkpt lat="47.32021" lon="-2.25737">
        <ele>-18</ele>
        <time>2021-04-25T08:34:07.000Z</time>
      </trkpt>
      <trkpt lat="47.32036" lon="-2.25745">
        <ele>-18</ele>
        <time>2021-04-25T08:34:12.000Z</time>
      </trkpt>
      <trkpt lat="47.32063" lon="-2.25753">
        <ele>-18</ele>
        <time>2021-04-25T08:34:20.000Z</time>
      </trkpt>
      <trkpt lat="47.32078" lon="-2.25747">
        <ele>-18</ele>
        <time>2021-04-25T08:34:26.000Z</time>
      </trkpt>
      <trkpt lat="47.32086" lon="-2.25743">
        <ele>-18</ele>
        <time>2021-04-25T08:34:33.000Z</time>
      </trkpt>
      <trkpt lat="47.32087" lon="-2.25743">
        <ele>-18</ele>
        <time>2021-04-25T08:34:43.000Z</time>
      </trkpt>
      <trkpt lat="47.32093" lon="-2.2574">
        <ele>-18</ele>
        <time>2021-04-25T08:34:46.000Z</time>
      </trkpt>
      <trkpt lat="47.32113" lon="-2.2573">
        <ele>-18</ele>
        <time>2021-04-25T08:34:52.000Z</time>
      </trkpt>
      <trkpt lat="47.32142" lon="-2.25715">
        <ele>-18</ele>
        <time>2021-04-25T08:34:59.000Z</time>
      </trkpt>
      <trkpt lat="47.32166" lon="-2.25701">
        <ele>-18</ele>
        <time>2021-04-25T08:35:05.000Z</time>
      </trkpt>
      <trkpt lat="47.3219" lon="-2.25694">
        <ele>-18</ele>
        <time>2021-04-25T08:35:11.000Z</time>
      </trkpt>
      <trkpt lat="47.32195" lon="-2.25694">
        <ele>-18</ele>
        <time>2021-04-25T08:35:12.000Z</time>
      </trkpt>
      <trkpt lat="47.32213" lon="-2.25699">
        <ele>-18</ele>
        <time>2021-04-25T08:35:16.000Z</time>
      </trkpt>
      <trkpt lat="47.32246" lon="-2.25697">
        <ele>-18</ele>
        <time>2021-04-25T08:35:23.000Z</time>
      </trkpt>
      <trkpt lat="47.32256" lon="-2.25695">
        <ele>-18</ele>
        <time>2021-04-25T08:35:25.000Z</time>
      </trkpt>
      <trkpt lat="47.32275" lon="-2.25686">
        <ele>-18</ele>
        <time>2021-04-25T08:35:29.000Z</time>
      </trkpt>
      <trkpt lat="47.32315" lon="-2.25676">
        <ele>-18</ele>
        <time>2021-04-25T08:35:37.000Z</time>
      </trkpt>
      <trkpt lat="47.32345" lon="-2.25667">
        <ele>-18</ele>
        <time>2021-04-25T08:35:43.000Z</time>
      </trkpt>
      <trkpt lat="47.32354" lon="-2.25664">
        <ele>-18</ele>
        <time>2021-04-25T08:35:45.000Z</time>
      </trkpt>
      <trkpt lat="47.32372" lon="-2.25658">
        <ele>-18</ele>
        <time>2021-04-25T08:35:49.000Z</time>
      </trkpt>
      <trkpt lat="47.3239" lon="-2.25652">
        <ele>-18</ele>
        <time>2021-04-25T08:35:53.000Z</time>
      </trkpt>
      <trkpt lat="47.32408" lon="-2.25644">
        <ele>-18</ele>
        <time>2021-04-25T08:35:57.000Z</time>
      </trkpt>
      <trkpt lat="47.32424" lon="-2.25635">
        <ele>-18</ele>
        <time>2021-04-25T08:36:02.000Z</time>
      </trkpt>
      <trkpt lat="47.32439" lon="-2.25626">
        <ele>-18</ele>
        <time>2021-04-25T08:36:08.000Z</time>
      </trkpt>
      <trkpt lat="47.32451" lon="-2.25619">
        <ele>-18</ele>
        <time>2021-04-25T08:36:14.000Z</time>
      </trkpt>
      <trkpt lat="47.32458" lon="-2.25607">
        <ele>-18</ele>
        <time>2021-04-25T08:36:20.000Z</time>
      </trkpt>
      <trkpt lat="47.3246" lon="-2.25605">
        <ele>-18</ele>
        <time>2021-04-25T08:36:23.000Z</time>
      </trkpt>
      <trkpt lat="47.32457" lon="-2.2561">
        <ele>-18</ele>
        <time>2021-04-25T08:38:22.000Z</time>
      </trkpt>
      <trkpt lat="47.32455" lon="-2.2561">
        <ele>-18</ele>
        <time>2021-04-25T08:38:23.000Z</time>
      </trkpt>
      <trkpt lat="47.3245" lon="-2.25618">
        <ele>-18</ele>
        <time>2021-04-25T08:38:26.000Z</time>
      </trkpt>
      <trkpt lat="47.32446" lon="-2.25621">
        <ele>-18</ele>
        <time>2021-04-25T08:38:27.000Z</time>
      </trkpt>
      <trkpt lat="47.32431" lon="-2.25628">
        <ele>-18</ele>
        <time>2021-04-25T08:38:31.000Z</time>
      </trkpt>
      <trkpt lat="47.32399" lon="-2.25643">
        <ele>-18</ele>
        <time>2021-04-25T08:38:37.000Z</time>
      </trkpt>
      <trkpt lat="47.32376" lon="-2.25654">
        <ele>-18</ele>
        <time>2021-04-25T08:38:41.000Z</time>
      </trkpt>
      <trkpt lat="47.32354" lon="-2.25662">
        <ele>-18</ele>
        <time>2021-04-25T08:38:45.000Z</time>
      </trkpt>
      <trkpt lat="47.32343" lon="-2.25664">
        <ele>-18</ele>
        <time>2021-04-25T08:38:47.000Z</time>
      </trkpt>
      <trkpt lat="47.32304" lon="-2.25675">
        <ele>-18</ele>
        <time>2021-04-25T08:38:54.000Z</time>
      </trkpt>
      <trkpt lat="47.32273" lon="-2.25686">
        <ele>-18</ele>
        <time>2021-04-25T08:39:00.000Z</time>
      </trkpt>
      <trkpt lat="47.32234" lon="-2.25698">
        <ele>-18</ele>
        <time>2021-04-25T08:39:07.000Z</time>
      </trkpt>
      <trkpt lat="47.32194" lon="-2.25693">
        <ele>-18</ele>
        <time>2021-04-25T08:39:14.000Z</time>
      </trkpt>
      <trkpt lat="47.32181" lon="-2.25693">
        <ele>-18</ele>
        <time>2021-04-25T08:39:16.000Z</time>
      </trkpt>
      <trkpt lat="47.3217" lon="-2.25697">
        <ele>-18</ele>
        <time>2021-04-25T08:39:18.000Z</time>
      </trkpt>
      <trkpt lat="47.32159" lon="-2.25703">
        <ele>-18</ele>
        <time>2021-04-25T08:39:20.000Z</time>
      </trkpt>
      <trkpt lat="47.32136" lon="-2.25718">
        <ele>-18</ele>
        <time>2021-04-25T08:39:24.000Z</time>
      </trkpt>
      <trkpt lat="47.32101" lon="-2.25735">
        <ele>-18</ele>
        <time>2021-04-25T08:39:30.000Z</time>
      </trkpt>
      <trkpt lat="47.32083" lon="-2.25744">
        <ele>-18</ele>
        <time>2021-04-25T08:39:33.000Z</time>
      </trkpt>
      <trkpt lat="47.32064" lon="-2.25753">
        <ele>-18</ele>
        <time>2021-04-25T08:39:36.000Z</time>
      </trkpt>
      <trkpt lat="47.32059" lon="-2.25753">
        <ele>-18</ele>
        <time>2021-04-25T08:39:37.000Z</time>
      </trkpt>
      <trkpt lat="47.32047" lon="-2.25749">
        <ele>-18</ele>
        <time>2021-04-25T08:39:39.000Z</time>
      </trkpt>
      <trkpt lat="47.32037" lon="-2.25744">
        <ele>-18</ele>
        <time>2021-04-25T08:39:41.000Z</time>
      </trkpt>
      <trkpt lat="47.32027" lon="-2.25741">
        <ele>-18</ele>
        <time>2021-04-25T08:39:44.000Z</time>
      </trkpt>
      <trkpt lat="47.32016" lon="-2.25734">
        <ele>-18</ele>
        <time>2021-04-25T08:39:49.000Z</time>
      </trkpt>
      <trkpt lat="47.31994" lon="-2.25727">
        <ele>-18</ele>
        <time>2021-04-25T08:39:54.000Z</time>
      </trkpt>
      <trkpt lat="47.31959" lon="-2.25712">
        <ele>-18</ele>
        <time>2021-04-25T08:40:00.000Z</time>
      </trkpt>
      <trkpt lat="47.31931" lon="-2.25706">
        <ele>-18</ele>
        <time>2021-04-25T08:40:05.000Z</time>
      </trkpt>
      <trkpt lat="47.31925" lon="-2.25707">
        <ele>-18</ele>
        <time>2021-04-25T08:40:06.000Z</time>
      </trkpt>
      <trkpt lat="47.31907" lon="-2.25715">
        <ele>-18</ele>
        <time>2021-04-25T08:40:09.000Z</time>
      </trkpt>
      <trkpt lat="47.31872" lon="-2.25731">
        <ele>-18</ele>
        <time>2021-04-25T08:40:15.000Z</time>
      </trkpt>
      <trkpt lat="47.31855" lon="-2.25739">
        <ele>-18</ele>
        <time>2021-04-25T08:40:18.000Z</time>
      </trkpt>
      <trkpt lat="47.3185" lon="-2.25741">
        <ele>-18</ele>
        <time>2021-04-25T08:40:19.000Z</time>
      </trkpt>
      <trkpt lat="47.31827" lon="-2.25748">
        <ele>-18</ele>
        <time>2021-04-25T08:40:23.000Z</time>
      </trkpt>
      <trkpt lat="47.31821" lon="-2.2575">
        <ele>-18</ele>
        <time>2021-04-25T08:40:24.000Z</time>
      </trkpt>
      <trkpt lat="47.31803" lon="-2.25756">
        <ele>-18</ele>
        <time>2021-04-25T08:40:27.000Z</time>
      </trkpt>
      <trkpt lat="47.31779" lon="-2.25765">
        <ele>-18</ele>
        <time>2021-04-25T08:40:31.000Z</time>
      </trkpt>
      <trkpt lat="47.31773" lon="-2.25767">
        <ele>-18</ele>
        <time>2021-04-25T08:40:32.000Z</time>
      </trkpt>
      <trkpt lat="47.3175" lon="-2.25775">
        <ele>-18</ele>
        <time>2021-04-25T08:40:36.000Z</time>
      </trkpt>
      <trkpt lat="47.31745" lon="-2.25779">
        <ele>-18</ele>
        <time>2021-04-25T08:40:37.000Z</time>
      </trkpt>
      <trkpt lat="47.3172" lon="-2.25786">
        <ele>-18</ele>
        <time>2021-04-25T08:40:41.000Z</time>
      </trkpt>
      <trkpt lat="47.31695" lon="-2.2579">
        <ele>-18</ele>
        <time>2021-04-25T08:40:45.000Z</time>
      </trkpt>
      <trkpt lat="47.31682" lon="-2.2579">
        <ele>-18</ele>
        <time>2021-04-25T08:40:47.000Z</time>
      </trkpt>
      <trkpt lat="47.31676" lon="-2.25791">
        <ele>-18</ele>
        <time>2021-04-25T08:40:48.000Z</time>
      </trkpt>
      <trkpt lat="47.31653" lon="-2.25792">
        <ele>-18</ele>
        <time>2021-04-25T08:40:52.000Z</time>
      </trkpt>
      <trkpt lat="47.31647" lon="-2.25794">
        <ele>-18</ele>
        <time>2021-04-25T08:40:53.000Z</time>
      </trkpt>
      <trkpt lat="47.31626" lon="-2.25799">
        <ele>-18</ele>
        <time>2021-04-25T08:40:57.000Z</time>
      </trkpt>
      <trkpt lat="47.31606" lon="-2.25807">
        <ele>-18</ele>
        <time>2021-04-25T08:41:01.000Z</time>
      </trkpt>
      <trkpt lat="47.31596" lon="-2.25812">
        <ele>-18</ele>
        <time>2021-04-25T08:41:03.000Z</time>
      </trkpt>
      <trkpt lat="47.31584" lon="-2.25835">
        <ele>-18</ele>
        <time>2021-04-25T08:41:07.000Z</time>
      </trkpt>
      <trkpt lat="47.31576" lon="-2.25857">
        <ele>-18</ele>
        <time>2021-04-25T08:41:11.000Z</time>
      </trkpt>
      <trkpt lat="47.31569" lon="-2.25863">
        <ele>-18</ele>
        <time>2021-04-25T08:41:13.000Z</time>
      </trkpt>
      <trkpt lat="47.31562" lon="-2.25864">
        <ele>-18</ele>
        <time>2021-04-25T08:41:15.000Z</time>
      </trkpt>
      <trkpt lat="47.31559" lon="-2.25864">
        <ele>-18</ele>
        <time>2021-04-25T08:41:16.000Z</time>
      </trkpt>
      <trkpt lat="47.31554" lon="-2.25863">
        <ele>-18</ele>
        <time>2021-04-25T08:41:20.000Z</time>
      </trkpt>
      <trkpt lat="47.31551" lon="-2.2586">
        <ele>-18</ele>
        <time>2021-04-25T08:41:58.000Z</time>
      </trkpt>
      <trkpt lat="47.3155" lon="-2.25855">
        <ele>-18</ele>
        <time>2021-04-25T08:42:00.000Z</time>
      </trkpt>
      <trkpt lat="47.3155" lon="-2.25837">
        <ele>-18</ele>
        <time>2021-04-25T08:42:05.000Z</time>
      </trkpt>
      <trkpt lat="47.31547" lon="-2.25812">
        <ele>-18</ele>
        <time>2021-04-25T08:42:11.000Z</time>
      </trkpt>
      <trkpt lat="47.31547" lon="-2.25793">
        <ele>-18</ele>
        <time>2021-04-25T08:42:17.000Z</time>
      </trkpt>
      <trkpt lat="47.31543" lon="-2.25766">
        <ele>-18</ele>
        <time>2021-04-25T08:42:23.000Z</time>
      </trkpt>
      <trkpt lat="47.31536" lon="-2.25717">
        <ele>-18</ele>
        <time>2021-04-25T08:42:31.000Z</time>
      </trkpt>
      <trkpt lat="47.31525" lon="-2.25676">
        <ele>-18</ele>
        <time>2021-04-25T08:42:38.000Z</time>
      </trkpt>
      <trkpt lat="47.31519" lon="-2.25652">
        <ele>-17.60000038147</ele>
        <time>2021-04-25T08:42:42.000Z</time>
      </trkpt>
      <trkpt lat="47.31518" lon="-2.25646">
        <ele>-17</ele>
        <time>2021-04-25T08:42:43.000Z</time>
      </trkpt>
      <trkpt lat="47.31516" lon="-2.25636">
        <ele>-16.60000038147</ele>
        <time>2021-04-25T08:42:44.000Z</time>
      </trkpt>
      <trkpt lat="47.31514" lon="-2.25627">
        <ele>-16.200000762939</ele>
        <time>2021-04-25T08:42:45.000Z</time>
      </trkpt>
      <trkpt lat="47.31511" lon="-2.25619">
        <ele>-15.800000190735</ele>
        <time>2021-04-25T08:42:46.000Z</time>
      </trkpt>
      <trkpt lat="47.31503" lon="-2.25594">
        <ele>-15.800000190735</ele>
        <time>2021-04-25T08:42:49.000Z</time>
      </trkpt>
      <trkpt lat="47.31492" lon="-2.2557">
        <ele>-15.800000190735</ele>
        <time>2021-04-25T08:42:52.000Z</time>
      </trkpt>
      <trkpt lat="47.31482" lon="-2.25559">
        <ele>-15.800000190735</ele>
        <time>2021-04-25T08:42:54.000Z</time>
      </trkpt>
      <trkpt lat="47.31444" lon="-2.25523">
        <ele>-15.800000190735</ele>
        <time>2021-04-25T08:43:01.000Z</time>
      </trkpt>
      <trkpt lat="47.31414" lon="-2.25477">
        <ele>-15.800000190735</ele>
        <time>2021-04-25T08:43:08.000Z</time>
      </trkpt>
      <trkpt lat="47.31411" lon="-2.25469">
        <ele>-15.800000190735</ele>
        <time>2021-04-25T08:43:09.000Z</time>
      </trkpt>
      <trkpt lat="47.31399" lon="-2.25438">
        <ele>-15.800000190735</ele>
        <time>2021-04-25T08:43:13.000Z</time>
      </trkpt>
      <trkpt lat="47.31392" lon="-2.25423">
        <ele>-15.800000190735</ele>
        <time>2021-04-25T08:43:15.000Z</time>
      </trkpt>
      <trkpt lat="47.31379" lon="-2.25406">
        <ele>-15.800000190735</ele>
        <time>2021-04-25T08:43:18.000Z</time>
      </trkpt>
      <trkpt lat="47.31348" lon="-2.25372">
        <ele>-15.800000190735</ele>
        <time>2021-04-25T08:43:25.000Z</time>
      </trkpt>
      <trkpt lat="47.31337" lon="-2.2534">
        <ele>-15.800000190735</ele>
        <time>2021-04-25T08:43:30.000Z</time>
      </trkpt>
      <trkpt lat="47.31328" lon="-2.25309">
        <ele>-15.800000190735</ele>
        <time>2021-04-25T08:43:34.000Z</time>
      </trkpt>
      <trkpt lat="47.31327" lon="-2.25298">
        <ele>-15.800000190735</ele>
        <time>2021-04-25T08:43:35.000Z</time>
      </trkpt>
      <trkpt lat="47.31323" lon="-2.25268">
        <ele>-15.800000190735</ele>
        <time>2021-04-25T08:43:38.000Z</time>
      </trkpt>
      <trkpt lat="47.31317" lon="-2.25252">
        <ele>-15.800000190735</ele>
        <time>2021-04-25T08:43:40.000Z</time>
      </trkpt>
      <trkpt lat="47.31296" lon="-2.25219">
        <ele>-15.800000190735</ele>
        <time>2021-04-25T08:43:45.000Z</time>
      </trkpt>
      <trkpt lat="47.31273" lon="-2.25189">
        <ele>-15.800000190735</ele>
        <time>2021-04-25T08:43:50.000Z</time>
      </trkpt>
      <trkpt lat="47.31246" lon="-2.25138">
        <ele>-15.800000190735</ele>
        <time>2021-04-25T08:43:57.000Z</time>
      </trkpt>
      <trkpt lat="47.31223" lon="-2.25094">
        <ele>-15.800000190735</ele>
        <time>2021-04-25T08:44:03.000Z</time>
      </trkpt>
      <trkpt lat="47.31207" lon="-2.25046">
        <ele>-15.800000190735</ele>
        <time>2021-04-25T08:44:09.000Z</time>
      </trkpt>
      <trkpt lat="47.31192" lon="-2.25002">
        <ele>-15.800000190735</ele>
        <time>2021-04-25T08:44:15.000Z</time>
      </trkpt>
      <trkpt lat="47.31189" lon="-2.24995">
        <ele>-15.800000190735</ele>
        <time>2021-04-25T08:44:16.000Z</time>
      </trkpt>
      <trkpt lat="47.31179" lon="-2.24988">
        <ele>-15.800000190735</ele>
        <time>2021-04-25T08:44:18.000Z</time>
      </trkpt>
      <trkpt lat="47.31159" lon="-2.24972">
        <ele>-15.800000190735</ele>
        <time>2021-04-25T08:44:22.000Z</time>
      </trkpt>
      <trkpt lat="47.31147" lon="-2.24941">
        <ele>-15.800000190735</ele>
        <time>2021-04-25T08:44:26.000Z</time>
      </trkpt>
      <trkpt lat="47.31145" lon="-2.24932">
        <ele>-15.800000190735</ele>
        <time>2021-04-25T08:44:27.000Z</time>
      </trkpt>
      <trkpt lat="47.31131" lon="-2.24872">
        <ele>-15.800000190735</ele>
        <time>2021-04-25T08:44:34.000Z</time>
      </trkpt>
      <trkpt lat="47.3112" lon="-2.24802">
        <ele>-15.800000190735</ele>
        <time>2021-04-25T08:44:42.000Z</time>
      </trkpt>
      <trkpt lat="47.31116" lon="-2.2478">
        <ele>-15.800000190735</ele>
        <time>2021-04-25T08:44:45.000Z</time>
      </trkpt>
      <trkpt lat="47.31114" lon="-2.24775">
        <ele>-15.800000190735</ele>
        <time>2021-04-25T08:44:46.000Z</time>
      </trkpt>
      <trkpt lat="47.31105" lon="-2.24772">
        <ele>-15.800000190735</ele>
        <time>2021-04-25T08:44:48.000Z</time>
      </trkpt>
      <trkpt lat="47.31099" lon="-2.24773">
        <ele>-15.800000190735</ele>
        <time>2021-04-25T08:44:49.000Z</time>
      </trkpt>
      <trkpt lat="47.31082" lon="-2.24776">
        <ele>-15.800000190735</ele>
        <time>2021-04-25T08:44:52.000Z</time>
      </trkpt>
      <trkpt lat="47.31069" lon="-2.24774">
        <ele>-15.800000190735</ele>
        <time>2021-04-25T08:44:54.000Z</time>
      </trkpt>
      <trkpt lat="47.3103" lon="-2.24761">
        <ele>-15.800000190735</ele>
        <time>2021-04-25T08:45:00.000Z</time>
      </trkpt>
      <trkpt lat="47.30993" lon="-2.24753">
        <ele>-15.800000190735</ele>
        <time>2021-04-25T08:45:06.000Z</time>
      </trkpt>
      <trkpt lat="47.30967" lon="-2.2476">
        <ele>-15.800000190735</ele>
        <time>2021-04-25T08:45:10.000Z</time>
      </trkpt>
      <trkpt lat="47.30961" lon="-2.24764">
        <ele>-15.800000190735</ele>
        <time>2021-04-25T08:45:11.000Z</time>
      </trkpt>
      <trkpt lat="47.3094" lon="-2.24782">
        <ele>-15.800000190735</ele>
        <time>2021-04-25T08:45:15.000Z</time>
      </trkpt>
      <trkpt lat="47.3093" lon="-2.24794">
        <ele>-15.800000190735</ele>
        <time>2021-04-25T08:45:17.000Z</time>
      </trkpt>
      <trkpt lat="47.30908" lon="-2.24827">
        <ele>-15.800000190735</ele>
        <time>2021-04-25T08:45:22.000Z</time>
      </trkpt>
      <trkpt lat="47.3088" lon="-2.2487">
        <ele>-15.800000190735</ele>
        <time>2021-04-25T08:45:29.000Z</time>
      </trkpt>
      <trkpt lat="47.30877" lon="-2.24877">
        <ele>-15.800000190735</ele>
        <time>2021-04-25T08:45:30.000Z</time>
      </trkpt>
      <trkpt lat="47.3087" lon="-2.24901">
        <ele>-15.800000190735</ele>
        <time>2021-04-25T08:45:33.000Z</time>
      </trkpt>
      <trkpt lat="47.30861" lon="-2.24938">
        <ele>-15.800000190735</ele>
        <time>2021-04-25T08:45:38.000Z</time>
      </trkpt>
      <trkpt lat="47.30851" lon="-2.2494">
        <ele>-15.800000190735</ele>
        <time>2021-04-25T08:45:40.000Z</time>
      </trkpt>
      <trkpt lat="47.3084" lon="-2.24935">
        <ele>-15.800000190735</ele>
        <time>2021-04-25T08:45:42.000Z</time>
      </trkpt>
      <trkpt lat="47.30821" lon="-2.24926">
        <ele>-15.800000190735</ele>
        <time>2021-04-25T08:45:45.000Z</time>
      </trkpt>
      <trkpt lat="47.30771" lon="-2.24903">
        <ele>-15.800000190735</ele>
        <time>2021-04-25T08:45:53.000Z</time>
      </trkpt>
      <trkpt lat="47.30741" lon="-2.24886">
        <ele>-15.800000190735</ele>
        <time>2021-04-25T08:45:58.000Z</time>
      </trkpt>
      <trkpt lat="47.3073" lon="-2.24877">
        <ele>-15.800000190735</ele>
        <time>2021-04-25T08:46:00.000Z</time>
      </trkpt>
      <trkpt lat="47.30722" lon="-2.24866">
        <ele>-15.800000190735</ele>
        <time>2021-04-25T08:46:02.000Z</time>
      </trkpt>
      <trkpt lat="47.30709" lon="-2.24844">
        <ele>-15.800000190735</ele>
        <time>2021-04-25T08:46:05.000Z</time>
      </trkpt>
      <trkpt lat="47.30686" lon="-2.248">
        <ele>-15.800000190735</ele>
        <time>2021-04-25T08:46:11.000Z</time>
      </trkpt>
      <trkpt lat="47.30662" lon="-2.24771">
        <ele>-15.800000190735</ele>
        <time>2021-04-25T08:46:16.000Z</time>
      </trkpt>
      <trkpt lat="47.30658" lon="-2.24764">
        <ele>-15.800000190735</ele>
        <time>2021-04-25T08:46:17.000Z</time>
      </trkpt>
      <trkpt lat="47.30638" lon="-2.24726">
        <ele>-15.800000190735</ele>
        <time>2021-04-25T08:46:22.000Z</time>
      </trkpt>
      <trkpt lat="47.30636" lon="-2.24717">
        <ele>-15.800000190735</ele>
        <time>2021-04-25T08:46:23.000Z</time>
      </trkpt>
      <trkpt lat="47.30621" lon="-2.2466">
        <ele>-15.800000190735</ele>
        <time>2021-04-25T08:46:30.000Z</time>
      </trkpt>
      <trkpt lat="47.30613" lon="-2.24628">
        <ele>-15.800000190735</ele>
        <time>2021-04-25T08:46:34.000Z</time>
      </trkpt>
      <trkpt lat="47.30611" lon="-2.24612">
        <ele>-15.800000190735</ele>
        <time>2021-04-25T08:46:36.000Z</time>
      </trkpt>
      <trkpt lat="47.30613" lon="-2.24586">
        <ele>-15.800000190735</ele>
        <time>2021-04-25T08:46:39.000Z</time>
      </trkpt>
      <trkpt lat="47.30614" lon="-2.24578">
        <ele>-15.800000190735</ele>
        <time>2021-04-25T08:46:40.000Z</time>
      </trkpt>
      <trkpt lat="47.30616" lon="-2.24562">
        <ele>-15.39999961853</ele>
        <time>2021-04-25T08:46:42.000Z</time>
      </trkpt>
      <trkpt lat="47.30617" lon="-2.24554">
        <ele>-15</ele>
        <time>2021-04-25T08:46:43.000Z</time>
      </trkpt>
      <trkpt lat="47.30618" lon="-2.24547">
        <ele>-14.60000038147</ele>
        <time>2021-04-25T08:46:44.000Z</time>
      </trkpt>
      <trkpt lat="47.30619" lon="-2.24539">
        <ele>-14.199999809265</ele>
        <time>2021-04-25T08:46:45.000Z</time>
      </trkpt>
      <trkpt lat="47.3062" lon="-2.2453">
        <ele>-13.800000190735</ele>
        <time>2021-04-25T08:46:46.000Z</time>
      </trkpt>
      <trkpt lat="47.30624" lon="-2.2449">
        <ele>-13.800000190735</ele>
        <time>2021-04-25T08:46:51.000Z</time>
      </trkpt>
      <trkpt lat="47.30625" lon="-2.24482">
        <ele>-13.199999809265</ele>
        <time>2021-04-25T08:46:52.000Z</time>
      </trkpt>
      <trkpt lat="47.30626" lon="-2.24475">
        <ele>-12.800000190735</ele>
        <time>2021-04-25T08:46:53.000Z</time>
      </trkpt>
      <trkpt lat="47.30627" lon="-2.24468">
        <ele>-12.199999809265</ele>
        <time>2021-04-25T08:46:54.000Z</time>
      </trkpt>
      <trkpt lat="47.30628" lon="-2.24461">
        <ele>-11.199999809265</ele>
        <time>2021-04-25T08:46:55.000Z</time>
      </trkpt>
      <trkpt lat="47.3063" lon="-2.24447">
        <ele>-10.800000190735</ele>
        <time>2021-04-25T08:46:57.000Z</time>
      </trkpt>
      <trkpt lat="47.30631" lon="-2.24439">
        <ele>-10.39999961853</ele>
        <time>2021-04-25T08:46:58.000Z</time>
      </trkpt>
      <trkpt lat="47.30631" lon="-2.24433">
        <ele>-10</ele>
        <time>2021-04-25T08:46:59.000Z</time>
      </trkpt>
      <trkpt lat="47.30631" lon="-2.24428">
        <ele>-9.3999996185303</ele>
        <time>2021-04-25T08:47:00.000Z</time>
      </trkpt>
      <trkpt lat="47.30629" lon="-2.24423">
        <ele>-9</ele>
        <time>2021-04-25T08:47:01.000Z</time>
      </trkpt>
      <trkpt lat="47.30624" lon="-2.24417">
        <ele>-9</ele>
        <time>2021-04-25T08:47:03.000Z</time>
      </trkpt>
      <trkpt lat="47.30621" lon="-2.24416">
        <ele>-9</ele>
        <time>2021-04-25T08:47:04.000Z</time>
      </trkpt>
      <trkpt lat="47.30617" lon="-2.24415">
        <ele>-8.6000003814697</ele>
        <time>2021-04-25T08:47:05.000Z</time>
      </trkpt>
      <trkpt lat="47.30613" lon="-2.24414">
        <ele>-8.1999998092651</ele>
        <time>2021-04-25T08:47:06.000Z</time>
      </trkpt>
      <trkpt lat="47.30609" lon="-2.24412">
        <ele>-7.8000001907349</ele>
        <time>2021-04-25T08:47:07.000Z</time>
      </trkpt>
      <trkpt lat="47.30605" lon="-2.2441">
        <ele>-7.1999998092651</ele>
        <time>2021-04-25T08:47:08.000Z</time>
      </trkpt>
      <trkpt lat="47.306" lon="-2.24407">
        <ele>-6.8000001907349</ele>
        <time>2021-04-25T08:47:09.000Z</time>
      </trkpt>
      <trkpt lat="47.30576" lon="-2.24385">
        <ele>-6.4000000953674</ele>
        <time>2021-04-25T08:47:14.000Z</time>
      </trkpt>
      <trkpt lat="47.30572" lon="-2.2438">
        <ele>-6</ele>
        <time>2021-04-25T08:47:15.000Z</time>
      </trkpt>
      <trkpt lat="47.30567" lon="-2.24376">
        <ele>-5.5999999046326</ele>
        <time>2021-04-25T08:47:16.000Z</time>
      </trkpt>
      <trkpt lat="47.30563" lon="-2.24371">
        <ele>-5.1999998092651</ele>
        <time>2021-04-25T08:47:17.000Z</time>
      </trkpt>
      <trkpt lat="47.30559" lon="-2.24367">
        <ele>-4.8000001907349</ele>
        <time>2021-04-25T08:47:18.000Z</time>
      </trkpt>
      <trkpt lat="47.30539" lon="-2.24347">
        <ele>-4.8000001907349</ele>
        <time>2021-04-25T08:47:23.000Z</time>
      </trkpt>
      <trkpt lat="47.30511" lon="-2.24318">
        <ele>-4.4000000953674</ele>
        <time>2021-04-25T08:47:29.000Z</time>
      </trkpt>
      <trkpt lat="47.30507" lon="-2.24312">
        <ele>-4</ele>
        <time>2021-04-25T08:47:30.000Z</time>
      </trkpt>
      <trkpt lat="47.30502" lon="-2.24308">
        <ele>-3.5999999046326</ele>
        <time>2021-04-25T08:47:31.000Z</time>
      </trkpt>
      <trkpt lat="47.30497" lon="-2.24303">
        <ele>-3.2000000476837</ele>
        <time>2021-04-25T08:47:32.000Z</time>
      </trkpt>
      <trkpt lat="47.30492" lon="-2.24299">
        <ele>-2.7999999523163</ele>
        <time>2021-04-25T08:47:33.000Z</time>
      </trkpt>
      <trkpt lat="47.3047" lon="-2.24286">
        <ele>-2.7999999523163</ele>
        <time>2021-04-25T08:47:37.000Z</time>
      </trkpt>
      <trkpt lat="47.30435" lon="-2.24277">
        <ele>-2.7999999523163</ele>
        <time>2021-04-25T08:47:43.000Z</time>
      </trkpt>
      <trkpt lat="47.30419" lon="-2.24272">
        <ele>-2.7999999523163</ele>
        <time>2021-04-25T08:47:46.000Z</time>
      </trkpt>
      <trkpt lat="47.3041" lon="-2.24266">
        <ele>-2.7999999523163</ele>
        <time>2021-04-25T08:47:48.000Z</time>
      </trkpt>
      <trkpt lat="47.304" lon="-2.24256">
        <ele>-2.7999999523163</ele>
        <time>2021-04-25T08:47:50.000Z</time>
      </trkpt>
      <trkpt lat="47.30382" lon="-2.24238">
        <ele>-2.7999999523163</ele>
        <time>2021-04-25T08:47:54.000Z</time>
      </trkpt>
      <trkpt lat="47.30358" lon="-2.24213">
        <ele>-2.7999999523163</ele>
        <time>2021-04-25T08:47:59.000Z</time>
      </trkpt>
      <trkpt lat="47.30349" lon="-2.24202">
        <ele>-2.7999999523163</ele>
        <time>2021-04-25T08:48:01.000Z</time>
      </trkpt>
      <trkpt lat="47.30342" lon="-2.24183">
        <ele>-2.7999999523163</ele>
        <time>2021-04-25T08:48:04.000Z</time>
      </trkpt>
      <trkpt lat="47.3035" lon="-2.24164">
        <ele>-2.7999999523163</ele>
        <time>2021-04-25T08:48:07.000Z</time>
      </trkpt>
      <trkpt lat="47.30353" lon="-2.2416">
        <ele>-2.7999999523163</ele>
        <time>2021-04-25T08:48:08.000Z</time>
      </trkpt>
      <trkpt lat="47.30379" lon="-2.24129">
        <ele>-2.7999999523163</ele>
        <time>2021-04-25T08:48:15.000Z</time>
      </trkpt>
      <trkpt lat="47.30401" lon="-2.24102">
        <ele>-2.7999999523163</ele>
        <time>2021-04-25T08:48:21.000Z</time>
      </trkpt>
      <trkpt lat="47.30433" lon="-2.24064">
        <ele>-2.7999999523163</ele>
        <time>2021-04-25T08:48:28.000Z</time>
      </trkpt>
      <trkpt lat="47.30454" lon="-2.24042">
        <ele>-2.7999999523163</ele>
        <time>2021-04-25T08:48:32.000Z</time>
      </trkpt>
      <trkpt lat="47.30459" lon="-2.24038">
        <ele>-2.7999999523163</ele>
        <time>2021-04-25T08:48:33.000Z</time>
      </trkpt>
      <trkpt lat="47.30465" lon="-2.24035">
        <ele>-3.5999999046326</ele>
        <time>2021-04-25T08:48:34.000Z</time>
      </trkpt>
      <trkpt lat="47.3047" lon="-2.24033">
        <ele>-4</ele>
        <time>2021-04-25T08:48:35.000Z</time>
      </trkpt>
      <trkpt lat="47.30476" lon="-2.24029">
        <ele>-4.4000000953674</ele>
        <time>2021-04-25T08:48:36.000Z</time>
      </trkpt>
      <trkpt lat="47.30481" lon="-2.24024">
        <ele>-4.8000001907349</ele>
        <time>2021-04-25T08:48:37.000Z</time>
      </trkpt>
      <trkpt lat="47.30486" lon="-2.24019">
        <ele>-4.8000001907349</ele>
        <time>2021-04-25T08:48:38.000Z</time>
      </trkpt>
      <trkpt lat="47.30492" lon="-2.24012">
        <ele>-4.8000001907349</ele>
        <time>2021-04-25T08:48:39.000Z</time>
      </trkpt>
      <trkpt lat="47.30498" lon="-2.24003">
        <ele>-5.4000000953674</ele>
        <time>2021-04-25T08:48:40.000Z</time>
      </trkpt>
      <trkpt lat="47.30503" lon="-2.23994">
        <ele>-5.8000001907349</ele>
        <time>2021-04-25T08:48:41.000Z</time>
      </trkpt>
      <trkpt lat="47.3051" lon="-2.23985">
        <ele>-6.1999998092651</ele>
        <time>2021-04-25T08:48:42.000Z</time>
      </trkpt>
      <trkpt lat="47.30518" lon="-2.23977">
        <ele>-6.8000001907349</ele>
        <time>2021-04-25T08:48:43.000Z</time>
      </trkpt>
      <trkpt lat="47.30524" lon="-2.2397">
        <ele>-7.1999998092651</ele>
        <time>2021-04-25T08:48:44.000Z</time>
      </trkpt>
      <trkpt lat="47.30531" lon="-2.23963">
        <ele>-7.8000001907349</ele>
        <time>2021-04-25T08:48:45.000Z</time>
      </trkpt>
      <trkpt lat="47.30536" lon="-2.23955">
        <ele>-8.3999996185303</ele>
        <time>2021-04-25T08:48:46.000Z</time>
      </trkpt>
      <trkpt lat="47.30541" lon="-2.23948">
        <ele>-9</ele>
        <time>2021-04-25T08:48:47.000Z</time>
      </trkpt>
      <trkpt lat="47.30545" lon="-2.23941">
        <ele>-9.6000003814697</ele>
        <time>2021-04-25T08:48:48.000Z</time>
      </trkpt>
      <trkpt lat="47.30548" lon="-2.23933">
        <ele>-10.39999961853</ele>
        <time>2021-04-25T08:48:49.000Z</time>
      </trkpt>
      <trkpt lat="47.3055" lon="-2.23925">
        <ele>-11.199999809265</ele>
        <time>2021-04-25T08:48:50.000Z</time>
      </trkpt>
      <trkpt lat="47.3055" lon="-2.23918">
        <ele>-12</ele>
        <time>2021-04-25T08:48:51.000Z</time>
      </trkpt>
      <trkpt lat="47.30549" lon="-2.23911">
        <ele>-12.800000190735</ele>
        <time>2021-04-25T08:48:52.000Z</time>
      </trkpt>
      <trkpt lat="47.30546" lon="-2.23904">
        <ele>-13.60000038147</ele>
        <time>2021-04-25T08:48:53.000Z</time>
      </trkpt>
      <trkpt lat="47.3054" lon="-2.23893">
        <ele>-13.60000038147</ele>
        <time>2021-04-25T08:48:55.000Z</time>
      </trkpt>
      <trkpt lat="47.30532" lon="-2.23883">
        <ele>-14</ele>
        <time>2021-04-25T08:48:57.000Z</time>
      </trkpt>
      <trkpt lat="47.30528" lon="-2.23878">
        <ele>-14.800000190735</ele>
        <time>2021-04-25T08:48:58.000Z</time>
      </trkpt>
      <trkpt lat="47.30523" lon="-2.23874">
        <ele>-15.39999961853</ele>
        <time>2021-04-25T08:48:59.000Z</time>
      </trkpt>
      <trkpt lat="47.30518" lon="-2.23869">
        <ele>-15.800000190735</ele>
        <time>2021-04-25T08:49:00.000Z</time>
      </trkpt>
      <trkpt lat="47.30504" lon="-2.23854">
        <ele>-15.800000190735</ele>
        <time>2021-04-25T08:49:03.000Z</time>
      </trkpt>
      <trkpt lat="47.30494" lon="-2.23845">
        <ele>-15.800000190735</ele>
        <time>2021-04-25T08:49:05.000Z</time>
      </trkpt>
      <trkpt lat="47.30477" lon="-2.2384">
        <ele>-15.800000190735</ele>
        <time>2021-04-25T08:49:08.000Z</time>
      </trkpt>
      <trkpt lat="47.30467" lon="-2.23841">
        <ele>-15.800000190735</ele>
        <time>2021-04-25T08:49:10.000Z</time>
      </trkpt>
      <trkpt lat="47.30449" lon="-2.23844">
        <ele>-15.800000190735</ele>
        <time>2021-04-25T08:49:14.000Z</time>
      </trkpt>
      <trkpt lat="47.30416" lon="-2.23851">
        <ele>-15.800000190735</ele>
        <time>2021-04-25T08:49:21.000Z</time>
      </trkpt>
      <trkpt lat="47.3038" lon="-2.23855">
        <ele>-15.800000190735</ele>
        <time>2021-04-25T08:49:28.000Z</time>
      </trkpt>
      <trkpt lat="47.30355" lon="-2.2386">
        <ele>-15.800000190735</ele>
        <time>2021-04-25T08:49:33.000Z</time>
      </trkpt>
      <trkpt lat="47.30341" lon="-2.23866">
        <ele>-15.800000190735</ele>
        <time>2021-04-25T08:49:36.000Z</time>
      </trkpt>
      <trkpt lat="47.3031" lon="-2.23879">
        <ele>-15.800000190735</ele>
        <time>2021-04-25T08:49:43.000Z</time>
      </trkpt>
      <trkpt lat="47.30294" lon="-2.23885">
        <ele>-15.800000190735</ele>
        <time>2021-04-25T08:49:47.000Z</time>
      </trkpt>
      <trkpt lat="47.30285" lon="-2.23886">
        <ele>-15.800000190735</ele>
        <time>2021-04-25T08:49:49.000Z</time>
      </trkpt>
      <trkpt lat="47.30268" lon="-2.23903">
        <ele>-15.800000190735</ele>
        <time>2021-04-25T08:49:53.000Z</time>
      </trkpt>
      <trkpt lat="47.30261" lon="-2.23926">
        <ele>-15.800000190735</ele>
        <time>2021-04-25T08:49:56.000Z</time>
      </trkpt>
      <trkpt lat="47.3026" lon="-2.23934">
        <ele>-15.800000190735</ele>
        <time>2021-04-25T08:49:57.000Z</time>
      </trkpt>
      <trkpt lat="47.30261" lon="-2.23951">
        <ele>-15.800000190735</ele>
        <time>2021-04-25T08:49:59.000Z</time>
      </trkpt>
      <trkpt lat="47.30264" lon="-2.23968">
        <ele>-15.800000190735</ele>
        <time>2021-04-25T08:50:01.000Z</time>
      </trkpt>
      <trkpt lat="47.30269" lon="-2.23984">
        <ele>-15.800000190735</ele>
        <time>2021-04-25T08:50:03.000Z</time>
      </trkpt>
      <trkpt lat="47.30272" lon="-2.23991">
        <ele>-15.199999809265</ele>
        <time>2021-04-25T08:50:04.000Z</time>
      </trkpt>
      <trkpt lat="47.30274" lon="-2.23998">
        <ele>-14.800000190735</ele>
        <time>2021-04-25T08:50:05.000Z</time>
      </trkpt>
      <trkpt lat="47.30276" lon="-2.24005">
        <ele>-14.39999961853</ele>
        <time>2021-04-25T08:50:06.000Z</time>
      </trkpt>
      <trkpt lat="47.30277" lon="-2.24012">
        <ele>-14</ele>
        <time>2021-04-25T08:50:07.000Z</time>
      </trkpt>
      <trkpt lat="47.30279" lon="-2.24019">
        <ele>-13.39999961853</ele>
        <time>2021-04-25T08:50:08.000Z</time>
      </trkpt>
      <trkpt lat="47.30281" lon="-2.24032">
        <ele>-13.39999961853</ele>
        <time>2021-04-25T08:50:10.000Z</time>
      </trkpt>
      <trkpt lat="47.30282" lon="-2.24044">
        <ele>-13</ele>
        <time>2021-04-25T08:50:12.000Z</time>
      </trkpt>
      <trkpt lat="47.30283" lon="-2.2405">
        <ele>-12.199999809265</ele>
        <time>2021-04-25T08:50:13.000Z</time>
      </trkpt>
      <trkpt lat="47.30283" lon="-2.24055">
        <ele>-11.800000190735</ele>
        <time>2021-04-25T08:50:14.000Z</time>
      </trkpt>
      <trkpt lat="47.30281" lon="-2.24059">
        <ele>-11.199999809265</ele>
        <time>2021-04-25T08:50:15.000Z</time>
      </trkpt>
      <trkpt lat="47.30279" lon="-2.24061">
        <ele>-11.199999809265</ele>
        <time>2021-04-25T08:50:16.000Z</time>
      </trkpt>
      <trkpt lat="47.30274" lon="-2.24063">
        <ele>-10.800000190735</ele>
        <time>2021-04-25T08:50:18.000Z</time>
      </trkpt>
      <trkpt lat="47.3027" lon="-2.24062">
        <ele>-10.39999961853</ele>
        <time>2021-04-25T08:50:19.000Z</time>
      </trkpt>
      <trkpt lat="47.30265" lon="-2.24062">
        <ele>-10</ele>
        <time>2021-04-25T08:50:20.000Z</time>
      </trkpt>
      <trkpt lat="47.30259" lon="-2.24062">
        <ele>-9.6000003814697</ele>
        <time>2021-04-25T08:50:21.000Z</time>
      </trkpt>
      <trkpt lat="47.30254" lon="-2.24062">
        <ele>-9</ele>
        <time>2021-04-25T08:50:22.000Z</time>
      </trkpt>
      <trkpt lat="47.30232" lon="-2.24059">
        <ele>-9</ele>
        <time>2021-04-25T08:50:26.000Z</time>
      </trkpt>
      <trkpt lat="47.30194" lon="-2.24059">
        <ele>-9</ele>
        <time>2021-04-25T08:50:33.000Z</time>
      </trkpt>
      <trkpt lat="47.30189" lon="-2.2406">
        <ele>-9</ele>
        <time>2021-04-25T08:50:34.000Z</time>
      </trkpt>
      <trkpt lat="47.30164" lon="-2.24068">
        <ele>-9</ele>
        <time>2021-04-25T08:50:39.000Z</time>
      </trkpt>
      <trkpt lat="47.30141" lon="-2.24079">
        <ele>-8.6000003814697</ele>
        <time>2021-04-25T08:50:44.000Z</time>
      </trkpt>
      <trkpt lat="47.30137" lon="-2.24081">
        <ele>-8.1999998092651</ele>
        <time>2021-04-25T08:50:45.000Z</time>
      </trkpt>
      <trkpt lat="47.30133" lon="-2.24082">
        <ele>-7.8000001907349</ele>
        <time>2021-04-25T08:50:46.000Z</time>
      </trkpt>
      <trkpt lat="47.30129" lon="-2.24084">
        <ele>-7.4000000953674</ele>
        <time>2021-04-25T08:50:47.000Z</time>
      </trkpt>
      <trkpt lat="47.30125" lon="-2.24086">
        <ele>-7</ele>
        <time>2021-04-25T08:50:48.000Z</time>
      </trkpt>
      <trkpt lat="47.30107" lon="-2.24097">
        <ele>-7</ele>
        <time>2021-04-25T08:50:52.000Z</time>
      </trkpt>
      <trkpt lat="47.3008" lon="-2.24111">
        <ele>-7</ele>
        <time>2021-04-25T08:50:58.000Z</time>
      </trkpt>
      <trkpt lat="47.30076" lon="-2.24114">
        <ele>-7</ele>
        <time>2021-04-25T08:50:59.000Z</time>
      </trkpt>
      <trkpt lat="47.30067" lon="-2.2412">
        <ele>-7</ele>
        <time>2021-04-25T08:51:01.000Z</time>
      </trkpt>
      <trkpt lat="47.30054" lon="-2.24128">
        <ele>-7</ele>
        <time>2021-04-25T08:51:04.000Z</time>
      </trkpt>
      <trkpt lat="47.3005" lon="-2.24131">
        <ele>-7</ele>
        <time>2021-04-25T08:51:05.000Z</time>
      </trkpt>
      <trkpt lat="47.30033" lon="-2.24143">
        <ele>-7.5999999046326</ele>
        <time>2021-04-25T08:51:09.000Z</time>
      </trkpt>
      <trkpt lat="47.3003" lon="-2.24145">
        <ele>-8</ele>
        <time>2021-04-25T08:51:10.000Z</time>
      </trkpt>
      <trkpt lat="47.30028" lon="-2.24145">
        <ele>-8.3999996185303</ele>
        <time>2021-04-25T08:51:11.000Z</time>
      </trkpt>
      <trkpt lat="47.30026" lon="-2.24146">
        <ele>-9</ele>
        <time>2021-04-25T08:51:12.000Z</time>
      </trkpt>
      <trkpt lat="47.30025" lon="-2.24146">
        <ele>-9.3999996185303</ele>
        <time>2021-04-25T08:51:13.000Z</time>
      </trkpt>
      <trkpt lat="47.30018" lon="-2.24146">
        <ele>-9.3999996185303</ele>
        <time>2021-04-25T08:51:20.000Z</time>
      </trkpt>
      <trkpt lat="47.30021" lon="-2.24155">
        <ele>-9.3999996185303</ele>
        <time>2021-04-25T08:51:37.000Z</time>
      </trkpt>
      <trkpt lat="47.30023" lon="-2.2416">
        <ele>-9.3999996185303</ele>
        <time>2021-04-25T08:51:39.000Z</time>
      </trkpt>
      <trkpt lat="47.30026" lon="-2.24183">
        <ele>-9.3999996185303</ele>
        <time>2021-04-25T08:51:44.000Z</time>
      </trkpt>
      <trkpt lat="47.30027" lon="-2.24203">
        <ele>-9</ele>
        <time>2021-04-25T08:51:48.000Z</time>
      </trkpt>
      <trkpt lat="47.30027" lon="-2.24207">
        <ele>-8.3999996185303</ele>
        <time>2021-04-25T08:51:49.000Z</time>
      </trkpt>
      <trkpt lat="47.30027" lon="-2.24211">
        <ele>-8</ele>
        <time>2021-04-25T08:51:50.000Z</time>
      </trkpt>
      <trkpt lat="47.30026" lon="-2.24215">
        <ele>-7.1999998092651</ele>
        <time>2021-04-25T08:51:51.000Z</time>
      </trkpt>
      <trkpt lat="47.30025" lon="-2.24219">
        <ele>-6.5999999046326</ele>
        <time>2021-04-25T08:51:52.000Z</time>
      </trkpt>
      <trkpt lat="47.30023" lon="-2.24222">
        <ele>-6.1999998092651</ele>
        <time>2021-04-25T08:51:53.000Z</time>
      </trkpt>
      <trkpt lat="47.30023" lon="-2.24226">
        <ele>-5.8000001907349</ele>
        <time>2021-04-25T08:51:54.000Z</time>
      </trkpt>
      <trkpt lat="47.30022" lon="-2.2423">
        <ele>-5.4000000953674</ele>
        <time>2021-04-25T08:51:55.000Z</time>
      </trkpt>
      <trkpt lat="47.30022" lon="-2.24233">
        <ele>-5</ele>
        <time>2021-04-25T08:51:56.000Z</time>
      </trkpt>
      <trkpt lat="47.30021" lon="-2.24244">
        <ele>-4.5999999046326</ele>
        <time>2021-04-25T08:51:59.000Z</time>
      </trkpt>
      <trkpt lat="47.30021" lon="-2.24248">
        <ele>-4.1999998092651</ele>
        <time>2021-04-25T08:52:00.000Z</time>
      </trkpt>
      <trkpt lat="47.30021" lon="-2.24251">
        <ele>-3.7999999523163</ele>
        <time>2021-04-25T08:52:01.000Z</time>
      </trkpt>
      <trkpt lat="47.30022" lon="-2.24255">
        <ele>-3.4000000953674</ele>
        <time>2021-04-25T08:52:02.000Z</time>
      </trkpt>
      <trkpt lat="47.30023" lon="-2.24258">
        <ele>-3</ele>
        <time>2021-04-25T08:52:03.000Z</time>
      </trkpt>
      <trkpt lat="47.30026" lon="-2.24278">
        <ele>-3</ele>
        <time>2021-04-25T08:52:07.000Z</time>
      </trkpt>
      <trkpt lat="47.30021" lon="-2.24304">
        <ele>-3</ele>
        <time>2021-04-25T08:52:12.000Z</time>
      </trkpt>
      <trkpt lat="47.3001" lon="-2.24329">
        <ele>-3</ele>
        <time>2021-04-25T08:52:17.000Z</time>
      </trkpt>
      <trkpt lat="47.3" lon="-2.24357">
        <ele>-3</ele>
        <time>2021-04-25T08:52:23.000Z</time>
      </trkpt>
      <trkpt lat="47.29999" lon="-2.2436">
        <ele>-3</ele>
        <time>2021-04-25T08:52:25.000Z</time>
      </trkpt>
      <trkpt lat="47.29993" lon="-2.24359">
        <ele>-3</ele>
        <time>2021-04-25T08:55:54.000Z</time>
      </trkpt>
      <trkpt lat="47.29991" lon="-2.24359">
        <ele>-3</ele>
        <time>2021-04-25T08:55:55.000Z</time>
      </trkpt>
      <trkpt lat="47.29979" lon="-2.24346">
        <ele>-3</ele>
        <time>2021-04-25T08:56:01.000Z</time>
      </trkpt>
      <trkpt lat="47.29957" lon="-2.24321">
        <ele>-3</ele>
        <time>2021-04-25T08:56:09.000Z</time>
      </trkpt>
      <trkpt lat="47.29943" lon="-2.24306">
        <ele>-3</ele>
        <time>2021-04-25T08:56:15.000Z</time>
      </trkpt>
      <trkpt lat="47.29929" lon="-2.24289">
        <ele>-3</ele>
        <time>2021-04-25T08:56:19.000Z</time>
      </trkpt>
      <trkpt lat="47.29925" lon="-2.24287">
        <ele>-3</ele>
        <time>2021-04-25T08:56:20.000Z</time>
      </trkpt>
      <trkpt lat="47.29902" lon="-2.24274">
        <ele>-3</ele>
        <time>2021-04-25T08:56:25.000Z</time>
      </trkpt>
      <trkpt lat="47.29894" lon="-2.24267">
        <ele>-3</ele>
        <time>2021-04-25T08:56:27.000Z</time>
      </trkpt>
      <trkpt lat="47.29856" lon="-2.24243">
        <ele>-3</ele>
        <time>2021-04-25T08:56:35.000Z</time>
      </trkpt>
      <trkpt lat="47.29822" lon="-2.24229">
        <ele>-3</ele>
        <time>2021-04-25T08:56:42.000Z</time>
      </trkpt>
      <trkpt lat="47.29813" lon="-2.24222">
        <ele>-3</ele>
        <time>2021-04-25T08:56:44.000Z</time>
      </trkpt>
      <trkpt lat="47.29804" lon="-2.24216">
        <ele>-3</ele>
        <time>2021-04-25T08:56:46.000Z</time>
      </trkpt>
      <trkpt lat="47.29798" lon="-2.24216">
        <ele>-3</ele>
        <time>2021-04-25T08:56:47.000Z</time>
      </trkpt>
      <trkpt lat="47.29783" lon="-2.24223">
        <ele>-3</ele>
        <time>2021-04-25T08:56:50.000Z</time>
      </trkpt>
      <trkpt lat="47.29778" lon="-2.24226">
        <ele>-3</ele>
        <time>2021-04-25T08:56:51.000Z</time>
      </trkpt>
      <trkpt lat="47.29748" lon="-2.24244">
        <ele>-3.4000000953674</ele>
        <time>2021-04-25T08:56:56.000Z</time>
      </trkpt>
      <trkpt lat="47.29741" lon="-2.24247">
        <ele>-3.7999999523163</ele>
        <time>2021-04-25T08:56:57.000Z</time>
      </trkpt>
      <trkpt lat="47.29734" lon="-2.24251">
        <ele>-4.1999998092651</ele>
        <time>2021-04-25T08:56:58.000Z</time>
      </trkpt>
      <trkpt lat="47.29727" lon="-2.24254">
        <ele>-4.5999999046326</ele>
        <time>2021-04-25T08:56:59.000Z</time>
      </trkpt>
      <trkpt lat="47.29721" lon="-2.24257">
        <ele>-5.1999998092651</ele>
        <time>2021-04-25T08:57:00.000Z</time>
      </trkpt>
      <trkpt lat="47.29708" lon="-2.24265">
        <ele>-5.5999999046326</ele>
        <time>2021-04-25T08:57:02.000Z</time>
      </trkpt>
      <trkpt lat="47.297" lon="-2.24269">
        <ele>-6</ele>
        <time>2021-04-25T08:57:03.000Z</time>
      </trkpt>
      <trkpt lat="47.29693" lon="-2.24273">
        <ele>-6.5999999046326</ele>
        <time>2021-04-25T08:57:04.000Z</time>
      </trkpt>
      <trkpt lat="47.29686" lon="-2.24277">
        <ele>-7</ele>
        <time>2021-04-25T08:57:05.000Z</time>
      </trkpt>
      <trkpt lat="47.29679" lon="-2.24281">
        <ele>-7.4000000953674</ele>
        <time>2021-04-25T08:57:06.000Z</time>
      </trkpt>
      <trkpt lat="47.29643" lon="-2.24302">
        <ele>-7.4000000953674</ele>
        <time>2021-04-25T08:57:11.000Z</time>
      </trkpt>
      <trkpt lat="47.29629" lon="-2.24309">
        <ele>-8</ele>
        <time>2021-04-25T08:57:13.000Z</time>
      </trkpt>
      <trkpt lat="47.29622" lon="-2.24311">
        <ele>-8.3999996185303</ele>
        <time>2021-04-25T08:57:14.000Z</time>
      </trkpt>
      <trkpt lat="47.29615" lon="-2.24313">
        <ele>-8.8000001907349</ele>
        <time>2021-04-25T08:57:15.000Z</time>
      </trkpt>
      <trkpt lat="47.29608" lon="-2.24314">
        <ele>-9.1999998092651</ele>
        <time>2021-04-25T08:57:16.000Z</time>
      </trkpt>
      <trkpt lat="47.29602" lon="-2.24316">
        <ele>-9.6000003814697</ele>
        <time>2021-04-25T08:57:17.000Z</time>
      </trkpt>
      <trkpt lat="47.29596" lon="-2.24317">
        <ele>-10</ele>
        <time>2021-04-25T08:57:18.000Z</time>
      </trkpt>
      <trkpt lat="47.29589" lon="-2.24317">
        <ele>-10.39999961853</ele>
        <time>2021-04-25T08:57:19.000Z</time>
      </trkpt>
      <trkpt lat="47.29584" lon="-2.24316">
        <ele>-10.800000190735</ele>
        <time>2021-04-25T08:57:20.000Z</time>
      </trkpt>
      <trkpt lat="47.29578" lon="-2.24314">
        <ele>-11.199999809265</ele>
        <time>2021-04-25T08:57:21.000Z</time>
      </trkpt>
      <trkpt lat="47.29572" lon="-2.24311">
        <ele>-11.60000038147</ele>
        <time>2021-04-25T08:57:22.000Z</time>
      </trkpt>
      <trkpt lat="47.29554" lon="-2.24296">
        <ele>-11.60000038147</ele>
        <time>2021-04-25T08:57:25.000Z</time>
      </trkpt>
      <trkpt lat="47.29542" lon="-2.24287">
        <ele>-11.60000038147</ele>
        <time>2021-04-25T08:57:27.000Z</time>
      </trkpt>
      <trkpt lat="47.29528" lon="-2.24287">
        <ele>-12.199999809265</ele>
        <time>2021-04-25T08:57:29.000Z</time>
      </trkpt>
      <trkpt lat="47.29522" lon="-2.24288">
        <ele>-12.60000038147</ele>
        <time>2021-04-25T08:57:30.000Z</time>
      </trkpt>
      <trkpt lat="47.29516" lon="-2.2429">
        <ele>-13</ele>
        <time>2021-04-25T08:57:31.000Z</time>
      </trkpt>
      <trkpt lat="47.2951" lon="-2.24293">
        <ele>-13.39999961853</ele>
        <time>2021-04-25T08:57:32.000Z</time>
      </trkpt>
      <trkpt lat="47.29505" lon="-2.24295">
        <ele>-13.800000190735</ele>
        <time>2021-04-25T08:57:33.000Z</time>
      </trkpt>
      <trkpt lat="47.29478" lon="-2.24306">
        <ele>-13</ele>
        <time>2021-04-25T08:57:38.000Z</time>
      </trkpt>
      <trkpt lat="47.29473" lon="-2.24308">
        <ele>-12.60000038147</ele>
        <time>2021-04-25T08:57:39.000Z</time>
      </trkpt>
      <trkpt lat="47.29467" lon="-2.2431">
        <ele>-12.199999809265</ele>
        <time>2021-04-25T08:57:40.000Z</time>
      </trkpt>
      <trkpt lat="47.29462" lon="-2.24312">
        <ele>-11.800000190735</ele>
        <time>2021-04-25T08:57:41.000Z</time>
      </trkpt>
      <trkpt lat="47.29434" lon="-2.24324">
        <ele>-11.199999809265</ele>
        <time>2021-04-25T08:57:46.000Z</time>
      </trkpt>
      <trkpt lat="47.29428" lon="-2.24327">
        <ele>-10.800000190735</ele>
        <time>2021-04-25T08:57:47.000Z</time>
      </trkpt>
      <trkpt lat="47.29423" lon="-2.24331">
        <ele>-10.39999961853</ele>
        <time>2021-04-25T08:57:48.000Z</time>
      </trkpt>
      <trkpt lat="47.29418" lon="-2.24335">
        <ele>-10</ele>
        <time>2021-04-25T08:57:49.000Z</time>
      </trkpt>
      <trkpt lat="47.29414" lon="-2.24339">
        <ele>-9.3999996185303</ele>
        <time>2021-04-25T08:57:50.000Z</time>
      </trkpt>
      <trkpt lat="47.29404" lon="-2.24348">
        <ele>-9.3999996185303</ele>
        <time>2021-04-25T08:57:52.000Z</time>
      </trkpt>
      <trkpt lat="47.29381" lon="-2.24372">
        <ele>-9.3999996185303</ele>
        <time>2021-04-25T08:57:57.000Z</time>
      </trkpt>
      <trkpt lat="47.29371" lon="-2.24383">
        <ele>-9.3999996185303</ele>
        <time>2021-04-25T08:57:59.000Z</time>
      </trkpt>
      <trkpt lat="47.29333" lon="-2.24423">
        <ele>-9.3999996185303</ele>
        <time>2021-04-25T08:58:07.000Z</time>
      </trkpt>
      <trkpt lat="47.29305" lon="-2.24448">
        <ele>-9.3999996185303</ele>
        <time>2021-04-25T08:58:13.000Z</time>
      </trkpt>
      <trkpt lat="47.29296" lon="-2.24457">
        <ele>-9.3999996185303</ele>
        <time>2021-04-25T08:58:15.000Z</time>
      </trkpt>
      <trkpt lat="47.29294" lon="-2.2447">
        <ele>-9.3999996185303</ele>
        <time>2021-04-25T08:58:17.000Z</time>
      </trkpt>
      <trkpt lat="47.29294" lon="-2.24485">
        <ele>-9.3999996185303</ele>
        <time>2021-04-25T08:58:19.000Z</time>
      </trkpt>
      <trkpt lat="47.29294" lon="-2.24511">
        <ele>-9.3999996185303</ele>
        <time>2021-04-25T08:58:22.000Z</time>
      </trkpt>
      <trkpt lat="47.29295" lon="-2.24538">
        <ele>-9</ele>
        <time>2021-04-25T08:58:25.000Z</time>
      </trkpt>
      <trkpt lat="47.29295" lon="-2.24548">
        <ele>-8.6000003814697</ele>
        <time>2021-04-25T08:58:26.000Z</time>
      </trkpt>
      <trkpt lat="47.29296" lon="-2.24558">
        <ele>-8.1999998092651</ele>
        <time>2021-04-25T08:58:27.000Z</time>
      </trkpt>
      <trkpt lat="47.29296" lon="-2.24567">
        <ele>-7.1999998092651</ele>
        <time>2021-04-25T08:58:28.000Z</time>
      </trkpt>
      <trkpt lat="47.29299" lon="-2.246">
        <ele>-7.1999998092651</ele>
        <time>2021-04-25T08:58:32.000Z</time>
      </trkpt>
      <trkpt lat="47.29299" lon="-2.24608">
        <ele>-7.1999998092651</ele>
        <time>2021-04-25T08:58:33.000Z</time>
      </trkpt>
      <trkpt lat="47.29298" lon="-2.24617">
        <ele>-7.1999998092651</ele>
        <time>2021-04-25T08:58:34.000Z</time>
      </trkpt>
      <trkpt lat="47.29299" lon="-2.24643">
        <ele>-7.1999998092651</ele>
        <time>2021-04-25T08:58:37.000Z</time>
      </trkpt>
      <trkpt lat="47.29299" lon="-2.24651">
        <ele>-7.1999998092651</ele>
        <time>2021-04-25T08:58:38.000Z</time>
      </trkpt>
      <trkpt lat="47.29299" lon="-2.24675">
        <ele>-7.1999998092651</ele>
        <time>2021-04-25T08:58:41.000Z</time>
      </trkpt>
      <trkpt lat="47.29301" lon="-2.24682">
        <ele>-7.1999998092651</ele>
        <time>2021-04-25T08:58:42.000Z</time>
      </trkpt>
      <trkpt lat="47.2931" lon="-2.24726">
        <ele>-7.1999998092651</ele>
        <time>2021-04-25T08:58:48.000Z</time>
      </trkpt>
      <trkpt lat="47.29314" lon="-2.24747">
        <ele>-6.8000001907349</ele>
        <time>2021-04-25T08:58:51.000Z</time>
      </trkpt>
      <trkpt lat="47.29316" lon="-2.24753">
        <ele>-6.4000000953674</ele>
        <time>2021-04-25T08:58:52.000Z</time>
      </trkpt>
      <trkpt lat="47.2932" lon="-2.24759">
        <ele>-5.5999999046326</ele>
        <time>2021-04-25T08:58:53.000Z</time>
      </trkpt>
      <trkpt lat="47.29323" lon="-2.24765">
        <ele>-5.1999998092651</ele>
        <time>2021-04-25T08:58:54.000Z</time>
      </trkpt>
      <trkpt lat="47.29329" lon="-2.2479">
        <ele>-5.1999998092651</ele>
        <time>2021-04-25T08:58:57.000Z</time>
      </trkpt>
      <trkpt lat="47.29331" lon="-2.24799">
        <ele>-5.1999998092651</ele>
        <time>2021-04-25T08:58:58.000Z</time>
      </trkpt>
      <trkpt lat="47.29335" lon="-2.2483">
        <ele>-5.1999998092651</ele>
        <time>2021-04-25T08:59:02.000Z</time>
      </trkpt>
      <trkpt lat="47.29335" lon="-2.24838">
        <ele>-5.1999998092651</ele>
        <time>2021-04-25T08:59:03.000Z</time>
      </trkpt>
      <trkpt lat="47.29337" lon="-2.24889">
        <ele>-5.1999998092651</ele>
        <time>2021-04-25T08:59:09.000Z</time>
      </trkpt>
      <trkpt lat="47.29329" lon="-2.24912">
        <ele>-5.1999998092651</ele>
        <time>2021-04-25T08:59:13.000Z</time>
      </trkpt>
      <trkpt lat="47.2931" lon="-2.24916">
        <ele>-5.1999998092651</ele>
        <time>2021-04-25T08:59:17.000Z</time>
      </trkpt>
      <trkpt lat="47.29305" lon="-2.24917">
        <ele>-5.1999998092651</ele>
        <time>2021-04-25T08:59:18.000Z</time>
      </trkpt>
      <trkpt lat="47.29282" lon="-2.2492">
        <ele>-4.8000001907349</ele>
        <time>2021-04-25T08:59:22.000Z</time>
      </trkpt>
      <trkpt lat="47.29277" lon="-2.24919">
        <ele>-4.4000000953674</ele>
        <time>2021-04-25T08:59:23.000Z</time>
      </trkpt>
      <trkpt lat="47.29271" lon="-2.24919">
        <ele>-4</ele>
        <time>2021-04-25T08:59:24.000Z</time>
      </trkpt>
      <trkpt lat="47.29266" lon="-2.2492">
        <ele>-3.5999999046326</ele>
        <time>2021-04-25T08:59:25.000Z</time>
      </trkpt>
      <trkpt lat="47.29262" lon="-2.24923">
        <ele>-3.2000000476837</ele>
        <time>2021-04-25T08:59:26.000Z</time>
      </trkpt>
      <trkpt lat="47.2926" lon="-2.24929">
        <ele>-3.2000000476837</ele>
        <time>2021-04-25T08:59:27.000Z</time>
      </trkpt>
      <trkpt lat="47.29258" lon="-2.24951">
        <ele>-3.2000000476837</ele>
        <time>2021-04-25T08:59:30.000Z</time>
      </trkpt>
      <trkpt lat="47.29264" lon="-2.24981">
        <ele>-3.2000000476837</ele>
        <time>2021-04-25T08:59:34.000Z</time>
      </trkpt>
      <trkpt lat="47.29277" lon="-2.25039">
        <ele>-3.2000000476837</ele>
        <time>2021-04-25T08:59:41.000Z</time>
      </trkpt>
      <trkpt lat="47.29292" lon="-2.25096">
        <ele>-3.2000000476837</ele>
        <time>2021-04-25T08:59:49.000Z</time>
      </trkpt>
      <trkpt lat="47.29298" lon="-2.25137">
        <ele>-3.5999999046326</ele>
        <time>2021-04-25T08:59:53.000Z</time>
      </trkpt>
      <trkpt lat="47.29299" lon="-2.25147">
        <ele>-4</ele>
        <time>2021-04-25T08:59:54.000Z</time>
      </trkpt>
      <trkpt lat="47.293" lon="-2.25157">
        <ele>-4.4000000953674</ele>
        <time>2021-04-25T08:59:55.000Z</time>
      </trkpt>
      <trkpt lat="47.29301" lon="-2.25167">
        <ele>-4.8000001907349</ele>
        <time>2021-04-25T08:59:56.000Z</time>
      </trkpt>
      <trkpt lat="47.29302" lon="-2.25176">
        <ele>-5.1999998092651</ele>
        <time>2021-04-25T08:59:57.000Z</time>
      </trkpt>
      <trkpt lat="47.29306" lon="-2.25188">
        <ele>-5.5999999046326</ele>
        <time>2021-04-25T08:59:59.000Z</time>
      </trkpt>
      <trkpt lat="47.2931" lon="-2.25192">
        <ele>-6</ele>
        <time>2021-04-25T09:00:00.000Z</time>
      </trkpt>
      <trkpt lat="47.29314" lon="-2.25193">
        <ele>-7</ele>
        <time>2021-04-25T09:00:01.000Z</time>
      </trkpt>
      <trkpt lat="47.29317" lon="-2.25194">
        <ele>-7.4000000953674</ele>
        <time>2021-04-25T09:00:02.000Z</time>
      </trkpt>
      <trkpt lat="47.29325" lon="-2.25194">
        <ele>-7.4000000953674</ele>
        <time>2021-04-25T09:00:04.000Z</time>
      </trkpt>
      <trkpt lat="47.29343" lon="-2.25197">
        <ele>-7.4000000953674</ele>
        <time>2021-04-25T09:00:07.000Z</time>
      </trkpt>
      <trkpt lat="47.2935" lon="-2.25198">
        <ele>-7.4000000953674</ele>
        <time>2021-04-25T09:00:08.000Z</time>
      </trkpt>
      <trkpt lat="47.29393" lon="-2.25209">
        <ele>-7.4000000953674</ele>
        <time>2021-04-25T09:00:14.000Z</time>
      </trkpt>
      <trkpt lat="47.294" lon="-2.2521">
        <ele>-7.4000000953674</ele>
        <time>2021-04-25T09:00:15.000Z</time>
      </trkpt>
      <trkpt lat="47.29415" lon="-2.2521">
        <ele>-7.4000000953674</ele>
        <time>2021-04-25T09:00:17.000Z</time>
      </trkpt>
      <trkpt lat="47.29422" lon="-2.25209">
        <ele>-7.4000000953674</ele>
        <time>2021-04-25T09:00:18.000Z</time>
      </trkpt>
      <trkpt lat="47.29453" lon="-2.25201">
        <ele>-7.4000000953674</ele>
        <time>2021-04-25T09:00:23.000Z</time>
      </trkpt>
      <trkpt lat="47.2947" lon="-2.25197">
        <ele>-6.4000000953674</ele>
        <time>2021-04-25T09:00:26.000Z</time>
      </trkpt>
      <trkpt lat="47.29476" lon="-2.25196">
        <ele>-6</ele>
        <time>2021-04-25T09:00:27.000Z</time>
      </trkpt>
      <trkpt lat="47.29481" lon="-2.25194">
        <ele>-5.5999999046326</ele>
        <time>2021-04-25T09:00:28.000Z</time>
      </trkpt>
      <trkpt lat="47.29487" lon="-2.25193">
        <ele>-5.1999998092651</ele>
        <time>2021-04-25T09:00:29.000Z</time>
      </trkpt>
      <trkpt lat="47.29492" lon="-2.25191">
        <ele>-5.1999998092651</ele>
        <time>2021-04-25T09:00:30.000Z</time>
      </trkpt>
      <trkpt lat="47.2952" lon="-2.25182">
        <ele>-5.1999998092651</ele>
        <time>2021-04-25T09:00:36.000Z</time>
      </trkpt>
      <trkpt lat="47.29542" lon="-2.2518">
        <ele>-5.1999998092651</ele>
        <time>2021-04-25T09:00:42.000Z</time>
      </trkpt>
      <trkpt lat="47.29547" lon="-2.25196">
        <ele>-5.1999998092651</ele>
        <time>2021-04-25T09:00:46.000Z</time>
      </trkpt>
      <trkpt lat="47.29547" lon="-2.25203">
        <ele>-4.8000001907349</ele>
        <time>2021-04-25T09:00:47.000Z</time>
      </trkpt>
      <trkpt lat="47.29545" lon="-2.25209">
        <ele>-4.4000000953674</ele>
        <time>2021-04-25T09:00:48.000Z</time>
      </trkpt>
      <trkpt lat="47.29543" lon="-2.25216">
        <ele>-4</ele>
        <time>2021-04-25T09:00:49.000Z</time>
      </trkpt>
      <trkpt lat="47.29542" lon="-2.25224">
        <ele>-3.2000000476837</ele>
        <time>2021-04-25T09:00:50.000Z</time>
      </trkpt>
      <trkpt lat="47.29541" lon="-2.25232">
        <ele>-3.2000000476837</ele>
        <time>2021-04-25T09:00:51.000Z</time>
      </trkpt>
      <trkpt lat="47.2954" lon="-2.25249">
        <ele>-3.2000000476837</ele>
        <time>2021-04-25T09:00:53.000Z</time>
      </trkpt>
      <trkpt lat="47.29539" lon="-2.25276">
        <ele>-3.2000000476837</ele>
        <time>2021-04-25T09:00:56.000Z</time>
      </trkpt>
      <trkpt lat="47.2954" lon="-2.25285">
        <ele>-3.2000000476837</ele>
        <time>2021-04-25T09:00:57.000Z</time>
      </trkpt>
      <trkpt lat="47.29547" lon="-2.25308">
        <ele>-3.2000000476837</ele>
        <time>2021-04-25T09:01:00.000Z</time>
      </trkpt>
      <trkpt lat="47.2955" lon="-2.25316">
        <ele>-3.2000000476837</ele>
        <time>2021-04-25T09:01:01.000Z</time>
      </trkpt>
      <trkpt lat="47.29568" lon="-2.25353">
        <ele>-3.2000000476837</ele>
        <time>2021-04-25T09:01:06.000Z</time>
      </trkpt>
      <trkpt lat="47.29574" lon="-2.25368">
        <ele>-2.7999999523163</ele>
        <time>2021-04-25T09:01:08.000Z</time>
      </trkpt>
      <trkpt lat="47.29576" lon="-2.25377">
        <ele>-2.4000000953674</ele>
        <time>2021-04-25T09:01:09.000Z</time>
      </trkpt>
      <trkpt lat="47.29578" lon="-2.25386">
        <ele>-1.7999999523163</ele>
        <time>2021-04-25T09:01:10.000Z</time>
      </trkpt>
      <trkpt lat="47.2958" lon="-2.25394">
        <ele>-1.3999999761581</ele>
        <time>2021-04-25T09:01:11.000Z</time>
      </trkpt>
      <trkpt lat="47.29581" lon="-2.25403">
        <ele>-1</ele>
        <time>2021-04-25T09:01:12.000Z</time>
      </trkpt>
      <trkpt lat="47.29588" lon="-2.25455">
        <ele>-1</ele>
        <time>2021-04-25T09:01:18.000Z</time>
      </trkpt>
      <trkpt lat="47.29588" lon="-2.255">
        <ele>-0.60000002384186</ele>
        <time>2021-04-25T09:01:23.000Z</time>
      </trkpt>
      <trkpt lat="47.29587" lon="-2.25509">
        <ele>-0.20000000298023</ele>
        <time>2021-04-25T09:01:24.000Z</time>
      </trkpt>
      <trkpt lat="47.29584" lon="-2.25518">
        <ele>0.20000000298023</ele>
        <time>2021-04-25T09:01:25.000Z</time>
      </trkpt>
      <trkpt lat="47.29581" lon="-2.25525">
        <ele>0.60000002384186</ele>
        <time>2021-04-25T09:01:26.000Z</time>
      </trkpt>
      <trkpt lat="47.29577" lon="-2.25532">
        <ele>1</ele>
        <time>2021-04-25T09:01:27.000Z</time>
      </trkpt>
      <trkpt lat="47.29565" lon="-2.25543">
        <ele>1</ele>
        <time>2021-04-25T09:01:29.000Z</time>
      </trkpt>
      <trkpt lat="47.29548" lon="-2.25555">
        <ele>1</ele>
        <time>2021-04-25T09:01:32.000Z</time>
      </trkpt>
      <trkpt lat="47.29538" lon="-2.25561">
        <ele>1</ele>
        <time>2021-04-25T09:01:34.000Z</time>
      </trkpt>
      <trkpt lat="47.29517" lon="-2.25575">
        <ele>1.3999999761581</ele>
        <time>2021-04-25T09:01:38.000Z</time>
      </trkpt>
      <trkpt lat="47.29512" lon="-2.25579">
        <ele>2.2000000476837</ele>
        <time>2021-04-25T09:01:39.000Z</time>
      </trkpt>
      <trkpt lat="47.29507" lon="-2.25582">
        <ele>2.5999999046326</ele>
        <time>2021-04-25T09:01:40.000Z</time>
      </trkpt>
      <trkpt lat="47.29501" lon="-2.25586">
        <ele>3.2000000476837</ele>
        <time>2021-04-25T09:01:41.000Z</time>
      </trkpt>
      <trkpt lat="47.29457" lon="-2.25607">
        <ele>3.2000000476837</ele>
        <time>2021-04-25T09:01:49.000Z</time>
      </trkpt>
      <trkpt lat="47.29429" lon="-2.25619">
        <ele>3.5999999046326</ele>
        <time>2021-04-25T09:01:54.000Z</time>
      </trkpt>
      <trkpt lat="47.29423" lon="-2.25622">
        <ele>4</ele>
        <time>2021-04-25T09:01:55.000Z</time>
      </trkpt>
      <trkpt lat="47.29418" lon="-2.25624">
        <ele>4.4000000953674</ele>
        <time>2021-04-25T09:01:56.000Z</time>
      </trkpt>
      <trkpt lat="47.29412" lon="-2.25626">
        <ele>4.8000001907349</ele>
        <time>2021-04-25T09:01:57.000Z</time>
      </trkpt>
      <trkpt lat="47.29406" lon="-2.25629">
        <ele>5.1999998092651</ele>
        <time>2021-04-25T09:01:58.000Z</time>
      </trkpt>
      <trkpt lat="47.29388" lon="-2.25646">
        <ele>5.1999998092651</ele>
        <time>2021-04-25T09:02:02.000Z</time>
      </trkpt>
      <trkpt lat="47.29382" lon="-2.25686">
        <ele>5.1999998092651</ele>
        <time>2021-04-25T09:02:06.000Z</time>
      </trkpt>
      <trkpt lat="47.29371" lon="-2.25731">
        <ele>5.1999998092651</ele>
        <time>2021-04-25T09:02:11.000Z</time>
      </trkpt>
      <trkpt lat="47.29367" lon="-2.25738">
        <ele>5.1999998092651</ele>
        <time>2021-04-25T09:02:12.000Z</time>
      </trkpt>
      <trkpt lat="47.29354" lon="-2.25763">
        <ele>5.1999998092651</ele>
        <time>2021-04-25T09:02:16.000Z</time>
      </trkpt>
      <trkpt lat="47.29338" lon="-2.2578">
        <ele>5.1999998092651</ele>
        <time>2021-04-25T09:02:20.000Z</time>
      </trkpt>
      <trkpt lat="47.2933" lon="-2.25784">
        <ele>5.1999998092651</ele>
        <time>2021-04-25T09:02:22.000Z</time>
      </trkpt>
      <trkpt lat="47.29326" lon="-2.25791">
        <ele>5.1999998092651</ele>
        <time>2021-04-25T09:02:25.000Z</time>
      </trkpt>
      <trkpt lat="47.29327" lon="-2.25795">
        <ele>4.8000001907349</ele>
        <time>2021-04-25T09:02:29.000Z</time>
      </trkpt>
      <trkpt lat="47.29329" lon="-2.25797">
        <ele>4.4000000953674</ele>
        <time>2021-04-25T09:02:30.000Z</time>
      </trkpt>
      <trkpt lat="47.29331" lon="-2.25798">
        <ele>4</ele>
        <time>2021-04-25T09:02:31.000Z</time>
      </trkpt>
      <trkpt lat="47.29334" lon="-2.25798">
        <ele>3.4000000953674</ele>
        <time>2021-04-25T09:02:32.000Z</time>
      </trkpt>
      <trkpt lat="47.29336" lon="-2.25798">
        <ele>3</ele>
        <time>2021-04-25T09:02:33.000Z</time>
      </trkpt>
      <trkpt lat="47.29338" lon="-2.25798">
        <ele>3</ele>
        <time>2021-04-25T09:02:34.000Z</time>
      </trkpt>
      <trkpt lat="47.29346" lon="-2.25787">
        <ele>3</ele>
        <time>2021-04-25T09:02:39.000Z</time>
      </trkpt>
      <trkpt lat="47.29351" lon="-2.25774">
        <ele>3</ele>
        <time>2021-04-25T09:02:44.000Z</time>
      </trkpt>
      <trkpt lat="47.2936" lon="-2.25772">
        <ele>3</ele>
        <time>2021-04-25T09:02:49.000Z</time>
      </trkpt>
      <trkpt lat="47.29368" lon="-2.25768">
        <ele>3</ele>
        <time>2021-04-25T09:02:53.000Z</time>
      </trkpt>
      <trkpt lat="47.2937" lon="-2.25766">
        <ele>2.5999999046326</ele>
        <time>2021-04-25T09:02:54.000Z</time>
      </trkpt>
      <trkpt lat="47.29372" lon="-2.25765">
        <ele>2.2000000476837</ele>
        <time>2021-04-25T09:02:55.000Z</time>
      </trkpt>
      <trkpt lat="47.29375" lon="-2.25766">
        <ele>1.7999999523163</ele>
        <time>2021-04-25T09:02:56.000Z</time>
      </trkpt>
      <trkpt lat="47.29377" lon="-2.25768">
        <ele>1.3999999761581</ele>
        <time>2021-04-25T09:02:57.000Z</time>
      </trkpt>
      <trkpt lat="47.2938" lon="-2.25768">
        <ele>1</ele>
        <time>2021-04-25T09:02:58.000Z</time>
      </trkpt>
      <trkpt lat="47.29394" lon="-2.25776">
        <ele>1</ele>
        <time>2021-04-25T09:03:02.000Z</time>
      </trkpt>
      <trkpt lat="47.29396" lon="-2.25776">
        <ele>0.60000002384186</ele>
        <time>2021-04-25T09:03:03.000Z</time>
      </trkpt>
      <trkpt lat="47.294" lon="-2.25778">
        <ele>0.20000000298023</ele>
        <time>2021-04-25T09:03:04.000Z</time>
      </trkpt>
      <trkpt lat="47.29403" lon="-2.2578">
        <ele>-0.20000000298023</ele>
        <time>2021-04-25T09:03:05.000Z</time>
      </trkpt>
      <trkpt lat="47.29405" lon="-2.25783">
        <ele>-0.60000002384186</ele>
        <time>2021-04-25T09:03:06.000Z</time>
      </trkpt>
      <trkpt lat="47.29406" lon="-2.25786">
        <ele>-1</ele>
        <time>2021-04-25T09:03:07.000Z</time>
      </trkpt>
      <trkpt lat="47.29407" lon="-2.25795">
        <ele>-1</ele>
        <time>2021-04-25T09:03:09.000Z</time>
      </trkpt>
      <trkpt lat="47.29416" lon="-2.25817">
        <ele>-1</ele>
        <time>2021-04-25T09:03:13.000Z</time>
      </trkpt>
      <trkpt lat="47.29417" lon="-2.2583">
        <ele>-1</ele>
        <time>2021-04-25T09:03:15.000Z</time>
      </trkpt>
      <trkpt lat="47.29415" lon="-2.2584">
        <ele>-1</ele>
        <time>2021-04-25T09:03:17.000Z</time>
      </trkpt>
      <trkpt lat="47.29417" lon="-2.2586">
        <ele>-1</ele>
        <time>2021-04-25T09:03:21.000Z</time>
      </trkpt>
      <trkpt lat="47.29428" lon="-2.2589">
        <ele>-1</ele>
        <time>2021-04-25T09:03:25.000Z</time>
      </trkpt>
      <trkpt lat="47.29432" lon="-2.25906">
        <ele>-1</ele>
        <time>2021-04-25T09:03:27.000Z</time>
      </trkpt>
      <trkpt lat="47.29435" lon="-2.25925">
        <ele>-1</ele>
        <time>2021-04-25T09:03:30.000Z</time>
      </trkpt>
      <trkpt lat="47.29438" lon="-2.25934">
        <ele>-1.3999999761581</ele>
        <time>2021-04-25T09:03:32.000Z</time>
      </trkpt>
      <trkpt lat="47.29438" lon="-2.25936">
        <ele>-1.7999999523163</ele>
        <time>2021-04-25T09:03:33.000Z</time>
      </trkpt>
      <trkpt lat="47.29436" lon="-2.25939">
        <ele>-2.2000000476837</ele>
        <time>2021-04-25T09:03:34.000Z</time>
      </trkpt>
      <trkpt lat="47.29436" lon="-2.25942">
        <ele>-2.5999999046326</ele>
        <time>2021-04-25T09:03:35.000Z</time>
      </trkpt>
      <trkpt lat="47.29434" lon="-2.25945">
        <ele>-3</ele>
        <time>2021-04-25T09:03:36.000Z</time>
      </trkpt>
      <trkpt lat="47.29431" lon="-2.25948">
        <ele>-3</ele>
        <time>2021-04-25T09:03:37.000Z</time>
      </trkpt>
      <trkpt lat="47.29428" lon="-2.2595">
        <ele>-3</ele>
        <time>2021-04-25T09:03:38.000Z</time>
      </trkpt>
      <trkpt lat="47.29414" lon="-2.25957">
        <ele>-3</ele>
        <time>2021-04-25T09:03:42.000Z</time>
      </trkpt>
      <trkpt lat="47.29411" lon="-2.25956">
        <ele>-3</ele>
        <time>2021-04-25T09:03:43.000Z</time>
      </trkpt>
      <trkpt lat="47.294" lon="-2.25956">
        <ele>-2.4000000953674</ele>
        <time>2021-04-25T09:03:46.000Z</time>
      </trkpt>
      <trkpt lat="47.29397" lon="-2.2596">
        <ele>-2</ele>
        <time>2021-04-25T09:03:47.000Z</time>
      </trkpt>
      <trkpt lat="47.29396" lon="-2.25965">
        <ele>-1.6000000238419</ele>
        <time>2021-04-25T09:03:48.000Z</time>
      </trkpt>
      <trkpt lat="47.29396" lon="-2.25969">
        <ele>-1.2000000476837</ele>
        <time>2021-04-25T09:03:49.000Z</time>
      </trkpt>
      <trkpt lat="47.29396" lon="-2.25975">
        <ele>-0.60000002384186</ele>
        <time>2021-04-25T09:03:50.000Z</time>
      </trkpt>
      <trkpt lat="47.29397" lon="-2.26007">
        <ele>-0.60000002384186</ele>
        <time>2021-04-25T09:03:54.000Z</time>
      </trkpt>
      <trkpt lat="47.29397" lon="-2.26014">
        <ele>-0.60000002384186</ele>
        <time>2021-04-25T09:03:55.000Z</time>
      </trkpt>
      <trkpt lat="47.29395" lon="-2.26027">
        <ele>-1.2000000476837</ele>
        <time>2021-04-25T09:03:57.000Z</time>
      </trkpt>
      <trkpt lat="47.29397" lon="-2.26032">
        <ele>-1.6000000238419</ele>
        <time>2021-04-25T09:03:58.000Z</time>
      </trkpt>
      <trkpt lat="47.29398" lon="-2.26037">
        <ele>-2</ele>
        <time>2021-04-25T09:03:59.000Z</time>
      </trkpt>
      <trkpt lat="47.294" lon="-2.26042">
        <ele>-2.4000000953674</ele>
        <time>2021-04-25T09:04:00.000Z</time>
      </trkpt>
      <trkpt lat="47.29402" lon="-2.26047">
        <ele>-2.7999999523163</ele>
        <time>2021-04-25T09:04:01.000Z</time>
      </trkpt>
      <trkpt lat="47.29414" lon="-2.26068">
        <ele>-2.7999999523163</ele>
        <time>2021-04-25T09:04:05.000Z</time>
      </trkpt>
      <trkpt lat="47.29423" lon="-2.26095">
        <ele>-2.7999999523163</ele>
        <time>2021-04-25T09:04:10.000Z</time>
      </trkpt>
      <trkpt lat="47.2942" lon="-2.26111">
        <ele>-2.7999999523163</ele>
        <time>2021-04-25T09:04:13.000Z</time>
      </trkpt>
      <trkpt lat="47.29414" lon="-2.26129">
        <ele>-2.7999999523163</ele>
        <time>2021-04-25T09:04:17.000Z</time>
      </trkpt>
      <trkpt lat="47.29414" lon="-2.26147">
        <ele>-2.7999999523163</ele>
        <time>2021-04-25T09:04:22.000Z</time>
      </trkpt>
      <trkpt lat="47.29414" lon="-2.2615">
        <ele>-2.4000000953674</ele>
        <time>2021-04-25T09:04:23.000Z</time>
      </trkpt>
      <trkpt lat="47.29414" lon="-2.26152">
        <ele>-2</ele>
        <time>2021-04-25T09:04:24.000Z</time>
      </trkpt>
      <trkpt lat="47.29415" lon="-2.26155">
        <ele>-1.6000000238419</ele>
        <time>2021-04-25T09:04:25.000Z</time>
      </trkpt>
      <trkpt lat="47.29415" lon="-2.2616">
        <ele>-1.2000000476837</ele>
        <time>2021-04-25T09:04:26.000Z</time>
      </trkpt>
      <trkpt lat="47.29415" lon="-2.26164">
        <ele>-0.80000001192093</ele>
        <time>2021-04-25T09:04:27.000Z</time>
      </trkpt>
      <trkpt lat="47.29415" lon="-2.26169">
        <ele>-0.80000001192093</ele>
        <time>2021-04-25T09:04:28.000Z</time>
      </trkpt>
      <trkpt lat="47.29418" lon="-2.26176">
        <ele>-0.80000001192093</ele>
        <time>2021-04-25T09:04:31.000Z</time>
      </trkpt>
      <trkpt lat="47.29424" lon="-2.26182">
        <ele>-2.7999999523163</ele>
        <time>2021-04-25T09:27:00.000Z</time>
      </trkpt>
      <trkpt lat="47.29423" lon="-2.2618">
        <ele>-2.7999999523163</ele>
        <time>2021-04-25T09:27:01.000Z</time>
      </trkpt>
      <trkpt lat="47.29414" lon="-2.26174">
        <ele>-2.7999999523163</ele>
        <time>2021-04-25T09:27:05.000Z</time>
      </trkpt>
      <trkpt lat="47.29411" lon="-2.26172">
        <ele>-2.7999999523163</ele>
        <time>2021-04-25T09:27:06.000Z</time>
      </trkpt>
      <trkpt lat="47.29393" lon="-2.26169">
        <ele>-2.7999999523163</ele>
        <time>2021-04-25T09:27:12.000Z</time>
      </trkpt>
      <trkpt lat="47.29387" lon="-2.26167">
        <ele>-2.4000000953674</ele>
        <time>2021-04-25T09:27:14.000Z</time>
      </trkpt>
      <trkpt lat="47.29384" lon="-2.26167">
        <ele>-2</ele>
        <time>2021-04-25T09:27:15.000Z</time>
      </trkpt>
      <trkpt lat="47.2938" lon="-2.26166">
        <ele>-1.6000000238419</ele>
        <time>2021-04-25T09:27:16.000Z</time>
      </trkpt>
      <trkpt lat="47.29378" lon="-2.26166">
        <ele>-1.2000000476837</ele>
        <time>2021-04-25T09:27:17.000Z</time>
      </trkpt>
      <trkpt lat="47.29375" lon="-2.26168">
        <ele>-0.80000001192093</ele>
        <time>2021-04-25T09:27:18.000Z</time>
      </trkpt>
      <trkpt lat="47.29365" lon="-2.26169">
        <ele>-0.80000001192093</ele>
        <time>2021-04-25T09:27:23.000Z</time>
      </trkpt>
      <trkpt lat="47.29363" lon="-2.26169">
        <ele>-0.80000001192093</ele>
        <time>2021-04-25T09:27:24.000Z</time>
      </trkpt>
      <trkpt lat="47.29356" lon="-2.26169">
        <ele>-0.80000001192093</ele>
        <time>2021-04-25T09:27:27.000Z</time>
      </trkpt>
      <trkpt lat="47.2935" lon="-2.26167">
        <ele>-0.80000001192093</ele>
        <time>2021-04-25T09:27:29.000Z</time>
      </trkpt>
      <trkpt lat="47.2934" lon="-2.26169">
        <ele>-0.80000001192093</ele>
        <time>2021-04-25T09:27:35.000Z</time>
      </trkpt>
      <trkpt lat="47.29337" lon="-2.2617">
        <ele>-0.40000000596046</ele>
        <time>2021-04-25T09:27:37.000Z</time>
      </trkpt>
      <trkpt lat="47.29336" lon="-2.2617">
        <ele>22.9</ele>
        <time>2021-04-25T09:27:38.000Z</time>
      </trkpt>
      <trkpt lat="47.29335" lon="-2.2617">
        <ele>0.40000000596046</ele>
        <time>2021-04-25T09:27:39.000Z</time>
      </trkpt>
      <trkpt lat="47.29333" lon="-2.26169">
        <ele>0.80000001192093</ele>
        <time>2021-04-25T09:27:40.000Z</time>
      </trkpt>
      <trkpt lat="47.29332" lon="-2.2617">
        <ele>1.2000000476837</ele>
        <time>2021-04-25T09:27:41.000Z</time>
      </trkpt>
      <trkpt lat="47.2933" lon="-2.2617">
        <ele>1.2000000476837</ele>
        <time>2021-04-25T09:27:42.000Z</time>
      </trkpt>
      <trkpt lat="47.29322" lon="-2.26172">
        <ele>1.2000000476837</ele>
        <time>2021-04-25T09:27:46.000Z</time>
      </trkpt>
      <trkpt lat="47.2932" lon="-2.26176">
        <ele>1.2000000476837</ele>
        <time>2021-04-25T09:27:48.000Z</time>
      </trkpt>
      <trkpt lat="47.29319" lon="-2.26182">
        <ele>1.2000000476837</ele>
        <time>2021-04-25T09:27:50.000Z</time>
      </trkpt>
      <trkpt lat="47.29315" lon="-2.26183">
        <ele>1.2000000476837</ele>
        <time>2021-04-25T09:27:51.000Z</time>
      </trkpt>
      <trkpt lat="47.29311" lon="-2.26183">
        <ele>1.2000000476837</ele>
        <time>2021-04-25T09:27:52.000Z</time>
      </trkpt>
      <trkpt lat="47.29294" lon="-2.26184">
        <ele>1.2000000476837</ele>
        <time>2021-04-25T09:27:57.000Z</time>
      </trkpt>
      <trkpt lat="47.29276" lon="-2.26182">
        <ele>1.2000000476837</ele>
        <time>2021-04-25T09:28:02.000Z</time>
      </trkpt>
      <trkpt lat="47.29269" lon="-2.26179">
        <ele>1.6000000238419</ele>
        <time>2021-04-25T09:28:04.000Z</time>
      </trkpt>
      <trkpt lat="47.29266" lon="-2.26175">
        <ele>2</ele>
        <time>2021-04-25T09:28:05.000Z</time>
      </trkpt>
      <trkpt lat="47.29263" lon="-2.26172">
        <ele>2.4000000953674</ele>
        <time>2021-04-25T09:28:06.000Z</time>
      </trkpt>
      <trkpt lat="47.29262" lon="-2.26166">
        <ele>2.7999999523163</ele>
        <time>2021-04-25T09:28:07.000Z</time>
      </trkpt>
      <trkpt lat="47.29262" lon="-2.2616">
        <ele>3.2000000476837</ele>
        <time>2021-04-25T09:28:08.000Z</time>
      </trkpt>
      <trkpt lat="47.2926" lon="-2.26154">
        <ele>3.2000000476837</ele>
        <time>2021-04-25T09:28:09.000Z</time>
      </trkpt>
      <trkpt lat="47.29259" lon="-2.26148">
        <ele>3.2000000476837</ele>
        <time>2021-04-25T09:28:10.000Z</time>
      </trkpt>
      <trkpt lat="47.2925" lon="-2.26124">
        <ele>3.2000000476837</ele>
        <time>2021-04-25T09:28:15.000Z</time>
      </trkpt>
      <trkpt lat="47.29239" lon="-2.26093">
        <ele>3.2000000476837</ele>
        <time>2021-04-25T09:28:21.000Z</time>
      </trkpt>
      <trkpt lat="47.2924" lon="-2.2608">
        <ele>3.2000000476837</ele>
        <time>2021-04-25T09:28:25.000Z</time>
      </trkpt>
      <trkpt lat="47.29248" lon="-2.26063">
        <ele>3.2000000476837</ele>
        <time>2021-04-25T09:28:31.000Z</time>
      </trkpt>
      <trkpt lat="47.29277" lon="-2.26053">
        <ele>2.7999999523163</ele>
        <time>2021-04-25T09:28:38.000Z</time>
      </trkpt>
      <trkpt lat="47.2928" lon="-2.26053">
        <ele>2.4000000953674</ele>
        <time>2021-04-25T09:28:39.000Z</time>
      </trkpt>
      <trkpt lat="47.29282" lon="-2.26055">
        <ele>1.6000000238419</ele>
        <time>2021-04-25T09:28:40.000Z</time>
      </trkpt>
      <trkpt lat="47.29284" lon="-2.2606">
        <ele>1.2000000476837</ele>
        <time>2021-04-25T09:28:41.000Z</time>
      </trkpt>
      <trkpt lat="47.29296" lon="-2.26069">
        <ele>1.2000000476837</ele>
        <time>2021-04-25T09:28:42.000Z</time>
      </trkpt>
      <trkpt lat="47.29315" lon="-2.26099">
        <ele>1.2000000476837</ele>
        <time>2021-04-25T09:28:47.000Z</time>
      </trkpt>
      <trkpt lat="47.29319" lon="-2.26104">
        <ele>1.2000000476837</ele>
        <time>2021-04-25T09:28:48.000Z</time>
      </trkpt>
      <trkpt lat="47.29346" lon="-2.2614">
        <ele>1.2000000476837</ele>
        <time>2021-04-25T09:28:55.000Z</time>
      </trkpt>
      <trkpt lat="47.2937" lon="-2.26158">
        <ele>1.2000000476837</ele>
        <time>2021-04-25T09:29:01.000Z</time>
      </trkpt>
      <trkpt lat="47.29385" lon="-2.26163">
        <ele>0.60000002384186</ele>
        <time>2021-04-25T09:29:05.000Z</time>
      </trkpt>
      <trkpt lat="47.29389" lon="-2.2616">
        <ele>0.20000000298023</ele>
        <time>2021-04-25T09:29:06.000Z</time>
      </trkpt>
      <trkpt lat="47.29395" lon="-2.26156">
        <ele>-0.20000000298023</ele>
        <time>2021-04-25T09:29:07.000Z</time>
      </trkpt>
      <trkpt lat="47.294" lon="-2.26152">
        <ele>-0.60000002384186</ele>
        <time>2021-04-25T09:29:08.000Z</time>
      </trkpt>
      <trkpt lat="47.29405" lon="-2.26147">
        <ele>-1</ele>
        <time>2021-04-25T09:29:09.000Z</time>
      </trkpt>
      <trkpt lat="47.2941" lon="-2.26141">
        <ele>-1</ele>
        <time>2021-04-25T09:29:10.000Z</time>
      </trkpt>
      <trkpt lat="47.29411" lon="-2.26134">
        <ele>-1.3999999761581</ele>
        <time>2021-04-25T09:29:11.000Z</time>
      </trkpt>
      <trkpt lat="47.29412" lon="-2.26124">
        <ele>-2</ele>
        <time>2021-04-25T09:29:12.000Z</time>
      </trkpt>
      <trkpt lat="47.29414" lon="-2.26116">
        <ele>-2.4000000953674</ele>
        <time>2021-04-25T09:29:13.000Z</time>
      </trkpt>
      <trkpt lat="47.29415" lon="-2.26108">
        <ele>-2.7999999523163</ele>
        <time>2021-04-25T09:29:14.000Z</time>
      </trkpt>
      <trkpt lat="47.29416" lon="-2.261">
        <ele>-3.2000000476837</ele>
        <time>2021-04-25T09:29:15.000Z</time>
      </trkpt>
      <trkpt lat="47.29414" lon="-2.26091">
        <ele>-3.2000000476837</ele>
        <time>2021-04-25T09:29:16.000Z</time>
      </trkpt>
      <trkpt lat="47.29413" lon="-2.26078">
        <ele>-3.2000000476837</ele>
        <time>2021-04-25T09:29:18.000Z</time>
      </trkpt>
      <trkpt lat="47.29413" lon="-2.26073">
        <ele>-3.5999999046326</ele>
        <time>2021-04-25T09:29:19.000Z</time>
      </trkpt>
      <trkpt lat="47.29411" lon="-2.26069">
        <ele>-4</ele>
        <time>2021-04-25T09:29:20.000Z</time>
      </trkpt>
      <trkpt lat="47.2941" lon="-2.26066">
        <ele>-4.4000000953674</ele>
        <time>2021-04-25T09:29:21.000Z</time>
      </trkpt>
      <trkpt lat="47.29409" lon="-2.26062">
        <ele>-4.8000001907349</ele>
        <time>2021-04-25T09:29:22.000Z</time>
      </trkpt>
      <trkpt lat="47.29406" lon="-2.26057">
        <ele>-5.1999998092651</ele>
        <time>2021-04-25T09:29:23.000Z</time>
      </trkpt>
      <trkpt lat="47.29404" lon="-2.26052">
        <ele>-5.1999998092651</ele>
        <time>2021-04-25T09:29:24.000Z</time>
      </trkpt>
      <trkpt lat="47.29401" lon="-2.26026">
        <ele>-5.1999998092651</ele>
        <time>2021-04-25T09:29:28.000Z</time>
      </trkpt>
      <trkpt lat="47.29402" lon="-2.26011">
        <ele>-5.1999998092651</ele>
        <time>2021-04-25T09:29:30.000Z</time>
      </trkpt>
      <trkpt lat="47.29403" lon="-2.25998">
        <ele>-5.1999998092651</ele>
        <time>2021-04-25T09:29:32.000Z</time>
      </trkpt>
      <trkpt lat="47.29401" lon="-2.25982">
        <ele>-4.8000001907349</ele>
        <time>2021-04-25T09:29:35.000Z</time>
      </trkpt>
      <trkpt lat="47.29399" lon="-2.25977">
        <ele>-4.4000000953674</ele>
        <time>2021-04-25T09:29:36.000Z</time>
      </trkpt>
      <trkpt lat="47.29396" lon="-2.25974">
        <ele>-4</ele>
        <time>2021-04-25T09:29:37.000Z</time>
      </trkpt>
      <trkpt lat="47.29395" lon="-2.2597">
        <ele>-3.5999999046326</ele>
        <time>2021-04-25T09:29:38.000Z</time>
      </trkpt>
      <trkpt lat="47.29393" lon="-2.25967">
        <ele>-3.2000000476837</ele>
        <time>2021-04-25T09:29:39.000Z</time>
      </trkpt>
      <trkpt lat="47.29392" lon="-2.25962">
        <ele>-3.2000000476837</ele>
        <time>2021-04-25T09:29:40.000Z</time>
      </trkpt>
      <trkpt lat="47.29389" lon="-2.25931">
        <ele>-2.7999999523163</ele>
        <time>2021-04-25T09:29:45.000Z</time>
      </trkpt>
      <trkpt lat="47.29388" lon="-2.25924">
        <ele>-2.4000000953674</ele>
        <time>2021-04-25T09:29:46.000Z</time>
      </trkpt>
      <trkpt lat="47.29387" lon="-2.25915">
        <ele>-2</ele>
        <time>2021-04-25T09:29:47.000Z</time>
      </trkpt>
      <trkpt lat="47.29387" lon="-2.25907">
        <ele>-1.6000000238419</ele>
        <time>2021-04-25T09:29:48.000Z</time>
      </trkpt>
      <trkpt lat="47.29387" lon="-2.259">
        <ele>-1</ele>
        <time>2021-04-25T09:29:49.000Z</time>
      </trkpt>
      <trkpt lat="47.29385" lon="-2.25893">
        <ele>-1</ele>
        <time>2021-04-25T09:29:50.000Z</time>
      </trkpt>
      <trkpt lat="47.29379" lon="-2.25886">
        <ele>-1</ele>
        <time>2021-04-25T09:29:52.000Z</time>
      </trkpt>
      <trkpt lat="47.29375" lon="-2.25885">
        <ele>-1</ele>
        <time>2021-04-25T09:29:53.000Z</time>
      </trkpt>
      <trkpt lat="47.29354" lon="-2.25891">
        <ele>-1</ele>
        <time>2021-04-25T09:29:59.000Z</time>
      </trkpt>
      <trkpt lat="47.29346" lon="-2.25891">
        <ele>-1</ele>
        <time>2021-04-25T09:30:02.000Z</time>
      </trkpt>
      <trkpt lat="47.29343" lon="-2.25888">
        <ele>-1</ele>
        <time>2021-04-25T09:30:03.000Z</time>
      </trkpt>
      <trkpt lat="47.29333" lon="-2.2587">
        <ele>-1</ele>
        <time>2021-04-25T09:30:09.000Z</time>
      </trkpt>
      <trkpt lat="47.29332" lon="-2.25866">
        <ele>-1</ele>
        <time>2021-04-25T09:30:11.000Z</time>
      </trkpt>
      <trkpt lat="47.2933" lon="-2.25862">
        <ele>-1</ele>
        <time>2021-04-25T09:30:14.000Z</time>
      </trkpt>
      <trkpt lat="47.29328" lon="-2.2586">
        <ele>-0.60000002384186</ele>
        <time>2021-04-25T09:30:15.000Z</time>
      </trkpt>
      <trkpt lat="47.29325" lon="-2.25859">
        <ele>-0.20000000298023</ele>
        <time>2021-04-25T09:30:16.000Z</time>
      </trkpt>
      <trkpt lat="47.29324" lon="-2.25858">
        <ele>0.20000000298023</ele>
        <time>2021-04-25T09:30:17.000Z</time>
      </trkpt>
      <trkpt lat="47.29322" lon="-2.25857">
        <ele>1</ele>
        <time>2021-04-25T09:30:18.000Z</time>
      </trkpt>
      <trkpt lat="47.29319" lon="-2.25854">
        <ele>1</ele>
        <time>2021-04-25T09:30:19.000Z</time>
      </trkpt>
      <trkpt lat="47.29312" lon="-2.25863">
        <ele>1</ele>
        <time>2021-04-25T09:30:23.000Z</time>
      </trkpt>
      <trkpt lat="47.29312" lon="-2.25869">
        <ele>1</ele>
        <time>2021-04-25T09:30:25.000Z</time>
      </trkpt>
      <trkpt lat="47.29314" lon="-2.25873">
        <ele>1</ele>
        <time>2021-04-25T09:30:26.000Z</time>
      </trkpt>
      <trkpt lat="47.29318" lon="-2.25882">
        <ele>1</ele>
        <time>2021-04-25T09:30:28.000Z</time>
      </trkpt>
      <trkpt lat="47.29327" lon="-2.25899">
        <ele>1</ele>
        <time>2021-04-25T09:30:32.000Z</time>
      </trkpt>
      <trkpt lat="47.29331" lon="-2.25901">
        <ele>1</ele>
        <time>2021-04-25T09:30:33.000Z</time>
      </trkpt>
      <trkpt lat="47.29343" lon="-2.25911">
        <ele>1</ele>
        <time>2021-04-25T09:30:36.000Z</time>
      </trkpt>
      <trkpt lat="47.29346" lon="-2.25915">
        <ele>0.60000002384186</ele>
        <time>2021-04-25T09:30:37.000Z</time>
      </trkpt>
      <trkpt lat="47.29349" lon="-2.25918">
        <ele>0.20000000298023</ele>
        <time>2021-04-25T09:30:38.000Z</time>
      </trkpt>
      <trkpt lat="47.29352" lon="-2.2592">
        <ele>-0.20000000298023</ele>
        <time>2021-04-25T09:30:39.000Z</time>
      </trkpt>
      <trkpt lat="47.29353" lon="-2.25925">
        <ele>-0.60000002384186</ele>
        <time>2021-04-25T09:30:40.000Z</time>
      </trkpt>
      <trkpt lat="47.29353" lon="-2.25929">
        <ele>-1</ele>
        <time>2021-04-25T09:30:41.000Z</time>
      </trkpt>
      <trkpt lat="47.29353" lon="-2.25931">
        <ele>-1</ele>
        <time>2021-04-25T09:30:42.000Z</time>
      </trkpt>
      <trkpt lat="47.29351" lon="-2.25935">
        <ele>-1</ele>
        <time>2021-04-25T09:30:44.000Z</time>
      </trkpt>
      <trkpt lat="47.29349" lon="-2.25933">
        <ele>-1</ele>
        <time>2021-04-25T09:30:45.000Z</time>
      </trkpt>
      <trkpt lat="47.29346" lon="-2.2593">
        <ele>-1</ele>
        <time>2021-04-25T09:30:46.000Z</time>
      </trkpt>
      <trkpt lat="47.29336" lon="-2.25917">
        <ele>-1</ele>
        <time>2021-04-25T09:30:49.000Z</time>
      </trkpt>
      <trkpt lat="47.29329" lon="-2.25908">
        <ele>-1</ele>
        <time>2021-04-25T09:30:51.000Z</time>
      </trkpt>
      <trkpt lat="47.29317" lon="-2.25888">
        <ele>-1</ele>
        <time>2021-04-25T09:30:56.000Z</time>
      </trkpt>
      <trkpt lat="47.29306" lon="-2.25875">
        <ele>-0.60000002384186</ele>
        <time>2021-04-25T09:31:00.000Z</time>
      </trkpt>
      <trkpt lat="47.29303" lon="-2.25874">
        <ele>-0.20000000298023</ele>
        <time>2021-04-25T09:31:01.000Z</time>
      </trkpt>
      <trkpt lat="47.293" lon="-2.25874">
        <ele>0.20000000298023</ele>
        <time>2021-04-25T09:31:02.000Z</time>
      </trkpt>
      <trkpt lat="47.29296" lon="-2.25875">
        <ele>0.60000002384186</ele>
        <time>2021-04-25T09:31:03.000Z</time>
      </trkpt>
      <trkpt lat="47.29292" lon="-2.25878">
        <ele>1</ele>
        <time>2021-04-25T09:31:04.000Z</time>
      </trkpt>
      <trkpt lat="47.29285" lon="-2.25885">
        <ele>1</ele>
        <time>2021-04-25T09:31:06.000Z</time>
      </trkpt>
      <trkpt lat="47.29269" lon="-2.25909">
        <ele>1</ele>
        <time>2021-04-25T09:31:12.000Z</time>
      </trkpt>
      <trkpt lat="47.29248" lon="-2.25928">
        <ele>1</ele>
        <time>2021-04-25T09:31:18.000Z</time>
      </trkpt>
      <trkpt lat="47.29233" lon="-2.2595">
        <ele>1</ele>
        <time>2021-04-25T09:31:24.000Z</time>
      </trkpt>
      <trkpt lat="47.2923" lon="-2.25954">
        <ele>1</ele>
        <time>2021-04-25T09:31:25.000Z</time>
      </trkpt>
      <trkpt lat="47.29206" lon="-2.25973">
        <ele>1</ele>
        <time>2021-04-25T09:31:30.000Z</time>
      </trkpt>
      <trkpt lat="47.29201" lon="-2.25974">
        <ele>1</ele>
        <time>2021-04-25T09:31:31.000Z</time>
      </trkpt>
      <trkpt lat="47.29167" lon="-2.25977">
        <ele>1</ele>
        <time>2021-04-25T09:31:37.000Z</time>
      </trkpt>
      <trkpt lat="47.29138" lon="-2.25974">
        <ele>1</ele>
        <time>2021-04-25T09:31:42.000Z</time>
      </trkpt>
      <trkpt lat="47.29126" lon="-2.25972">
        <ele>1</ele>
        <time>2021-04-25T09:31:44.000Z</time>
      </trkpt>
      <trkpt lat="47.29102" lon="-2.25979">
        <ele>1</ele>
        <time>2021-04-25T09:31:48.000Z</time>
      </trkpt>
      <trkpt lat="47.29098" lon="-2.25985">
        <ele>1</ele>
        <time>2021-04-25T09:31:49.000Z</time>
      </trkpt>
      <trkpt lat="47.29087" lon="-2.25999">
        <ele>1</ele>
        <time>2021-04-25T09:31:52.000Z</time>
      </trkpt>
      <trkpt lat="47.29084" lon="-2.26005">
        <ele>1</ele>
        <time>2021-04-25T09:31:53.000Z</time>
      </trkpt>
      <trkpt lat="47.29086" lon="-2.26015">
        <ele>1</ele>
        <time>2021-04-25T09:31:55.000Z</time>
      </trkpt>
      <trkpt lat="47.29087" lon="-2.26026">
        <ele>1</ele>
        <time>2021-04-25T09:31:57.000Z</time>
      </trkpt>
      <trkpt lat="47.29093" lon="-2.26055">
        <ele>1</ele>
        <time>2021-04-25T09:32:01.000Z</time>
      </trkpt>
      <trkpt lat="47.29098" lon="-2.26063">
        <ele>1</ele>
        <time>2021-04-25T09:32:02.000Z</time>
      </trkpt>
      <trkpt lat="47.29102" lon="-2.26079">
        <ele>1</ele>
        <time>2021-04-25T09:32:04.000Z</time>
      </trkpt>
      <trkpt lat="47.29103" lon="-2.26086">
        <ele>1</ele>
        <time>2021-04-25T09:32:05.000Z</time>
      </trkpt>
      <trkpt lat="47.29105" lon="-2.261">
        <ele>1</ele>
        <time>2021-04-25T09:32:07.000Z</time>
      </trkpt>
      <trkpt lat="47.29103" lon="-2.26123">
        <ele>1.3999999761581</ele>
        <time>2021-04-25T09:32:10.000Z</time>
      </trkpt>
      <trkpt lat="47.29101" lon="-2.2613">
        <ele>1.7999999523163</ele>
        <time>2021-04-25T09:32:11.000Z</time>
      </trkpt>
      <trkpt lat="47.29099" lon="-2.26137">
        <ele>2.2000000476837</ele>
        <time>2021-04-25T09:32:12.000Z</time>
      </trkpt>
      <trkpt lat="47.29097" lon="-2.26142">
        <ele>2.5999999046326</ele>
        <time>2021-04-25T09:32:13.000Z</time>
      </trkpt>
      <trkpt lat="47.29095" lon="-2.26149">
        <ele>3</ele>
        <time>2021-04-25T09:32:14.000Z</time>
      </trkpt>
      <trkpt lat="47.29095" lon="-2.26156">
        <ele>3</ele>
        <time>2021-04-25T09:32:15.000Z</time>
      </trkpt>
      <trkpt lat="47.29088" lon="-2.26207">
        <ele>3</ele>
        <time>2021-04-25T09:32:22.000Z</time>
      </trkpt>
      <trkpt lat="47.29078" lon="-2.26261">
        <ele>3</ele>
        <time>2021-04-25T09:32:29.000Z</time>
      </trkpt>
      <trkpt lat="47.29061" lon="-2.26325">
        <ele>3</ele>
        <time>2021-04-25T09:32:38.000Z</time>
      </trkpt>
      <trkpt lat="47.29045" lon="-2.26347">
        <ele>3</ele>
        <time>2021-04-25T09:32:42.000Z</time>
      </trkpt>
      <trkpt lat="47.2902" lon="-2.26375">
        <ele>3</ele>
        <time>2021-04-25T09:32:48.000Z</time>
      </trkpt>
      <trkpt lat="47.29018" lon="-2.26381">
        <ele>3</ele>
        <time>2021-04-25T09:32:49.000Z</time>
      </trkpt>
      <trkpt lat="47.29016" lon="-2.2641">
        <ele>3</ele>
        <time>2021-04-25T09:32:53.000Z</time>
      </trkpt>
      <trkpt lat="47.29016" lon="-2.26417">
        <ele>3</ele>
        <time>2021-04-25T09:32:54.000Z</time>
      </trkpt>
      <trkpt lat="47.29021" lon="-2.26457">
        <ele>3</ele>
        <time>2021-04-25T09:32:58.000Z</time>
      </trkpt>
      <trkpt lat="47.29031" lon="-2.26523">
        <ele>3</ele>
        <time>2021-04-25T09:33:04.000Z</time>
      </trkpt>
      <trkpt lat="47.29034" lon="-2.26533">
        <ele>3</ele>
        <time>2021-04-25T09:33:05.000Z</time>
      </trkpt>
      <trkpt lat="47.29043" lon="-2.26561">
        <ele>3</ele>
        <time>2021-04-25T09:33:08.000Z</time>
      </trkpt>
      <trkpt lat="47.29048" lon="-2.26575">
        <ele>2.5999999046326</ele>
        <time>2021-04-25T09:33:11.000Z</time>
      </trkpt>
      <trkpt lat="47.29048" lon="-2.26578">
        <ele>2</ele>
        <time>2021-04-25T09:33:12.000Z</time>
      </trkpt>
      <trkpt lat="47.29049" lon="-2.26582">
        <ele>1.6000000238419</ele>
        <time>2021-04-25T09:33:13.000Z</time>
      </trkpt>
      <trkpt lat="47.29049" lon="-2.26587">
        <ele>1</ele>
        <time>2021-04-25T09:33:14.000Z</time>
      </trkpt>
      <trkpt lat="47.2905" lon="-2.26592">
        <ele>0.60000002384186</ele>
        <time>2021-04-25T09:33:15.000Z</time>
      </trkpt>
      <trkpt lat="47.2905" lon="-2.26606">
        <ele>0.60000002384186</ele>
        <time>2021-04-25T09:33:17.000Z</time>
      </trkpt>
      <trkpt lat="47.2905" lon="-2.26622">
        <ele>0.60000002384186</ele>
        <time>2021-04-25T09:33:19.000Z</time>
      </trkpt>
      <trkpt lat="47.2905" lon="-2.26647">
        <ele>0.60000002384186</ele>
        <time>2021-04-25T09:33:22.000Z</time>
      </trkpt>
      <trkpt lat="47.29054" lon="-2.26709">
        <ele>0.60000002384186</ele>
        <time>2021-04-25T09:33:28.000Z</time>
      </trkpt>
      <trkpt lat="47.29058" lon="-2.26734">
        <ele>17.4</ele>
        <time>2021-04-25T09:33:30.000Z</time>
      </trkpt>
      <trkpt lat="47.2906" lon="-2.26748">
        <ele>-0.40000000596046</ele>
        <time>2021-04-25T09:33:31.000Z</time>
      </trkpt>
      <trkpt lat="47.29062" lon="-2.26762">
        <ele>-1</ele>
        <time>2021-04-25T09:33:32.000Z</time>
      </trkpt>
      <trkpt lat="47.29064" lon="-2.26776">
        <ele>-1.3999999761581</ele>
        <time>2021-04-25T09:33:33.000Z</time>
      </trkpt>
      <trkpt lat="47.29065" lon="-2.26791">
        <ele>-1.7999999523163</ele>
        <time>2021-04-25T09:33:34.000Z</time>
      </trkpt>
      <trkpt lat="47.29066" lon="-2.26846">
        <ele>-1.7999999523163</ele>
        <time>2021-04-25T09:33:38.000Z</time>
      </trkpt>
      <trkpt lat="47.29065" lon="-2.26858">
        <ele>-2.4000000953674</ele>
        <time>2021-04-25T09:33:39.000Z</time>
      </trkpt>
      <trkpt lat="47.29064" lon="-2.26869">
        <ele>-3</ele>
        <time>2021-04-25T09:33:40.000Z</time>
      </trkpt>
      <trkpt lat="47.29064" lon="-2.26879">
        <ele>-3.4000000953674</ele>
        <time>2021-04-25T09:33:41.000Z</time>
      </trkpt>
      <trkpt lat="47.29064" lon="-2.26887">
        <ele>-4</ele>
        <time>2021-04-25T09:33:42.000Z</time>
      </trkpt>
      <trkpt lat="47.29064" lon="-2.26894">
        <ele>-4.5999999046326</ele>
        <time>2021-04-25T09:33:43.000Z</time>
      </trkpt>
      <trkpt lat="47.29066" lon="-2.26898">
        <ele>-5</ele>
        <time>2021-04-25T09:33:44.000Z</time>
      </trkpt>
      <trkpt lat="47.29068" lon="-2.26901">
        <ele>-5.5999999046326</ele>
        <time>2021-04-25T09:33:45.000Z</time>
      </trkpt>
      <trkpt lat="47.29069" lon="-2.26904">
        <ele>-6.1999998092651</ele>
        <time>2021-04-25T09:33:46.000Z</time>
      </trkpt>
      <trkpt lat="47.29071" lon="-2.26907">
        <ele>-6.5999999046326</ele>
        <time>2021-04-25T09:33:47.000Z</time>
      </trkpt>
      <trkpt lat="47.29076" lon="-2.26916">
        <ele>-6.5999999046326</ele>
        <time>2021-04-25T09:33:50.000Z</time>
      </trkpt>
      <trkpt lat="47.29079" lon="-2.26924">
        <ele>-6.5999999046326</ele>
        <time>2021-04-25T09:33:53.000Z</time>
      </trkpt>
      <trkpt lat="47.29077" lon="-2.2693">
        <ele>-6.5999999046326</ele>
        <time>2021-04-25T09:33:55.000Z</time>
      </trkpt>
      <trkpt lat="47.29077" lon="-2.2694">
        <ele>-6.5999999046326</ele>
        <time>2021-04-25T09:33:58.000Z</time>
      </trkpt>
      <trkpt lat="47.29077" lon="-2.26948">
        <ele>-6.5999999046326</ele>
        <time>2021-04-25T09:34:00.000Z</time>
      </trkpt>
      <trkpt lat="47.29076" lon="-2.26974">
        <ele>-6.5999999046326</ele>
        <time>2021-04-25T09:34:04.000Z</time>
      </trkpt>
      <trkpt lat="47.29076" lon="-2.26987">
        <ele>-6.5999999046326</ele>
        <time>2021-04-25T09:34:06.000Z</time>
      </trkpt>
      <trkpt lat="47.29075" lon="-2.27003">
        <ele>-6.5999999046326</ele>
        <time>2021-04-25T09:34:09.000Z</time>
      </trkpt>
      <trkpt lat="47.29075" lon="-2.27016">
        <ele>-6.5999999046326</ele>
        <time>2021-04-25T09:34:13.000Z</time>
      </trkpt>
      <trkpt lat="47.29073" lon="-2.27031">
        <ele>-6.5999999046326</ele>
        <time>2021-04-25T09:34:17.000Z</time>
      </trkpt>
      <trkpt lat="47.29072" lon="-2.27054">
        <ele>-6.5999999046326</ele>
        <time>2021-04-25T09:34:21.000Z</time>
      </trkpt>
      <trkpt lat="47.2907" lon="-2.27088">
        <ele>-6.5999999046326</ele>
        <time>2021-04-25T09:34:27.000Z</time>
      </trkpt>
      <trkpt lat="47.29069" lon="-2.27129">
        <ele>-6.5999999046326</ele>
        <time>2021-04-25T09:34:33.000Z</time>
      </trkpt>
      <trkpt lat="47.29069" lon="-2.27142">
        <ele>-6.5999999046326</ele>
        <time>2021-04-25T09:34:35.000Z</time>
      </trkpt>
      <trkpt lat="47.29067" lon="-2.27167">
        <ele>-6.5999999046326</ele>
        <time>2021-04-25T09:34:39.000Z</time>
      </trkpt>
      <trkpt lat="47.29071" lon="-2.27182">
        <ele>-6.5999999046326</ele>
        <time>2021-04-25T09:34:42.000Z</time>
      </trkpt>
      <trkpt lat="47.29075" lon="-2.27186">
        <ele>-6.5999999046326</ele>
        <time>2021-04-25T09:34:43.000Z</time>
      </trkpt>
      <trkpt lat="47.29095" lon="-2.27194">
        <ele>-6.5999999046326</ele>
        <time>2021-04-25T09:34:47.000Z</time>
      </trkpt>
      <trkpt lat="47.29103" lon="-2.27195">
        <ele>-6.5999999046326</ele>
        <time>2021-04-25T09:34:49.000Z</time>
      </trkpt>
      <trkpt lat="47.29107" lon="-2.27196">
        <ele>-6.5999999046326</ele>
        <time>2021-04-25T09:34:51.000Z</time>
      </trkpt>
      <trkpt lat="47.29112" lon="-2.27199">
        <ele>-6.5999999046326</ele>
        <time>2021-04-25T09:34:54.000Z</time>
      </trkpt>
      <trkpt lat="47.29113" lon="-2.27201">
        <ele>-6.5999999046326</ele>
        <time>2021-04-25T09:34:56.000Z</time>
      </trkpt>
      <trkpt lat="47.29111" lon="-2.27213">
        <ele>-6.5999999046326</ele>
        <time>2021-04-25T09:35:01.000Z</time>
      </trkpt>
      <trkpt lat="47.29108" lon="-2.27236">
        <ele>-6.5999999046326</ele>
        <time>2021-04-25T09:35:05.000Z</time>
      </trkpt>
      <trkpt lat="47.29105" lon="-2.27263">
        <ele>-6.5999999046326</ele>
        <time>2021-04-25T09:35:09.000Z</time>
      </trkpt>
      <trkpt lat="47.29104" lon="-2.27268">
        <ele>-6.5999999046326</ele>
        <time>2021-04-25T09:35:10.000Z</time>
      </trkpt>
      <trkpt lat="47.29099" lon="-2.27304">
        <ele>-6.5999999046326</ele>
        <time>2021-04-25T09:35:16.000Z</time>
      </trkpt>
      <trkpt lat="47.29096" lon="-2.27335">
        <ele>-6.5999999046326</ele>
        <time>2021-04-25T09:35:21.000Z</time>
      </trkpt>
      <trkpt lat="47.29099" lon="-2.27354">
        <ele>-6.5999999046326</ele>
        <time>2021-04-25T09:35:25.000Z</time>
      </trkpt>
      <trkpt lat="47.29107" lon="-2.27396">
        <ele>-6.5999999046326</ele>
        <time>2021-04-25T09:35:31.000Z</time>
      </trkpt>
      <trkpt lat="47.29108" lon="-2.27404">
        <ele>-6.5999999046326</ele>
        <time>2021-04-25T09:35:32.000Z</time>
      </trkpt>
      <trkpt lat="47.2911" lon="-2.27429">
        <ele>-6.5999999046326</ele>
        <time>2021-04-25T09:35:35.000Z</time>
      </trkpt>
      <trkpt lat="47.2911" lon="-2.27437">
        <ele>-6.5999999046326</ele>
        <time>2021-04-25T09:35:36.000Z</time>
      </trkpt>
      <trkpt lat="47.29106" lon="-2.2749">
        <ele>-6.5999999046326</ele>
        <time>2021-04-25T09:35:43.000Z</time>
      </trkpt>
      <trkpt lat="47.29105" lon="-2.27515">
        <ele>-6.1999998092651</ele>
        <time>2021-04-25T09:35:47.000Z</time>
      </trkpt>
      <trkpt lat="47.29106" lon="-2.2752">
        <ele>-5.8000001907349</ele>
        <time>2021-04-25T09:35:48.000Z</time>
      </trkpt>
      <trkpt lat="47.29107" lon="-2.27522">
        <ele>-5.4000000953674</ele>
        <time>2021-04-25T09:35:49.000Z</time>
      </trkpt>
      <trkpt lat="47.29109" lon="-2.27523">
        <ele>-5</ele>
        <time>2021-04-25T09:35:50.000Z</time>
      </trkpt>
      <trkpt lat="47.29112" lon="-2.27524">
        <ele>-4.5999999046326</ele>
        <time>2021-04-25T09:35:51.000Z</time>
      </trkpt>
      <trkpt lat="47.29115" lon="-2.27524">
        <ele>-4.5999999046326</ele>
        <time>2021-04-25T09:35:52.000Z</time>
      </trkpt>
      <trkpt lat="47.29137" lon="-2.27528">
        <ele>-4.5999999046326</ele>
        <time>2021-04-25T09:35:57.000Z</time>
      </trkpt>
      <trkpt lat="47.2915" lon="-2.2753">
        <ele>-4.5999999046326</ele>
        <time>2021-04-25T09:36:00.000Z</time>
      </trkpt>
      <trkpt lat="47.29162" lon="-2.2753">
        <ele>-4.5999999046326</ele>
        <time>2021-04-25T09:36:03.000Z</time>
      </trkpt>
      <trkpt lat="47.29168" lon="-2.2753">
        <ele>-4.5999999046326</ele>
        <time>2021-04-25T09:36:07.000Z</time>
      </trkpt>
      <trkpt lat="47.29171" lon="-2.27531">
        <ele>-4.5999999046326</ele>
        <time>2021-04-25T09:36:09.000Z</time>
      </trkpt>
      <trkpt lat="47.29172" lon="-2.27533">
        <ele>-4.5999999046326</ele>
        <time>2021-04-25T09:36:12.000Z</time>
      </trkpt>
      <trkpt lat="47.29171" lon="-2.27533">
        <ele>-4.5999999046326</ele>
        <time>2021-04-25T09:36:14.000Z</time>
      </trkpt>
      <trkpt lat="47.29167" lon="-2.27539">
        <ele>-4.5999999046326</ele>
        <time>2021-04-25T09:36:54.000Z</time>
      </trkpt>
      <trkpt lat="47.29167" lon="-2.27538">
        <ele>-4.5999999046326</ele>
        <time>2021-04-25T09:36:55.000Z</time>
      </trkpt>
      <trkpt lat="47.2916" lon="-2.27533">
        <ele>-4.5999999046326</ele>
        <time>2021-04-25T09:36:58.000Z</time>
      </trkpt>
      <trkpt lat="47.29149" lon="-2.27533">
        <ele>-4.5999999046326</ele>
        <time>2021-04-25T09:37:01.000Z</time>
      </trkpt>
      <trkpt lat="47.29137" lon="-2.27533">
        <ele>-4.5999999046326</ele>
        <time>2021-04-25T09:37:04.000Z</time>
      </trkpt>
      <trkpt lat="47.29113" lon="-2.27532">
        <ele>-4.5999999046326</ele>
        <time>2021-04-25T09:37:09.000Z</time>
      </trkpt>
      <trkpt lat="47.29088" lon="-2.27531">
        <ele>-4.5999999046326</ele>
        <time>2021-04-25T09:37:14.000Z</time>
      </trkpt>
      <trkpt lat="47.29078" lon="-2.27529">
        <ele>-4.5999999046326</ele>
        <time>2021-04-25T09:37:16.000Z</time>
      </trkpt>
      <trkpt lat="47.29042" lon="-2.27525">
        <ele>-4.5999999046326</ele>
        <time>2021-04-25T09:37:23.000Z</time>
      </trkpt>
      <trkpt lat="47.29001" lon="-2.27523">
        <ele>-4.5999999046326</ele>
        <time>2021-04-25T09:37:31.000Z</time>
      </trkpt>
      <trkpt lat="47.28959" lon="-2.27524">
        <ele>-4.5999999046326</ele>
        <time>2021-04-25T09:37:39.000Z</time>
      </trkpt>
      <trkpt lat="47.28915" lon="-2.27525">
        <ele>-4.5999999046326</ele>
        <time>2021-04-25T09:37:47.000Z</time>
      </trkpt>
      <trkpt lat="47.28877" lon="-2.27531">
        <ele>-4.5999999046326</ele>
        <time>2021-04-25T09:37:54.000Z</time>
      </trkpt>
      <trkpt lat="47.28842" lon="-2.27538">
        <ele>-4.5999999046326</ele>
        <time>2021-04-25T09:38:00.000Z</time>
      </trkpt>
      <trkpt lat="47.28819" lon="-2.27544">
        <ele>-4.5999999046326</ele>
        <time>2021-04-25T09:38:04.000Z</time>
      </trkpt>
      <trkpt lat="47.28814" lon="-2.27548">
        <ele>-4.5999999046326</ele>
        <time>2021-04-25T09:38:05.000Z</time>
      </trkpt>
      <trkpt lat="47.28783" lon="-2.27578">
        <ele>-4.5999999046326</ele>
        <time>2021-04-25T09:38:12.000Z</time>
      </trkpt>
      <trkpt lat="47.28759" lon="-2.27606">
        <ele>-4.5999999046326</ele>
        <time>2021-04-25T09:38:18.000Z</time>
      </trkpt>
      <trkpt lat="47.28738" lon="-2.27635">
        <ele>-4.1999998092651</ele>
        <time>2021-04-25T09:38:23.000Z</time>
      </trkpt>
      <trkpt lat="47.28733" lon="-2.27642">
        <ele>-3.5999999046326</ele>
        <time>2021-04-25T09:38:24.000Z</time>
      </trkpt>
      <trkpt lat="47.28728" lon="-2.27649">
        <ele>-3.2000000476837</ele>
        <time>2021-04-25T09:38:25.000Z</time>
      </trkpt>
      <trkpt lat="47.28724" lon="-2.27656">
        <ele>-2.7999999523163</ele>
        <time>2021-04-25T09:38:26.000Z</time>
      </trkpt>
      <trkpt lat="47.28719" lon="-2.27664">
        <ele>-2.4000000953674</ele>
        <time>2021-04-25T09:38:27.000Z</time>
      </trkpt>
      <trkpt lat="47.2871" lon="-2.27679">
        <ele>-2.4000000953674</ele>
        <time>2021-04-25T09:38:29.000Z</time>
      </trkpt>
      <trkpt lat="47.28678" lon="-2.27731">
        <ele>-2.4000000953674</ele>
        <time>2021-04-25T09:38:36.000Z</time>
      </trkpt>
      <trkpt lat="47.28654" lon="-2.27778">
        <ele>-2.4000000953674</ele>
        <time>2021-04-25T09:38:42.000Z</time>
      </trkpt>
      <trkpt lat="47.28645" lon="-2.27811">
        <ele>-2.4000000953674</ele>
        <time>2021-04-25T09:38:46.000Z</time>
      </trkpt>
      <trkpt lat="47.28644" lon="-2.2782">
        <ele>-2.4000000953674</ele>
        <time>2021-04-25T09:38:47.000Z</time>
      </trkpt>
      <trkpt lat="47.28633" lon="-2.27886">
        <ele>-2.4000000953674</ele>
        <time>2021-04-25T09:38:55.000Z</time>
      </trkpt>
      <trkpt lat="47.28629" lon="-2.27918">
        <ele>-2.4000000953674</ele>
        <time>2021-04-25T09:39:00.000Z</time>
      </trkpt>
      <trkpt lat="47.28627" lon="-2.27931">
        <ele>-2.4000000953674</ele>
        <time>2021-04-25T09:39:02.000Z</time>
      </trkpt>
      <trkpt lat="47.28618" lon="-2.27949">
        <ele>-2.4000000953674</ele>
        <time>2021-04-25T09:39:05.000Z</time>
      </trkpt>
      <trkpt lat="47.28612" lon="-2.27962">
        <ele>-2</ele>
        <time>2021-04-25T09:39:07.000Z</time>
      </trkpt>
      <trkpt lat="47.28609" lon="-2.27969">
        <ele>-1.6000000238419</ele>
        <time>2021-04-25T09:39:08.000Z</time>
      </trkpt>
      <trkpt lat="47.28607" lon="-2.27976">
        <ele>-1</ele>
        <time>2021-04-25T09:39:09.000Z</time>
      </trkpt>
      <trkpt lat="47.28604" lon="-2.27983">
        <ele>-0.60000002384186</ele>
        <time>2021-04-25T09:39:10.000Z</time>
      </trkpt>
      <trkpt lat="47.28602" lon="-2.27991">
        <ele>-0.20000000298023</ele>
        <time>2021-04-25T09:39:11.000Z</time>
      </trkpt>
      <trkpt lat="47.28599" lon="-2.27999">
        <ele>-0.20000000298023</ele>
        <time>2021-04-25T09:39:12.000Z</time>
      </trkpt>
      <trkpt lat="47.28584" lon="-2.28024">
        <ele>-0.20000000298023</ele>
        <time>2021-04-25T09:39:16.000Z</time>
      </trkpt>
      <trkpt lat="47.28565" lon="-2.28042">
        <ele>-0.20000000298023</ele>
        <time>2021-04-25T09:39:21.000Z</time>
      </trkpt>
      <trkpt lat="47.2855" lon="-2.28047">
        <ele>-0.20000000298023</ele>
        <time>2021-04-25T09:39:25.000Z</time>
      </trkpt>
      <trkpt lat="47.28541" lon="-2.28048">
        <ele>0.20000000298023</ele>
        <time>2021-04-25T09:39:28.000Z</time>
      </trkpt>
      <trkpt lat="47.28538" lon="-2.28048">
        <ele>0.60000002384186</ele>
        <time>2021-04-25T09:39:29.000Z</time>
      </trkpt>
      <trkpt lat="47.28535" lon="-2.28048">
        <ele>1</ele>
        <time>2021-04-25T09:39:30.000Z</time>
      </trkpt>
      <trkpt lat="47.28533" lon="-2.28047">
        <ele>1.3999999761581</ele>
        <time>2021-04-25T09:39:31.000Z</time>
      </trkpt>
      <trkpt lat="47.2853" lon="-2.28047">
        <ele>1.7999999523163</ele>
        <time>2021-04-25T09:39:32.000Z</time>
      </trkpt>
      <trkpt lat="47.28527" lon="-2.28046">
        <ele>2.2000000476837</ele>
        <time>2021-04-25T09:39:33.000Z</time>
      </trkpt>
      <trkpt lat="47.28524" lon="-2.28046">
        <ele>2.5999999046326</ele>
        <time>2021-04-25T09:39:34.000Z</time>
      </trkpt>
      <trkpt lat="47.2852" lon="-2.28045">
        <ele>3</ele>
        <time>2021-04-25T09:39:35.000Z</time>
      </trkpt>
      <trkpt lat="47.28518" lon="-2.28045">
        <ele>3.4000000953674</ele>
        <time>2021-04-25T09:39:36.000Z</time>
      </trkpt>
      <trkpt lat="47.28515" lon="-2.28044">
        <ele>3.7999999523163</ele>
        <time>2021-04-25T09:39:37.000Z</time>
      </trkpt>
      <trkpt lat="47.28512" lon="-2.28041">
        <ele>4.1999998092651</ele>
        <time>2021-04-25T09:39:38.000Z</time>
      </trkpt>
      <trkpt lat="47.2851" lon="-2.28038">
        <ele>4.5999999046326</ele>
        <time>2021-04-25T09:39:39.000Z</time>
      </trkpt>
      <trkpt lat="47.28507" lon="-2.28036">
        <ele>5</ele>
        <time>2021-04-25T09:39:40.000Z</time>
      </trkpt>
      <trkpt lat="47.28504" lon="-2.28034">
        <ele>5.4000000953674</ele>
        <time>2021-04-25T09:39:41.000Z</time>
      </trkpt>
      <trkpt lat="47.28501" lon="-2.28032">
        <ele>5.8000001907349</ele>
        <time>2021-04-25T09:39:42.000Z</time>
      </trkpt>
      <trkpt lat="47.28498" lon="-2.28031">
        <ele>5.8000001907349</ele>
        <time>2021-04-25T09:39:43.000Z</time>
      </trkpt>
      <trkpt lat="47.28495" lon="-2.28033">
        <ele>5.8000001907349</ele>
        <time>2021-04-25T09:39:44.000Z</time>
      </trkpt>
      <trkpt lat="47.28483" lon="-2.28041">
        <ele>6.1999998092651</ele>
        <time>2021-04-25T09:39:48.000Z</time>
      </trkpt>
      <trkpt lat="47.28482" lon="-2.28044">
        <ele>6.5999999046326</ele>
        <time>2021-04-25T09:39:49.000Z</time>
      </trkpt>
      <trkpt lat="47.28482" lon="-2.28048">
        <ele>7</ele>
        <time>2021-04-25T09:39:50.000Z</time>
      </trkpt>
      <trkpt lat="47.28482" lon="-2.28052">
        <ele>7.4000000953674</ele>
        <time>2021-04-25T09:39:51.000Z</time>
      </trkpt>
      <trkpt lat="47.28482" lon="-2.28057">
        <ele>7.8000001907349</ele>
        <time>2021-04-25T09:39:52.000Z</time>
      </trkpt>
      <trkpt lat="47.28486" lon="-2.28069">
        <ele>7.8000001907349</ele>
        <time>2021-04-25T09:39:55.000Z</time>
      </trkpt>
      <trkpt lat="47.28487" lon="-2.28077">
        <ele>7.8000001907349</ele>
        <time>2021-04-25T09:39:57.000Z</time>
      </trkpt>
      <trkpt lat="47.28484" lon="-2.28083">
        <ele>7.8000001907349</ele>
        <time>2021-04-25T09:39:59.000Z</time>
      </trkpt>
      <trkpt lat="47.28474" lon="-2.28091">
        <ele>7.4000000953674</ele>
        <time>2021-04-25T09:40:02.000Z</time>
      </trkpt>
      <trkpt lat="47.28469" lon="-2.28092">
        <ele>7</ele>
        <time>2021-04-25T09:40:03.000Z</time>
      </trkpt>
      <trkpt lat="47.28466" lon="-2.28092">
        <ele>6.5999999046326</ele>
        <time>2021-04-25T09:40:04.000Z</time>
      </trkpt>
      <trkpt lat="47.28463" lon="-2.28091">
        <ele>6.1999998092651</ele>
        <time>2021-04-25T09:40:05.000Z</time>
      </trkpt>
      <trkpt lat="47.2846" lon="-2.28091">
        <ele>5.8000001907349</ele>
        <time>2021-04-25T09:40:06.000Z</time>
      </trkpt>
      <trkpt lat="47.28457" lon="-2.2809">
        <ele>5.8000001907349</ele>
        <time>2021-04-25T09:40:07.000Z</time>
      </trkpt>
      <trkpt lat="47.28446" lon="-2.28087">
        <ele>5.8000001907349</ele>
        <time>2021-04-25T09:40:10.000Z</time>
      </trkpt>
      <trkpt lat="47.2844" lon="-2.28085">
        <ele>5.8000001907349</ele>
        <time>2021-04-25T09:40:12.000Z</time>
      </trkpt>
      <trkpt lat="47.28435" lon="-2.28086">
        <ele>5.8000001907349</ele>
        <time>2021-04-25T09:40:14.000Z</time>
      </trkpt>
      <trkpt lat="47.28427" lon="-2.28084">
        <ele>5.8000001907349</ele>
        <time>2021-04-25T09:40:17.000Z</time>
      </trkpt>
      <trkpt lat="47.28405" lon="-2.2808">
        <ele>5.8000001907349</ele>
        <time>2021-04-25T09:40:23.000Z</time>
      </trkpt>
      <trkpt lat="47.28384" lon="-2.28077">
        <ele>5.8000001907349</ele>
        <time>2021-04-25T09:40:28.000Z</time>
      </trkpt>
      <trkpt lat="47.28374" lon="-2.28076">
        <ele>5.8000001907349</ele>
        <time>2021-04-25T09:40:33.000Z</time>
      </trkpt>
      <trkpt lat="47.28368" lon="-2.28077">
        <ele>5.8000001907349</ele>
        <time>2021-04-25T09:40:36.000Z</time>
      </trkpt>
      <trkpt lat="47.28367" lon="-2.2808">
        <ele>5.8000001907349</ele>
        <time>2021-04-25T09:40:37.000Z</time>
      </trkpt>
      <trkpt lat="47.28366" lon="-2.28088">
        <ele>5.4000000953674</ele>
        <time>2021-04-25T09:40:39.000Z</time>
      </trkpt>
      <trkpt lat="47.28366" lon="-2.28092">
        <ele>5</ele>
        <time>2021-04-25T09:40:40.000Z</time>
      </trkpt>
      <trkpt lat="47.28365" lon="-2.28094">
        <ele>4.5999999046326</ele>
        <time>2021-04-25T09:40:41.000Z</time>
      </trkpt>
      <trkpt lat="47.28365" lon="-2.28096">
        <ele>4.1999998092651</ele>
        <time>2021-04-25T09:40:42.000Z</time>
      </trkpt>
      <trkpt lat="47.28365" lon="-2.28097">
        <ele>3.7999999523163</ele>
        <time>2021-04-25T09:40:43.000Z</time>
      </trkpt>
      <trkpt lat="47.28365" lon="-2.28098">
        <ele>3.7999999523163</ele>
        <time>2021-04-25T09:40:44.000Z</time>
      </trkpt>
      <trkpt lat="47.28365" lon="-2.28101">
        <ele>3.7999999523163</ele>
        <time>2021-04-25T09:40:50.000Z</time>
      </trkpt>
      <trkpt lat="47.28365" lon="-2.28104">
        <ele>3.7999999523163</ele>
        <time>2021-04-25T09:40:51.000Z</time>
      </trkpt>
      <trkpt lat="47.28368" lon="-2.28127">
        <ele>3.7999999523163</ele>
        <time>2021-04-25T09:40:56.000Z</time>
      </trkpt>
      <trkpt lat="47.2837" lon="-2.28147">
        <ele>4.5999999046326</ele>
        <time>2021-04-25T09:41:00.000Z</time>
      </trkpt>
      <trkpt lat="47.28371" lon="-2.28153">
        <ele>5</ele>
        <time>2021-04-25T09:41:01.000Z</time>
      </trkpt>
      <trkpt lat="47.28371" lon="-2.28158">
        <ele>5.4000000953674</ele>
        <time>2021-04-25T09:41:02.000Z</time>
      </trkpt>
      <trkpt lat="47.28371" lon="-2.28163">
        <ele>5.8000001907349</ele>
        <time>2021-04-25T09:41:03.000Z</time>
      </trkpt>
      <trkpt lat="47.2837" lon="-2.28187">
        <ele>6.4000000953674</ele>
        <time>2021-04-25T09:41:07.000Z</time>
      </trkpt>
      <trkpt lat="47.28371" lon="-2.28194">
        <ele>6.8000001907349</ele>
        <time>2021-04-25T09:41:08.000Z</time>
      </trkpt>
      <trkpt lat="47.28371" lon="-2.28199">
        <ele>7.1999998092651</ele>
        <time>2021-04-25T09:41:09.000Z</time>
      </trkpt>
      <trkpt lat="47.2837" lon="-2.28205">
        <ele>7.5999999046326</ele>
        <time>2021-04-25T09:41:10.000Z</time>
      </trkpt>
      <trkpt lat="47.28371" lon="-2.2821">
        <ele>8.1999998092651</ele>
        <time>2021-04-25T09:41:11.000Z</time>
      </trkpt>
      <trkpt lat="47.28372" lon="-2.2824">
        <ele>8.6000003814697</ele>
        <time>2021-04-25T09:41:16.000Z</time>
      </trkpt>
      <trkpt lat="47.28372" lon="-2.28246">
        <ele>9</ele>
        <time>2021-04-25T09:41:17.000Z</time>
      </trkpt>
      <trkpt lat="47.28372" lon="-2.28252">
        <ele>9.3999996185303</ele>
        <time>2021-04-25T09:41:18.000Z</time>
      </trkpt>
      <trkpt lat="47.28373" lon="-2.2826">
        <ele>9.8000001907349</ele>
        <time>2021-04-25T09:41:19.000Z</time>
      </trkpt>
      <trkpt lat="47.28373" lon="-2.28267">
        <ele>10.199999809265</ele>
        <time>2021-04-25T09:41:20.000Z</time>
      </trkpt>
      <trkpt lat="47.28372" lon="-2.28274">
        <ele>10.199999809265</ele>
        <time>2021-04-25T09:41:21.000Z</time>
      </trkpt>
      <trkpt lat="47.28371" lon="-2.28313">
        <ele>10.199999809265</ele>
        <time>2021-04-25T09:41:27.000Z</time>
      </trkpt>
      <trkpt lat="47.28372" lon="-2.2832">
        <ele>10.60000038147</ele>
        <time>2021-04-25T09:41:28.000Z</time>
      </trkpt>
      <trkpt lat="47.28372" lon="-2.28328">
        <ele>11</ele>
        <time>2021-04-25T09:41:29.000Z</time>
      </trkpt>
      <trkpt lat="47.28372" lon="-2.28335">
        <ele>11.60000038147</ele>
        <time>2021-04-25T09:41:30.000Z</time>
      </trkpt>
      <trkpt lat="47.28372" lon="-2.28342">
        <ele>12</ele>
        <time>2021-04-25T09:41:31.000Z</time>
      </trkpt>
      <trkpt lat="47.28371" lon="-2.2835">
        <ele>12.39999961853</ele>
        <time>2021-04-25T09:41:32.000Z</time>
      </trkpt>
      <trkpt lat="47.28371" lon="-2.28365">
        <ele>12.39999961853</ele>
        <time>2021-04-25T09:41:34.000Z</time>
      </trkpt>
      <trkpt lat="47.28376" lon="-2.28411">
        <ele>12.39999961853</ele>
        <time>2021-04-25T09:41:40.000Z</time>
      </trkpt>
      <trkpt lat="47.28377" lon="-2.2842">
        <ele>12.39999961853</ele>
        <time>2021-04-25T09:41:41.000Z</time>
      </trkpt>
      <trkpt lat="47.28379" lon="-2.28467">
        <ele>12.39999961853</ele>
        <time>2021-04-25T09:41:46.000Z</time>
      </trkpt>
      <trkpt lat="47.28379" lon="-2.28523">
        <ele>12.39999961853</ele>
        <time>2021-04-25T09:41:52.000Z</time>
      </trkpt>
      <trkpt lat="47.28381" lon="-2.28591">
        <ele>12.39999961853</ele>
        <time>2021-04-25T09:41:59.000Z</time>
      </trkpt>
      <trkpt lat="47.28382" lon="-2.28658">
        <ele>12.39999961853</ele>
        <time>2021-04-25T09:42:06.000Z</time>
      </trkpt>
      <trkpt lat="47.28384" lon="-2.28716">
        <ele>12.39999961853</ele>
        <time>2021-04-25T09:42:12.000Z</time>
      </trkpt>
      <trkpt lat="47.28387" lon="-2.28773">
        <ele>12.39999961853</ele>
        <time>2021-04-25T09:42:18.000Z</time>
      </trkpt>
      <trkpt lat="47.28389" lon="-2.2884">
        <ele>12.39999961853</ele>
        <time>2021-04-25T09:42:25.000Z</time>
      </trkpt>
      <trkpt lat="47.2839" lon="-2.28905">
        <ele>12.39999961853</ele>
        <time>2021-04-25T09:42:31.000Z</time>
      </trkpt>
      <trkpt lat="47.28392" lon="-2.28955">
        <ele>12.39999961853</ele>
        <time>2021-04-25T09:42:36.000Z</time>
      </trkpt>
      <trkpt lat="47.28395" lon="-2.28989">
        <ele>12.39999961853</ele>
        <time>2021-04-25T09:42:41.000Z</time>
      </trkpt>
      <trkpt lat="47.28397" lon="-2.28991">
        <ele>12.39999961853</ele>
        <time>2021-04-25T09:42:42.000Z</time>
      </trkpt>
      <trkpt lat="47.28404" lon="-2.28993">
        <ele>12.39999961853</ele>
        <time>2021-04-25T09:42:44.000Z</time>
      </trkpt>
      <trkpt lat="47.28421" lon="-2.28996">
        <ele>12.39999961853</ele>
        <time>2021-04-25T09:42:48.000Z</time>
      </trkpt>
      <trkpt lat="47.28426" lon="-2.28996">
        <ele>12.39999961853</ele>
        <time>2021-04-25T09:42:49.000Z</time>
      </trkpt>
      <trkpt lat="47.28431" lon="-2.28996">
        <ele>12</ele>
        <time>2021-04-25T09:42:50.000Z</time>
      </trkpt>
      <trkpt lat="47.28436" lon="-2.28997">
        <ele>11.60000038147</ele>
        <time>2021-04-25T09:42:51.000Z</time>
      </trkpt>
      <trkpt lat="47.28441" lon="-2.28997">
        <ele>11.199999809265</ele>
        <time>2021-04-25T09:42:52.000Z</time>
      </trkpt>
      <trkpt lat="47.28446" lon="-2.28998">
        <ele>10.800000190735</ele>
        <time>2021-04-25T09:42:53.000Z</time>
      </trkpt>
      <trkpt lat="47.28451" lon="-2.29">
        <ele>10.39999961853</ele>
        <time>2021-04-25T09:42:54.000Z</time>
      </trkpt>
      <trkpt lat="47.28468" lon="-2.29004">
        <ele>10</ele>
        <time>2021-04-25T09:42:57.000Z</time>
      </trkpt>
      <trkpt lat="47.28474" lon="-2.29007">
        <ele>9.6000003814697</ele>
        <time>2021-04-25T09:42:58.000Z</time>
      </trkpt>
      <trkpt lat="47.28479" lon="-2.29009">
        <ele>9.1999998092651</ele>
        <time>2021-04-25T09:42:59.000Z</time>
      </trkpt>
      <trkpt lat="47.28484" lon="-2.29011">
        <ele>8.8000001907349</ele>
        <time>2021-04-25T09:43:00.000Z</time>
      </trkpt>
      <trkpt lat="47.2849" lon="-2.29013">
        <ele>8.3999996185303</ele>
        <time>2021-04-25T09:43:01.000Z</time>
      </trkpt>
      <trkpt lat="47.28512" lon="-2.29025">
        <ele>8.3999996185303</ele>
        <time>2021-04-25T09:43:05.000Z</time>
      </trkpt>
      <trkpt lat="47.28517" lon="-2.29026">
        <ele>8.3999996185303</ele>
        <time>2021-04-25T09:43:06.000Z</time>
      </trkpt>
      <trkpt lat="47.28535" lon="-2.2903">
        <ele>8.3999996185303</ele>
        <time>2021-04-25T09:43:09.000Z</time>
      </trkpt>
      <trkpt lat="47.2854" lon="-2.2903">
        <ele>8.3999996185303</ele>
        <time>2021-04-25T09:43:10.000Z</time>
      </trkpt>
      <trkpt lat="47.28551" lon="-2.29032">
        <ele>8.3999996185303</ele>
        <time>2021-04-25T09:43:12.000Z</time>
      </trkpt>
      <trkpt lat="47.28568" lon="-2.29033">
        <ele>8.3999996185303</ele>
        <time>2021-04-25T09:43:15.000Z</time>
      </trkpt>
      <trkpt lat="47.28582" lon="-2.29039">
        <ele>8</ele>
        <time>2021-04-25T09:43:18.000Z</time>
      </trkpt>
      <trkpt lat="47.28587" lon="-2.29045">
        <ele>7.4000000953674</ele>
        <time>2021-04-25T09:43:19.000Z</time>
      </trkpt>
      <trkpt lat="47.28592" lon="-2.29054">
        <ele>7</ele>
        <time>2021-04-25T09:43:20.000Z</time>
      </trkpt>
      <trkpt lat="47.28596" lon="-2.29063">
        <ele>6.5999999046326</ele>
        <time>2021-04-25T09:43:21.000Z</time>
      </trkpt>
      <trkpt lat="47.28597" lon="-2.29071">
        <ele>6</ele>
        <time>2021-04-25T09:43:22.000Z</time>
      </trkpt>
      <trkpt lat="47.28598" lon="-2.29078">
        <ele>5.5999999046326</ele>
        <time>2021-04-25T09:43:23.000Z</time>
      </trkpt>
      <trkpt lat="47.28597" lon="-2.29087">
        <ele>5</ele>
        <time>2021-04-25T09:43:24.000Z</time>
      </trkpt>
      <trkpt lat="47.28597" lon="-2.29094">
        <ele>4.5999999046326</ele>
        <time>2021-04-25T09:43:25.000Z</time>
      </trkpt>
      <trkpt lat="47.28596" lon="-2.29101">
        <ele>4</ele>
        <time>2021-04-25T09:43:26.000Z</time>
      </trkpt>
      <trkpt lat="47.28592" lon="-2.29121">
        <ele>4</ele>
        <time>2021-04-25T09:43:30.000Z</time>
      </trkpt>
      <trkpt lat="47.28579" lon="-2.2915">
        <ele>4</ele>
        <time>2021-04-25T09:43:36.000Z</time>
      </trkpt>
      <trkpt lat="47.28573" lon="-2.29161">
        <ele>4</ele>
        <time>2021-04-25T09:43:38.000Z</time>
      </trkpt>
      <trkpt lat="47.2856" lon="-2.29174">
        <ele>4</ele>
        <time>2021-04-25T09:43:41.000Z</time>
      </trkpt>
      <trkpt lat="47.28533" lon="-2.29198">
        <ele>4</ele>
        <time>2021-04-25T09:43:47.000Z</time>
      </trkpt>
      <trkpt lat="47.28522" lon="-2.29211">
        <ele>4</ele>
        <time>2021-04-25T09:43:50.000Z</time>
      </trkpt>
      <trkpt lat="47.2852" lon="-2.29218">
        <ele>4</ele>
        <time>2021-04-25T09:43:51.000Z</time>
      </trkpt>
      <trkpt lat="47.28519" lon="-2.29241">
        <ele>4</ele>
        <time>2021-04-25T09:43:54.000Z</time>
      </trkpt>
      <trkpt lat="47.2852" lon="-2.29257">
        <ele>4</ele>
        <time>2021-04-25T09:43:56.000Z</time>
      </trkpt>
      <trkpt lat="47.28522" lon="-2.29279">
        <ele>4</ele>
        <time>2021-04-25T09:44:00.000Z</time>
      </trkpt>
      <trkpt lat="47.28522" lon="-2.29282">
        <ele>4</ele>
        <time>2021-04-25T09:44:02.000Z</time>
      </trkpt>
      <trkpt lat="47.28519" lon="-2.29288">
        <ele>4</ele>
        <time>2021-04-25T09:44:05.000Z</time>
      </trkpt>
      <trkpt lat="47.28506" lon="-2.29305">
        <ele>4</ele>
        <time>2021-04-25T09:44:10.000Z</time>
      </trkpt>
      <trkpt lat="47.28502" lon="-2.29308">
        <ele>4</ele>
        <time>2021-04-25T09:44:11.000Z</time>
      </trkpt>
      <trkpt lat="47.28483" lon="-2.29319">
        <ele>4</ele>
        <time>2021-04-25T09:44:15.000Z</time>
      </trkpt>
      <trkpt lat="47.28478" lon="-2.29322">
        <ele>4.4000000953674</ele>
        <time>2021-04-25T09:44:16.000Z</time>
      </trkpt>
      <trkpt lat="47.28472" lon="-2.29325">
        <ele>4.8000001907349</ele>
        <time>2021-04-25T09:44:17.000Z</time>
      </trkpt>
      <trkpt lat="47.28467" lon="-2.29327">
        <ele>5.8000001907349</ele>
        <time>2021-04-25T09:44:18.000Z</time>
      </trkpt>
      <trkpt lat="47.28462" lon="-2.29329">
        <ele>6.1999998092651</ele>
        <time>2021-04-25T09:44:19.000Z</time>
      </trkpt>
      <trkpt lat="47.28452" lon="-2.29332">
        <ele>6.5999999046326</ele>
        <time>2021-04-25T09:44:21.000Z</time>
      </trkpt>
      <trkpt lat="47.28447" lon="-2.29334">
        <ele>7.1999998092651</ele>
        <time>2021-04-25T09:44:22.000Z</time>
      </trkpt>
      <trkpt lat="47.28442" lon="-2.29336">
        <ele>7.5999999046326</ele>
        <time>2021-04-25T09:44:23.000Z</time>
      </trkpt>
      <trkpt lat="47.28436" lon="-2.29338">
        <ele>8</ele>
        <time>2021-04-25T09:44:24.000Z</time>
      </trkpt>
      <trkpt lat="47.28431" lon="-2.2934">
        <ele>8.6000003814697</ele>
        <time>2021-04-25T09:44:25.000Z</time>
      </trkpt>
      <trkpt lat="47.2842" lon="-2.29345">
        <ele>8.6000003814697</ele>
        <time>2021-04-25T09:44:27.000Z</time>
      </trkpt>
      <trkpt lat="47.28384" lon="-2.29366">
        <ele>8.6000003814697</ele>
        <time>2021-04-25T09:44:34.000Z</time>
      </trkpt>
      <trkpt lat="47.28374" lon="-2.29372">
        <ele>9</ele>
        <time>2021-04-25T09:44:36.000Z</time>
      </trkpt>
      <trkpt lat="47.28369" lon="-2.29375">
        <ele>9.3999996185303</ele>
        <time>2021-04-25T09:44:37.000Z</time>
      </trkpt>
      <trkpt lat="47.28365" lon="-2.29378">
        <ele>9.8000001907349</ele>
        <time>2021-04-25T09:44:38.000Z</time>
      </trkpt>
      <trkpt lat="47.28359" lon="-2.29382">
        <ele>10.199999809265</ele>
        <time>2021-04-25T09:44:39.000Z</time>
      </trkpt>
      <trkpt lat="47.28355" lon="-2.29387">
        <ele>10.60000038147</ele>
        <time>2021-04-25T09:44:40.000Z</time>
      </trkpt>
      <trkpt lat="47.2835" lon="-2.29392">
        <ele>10.60000038147</ele>
        <time>2021-04-25T09:44:41.000Z</time>
      </trkpt>
      <trkpt lat="47.28317" lon="-2.29428">
        <ele>10.60000038147</ele>
        <time>2021-04-25T09:44:48.000Z</time>
      </trkpt>
      <trkpt lat="47.28278" lon="-2.29461">
        <ele>10.60000038147</ele>
        <time>2021-04-25T09:44:56.000Z</time>
      </trkpt>
      <trkpt lat="47.28263" lon="-2.2947">
        <ele>10.60000038147</ele>
        <time>2021-04-25T09:44:59.000Z</time>
      </trkpt>
      <trkpt lat="47.28253" lon="-2.29478">
        <ele>10.60000038147</ele>
        <time>2021-04-25T09:45:01.000Z</time>
      </trkpt>
      <trkpt lat="47.28222" lon="-2.29495">
        <ele>10.60000038147</ele>
        <time>2021-04-25T09:45:07.000Z</time>
      </trkpt>
      <trkpt lat="47.28196" lon="-2.29509">
        <ele>11</ele>
        <time>2021-04-25T09:45:12.000Z</time>
      </trkpt>
      <trkpt lat="47.28191" lon="-2.29511">
        <ele>11.39999961853</ele>
        <time>2021-04-25T09:45:13.000Z</time>
      </trkpt>
      <trkpt lat="47.28187" lon="-2.29513">
        <ele>11.800000190735</ele>
        <time>2021-04-25T09:45:14.000Z</time>
      </trkpt>
      <trkpt lat="47.28182" lon="-2.29515">
        <ele>12.199999809265</ele>
        <time>2021-04-25T09:45:15.000Z</time>
      </trkpt>
      <trkpt lat="47.28177" lon="-2.29517">
        <ele>12.800000190735</ele>
        <time>2021-04-25T09:45:16.000Z</time>
      </trkpt>
      <trkpt lat="47.28156" lon="-2.29524">
        <ele>12.800000190735</ele>
        <time>2021-04-25T09:45:20.000Z</time>
      </trkpt>
      <trkpt lat="47.2814" lon="-2.29527">
        <ele>12.800000190735</ele>
        <time>2021-04-25T09:45:23.000Z</time>
      </trkpt>
      <trkpt lat="47.28131" lon="-2.29524">
        <ele>13.199999809265</ele>
        <time>2021-04-25T09:45:25.000Z</time>
      </trkpt>
      <trkpt lat="47.28127" lon="-2.2952">
        <ele>13.60000038147</ele>
        <time>2021-04-25T09:45:26.000Z</time>
      </trkpt>
      <trkpt lat="47.28124" lon="-2.29514">
        <ele>14</ele>
        <time>2021-04-25T09:45:27.000Z</time>
      </trkpt>
      <trkpt lat="47.28121" lon="-2.29508">
        <ele>14.39999961853</ele>
        <time>2021-04-25T09:45:28.000Z</time>
      </trkpt>
      <trkpt lat="47.28119" lon="-2.29501">
        <ele>15</ele>
        <time>2021-04-25T09:45:29.000Z</time>
      </trkpt>
      <trkpt lat="47.28114" lon="-2.29486">
        <ele>15</ele>
        <time>2021-04-25T09:45:31.000Z</time>
      </trkpt>
      <trkpt lat="47.2811" lon="-2.29471">
        <ele>15</ele>
        <time>2021-04-25T09:45:33.000Z</time>
      </trkpt>
      <trkpt lat="47.28097" lon="-2.29412">
        <ele>15.39999961853</ele>
        <time>2021-04-25T09:45:40.000Z</time>
      </trkpt>
      <trkpt lat="47.28096" lon="-2.29403">
        <ele>15.800000190735</ele>
        <time>2021-04-25T09:45:41.000Z</time>
      </trkpt>
      <trkpt lat="47.28096" lon="-2.29394">
        <ele>16.200000762939</ele>
        <time>2021-04-25T09:45:42.000Z</time>
      </trkpt>
      <trkpt lat="47.28096" lon="-2.29384">
        <ele>16.60000038147</ele>
        <time>2021-04-25T09:45:43.000Z</time>
      </trkpt>
      <trkpt lat="47.28097" lon="-2.29375">
        <ele>17</ele>
        <time>2021-04-25T09:45:44.000Z</time>
      </trkpt>
      <trkpt lat="47.28098" lon="-2.29364">
        <ele>17</ele>
        <time>2021-04-25T09:45:45.000Z</time>
      </trkpt>
      <trkpt lat="47.28105" lon="-2.29288">
        <ele>17</ele>
        <time>2021-04-25T09:45:53.000Z</time>
      </trkpt>
      <trkpt lat="47.28115" lon="-2.29226">
        <ele>17</ele>
        <time>2021-04-25T09:46:00.000Z</time>
      </trkpt>
      <trkpt lat="47.28133" lon="-2.29153">
        <ele>17</ele>
        <time>2021-04-25T09:46:08.000Z</time>
      </trkpt>
      <trkpt lat="47.28151" lon="-2.29083">
        <ele>16.60000038147</ele>
        <time>2021-04-25T09:46:16.000Z</time>
      </trkpt>
      <trkpt lat="47.28153" lon="-2.29074">
        <ele>16.200000762939</ele>
        <time>2021-04-25T09:46:17.000Z</time>
      </trkpt>
      <trkpt lat="47.28155" lon="-2.29066">
        <ele>15.800000190735</ele>
        <time>2021-04-25T09:46:18.000Z</time>
      </trkpt>
      <trkpt lat="47.28157" lon="-2.29058">
        <ele>15.39999961853</ele>
        <time>2021-04-25T09:46:19.000Z</time>
      </trkpt>
      <trkpt lat="47.28159" lon="-2.2905">
        <ele>15</ele>
        <time>2021-04-25T09:46:20.000Z</time>
      </trkpt>
      <trkpt lat="47.2817" lon="-2.29007">
        <ele>15</ele>
        <time>2021-04-25T09:46:25.000Z</time>
      </trkpt>
      <trkpt lat="47.28186" lon="-2.28946">
        <ele>15</ele>
        <time>2021-04-25T09:46:32.000Z</time>
      </trkpt>
      <trkpt lat="47.28199" lon="-2.28884">
        <ele>15</ele>
        <time>2021-04-25T09:46:39.000Z</time>
      </trkpt>
      <trkpt lat="47.28199" lon="-2.28876">
        <ele>15</ele>
        <time>2021-04-25T09:46:40.000Z</time>
      </trkpt>
      <trkpt lat="47.28195" lon="-2.28862">
        <ele>15</ele>
        <time>2021-04-25T09:46:42.000Z</time>
      </trkpt>
      <trkpt lat="47.28191" lon="-2.28857">
        <ele>14.39999961853</ele>
        <time>2021-04-25T09:46:43.000Z</time>
      </trkpt>
      <trkpt lat="47.28187" lon="-2.28852">
        <ele>14</ele>
        <time>2021-04-25T09:46:44.000Z</time>
      </trkpt>
      <trkpt lat="47.28183" lon="-2.28847">
        <ele>13.60000038147</ele>
        <time>2021-04-25T09:46:45.000Z</time>
      </trkpt>
      <trkpt lat="47.28178" lon="-2.28842">
        <ele>12.60000038147</ele>
        <time>2021-04-25T09:46:46.000Z</time>
      </trkpt>
      <trkpt lat="47.2814" lon="-2.28814">
        <ele>12.199999809265</ele>
        <time>2021-04-25T09:46:53.000Z</time>
      </trkpt>
      <trkpt lat="47.28134" lon="-2.28809">
        <ele>11.800000190735</ele>
        <time>2021-04-25T09:46:54.000Z</time>
      </trkpt>
      <trkpt lat="47.28128" lon="-2.28805">
        <ele>11.199999809265</ele>
        <time>2021-04-25T09:46:55.000Z</time>
      </trkpt>
      <trkpt lat="47.28121" lon="-2.288">
        <ele>10.800000190735</ele>
        <time>2021-04-25T09:46:56.000Z</time>
      </trkpt>
      <trkpt lat="47.28114" lon="-2.28795">
        <ele>10.39999961853</ele>
        <time>2021-04-25T09:46:57.000Z</time>
      </trkpt>
      <trkpt lat="47.28107" lon="-2.28791">
        <ele>10.39999961853</ele>
        <time>2021-04-25T09:46:58.000Z</time>
      </trkpt>
      <trkpt lat="47.28054" lon="-2.28763">
        <ele>10.39999961853</ele>
        <time>2021-04-25T09:47:05.000Z</time>
      </trkpt>
      <trkpt lat="47.28006" lon="-2.2875">
        <ele>9.6000003814697</ele>
        <time>2021-04-25T09:47:11.000Z</time>
      </trkpt>
      <trkpt lat="47.27998" lon="-2.28749">
        <ele>9.1999998092651</ele>
        <time>2021-04-25T09:47:12.000Z</time>
      </trkpt>
      <trkpt lat="47.27991" lon="-2.28748">
        <ele>8.8000001907349</ele>
        <time>2021-04-25T09:47:13.000Z</time>
      </trkpt>
      <trkpt lat="47.27984" lon="-2.28747">
        <ele>8.3999996185303</ele>
        <time>2021-04-25T09:47:14.000Z</time>
      </trkpt>
      <trkpt lat="47.27964" lon="-2.28746">
        <ele>8.3999996185303</ele>
        <time>2021-04-25T09:47:17.000Z</time>
      </trkpt>
      <trkpt lat="47.27939" lon="-2.28752">
        <ele>8.3999996185303</ele>
        <time>2021-04-25T09:47:22.000Z</time>
      </trkpt>
      <trkpt lat="47.27937" lon="-2.28754">
        <ele>8</ele>
        <time>2021-04-25T09:47:23.000Z</time>
      </trkpt>
      <trkpt lat="47.27934" lon="-2.28755">
        <ele>7.5999999046326</ele>
        <time>2021-04-25T09:47:24.000Z</time>
      </trkpt>
      <trkpt lat="47.27932" lon="-2.28756">
        <ele>7.1999998092651</ele>
        <time>2021-04-25T09:47:25.000Z</time>
      </trkpt>
      <trkpt lat="47.27929" lon="-2.28757">
        <ele>6.8000001907349</ele>
        <time>2021-04-25T09:47:26.000Z</time>
      </trkpt>
      <trkpt lat="47.27926" lon="-2.28758">
        <ele>6.4000000953674</ele>
        <time>2021-04-25T09:47:27.000Z</time>
      </trkpt>
      <trkpt lat="47.27903" lon="-2.28766">
        <ele>6.4000000953674</ele>
        <time>2021-04-25T09:47:33.000Z</time>
      </trkpt>
      <trkpt lat="47.27899" lon="-2.28767">
        <ele>6.4000000953674</ele>
        <time>2021-04-25T09:47:34.000Z</time>
      </trkpt>
      <trkpt lat="47.27883" lon="-2.28774">
        <ele>6.4000000953674</ele>
        <time>2021-04-25T09:47:39.000Z</time>
      </trkpt>
      <trkpt lat="47.27883" lon="-2.28774">
        <ele>6.4000000953674</ele>
        <time>2021-04-25T09:47:40.000Z</time>
      </trkpt>
      <trkpt lat="47.27882" lon="-2.28774">
        <ele>6.4000000953674</ele>
        <time>2021-04-25T09:47:44.000Z</time>
      </trkpt>
      <trkpt lat="47.27881" lon="-2.28776">
        <ele>6.4000000953674</ele>
        <time>2021-04-25T09:47:45.000Z</time>
      </trkpt>
      <trkpt lat="47.27873" lon="-2.28789">
        <ele>6.4000000953674</ele>
        <time>2021-04-25T09:47:49.000Z</time>
      </trkpt>
      <trkpt lat="47.27872" lon="-2.28795">
        <ele>6.4000000953674</ele>
        <time>2021-04-25T09:47:50.000Z</time>
      </trkpt>
      <trkpt lat="47.27866" lon="-2.28816">
        <ele>6.4000000953674</ele>
        <time>2021-04-25T09:47:52.000Z</time>
      </trkpt>
      <trkpt lat="47.27866" lon="-2.28816">
        <ele>6.4000000953674</ele>
        <time>2021-04-25T09:47:55.000Z</time>
      </trkpt>
      <trkpt lat="47.2786" lon="-2.28818">
        <ele>6.4000000953674</ele>
        <time>2021-04-25T09:47:57.000Z</time>
      </trkpt>
      <trkpt lat="47.27856" lon="-2.28816">
        <ele>6.4000000953674</ele>
        <time>2021-04-25T09:47:58.000Z</time>
      </trkpt>
      <trkpt lat="47.2784" lon="-2.28807">
        <ele>6.4000000953674</ele>
        <time>2021-04-25T09:48:01.000Z</time>
      </trkpt>
      <trkpt lat="47.27834" lon="-2.28804">
        <ele>6.4000000953674</ele>
        <time>2021-04-25T09:48:02.000Z</time>
      </trkpt>
      <trkpt lat="47.27828" lon="-2.28802">
        <ele>6.4000000953674</ele>
        <time>2021-04-25T09:48:03.000Z</time>
      </trkpt>
      <trkpt lat="47.27804" lon="-2.28801">
        <ele>6.4000000953674</ele>
        <time>2021-04-25T09:48:07.000Z</time>
      </trkpt>
      <trkpt lat="47.27798" lon="-2.28801">
        <ele>6.4000000953674</ele>
        <time>2021-04-25T09:48:08.000Z</time>
      </trkpt>
      <trkpt lat="47.27761" lon="-2.28805">
        <ele>6.4000000953674</ele>
        <time>2021-04-25T09:48:14.000Z</time>
      </trkpt>
      <trkpt lat="47.27748" lon="-2.28809">
        <ele>6.8000001907349</ele>
        <time>2021-04-25T09:48:16.000Z</time>
      </trkpt>
      <trkpt lat="47.27742" lon="-2.28812">
        <ele>7.1999998092651</ele>
        <time>2021-04-25T09:48:17.000Z</time>
      </trkpt>
      <trkpt lat="47.27735" lon="-2.28815">
        <ele>7.5999999046326</ele>
        <time>2021-04-25T09:48:18.000Z</time>
      </trkpt>
      <trkpt lat="47.27728" lon="-2.28817">
        <ele>8</ele>
        <time>2021-04-25T09:48:19.000Z</time>
      </trkpt>
      <trkpt lat="47.27721" lon="-2.2882">
        <ele>8.3999996185303</ele>
        <time>2021-04-25T09:48:20.000Z</time>
      </trkpt>
      <trkpt lat="47.2769" lon="-2.28833">
        <ele>8.3999996185303</ele>
        <time>2021-04-25T09:48:25.000Z</time>
      </trkpt>
      <trkpt lat="47.27648" lon="-2.28847">
        <ele>8.3999996185303</ele>
        <time>2021-04-25T09:48:32.000Z</time>
      </trkpt>
      <trkpt lat="47.276" lon="-2.28864">
        <ele>8.3999996185303</ele>
        <time>2021-04-25T09:48:39.000Z</time>
      </trkpt>
      <trkpt lat="47.2756" lon="-2.28888">
        <ele>8.3999996185303</ele>
        <time>2021-04-25T09:48:46.000Z</time>
      </trkpt>
      <trkpt lat="47.27517" lon="-2.28915">
        <ele>8.3999996185303</ele>
        <time>2021-04-25T09:48:54.000Z</time>
      </trkpt>
      <trkpt lat="47.27481" lon="-2.28946">
        <ele>8.3999996185303</ele>
        <time>2021-04-25T09:49:01.000Z</time>
      </trkpt>
      <trkpt lat="47.27463" lon="-2.2897">
        <ele>8.3999996185303</ele>
        <time>2021-04-25T09:49:05.000Z</time>
      </trkpt>
      <trkpt lat="47.2746" lon="-2.28977">
        <ele>8.3999996185303</ele>
        <time>2021-04-25T09:49:06.000Z</time>
      </trkpt>
      <trkpt lat="47.27448" lon="-2.29007">
        <ele>8.3999996185303</ele>
        <time>2021-04-25T09:49:10.000Z</time>
      </trkpt>
      <trkpt lat="47.27444" lon="-2.29014">
        <ele>8.3999996185303</ele>
        <time>2021-04-25T09:49:11.000Z</time>
      </trkpt>
      <trkpt lat="47.27426" lon="-2.29033">
        <ele>8.3999996185303</ele>
        <time>2021-04-25T09:49:15.000Z</time>
      </trkpt>
      <trkpt lat="47.27415" lon="-2.29036">
        <ele>8.3999996185303</ele>
        <time>2021-04-25T09:49:17.000Z</time>
      </trkpt>
      <trkpt lat="47.27399" lon="-2.2904">
        <ele>8.3999996185303</ele>
        <time>2021-04-25T09:49:20.000Z</time>
      </trkpt>
      <trkpt lat="47.27359" lon="-2.29038">
        <ele>8.3999996185303</ele>
        <time>2021-04-25T09:49:27.000Z</time>
      </trkpt>
      <trkpt lat="47.27353" lon="-2.29036">
        <ele>8.3999996185303</ele>
        <time>2021-04-25T09:49:28.000Z</time>
      </trkpt>
      <trkpt lat="47.2734" lon="-2.29025">
        <ele>8.3999996185303</ele>
        <time>2021-04-25T09:49:31.000Z</time>
      </trkpt>
      <trkpt lat="47.27338" lon="-2.29009">
        <ele>8.3999996185303</ele>
        <time>2021-04-25T09:49:33.000Z</time>
      </trkpt>
      <trkpt lat="47.27339" lon="-2.28992">
        <ele>8.3999996185303</ele>
        <time>2021-04-25T09:49:35.000Z</time>
      </trkpt>
      <trkpt lat="47.27342" lon="-2.28968">
        <ele>8.3999996185303</ele>
        <time>2021-04-25T09:49:38.000Z</time>
      </trkpt>
      <trkpt lat="47.2734" lon="-2.28954">
        <ele>8.3999996185303</ele>
        <time>2021-04-25T09:49:40.000Z</time>
      </trkpt>
      <trkpt lat="47.27337" lon="-2.28948">
        <ele>8.3999996185303</ele>
        <time>2021-04-25T09:49:41.000Z</time>
      </trkpt>
      <trkpt lat="47.27326" lon="-2.2894">
        <ele>8.3999996185303</ele>
        <time>2021-04-25T09:49:44.000Z</time>
      </trkpt>
      <trkpt lat="47.27313" lon="-2.28947">
        <ele>8.3999996185303</ele>
        <time>2021-04-25T09:49:47.000Z</time>
      </trkpt>
      <trkpt lat="47.27312" lon="-2.28956">
        <ele>8.3999996185303</ele>
        <time>2021-04-25T09:49:49.000Z</time>
      </trkpt>
      <trkpt lat="47.27311" lon="-2.2896">
        <ele>8.3999996185303</ele>
        <time>2021-04-25T09:49:50.000Z</time>
      </trkpt>
      <trkpt lat="47.27301" lon="-2.28979">
        <ele>8.3999996185303</ele>
        <time>2021-04-25T09:49:54.000Z</time>
      </trkpt>
      <trkpt lat="47.27285" lon="-2.28999">
        <ele>8.3999996185303</ele>
        <time>2021-04-25T09:49:58.000Z</time>
      </trkpt>
      <trkpt lat="47.27281" lon="-2.29006">
        <ele>8.3999996185303</ele>
        <time>2021-04-25T09:49:59.000Z</time>
      </trkpt>
      <trkpt lat="47.27272" lon="-2.29027">
        <ele>8.3999996185303</ele>
        <time>2021-04-25T09:50:02.000Z</time>
      </trkpt>
      <trkpt lat="47.27269" lon="-2.29033">
        <ele>8.3999996185303</ele>
        <time>2021-04-25T09:50:03.000Z</time>
      </trkpt>
      <trkpt lat="47.27263" lon="-2.29043">
        <ele>8.8000001907349</ele>
        <time>2021-04-25T09:50:05.000Z</time>
      </trkpt>
      <trkpt lat="47.27259" lon="-2.29049">
        <ele>9.6000003814697</ele>
        <time>2021-04-25T09:50:06.000Z</time>
      </trkpt>
      <trkpt lat="47.27254" lon="-2.29055">
        <ele>10</ele>
        <time>2021-04-25T09:50:07.000Z</time>
      </trkpt>
      <trkpt lat="47.27249" lon="-2.29059">
        <ele>10.39999961853</ele>
        <time>2021-04-25T09:50:08.000Z</time>
      </trkpt>
      <trkpt lat="47.27243" lon="-2.29063">
        <ele>10.39999961853</ele>
        <time>2021-04-25T09:50:09.000Z</time>
      </trkpt>
      <trkpt lat="47.27216" lon="-2.29088">
        <ele>10.39999961853</ele>
        <time>2021-04-25T09:50:14.000Z</time>
      </trkpt>
      <trkpt lat="47.27199" lon="-2.29102">
        <ele>10.39999961853</ele>
        <time>2021-04-25T09:50:17.000Z</time>
      </trkpt>
      <trkpt lat="47.27188" lon="-2.2911">
        <ele>10.39999961853</ele>
        <time>2021-04-25T09:50:19.000Z</time>
      </trkpt>
      <trkpt lat="47.27172" lon="-2.29106">
        <ele>10.39999961853</ele>
        <time>2021-04-25T09:50:22.000Z</time>
      </trkpt>
      <trkpt lat="47.27163" lon="-2.29101">
        <ele>10.39999961853</ele>
        <time>2021-04-25T09:50:24.000Z</time>
      </trkpt>
      <trkpt lat="47.27159" lon="-2.29098">
        <ele>10.39999961853</ele>
        <time>2021-04-25T09:50:25.000Z</time>
      </trkpt>
      <trkpt lat="47.27151" lon="-2.29101">
        <ele>10.39999961853</ele>
        <time>2021-04-25T09:50:27.000Z</time>
      </trkpt>
      <trkpt lat="47.27145" lon="-2.29112">
        <ele>10.39999961853</ele>
        <time>2021-04-25T09:50:30.000Z</time>
      </trkpt>
      <trkpt lat="47.27144" lon="-2.29116">
        <ele>10.39999961853</ele>
        <time>2021-04-25T09:50:31.000Z</time>
      </trkpt>
      <trkpt lat="47.27133" lon="-2.29133">
        <ele>10.39999961853</ele>
        <time>2021-04-25T09:50:36.000Z</time>
      </trkpt>
      <trkpt lat="47.27125" lon="-2.29144">
        <ele>10.39999961853</ele>
        <time>2021-04-25T09:50:40.000Z</time>
      </trkpt>
      <trkpt lat="47.27123" lon="-2.29151">
        <ele>10.39999961853</ele>
        <time>2021-04-25T09:50:45.000Z</time>
      </trkpt>
      <trkpt lat="47.27122" lon="-2.29151">
        <ele>10.39999961853</ele>
        <time>2021-04-25T09:50:46.000Z</time>
      </trkpt>
      <trkpt lat="47.27125" lon="-2.29162">
        <ele>10.39999961853</ele>
        <time>2021-04-25T09:52:19.000Z</time>
      </trkpt>
      <trkpt lat="47.27129" lon="-2.29166">
        <ele>10.39999961853</ele>
        <time>2021-04-25T09:52:22.000Z</time>
      </trkpt>
      <trkpt lat="47.27131" lon="-2.29168">
        <ele>10.39999961853</ele>
        <time>2021-04-25T09:52:23.000Z</time>
      </trkpt>
      <trkpt lat="47.27133" lon="-2.29172">
        <ele>10.39999961853</ele>
        <time>2021-04-25T09:52:27.000Z</time>
      </trkpt>
      <trkpt lat="47.27136" lon="-2.29183">
        <ele>10.39999961853</ele>
        <time>2021-04-25T09:52:32.000Z</time>
      </trkpt>
      <trkpt lat="47.27137" lon="-2.29185">
        <ele>10.39999961853</ele>
        <time>2021-04-25T09:52:33.000Z</time>
      </trkpt>
      <trkpt lat="47.27139" lon="-2.29186">
        <ele>11.199999809265</ele>
        <time>2021-04-25T09:52:34.000Z</time>
      </trkpt>
      <trkpt lat="47.27142" lon="-2.29188">
        <ele>11.60000038147</ele>
        <time>2021-04-25T09:52:35.000Z</time>
      </trkpt>
      <trkpt lat="47.27148" lon="-2.29193">
        <ele>12.199999809265</ele>
        <time>2021-04-25T09:52:36.000Z</time>
      </trkpt>
      <trkpt lat="47.27153" lon="-2.29198">
        <ele>12.60000038147</ele>
        <time>2021-04-25T09:52:37.000Z</time>
      </trkpt>
      <trkpt lat="47.27163" lon="-2.29215">
        <ele>12.60000038147</ele>
        <time>2021-04-25T09:52:40.000Z</time>
      </trkpt>
      <trkpt lat="47.27169" lon="-2.29231">
        <ele>12.60000038147</ele>
        <time>2021-04-25T09:52:43.000Z</time>
      </trkpt>
      <trkpt lat="47.2717" lon="-2.29246">
        <ele>12.60000038147</ele>
        <time>2021-04-25T09:52:45.000Z</time>
      </trkpt>
      <trkpt lat="47.27163" lon="-2.29268">
        <ele>12.60000038147</ele>
        <time>2021-04-25T09:52:49.000Z</time>
      </trkpt>
      <trkpt lat="47.27159" lon="-2.29278">
        <ele>12.60000038147</ele>
        <time>2021-04-25T09:52:51.000Z</time>
      </trkpt>
      <trkpt lat="47.27151" lon="-2.29302">
        <ele>12.60000038147</ele>
        <time>2021-04-25T09:52:55.000Z</time>
      </trkpt>
      <trkpt lat="47.27151" lon="-2.29327">
        <ele>12.60000038147</ele>
        <time>2021-04-25T09:53:00.000Z</time>
      </trkpt>
      <trkpt lat="47.27162" lon="-2.29355">
        <ele>12.60000038147</ele>
        <time>2021-04-25T09:53:06.000Z</time>
      </trkpt>
      <trkpt lat="47.27165" lon="-2.29361">
        <ele>12.60000038147</ele>
        <time>2021-04-25T09:53:07.000Z</time>
      </trkpt>
      <trkpt lat="47.27185" lon="-2.29396">
        <ele>12.60000038147</ele>
        <time>2021-04-25T09:53:11.000Z</time>
      </trkpt>
      <trkpt lat="47.27217" lon="-2.29471">
        <ele>12.60000038147</ele>
        <time>2021-04-25T09:53:20.000Z</time>
      </trkpt>
      <trkpt lat="47.27234" lon="-2.29514">
        <ele>12.60000038147</ele>
        <time>2021-04-25T09:53:26.000Z</time>
      </trkpt>
      <trkpt lat="47.27247" lon="-2.29561">
        <ele>12.60000038147</ele>
        <time>2021-04-25T09:53:32.000Z</time>
      </trkpt>
      <trkpt lat="47.27258" lon="-2.29607">
        <ele>12.60000038147</ele>
        <time>2021-04-25T09:53:38.000Z</time>
      </trkpt>
      <trkpt lat="47.2726" lon="-2.29621">
        <ele>13</ele>
        <time>2021-04-25T09:53:40.000Z</time>
      </trkpt>
      <trkpt lat="47.27262" lon="-2.29628">
        <ele>13.39999961853</ele>
        <time>2021-04-25T09:53:41.000Z</time>
      </trkpt>
      <trkpt lat="47.27263" lon="-2.29634">
        <ele>13.800000190735</ele>
        <time>2021-04-25T09:53:42.000Z</time>
      </trkpt>
      <trkpt lat="47.27264" lon="-2.29639">
        <ele>14.199999809265</ele>
        <time>2021-04-25T09:53:43.000Z</time>
      </trkpt>
      <trkpt lat="47.27266" lon="-2.29644">
        <ele>14.60000038147</ele>
        <time>2021-04-25T09:53:44.000Z</time>
      </trkpt>
      <trkpt lat="47.27271" lon="-2.29666">
        <ele>14.60000038147</ele>
        <time>2021-04-25T09:53:48.000Z</time>
      </trkpt>
      <trkpt lat="47.27273" lon="-2.29671">
        <ele>14.60000038147</ele>
        <time>2021-04-25T09:53:49.000Z</time>
      </trkpt>
      <trkpt lat="47.27278" lon="-2.29703">
        <ele>14.60000038147</ele>
        <time>2021-04-25T09:53:54.000Z</time>
      </trkpt>
      <trkpt lat="47.27287" lon="-2.29721">
        <ele>14.60000038147</ele>
        <time>2021-04-25T09:53:58.000Z</time>
      </trkpt>
      <trkpt lat="47.2729" lon="-2.29721">
        <ele>14.60000038147</ele>
        <time>2021-04-25T09:53:59.000Z</time>
      </trkpt>
      <trkpt lat="47.273" lon="-2.29719">
        <ele>14.60000038147</ele>
        <time>2021-04-25T09:54:02.000Z</time>
      </trkpt>
      <trkpt lat="47.27312" lon="-2.29717">
        <ele>14.60000038147</ele>
        <time>2021-04-25T09:54:05.000Z</time>
      </trkpt>
      <trkpt lat="47.27329" lon="-2.2971">
        <ele>14.60000038147</ele>
        <time>2021-04-25T09:54:10.000Z</time>
      </trkpt>
      <trkpt lat="47.27345" lon="-2.29706">
        <ele>14.60000038147</ele>
        <time>2021-04-25T09:54:16.000Z</time>
      </trkpt>
      <trkpt lat="47.27347" lon="-2.29707">
        <ele>14.60000038147</ele>
        <time>2021-04-25T09:54:18.000Z</time>
      </trkpt>
      <trkpt lat="47.27338" lon="-2.29709">
        <ele>10.39999961853</ele>
        <time>2021-04-25T10:53:49.000Z</time>
      </trkpt>
      <trkpt lat="47.27333" lon="-2.2971">
        <ele>10.39999961853</ele>
        <time>2021-04-25T10:53:53.000Z</time>
      </trkpt>
      <trkpt lat="47.27331" lon="-2.29712">
        <ele>10.39999961853</ele>
        <time>2021-04-25T10:53:54.000Z</time>
      </trkpt>
      <trkpt lat="47.2732" lon="-2.29719">
        <ele>10.39999961853</ele>
        <time>2021-04-25T10:53:58.000Z</time>
      </trkpt>
      <trkpt lat="47.27303" lon="-2.29722">
        <ele>10.39999961853</ele>
        <time>2021-04-25T10:54:04.000Z</time>
      </trkpt>
      <trkpt lat="47.27284" lon="-2.2973">
        <ele>10.39999961853</ele>
        <time>2021-04-25T10:54:11.000Z</time>
      </trkpt>
      <trkpt lat="47.27283" lon="-2.29734">
        <ele>10.39999961853</ele>
        <time>2021-04-25T10:54:12.000Z</time>
      </trkpt>
      <trkpt lat="47.27284" lon="-2.29744">
        <ele>10.39999961853</ele>
        <time>2021-04-25T10:54:15.000Z</time>
      </trkpt>
      <trkpt lat="47.27291" lon="-2.29767">
        <ele>10.39999961853</ele>
        <time>2021-04-25T10:54:19.000Z</time>
      </trkpt>
      <trkpt lat="47.27307" lon="-2.29804">
        <ele>10.39999961853</ele>
        <time>2021-04-25T10:54:26.000Z</time>
      </trkpt>
      <trkpt lat="47.2732" lon="-2.29823">
        <ele>10.39999961853</ele>
        <time>2021-04-25T10:54:31.000Z</time>
      </trkpt>
      <trkpt lat="47.27338" lon="-2.29851">
        <ele>10.39999961853</ele>
        <time>2021-04-25T10:54:37.000Z</time>
      </trkpt>
      <trkpt lat="47.27355" lon="-2.29886">
        <ele>10.39999961853</ele>
        <time>2021-04-25T10:54:43.000Z</time>
      </trkpt>
      <trkpt lat="47.27378" lon="-2.29936">
        <ele>10.39999961853</ele>
        <time>2021-04-25T10:54:52.000Z</time>
      </trkpt>
      <trkpt lat="47.27394" lon="-2.29977">
        <ele>10.39999961853</ele>
        <time>2021-04-25T10:54:59.000Z</time>
      </trkpt>
      <trkpt lat="47.27408" lon="-2.30009">
        <ele>10.39999961853</ele>
        <time>2021-04-25T10:55:05.000Z</time>
      </trkpt>
      <trkpt lat="47.27425" lon="-2.30054">
        <ele>10.39999961853</ele>
        <time>2021-04-25T10:55:12.000Z</time>
      </trkpt>
      <trkpt lat="47.27438" lon="-2.30098">
        <ele>10</ele>
        <time>2021-04-25T10:55:18.000Z</time>
      </trkpt>
      <trkpt lat="47.2744" lon="-2.30106">
        <ele>9.6000003814697</ele>
        <time>2021-04-25T10:55:19.000Z</time>
      </trkpt>
      <trkpt lat="47.27442" lon="-2.30113">
        <ele>9.1999998092651</ele>
        <time>2021-04-25T10:55:20.000Z</time>
      </trkpt>
      <trkpt lat="47.27443" lon="-2.30121">
        <ele>8.8000001907349</ele>
        <time>2021-04-25T10:55:21.000Z</time>
      </trkpt>
      <trkpt lat="47.27445" lon="-2.3013">
        <ele>8.3999996185303</ele>
        <time>2021-04-25T10:55:22.000Z</time>
      </trkpt>
      <trkpt lat="47.27446" lon="-2.30137">
        <ele>8.3999996185303</ele>
        <time>2021-04-25T10:55:23.000Z</time>
      </trkpt>
      <trkpt lat="47.27453" lon="-2.30181">
        <ele>8.3999996185303</ele>
        <time>2021-04-25T10:55:29.000Z</time>
      </trkpt>
      <trkpt lat="47.27455" lon="-2.30196">
        <ele>8</ele>
        <time>2021-04-25T10:55:31.000Z</time>
      </trkpt>
      <trkpt lat="47.27457" lon="-2.30204">
        <ele>7.4000000953674</ele>
        <time>2021-04-25T10:55:32.000Z</time>
      </trkpt>
      <trkpt lat="47.27458" lon="-2.30213">
        <ele>7</ele>
        <time>2021-04-25T10:55:33.000Z</time>
      </trkpt>
      <trkpt lat="47.2746" lon="-2.30221">
        <ele>6.5999999046326</ele>
        <time>2021-04-25T10:55:34.000Z</time>
      </trkpt>
      <trkpt lat="47.27462" lon="-2.3023">
        <ele>6.1999998092651</ele>
        <time>2021-04-25T10:55:35.000Z</time>
      </trkpt>
      <trkpt lat="47.27463" lon="-2.30238">
        <ele>6.1999998092651</ele>
        <time>2021-04-25T10:55:36.000Z</time>
      </trkpt>
      <trkpt lat="47.27471" lon="-2.3029">
        <ele>5.8000001907349</ele>
        <time>2021-04-25T10:55:41.000Z</time>
      </trkpt>
      <trkpt lat="47.27475" lon="-2.30302">
        <ele>5.4000000953674</ele>
        <time>2021-04-25T10:55:42.000Z</time>
      </trkpt>
      <trkpt lat="47.27477" lon="-2.30313">
        <ele>5</ele>
        <time>2021-04-25T10:55:43.000Z</time>
      </trkpt>
      <trkpt lat="47.2748" lon="-2.30324">
        <ele>4.5999999046326</ele>
        <time>2021-04-25T10:55:44.000Z</time>
      </trkpt>
      <trkpt lat="47.27483" lon="-2.30336">
        <ele>4.1999998092651</ele>
        <time>2021-04-25T10:55:45.000Z</time>
      </trkpt>
      <trkpt lat="47.27491" lon="-2.30371">
        <ele>4.1999998092651</ele>
        <time>2021-04-25T10:55:48.000Z</time>
      </trkpt>
      <trkpt lat="47.27493" lon="-2.30382">
        <ele>3.5999999046326</ele>
        <time>2021-04-25T10:55:49.000Z</time>
      </trkpt>
      <trkpt lat="47.27496" lon="-2.30393">
        <ele>3.2000000476837</ele>
        <time>2021-04-25T10:55:50.000Z</time>
      </trkpt>
      <trkpt lat="47.27498" lon="-2.30405">
        <ele>2.7999999523163</ele>
        <time>2021-04-25T10:55:51.000Z</time>
      </trkpt>
      <trkpt lat="47.275" lon="-2.30416">
        <ele>2.2000000476837</ele>
        <time>2021-04-25T10:55:52.000Z</time>
      </trkpt>
      <trkpt lat="47.27501" lon="-2.30427">
        <ele>1.7999999523163</ele>
        <time>2021-04-25T10:55:53.000Z</time>
      </trkpt>
      <trkpt lat="47.27506" lon="-2.30448">
        <ele>1.7999999523163</ele>
        <time>2021-04-25T10:55:55.000Z</time>
      </trkpt>
      <trkpt lat="47.27519" lon="-2.305">
        <ele>1.3999999761581</ele>
        <time>2021-04-25T10:56:00.000Z</time>
      </trkpt>
      <trkpt lat="47.27521" lon="-2.3051">
        <ele>0.60000002384186</ele>
        <time>2021-04-25T10:56:01.000Z</time>
      </trkpt>
      <trkpt lat="47.27523" lon="-2.30521">
        <ele>18</ele>
        <time>2021-04-25T10:56:02.000Z</time>
      </trkpt>
      <trkpt lat="47.27526" lon="-2.30531">
        <ele>-0.40000000596046</ele>
        <time>2021-04-25T10:56:03.000Z</time>
      </trkpt>
      <trkpt lat="47.2753" lon="-2.30551">
        <ele>-0.40000000596046</ele>
        <time>2021-04-25T10:56:05.000Z</time>
      </trkpt>
      <trkpt lat="47.27537" lon="-2.30576">
        <ele>-0.40000000596046</ele>
        <time>2021-04-25T10:56:08.000Z</time>
      </trkpt>
      <trkpt lat="47.27541" lon="-2.3059">
        <ele>-0.80000001192093</ele>
        <time>2021-04-25T10:56:11.000Z</time>
      </trkpt>
      <trkpt lat="47.27542" lon="-2.30593">
        <ele>-1.2000000476837</ele>
        <time>2021-04-25T10:56:12.000Z</time>
      </trkpt>
      <trkpt lat="47.27542" lon="-2.30595">
        <ele>-1.6000000238419</ele>
        <time>2021-04-25T10:56:13.000Z</time>
      </trkpt>
      <trkpt lat="47.27542" lon="-2.30598">
        <ele>-2</ele>
        <time>2021-04-25T10:56:14.000Z</time>
      </trkpt>
      <trkpt lat="47.27541" lon="-2.30601">
        <ele>-2.4000000953674</ele>
        <time>2021-04-25T10:56:15.000Z</time>
      </trkpt>
      <trkpt lat="47.27538" lon="-2.30608">
        <ele>-2.4000000953674</ele>
        <time>2021-04-25T10:56:17.000Z</time>
      </trkpt>
      <trkpt lat="47.27532" lon="-2.30614">
        <ele>-2.4000000953674</ele>
        <time>2021-04-25T10:56:19.000Z</time>
      </trkpt>
      <trkpt lat="47.27523" lon="-2.30622">
        <ele>-2.4000000953674</ele>
        <time>2021-04-25T10:56:21.000Z</time>
      </trkpt>
      <trkpt lat="47.27496" lon="-2.30648">
        <ele>-2.4000000953674</ele>
        <time>2021-04-25T10:56:26.000Z</time>
      </trkpt>
      <trkpt lat="47.27455" lon="-2.30683">
        <ele>-2.4000000953674</ele>
        <time>2021-04-25T10:56:33.000Z</time>
      </trkpt>
      <trkpt lat="47.2742" lon="-2.307">
        <ele>-2.4000000953674</ele>
        <time>2021-04-25T10:56:38.000Z</time>
      </trkpt>
      <trkpt lat="47.27379" lon="-2.30714">
        <ele>-2.4000000953674</ele>
        <time>2021-04-25T10:56:44.000Z</time>
      </trkpt>
      <trkpt lat="47.27332" lon="-2.30728">
        <ele>-2.4000000953674</ele>
        <time>2021-04-25T10:56:51.000Z</time>
      </trkpt>
      <trkpt lat="47.27294" lon="-2.30747">
        <ele>-2.4000000953674</ele>
        <time>2021-04-25T10:56:57.000Z</time>
      </trkpt>
      <trkpt lat="47.27247" lon="-2.30774">
        <ele>-2.4000000953674</ele>
        <time>2021-04-25T10:57:04.000Z</time>
      </trkpt>
      <trkpt lat="47.27199" lon="-2.30812">
        <ele>-2.4000000953674</ele>
        <time>2021-04-25T10:57:12.000Z</time>
      </trkpt>
      <trkpt lat="47.27154" lon="-2.30846">
        <ele>-2.4000000953674</ele>
        <time>2021-04-25T10:57:20.000Z</time>
      </trkpt>
      <trkpt lat="47.27108" lon="-2.30874">
        <ele>-2.4000000953674</ele>
        <time>2021-04-25T10:57:29.000Z</time>
      </trkpt>
      <trkpt lat="47.27093" lon="-2.30883">
        <ele>-2</ele>
        <time>2021-04-25T10:57:32.000Z</time>
      </trkpt>
      <trkpt lat="47.27088" lon="-2.30886">
        <ele>-1.6000000238419</ele>
        <time>2021-04-25T10:57:33.000Z</time>
      </trkpt>
      <trkpt lat="47.27083" lon="-2.3089">
        <ele>-1.2000000476837</ele>
        <time>2021-04-25T10:57:34.000Z</time>
      </trkpt>
      <trkpt lat="47.27078" lon="-2.30893">
        <ele>-0.80000001192093</ele>
        <time>2021-04-25T10:57:35.000Z</time>
      </trkpt>
      <trkpt lat="47.27072" lon="-2.30896">
        <ele>-0.40000000596046</ele>
        <time>2021-04-25T10:57:36.000Z</time>
      </trkpt>
      <trkpt lat="47.2706" lon="-2.30902">
        <ele>-0.40000000596046</ele>
        <time>2021-04-25T10:57:38.000Z</time>
      </trkpt>
      <trkpt lat="47.27038" lon="-2.30912">
        <ele>21.7</ele>
        <time>2021-04-25T10:57:42.000Z</time>
      </trkpt>
      <trkpt lat="47.27034" lon="-2.30916">
        <ele>0.40000000596046</ele>
        <time>2021-04-25T10:57:43.000Z</time>
      </trkpt>
      <trkpt lat="47.2703" lon="-2.3092">
        <ele>0.80000001192093</ele>
        <time>2021-04-25T10:57:44.000Z</time>
      </trkpt>
      <trkpt lat="47.27025" lon="-2.30924">
        <ele>1.2000000476837</ele>
        <time>2021-04-25T10:57:45.000Z</time>
      </trkpt>
      <trkpt lat="47.2702" lon="-2.30928">
        <ele>1.6000000238419</ele>
        <time>2021-04-25T10:57:46.000Z</time>
      </trkpt>
      <trkpt lat="47.27015" lon="-2.30932">
        <ele>1.6000000238419</ele>
        <time>2021-04-25T10:57:47.000Z</time>
      </trkpt>
      <trkpt lat="47.26994" lon="-2.30952">
        <ele>1.6000000238419</ele>
        <time>2021-04-25T10:57:52.000Z</time>
      </trkpt>
      <trkpt lat="47.26985" lon="-2.30962">
        <ele>1.6000000238419</ele>
        <time>2021-04-25T10:57:54.000Z</time>
      </trkpt>
      <trkpt lat="47.26981" lon="-2.30967">
        <ele>2</ele>
        <time>2021-04-25T10:57:55.000Z</time>
      </trkpt>
      <trkpt lat="47.26977" lon="-2.30972">
        <ele>2.4000000953674</ele>
        <time>2021-04-25T10:57:56.000Z</time>
      </trkpt>
      <trkpt lat="47.26973" lon="-2.30977">
        <ele>2.7999999523163</ele>
        <time>2021-04-25T10:57:57.000Z</time>
      </trkpt>
      <trkpt lat="47.26969" lon="-2.30982">
        <ele>3.4000000953674</ele>
        <time>2021-04-25T10:57:58.000Z</time>
      </trkpt>
      <trkpt lat="47.26965" lon="-2.30987">
        <ele>3.7999999523163</ele>
        <time>2021-04-25T10:57:59.000Z</time>
      </trkpt>
      <trkpt lat="47.26957" lon="-2.30997">
        <ele>3.7999999523163</ele>
        <time>2021-04-25T10:58:01.000Z</time>
      </trkpt>
      <trkpt lat="47.2693" lon="-2.31027">
        <ele>4.1999998092651</ele>
        <time>2021-04-25T10:58:08.000Z</time>
      </trkpt>
      <trkpt lat="47.26926" lon="-2.31032">
        <ele>4.5999999046326</ele>
        <time>2021-04-25T10:58:09.000Z</time>
      </trkpt>
      <trkpt lat="47.26921" lon="-2.31037">
        <ele>5</ele>
        <time>2021-04-25T10:58:10.000Z</time>
      </trkpt>
      <trkpt lat="47.26916" lon="-2.31042">
        <ele>5.4000000953674</ele>
        <time>2021-04-25T10:58:11.000Z</time>
      </trkpt>
      <trkpt lat="47.26911" lon="-2.31046">
        <ele>5.8000001907349</ele>
        <time>2021-04-25T10:58:12.000Z</time>
      </trkpt>
      <trkpt lat="47.26896" lon="-2.31057">
        <ele>5.8000001907349</ele>
        <time>2021-04-25T10:58:15.000Z</time>
      </trkpt>
      <trkpt lat="47.26864" lon="-2.31086">
        <ele>6.4000000953674</ele>
        <time>2021-04-25T10:58:23.000Z</time>
      </trkpt>
      <trkpt lat="47.26859" lon="-2.31089">
        <ele>6.8000001907349</ele>
        <time>2021-04-25T10:58:24.000Z</time>
      </trkpt>
      <trkpt lat="47.26855" lon="-2.31092">
        <ele>7.1999998092651</ele>
        <time>2021-04-25T10:58:25.000Z</time>
      </trkpt>
      <trkpt lat="47.26851" lon="-2.31095">
        <ele>7.5999999046326</ele>
        <time>2021-04-25T10:58:26.000Z</time>
      </trkpt>
      <trkpt lat="47.26846" lon="-2.31097">
        <ele>8</ele>
        <time>2021-04-25T10:58:27.000Z</time>
      </trkpt>
      <trkpt lat="47.26827" lon="-2.31106">
        <ele>8</ele>
        <time>2021-04-25T10:58:31.000Z</time>
      </trkpt>
      <trkpt lat="47.26789" lon="-2.31121">
        <ele>8</ele>
        <time>2021-04-25T10:58:39.000Z</time>
      </trkpt>
      <trkpt lat="47.26754" lon="-2.31136">
        <ele>8</ele>
        <time>2021-04-25T10:58:46.000Z</time>
      </trkpt>
      <trkpt lat="47.26711" lon="-2.31164">
        <ele>8</ele>
        <time>2021-04-25T10:58:55.000Z</time>
      </trkpt>
      <trkpt lat="47.26684" lon="-2.3118">
        <ele>8</ele>
        <time>2021-04-25T10:59:00.000Z</time>
      </trkpt>
      <trkpt lat="47.26644" lon="-2.31203">
        <ele>8</ele>
        <time>2021-04-25T10:59:06.000Z</time>
      </trkpt>
      <trkpt lat="47.26599" lon="-2.31228">
        <ele>8</ele>
        <time>2021-04-25T10:59:12.000Z</time>
      </trkpt>
      <trkpt lat="47.26591" lon="-2.31231">
        <ele>7.5999999046326</ele>
        <time>2021-04-25T10:59:13.000Z</time>
      </trkpt>
      <trkpt lat="47.26582" lon="-2.31234">
        <ele>7.1999998092651</ele>
        <time>2021-04-25T10:59:14.000Z</time>
      </trkpt>
      <trkpt lat="47.26574" lon="-2.31237">
        <ele>6.8000001907349</ele>
        <time>2021-04-25T10:59:15.000Z</time>
      </trkpt>
      <trkpt lat="47.26565" lon="-2.3124">
        <ele>6.1999998092651</ele>
        <time>2021-04-25T10:59:16.000Z</time>
      </trkpt>
      <trkpt lat="47.26555" lon="-2.31243">
        <ele>5.5999999046326</ele>
        <time>2021-04-25T10:59:17.000Z</time>
      </trkpt>
      <trkpt lat="47.26545" lon="-2.31246">
        <ele>5</ele>
        <time>2021-04-25T10:59:18.000Z</time>
      </trkpt>
      <trkpt lat="47.26534" lon="-2.31249">
        <ele>4.4000000953674</ele>
        <time>2021-04-25T10:59:19.000Z</time>
      </trkpt>
      <trkpt lat="47.26523" lon="-2.31253">
        <ele>3.5999999046326</ele>
        <time>2021-04-25T10:59:20.000Z</time>
      </trkpt>
      <trkpt lat="47.26501" lon="-2.3126">
        <ele>3.2000000476837</ele>
        <time>2021-04-25T10:59:22.000Z</time>
      </trkpt>
      <trkpt lat="47.2649" lon="-2.31264">
        <ele>2.7999999523163</ele>
        <time>2021-04-25T10:59:23.000Z</time>
      </trkpt>
      <trkpt lat="47.26479" lon="-2.31269">
        <ele>2.4000000953674</ele>
        <time>2021-04-25T10:59:24.000Z</time>
      </trkpt>
      <trkpt lat="47.26468" lon="-2.31274">
        <ele>2</ele>
        <time>2021-04-25T10:59:25.000Z</time>
      </trkpt>
      <trkpt lat="47.26458" lon="-2.31281">
        <ele>1.6000000238419</ele>
        <time>2021-04-25T10:59:26.000Z</time>
      </trkpt>
      <trkpt lat="47.26448" lon="-2.31288">
        <ele>1.2000000476837</ele>
        <time>2021-04-25T10:59:27.000Z</time>
      </trkpt>
      <trkpt lat="47.26438" lon="-2.31295">
        <ele>0.80000001192093</ele>
        <time>2021-04-25T10:59:28.000Z</time>
      </trkpt>
      <trkpt lat="47.26429" lon="-2.31302">
        <ele>0.40000000596046</ele>
        <time>2021-04-25T10:59:29.000Z</time>
      </trkpt>
      <trkpt lat="47.26419" lon="-2.31309">
        <ele>-0.40000000596046</ele>
        <time>2021-04-25T10:59:30.000Z</time>
      </trkpt>
      <trkpt lat="47.2641" lon="-2.31315">
        <ele>-1</ele>
        <time>2021-04-25T10:59:31.000Z</time>
      </trkpt>
      <trkpt lat="47.26401" lon="-2.31322">
        <ele>-1.6000000238419</ele>
        <time>2021-04-25T10:59:32.000Z</time>
      </trkpt>
      <trkpt lat="47.26392" lon="-2.3133">
        <ele>-2.4000000953674</ele>
        <time>2021-04-25T10:59:33.000Z</time>
      </trkpt>
      <trkpt lat="47.26384" lon="-2.31336">
        <ele>-3</ele>
        <time>2021-04-25T10:59:34.000Z</time>
      </trkpt>
      <trkpt lat="47.26376" lon="-2.31342">
        <ele>-3.5999999046326</ele>
        <time>2021-04-25T10:59:35.000Z</time>
      </trkpt>
      <trkpt lat="47.26369" lon="-2.31347">
        <ele>-4.1999998092651</ele>
        <time>2021-04-25T10:59:36.000Z</time>
      </trkpt>
      <trkpt lat="47.26363" lon="-2.31352">
        <ele>-4.8000001907349</ele>
        <time>2021-04-25T10:59:37.000Z</time>
      </trkpt>
      <trkpt lat="47.26358" lon="-2.31357">
        <ele>-5.5999999046326</ele>
        <time>2021-04-25T10:59:38.000Z</time>
      </trkpt>
      <trkpt lat="47.26354" lon="-2.31362">
        <ele>-6.1999998092651</ele>
        <time>2021-04-25T10:59:39.000Z</time>
      </trkpt>
      <trkpt lat="47.26351" lon="-2.31367">
        <ele>-6.8000001907349</ele>
        <time>2021-04-25T10:59:40.000Z</time>
      </trkpt>
      <trkpt lat="47.26349" lon="-2.31371">
        <ele>-7.4000000953674</ele>
        <time>2021-04-25T10:59:41.000Z</time>
      </trkpt>
      <trkpt lat="47.26348" lon="-2.31376">
        <ele>-8.1999998092651</ele>
        <time>2021-04-25T10:59:42.000Z</time>
      </trkpt>
      <trkpt lat="47.26346" lon="-2.31385">
        <ele>-8.1999998092651</ele>
        <time>2021-04-25T10:59:44.000Z</time>
      </trkpt>
      <trkpt lat="47.2635" lon="-2.31406">
        <ele>-8.1999998092651</ele>
        <time>2021-04-25T10:59:49.000Z</time>
      </trkpt>
      <trkpt lat="47.26369" lon="-2.31444">
        <ele>-8.1999998092651</ele>
        <time>2021-04-25T10:59:54.000Z</time>
      </trkpt>
      <trkpt lat="47.26386" lon="-2.31482">
        <ele>-8.1999998092651</ele>
        <time>2021-04-25T10:59:58.000Z</time>
      </trkpt>
      <trkpt lat="47.26393" lon="-2.31508">
        <ele>-8.1999998092651</ele>
        <time>2021-04-25T11:00:01.000Z</time>
      </trkpt>
      <trkpt lat="47.26397" lon="-2.31525">
        <ele>-8.1999998092651</ele>
        <time>2021-04-25T11:00:03.000Z</time>
      </trkpt>
      <trkpt lat="47.26401" lon="-2.31547">
        <ele>-8.1999998092651</ele>
        <time>2021-04-25T11:00:06.000Z</time>
      </trkpt>
      <trkpt lat="47.26408" lon="-2.31553">
        <ele>-8.6000003814697</ele>
        <time>2021-04-25T11:00:08.000Z</time>
      </trkpt>
      <trkpt lat="47.26411" lon="-2.31553">
        <ele>-9.3999996185303</ele>
        <time>2021-04-25T11:00:09.000Z</time>
      </trkpt>
      <trkpt lat="47.26414" lon="-2.31553">
        <ele>-9.8000001907349</ele>
        <time>2021-04-25T11:00:10.000Z</time>
      </trkpt>
      <trkpt lat="47.26414" lon="-2.31553">
        <ele>-10.199999809265</ele>
        <time>2021-04-25T11:00:11.000Z</time>
      </trkpt>
      <trkpt lat="47.26416" lon="-2.31554">
        <ele>-10.199999809265</ele>
        <time>2021-04-25T11:00:14.000Z</time>
      </trkpt>
    </trkseg>
  </trk>
</gpx>